<?xml version="1.0" encoding="UTF-8" standalone="no" ?>
<gpx xmlns="http://www.topografix.com/GPX/1/1" xmlns:xsi="http://www.w3.org/2001/XMLSchema-instance" xsi:schemaLocation="http://www.topografix.com/GPX/1/1 http://www.topografix.com/GPX/1/1/gpx.xsd" version="1.1" creator="VisuGPX - https://www.visugpx.com">
  <metadata>
    <name>Sortie VTT Bonnes-Chauvigny</name>
  </metadata>
  <trk>
    <name><![CDATA[Sortie VTT Bonnes-Chauvigny_1]]></name>
    <trkseg>
      <trkpt lat="46.60498" lon="0.59756">
        <ele>68.6</ele>
        <time>2024-02-11T07:44:06Z</time>
      </trkpt>
      <trkpt lat="46.60502" lon="0.59752">
        <ele>68.6</ele>
        <time>2024-02-11T07:44:20Z</time>
      </trkpt>
      <trkpt lat="46.60512" lon="0.59744">
        <ele>68.6</ele>
        <time>2024-02-11T07:44:26Z</time>
      </trkpt>
      <trkpt lat="46.60524" lon="0.59729">
        <ele>69.2</ele>
        <time>2024-02-11T07:44:33Z</time>
      </trkpt>
      <trkpt lat="46.60533" lon="0.59719">
        <ele>69.6</ele>
        <time>2024-02-11T07:44:37Z</time>
      </trkpt>
      <trkpt lat="46.60543" lon="0.59712">
        <ele>70.2</ele>
        <time>2024-02-11T07:44:41Z</time>
      </trkpt>
      <trkpt lat="46.60552" lon="0.59715">
        <ele>70.8</ele>
        <time>2024-02-11T07:44:44Z</time>
      </trkpt>
      <trkpt lat="46.60554" lon="0.59718">
        <ele>71</ele>
        <time>2024-02-11T07:44:45Z</time>
      </trkpt>
      <trkpt lat="46.60559" lon="0.59734">
        <ele>71.8</ele>
        <time>2024-02-11T07:44:49Z</time>
      </trkpt>
      <trkpt lat="46.60562" lon="0.59742">
        <ele>72</ele>
        <time>2024-02-11T07:44:51Z</time>
      </trkpt>
      <trkpt lat="46.60569" lon="0.59767">
        <ele>72.8</ele>
        <time>2024-02-11T07:44:57Z</time>
      </trkpt>
      <trkpt lat="46.6057" lon="0.59771">
        <ele>73</ele>
        <time>2024-02-11T07:44:58Z</time>
      </trkpt>
      <trkpt lat="46.60578" lon="0.59804">
        <ele>73.4</ele>
        <time>2024-02-11T07:45:06Z</time>
      </trkpt>
      <trkpt lat="46.60583" lon="0.59825">
        <ele>73.2</ele>
        <time>2024-02-11T07:45:12Z</time>
      </trkpt>
      <trkpt lat="46.60592" lon="0.59862">
        <ele>73</ele>
        <time>2024-02-11T07:45:21Z</time>
      </trkpt>
      <trkpt lat="46.60601" lon="0.59895">
        <ele>73</ele>
        <time>2024-02-11T07:45:28Z</time>
      </trkpt>
      <trkpt lat="46.60616" lon="0.59956">
        <ele>72.4</ele>
        <time>2024-02-11T07:45:39Z</time>
      </trkpt>
      <trkpt lat="46.60621" lon="0.59974">
        <ele>72.2</ele>
        <time>2024-02-11T07:45:42Z</time>
      </trkpt>
      <trkpt lat="46.60631" lon="0.60014">
        <ele>72</ele>
        <time>2024-02-11T07:45:49Z</time>
      </trkpt>
      <trkpt lat="46.60633" lon="0.60021">
        <ele>71.8</ele>
        <time>2024-02-11T07:45:51Z</time>
      </trkpt>
      <trkpt lat="46.60635" lon="0.60026">
        <ele>71.8</ele>
        <time>2024-02-11T07:45:53Z</time>
      </trkpt>
      <trkpt lat="46.60636" lon="0.60027">
        <ele>71.6</ele>
        <time>2024-02-11T07:45:54Z</time>
      </trkpt>
      <trkpt lat="46.60641" lon="0.60026">
        <ele>71.4</ele>
        <time>2024-02-11T07:45:57Z</time>
      </trkpt>
      <trkpt lat="46.6065" lon="0.6002">
        <ele>70.6</ele>
        <time>2024-02-11T07:46:00Z</time>
      </trkpt>
      <trkpt lat="46.60657" lon="0.60014">
        <ele>69.8</ele>
        <time>2024-02-11T07:46:02Z</time>
      </trkpt>
      <trkpt lat="46.60661" lon="0.60011">
        <ele>69.6</ele>
        <time>2024-02-11T07:46:03Z</time>
      </trkpt>
      <trkpt lat="46.60677" lon="0.60002">
        <ele>68.6</ele>
        <time>2024-02-11T07:46:07Z</time>
      </trkpt>
      <trkpt lat="46.60681" lon="0.60001">
        <ele>68.4</ele>
        <time>2024-02-11T07:46:08Z</time>
      </trkpt>
      <trkpt lat="46.60694" lon="0.6">
        <ele>68.2</ele>
        <time>2024-02-11T07:46:11Z</time>
      </trkpt>
      <trkpt lat="46.60708" lon="0.60003">
        <ele>68.2</ele>
        <time>2024-02-11T07:46:14Z</time>
      </trkpt>
      <trkpt lat="46.60735" lon="0.60004">
        <ele>68</ele>
        <time>2024-02-11T07:46:20Z</time>
      </trkpt>
      <trkpt lat="46.60758" lon="0.60005">
        <ele>68.2</ele>
        <time>2024-02-11T07:46:25Z</time>
      </trkpt>
      <trkpt lat="46.60766" lon="0.60009">
        <ele>68.2</ele>
        <time>2024-02-11T07:46:27Z</time>
      </trkpt>
      <trkpt lat="46.6077" lon="0.60012">
        <ele>68.2</ele>
        <time>2024-02-11T07:46:28Z</time>
      </trkpt>
      <trkpt lat="46.60783" lon="0.60025">
        <ele>67.8</ele>
        <time>2024-02-11T07:46:31Z</time>
      </trkpt>
      <trkpt lat="46.60792" lon="0.60024">
        <ele>67.6</ele>
        <time>2024-02-11T07:46:33Z</time>
      </trkpt>
      <trkpt lat="46.60796" lon="0.60021">
        <ele>67.8</ele>
        <time>2024-02-11T07:46:34Z</time>
      </trkpt>
      <trkpt lat="46.60826" lon="0.59996">
        <ele>68.4</ele>
        <time>2024-02-11T07:46:42Z</time>
      </trkpt>
      <trkpt lat="46.60832" lon="0.59988">
        <ele>68.4</ele>
        <time>2024-02-11T07:46:44Z</time>
      </trkpt>
      <trkpt lat="46.6084" lon="0.59977">
        <ele>68.4</ele>
        <time>2024-02-11T07:46:46Z</time>
      </trkpt>
      <trkpt lat="46.60842" lon="0.59971">
        <ele>68.4</ele>
        <time>2024-02-11T07:46:47Z</time>
      </trkpt>
      <trkpt lat="46.60844" lon="0.59964">
        <ele>68.4</ele>
        <time>2024-02-11T07:46:48Z</time>
      </trkpt>
      <trkpt lat="46.60849" lon="0.59951">
        <ele>68.4</ele>
        <time>2024-02-11T07:46:50Z</time>
      </trkpt>
      <trkpt lat="46.60853" lon="0.59946">
        <ele>68.4</ele>
        <time>2024-02-11T07:46:51Z</time>
      </trkpt>
      <trkpt lat="46.60857" lon="0.59942">
        <ele>68.4</ele>
        <time>2024-02-11T07:46:52Z</time>
      </trkpt>
      <trkpt lat="46.60874" lon="0.5993">
        <ele>67.8</ele>
        <time>2024-02-11T07:46:56Z</time>
      </trkpt>
      <trkpt lat="46.6089" lon="0.59922">
        <ele>67.4</ele>
        <time>2024-02-11T07:46:59Z</time>
      </trkpt>
      <trkpt lat="46.60905" lon="0.59914">
        <ele>67.4</ele>
        <time>2024-02-11T07:47:02Z</time>
      </trkpt>
      <trkpt lat="46.60944" lon="0.59897">
        <ele>67.2</ele>
        <time>2024-02-11T07:47:10Z</time>
      </trkpt>
      <trkpt lat="46.6098" lon="0.59883">
        <ele>67.6</ele>
        <time>2024-02-11T07:47:18Z</time>
      </trkpt>
      <trkpt lat="46.6102" lon="0.59865">
        <ele>68</ele>
        <time>2024-02-11T07:47:27Z</time>
      </trkpt>
      <trkpt lat="46.61043" lon="0.59855">
        <ele>68</ele>
        <time>2024-02-11T07:47:32Z</time>
      </trkpt>
      <trkpt lat="46.61051" lon="0.59858">
        <ele>67.8</ele>
        <time>2024-02-11T07:47:34Z</time>
      </trkpt>
      <trkpt lat="46.61057" lon="0.59869">
        <ele>67.6</ele>
        <time>2024-02-11T07:47:36Z</time>
      </trkpt>
      <trkpt lat="46.61058" lon="0.59875">
        <ele>67.4</ele>
        <time>2024-02-11T07:47:37Z</time>
      </trkpt>
      <trkpt lat="46.61063" lon="0.59896">
        <ele>67</ele>
        <time>2024-02-11T07:47:40Z</time>
      </trkpt>
      <trkpt lat="46.61066" lon="0.59917">
        <ele>66.8</ele>
        <time>2024-02-11T07:47:43Z</time>
      </trkpt>
      <trkpt lat="46.61068" lon="0.5993">
        <ele>66.4</ele>
        <time>2024-02-11T07:47:45Z</time>
      </trkpt>
      <trkpt lat="46.6107" lon="0.59937">
        <ele>66.4</ele>
        <time>2024-02-11T07:47:46Z</time>
      </trkpt>
      <trkpt lat="46.61074" lon="0.59949">
        <ele>66.2</ele>
        <time>2024-02-11T07:47:48Z</time>
      </trkpt>
      <trkpt lat="46.61081" lon="0.59969">
        <ele>66.2</ele>
        <time>2024-02-11T07:47:51Z</time>
      </trkpt>
      <trkpt lat="46.61086" lon="0.59991">
        <ele>66.4</ele>
        <time>2024-02-11T07:47:54Z</time>
      </trkpt>
      <trkpt lat="46.61091" lon="0.6002">
        <ele>66.4</ele>
        <time>2024-02-11T07:47:58Z</time>
      </trkpt>
      <trkpt lat="46.61093" lon="0.60034">
        <ele>66.4</ele>
        <time>2024-02-11T07:48:00Z</time>
      </trkpt>
      <trkpt lat="46.61099" lon="0.60061">
        <ele>66.4</ele>
        <time>2024-02-11T07:48:04Z</time>
      </trkpt>
      <trkpt lat="46.61103" lon="0.60074">
        <ele>66.4</ele>
        <time>2024-02-11T07:48:06Z</time>
      </trkpt>
      <trkpt lat="46.61115" lon="0.60124">
        <ele>66.8</ele>
        <time>2024-02-11T07:48:14Z</time>
      </trkpt>
      <trkpt lat="46.61118" lon="0.6014">
        <ele>67.4</ele>
        <time>2024-02-11T07:48:17Z</time>
      </trkpt>
      <trkpt lat="46.61125" lon="0.60156">
        <ele>68.2</ele>
        <time>2024-02-11T07:48:21Z</time>
      </trkpt>
      <trkpt lat="46.61127" lon="0.60158">
        <ele>68.4</ele>
        <time>2024-02-11T07:48:22Z</time>
      </trkpt>
      <trkpt lat="46.61136" lon="0.60159">
        <ele>69</ele>
        <time>2024-02-11T07:48:26Z</time>
      </trkpt>
      <trkpt lat="46.61137" lon="0.6016">
        <ele>69</ele>
        <time>2024-02-11T07:48:27Z</time>
      </trkpt>
      <trkpt lat="46.61138" lon="0.60163">
        <ele>69.2</ele>
        <time>2024-02-11T07:48:29Z</time>
      </trkpt>
      <trkpt lat="46.61136" lon="0.60165">
        <ele>69.4</ele>
        <time>2024-02-11T07:48:30Z</time>
      </trkpt>
      <trkpt lat="46.61133" lon="0.60166">
        <ele>69.4</ele>
        <time>2024-02-11T07:48:32Z</time>
      </trkpt>
      <trkpt lat="46.61127" lon="0.60165">
        <ele>69.8</ele>
        <time>2024-02-11T07:48:36Z</time>
      </trkpt>
      <trkpt lat="46.6112" lon="0.60165">
        <ele>69.6</ele>
        <time>2024-02-11T07:48:42Z</time>
      </trkpt>
      <trkpt lat="46.61119" lon="0.60162">
        <ele>69.6</ele>
        <time>2024-02-11T07:48:43Z</time>
      </trkpt>
      <trkpt lat="46.6112" lon="0.6016">
        <ele>69.6</ele>
        <time>2024-02-11T07:48:44Z</time>
      </trkpt>
      <trkpt lat="46.61122" lon="0.60155">
        <ele>69.4</ele>
        <time>2024-02-11T07:48:46Z</time>
      </trkpt>
      <trkpt lat="46.61124" lon="0.60155">
        <ele>69.4</ele>
        <time>2024-02-11T07:48:47Z</time>
      </trkpt>
      <trkpt lat="46.61125" lon="0.60155">
        <ele>69.4</ele>
        <time>2024-02-11T07:48:48Z</time>
      </trkpt>
      <trkpt lat="46.6113" lon="0.60159">
        <ele>69.6</ele>
        <time>2024-02-11T07:48:52Z</time>
      </trkpt>
      <trkpt lat="46.61133" lon="0.60163">
        <ele>68.8</ele>
        <time>2024-02-11T07:48:57Z</time>
      </trkpt>
      <trkpt lat="46.61135" lon="0.60161">
        <ele>68.6</ele>
        <time>2024-02-11T07:48:59Z</time>
      </trkpt>
      <trkpt lat="46.61135" lon="0.60159">
        <ele>68.6</ele>
        <time>2024-02-11T07:49:00Z</time>
      </trkpt>
      <trkpt lat="46.61134" lon="0.60156">
        <ele>68.6</ele>
        <time>2024-02-11T07:49:03Z</time>
      </trkpt>
      <trkpt lat="46.61132" lon="0.60156">
        <ele>68.6</ele>
        <time>2024-02-11T07:49:05Z</time>
      </trkpt>
      <trkpt lat="46.61131" lon="0.60156">
        <ele>68.4</ele>
        <time>2024-02-11T07:49:06Z</time>
      </trkpt>
      <trkpt lat="46.61129" lon="0.60156">
        <ele>68.2</ele>
        <time>2024-02-11T07:49:09Z</time>
      </trkpt>
      <trkpt lat="46.61129" lon="0.60156">
        <ele>68.2</ele>
        <time>2024-02-11T07:49:11Z</time>
      </trkpt>
      <trkpt lat="46.61128" lon="0.6016">
        <ele>68.2</ele>
        <time>2024-02-11T07:49:13Z</time>
      </trkpt>
      <trkpt lat="46.6113" lon="0.60163">
        <ele>68.4</ele>
        <time>2024-02-11T07:49:16Z</time>
      </trkpt>
      <trkpt lat="46.61134" lon="0.60168">
        <ele>68.4</ele>
        <time>2024-02-11T07:49:19Z</time>
      </trkpt>
      <trkpt lat="46.61144" lon="0.60191">
        <ele>69</ele>
        <time>2024-02-11T07:49:25Z</time>
      </trkpt>
      <trkpt lat="46.61147" lon="0.60199">
        <ele>69.4</ele>
        <time>2024-02-11T07:49:27Z</time>
      </trkpt>
      <trkpt lat="46.61153" lon="0.6022">
        <ele>70.6</ele>
        <time>2024-02-11T07:49:32Z</time>
      </trkpt>
      <trkpt lat="46.61161" lon="0.60239">
        <ele>71.6</ele>
        <time>2024-02-11T07:49:37Z</time>
      </trkpt>
      <trkpt lat="46.61165" lon="0.60244">
        <ele>72</ele>
        <time>2024-02-11T07:49:39Z</time>
      </trkpt>
      <trkpt lat="46.61174" lon="0.60256">
        <ele>73.2</ele>
        <time>2024-02-11T07:49:43Z</time>
      </trkpt>
      <trkpt lat="46.61182" lon="0.60268">
        <ele>74.2</ele>
        <time>2024-02-11T07:49:47Z</time>
      </trkpt>
      <trkpt lat="46.61185" lon="0.60274">
        <ele>74.6</ele>
        <time>2024-02-11T07:49:49Z</time>
      </trkpt>
      <trkpt lat="46.6119" lon="0.60288">
        <ele>75.2</ele>
        <time>2024-02-11T07:49:53Z</time>
      </trkpt>
      <trkpt lat="46.61195" lon="0.60301">
        <ele>76.6</ele>
        <time>2024-02-11T07:49:57Z</time>
      </trkpt>
      <trkpt lat="46.61198" lon="0.60311">
        <ele>77.6</ele>
        <time>2024-02-11T07:50:00Z</time>
      </trkpt>
      <trkpt lat="46.61206" lon="0.6033">
        <ele>78.8</ele>
        <time>2024-02-11T07:50:06Z</time>
      </trkpt>
      <trkpt lat="46.61208" lon="0.60333">
        <ele>79.4</ele>
        <time>2024-02-11T07:50:07Z</time>
      </trkpt>
      <trkpt lat="46.61211" lon="0.60338">
        <ele>79.8</ele>
        <time>2024-02-11T07:50:09Z</time>
      </trkpt>
      <trkpt lat="46.61217" lon="0.60348">
        <ele>81</ele>
        <time>2024-02-11T07:50:13Z</time>
      </trkpt>
      <trkpt lat="46.6122" lon="0.60353">
        <ele>81.8</ele>
        <time>2024-02-11T07:50:15Z</time>
      </trkpt>
      <trkpt lat="46.6122" lon="0.60353">
        <ele>82.2</ele>
        <time>2024-02-11T07:50:16Z</time>
      </trkpt>
      <trkpt lat="46.61227" lon="0.60368">
        <ele>83.4</ele>
        <time>2024-02-11T07:50:21Z</time>
      </trkpt>
      <trkpt lat="46.61228" lon="0.6037">
        <ele>83.6</ele>
        <time>2024-02-11T07:50:22Z</time>
      </trkpt>
      <trkpt lat="46.61231" lon="0.60381">
        <ele>84.6</ele>
        <time>2024-02-11T07:50:26Z</time>
      </trkpt>
      <trkpt lat="46.61236" lon="0.60396">
        <ele>85.8</ele>
        <time>2024-02-11T07:50:30Z</time>
      </trkpt>
      <trkpt lat="46.61243" lon="0.60417">
        <ele>87</ele>
        <time>2024-02-11T07:50:36Z</time>
      </trkpt>
      <trkpt lat="46.61244" lon="0.60421">
        <ele>87.2</ele>
        <time>2024-02-11T07:50:37Z</time>
      </trkpt>
      <trkpt lat="46.61248" lon="0.60434">
        <ele>88.2</ele>
        <time>2024-02-11T07:50:40Z</time>
      </trkpt>
      <trkpt lat="46.61253" lon="0.60451">
        <ele>88.8</ele>
        <time>2024-02-11T07:50:44Z</time>
      </trkpt>
      <trkpt lat="46.61255" lon="0.60459">
        <ele>89.2</ele>
        <time>2024-02-11T07:50:46Z</time>
      </trkpt>
      <trkpt lat="46.61262" lon="0.60485">
        <ele>90.4</ele>
        <time>2024-02-11T07:50:52Z</time>
      </trkpt>
      <trkpt lat="46.61264" lon="0.60493">
        <ele>91</ele>
        <time>2024-02-11T07:50:54Z</time>
      </trkpt>
      <trkpt lat="46.6127" lon="0.60515">
        <ele>91.6</ele>
        <time>2024-02-11T07:50:59Z</time>
      </trkpt>
      <trkpt lat="46.61273" lon="0.60523">
        <ele>91.6</ele>
        <time>2024-02-11T07:51:01Z</time>
      </trkpt>
      <trkpt lat="46.61277" lon="0.60536">
        <ele>92</ele>
        <time>2024-02-11T07:51:04Z</time>
      </trkpt>
      <trkpt lat="46.61282" lon="0.60549">
        <ele>92.8</ele>
        <time>2024-02-11T07:51:07Z</time>
      </trkpt>
      <trkpt lat="46.61293" lon="0.60567">
        <ele>93.4</ele>
        <time>2024-02-11T07:51:12Z</time>
      </trkpt>
      <trkpt lat="46.61296" lon="0.60571">
        <ele>93.4</ele>
        <time>2024-02-11T07:51:13Z</time>
      </trkpt>
      <trkpt lat="46.61302" lon="0.60581">
        <ele>93.8</ele>
        <time>2024-02-11T07:51:16Z</time>
      </trkpt>
      <trkpt lat="46.61315" lon="0.60599">
        <ele>94.8</ele>
        <time>2024-02-11T07:51:21Z</time>
      </trkpt>
      <trkpt lat="46.61317" lon="0.60603">
        <ele>94.8</ele>
        <time>2024-02-11T07:51:22Z</time>
      </trkpt>
      <trkpt lat="46.61334" lon="0.60626">
        <ele>96</ele>
        <time>2024-02-11T07:51:29Z</time>
      </trkpt>
      <trkpt lat="46.6134" lon="0.60633">
        <ele>96.4</ele>
        <time>2024-02-11T07:51:31Z</time>
      </trkpt>
      <trkpt lat="46.61352" lon="0.60651">
        <ele>97.4</ele>
        <time>2024-02-11T07:51:36Z</time>
      </trkpt>
      <trkpt lat="46.61359" lon="0.60662">
        <ele>98</ele>
        <time>2024-02-11T07:51:39Z</time>
      </trkpt>
      <trkpt lat="46.61367" lon="0.60673">
        <ele>98.4</ele>
        <time>2024-02-11T07:51:42Z</time>
      </trkpt>
      <trkpt lat="46.61381" lon="0.60696">
        <ele>99.4</ele>
        <time>2024-02-11T07:51:48Z</time>
      </trkpt>
      <trkpt lat="46.61383" lon="0.60699">
        <ele>99.6</ele>
        <time>2024-02-11T07:51:49Z</time>
      </trkpt>
      <trkpt lat="46.61398" lon="0.60721">
        <ele>100.8</ele>
        <time>2024-02-11T07:51:55Z</time>
      </trkpt>
      <trkpt lat="46.61401" lon="0.60725">
        <ele>101</ele>
        <time>2024-02-11T07:51:56Z</time>
      </trkpt>
      <trkpt lat="46.61411" lon="0.6074">
        <ele>102</ele>
        <time>2024-02-11T07:52:00Z</time>
      </trkpt>
      <trkpt lat="46.61427" lon="0.60763">
        <ele>102.8</ele>
        <time>2024-02-11T07:52:06Z</time>
      </trkpt>
      <trkpt lat="46.61438" lon="0.60779">
        <ele>103</ele>
        <time>2024-02-11T07:52:10Z</time>
      </trkpt>
      <trkpt lat="46.61457" lon="0.60805">
        <ele>104</ele>
        <time>2024-02-11T07:52:17Z</time>
      </trkpt>
      <trkpt lat="46.61481" lon="0.60842">
        <ele>105.2</ele>
        <time>2024-02-11T07:52:26Z</time>
      </trkpt>
      <trkpt lat="46.61484" lon="0.60847">
        <ele>105.2</ele>
        <time>2024-02-11T07:52:27Z</time>
      </trkpt>
      <trkpt lat="46.61518" lon="0.60895">
        <ele>105.6</ele>
        <time>2024-02-11T07:52:38Z</time>
      </trkpt>
      <trkpt lat="46.61532" lon="0.60909">
        <ele>106.2</ele>
        <time>2024-02-11T07:52:42Z</time>
      </trkpt>
      <trkpt lat="46.6154" lon="0.60915">
        <ele>106.4</ele>
        <time>2024-02-11T07:52:44Z</time>
      </trkpt>
      <trkpt lat="46.61569" lon="0.60931">
        <ele>107.2</ele>
        <time>2024-02-11T07:52:52Z</time>
      </trkpt>
      <trkpt lat="46.61597" lon="0.60941">
        <ele>107.6</ele>
        <time>2024-02-11T07:52:59Z</time>
      </trkpt>
      <trkpt lat="46.61623" lon="0.60952">
        <ele>107.8</ele>
        <time>2024-02-11T07:53:05Z</time>
      </trkpt>
      <trkpt lat="46.6166" lon="0.60968">
        <ele>108</ele>
        <time>2024-02-11T07:53:13Z</time>
      </trkpt>
      <trkpt lat="46.6168" lon="0.60977">
        <ele>108.2</ele>
        <time>2024-02-11T07:53:17Z</time>
      </trkpt>
      <trkpt lat="46.6172" lon="0.60998">
        <ele>109.2</ele>
        <time>2024-02-11T07:53:25Z</time>
      </trkpt>
      <trkpt lat="46.61724" lon="0.61002">
        <ele>109.2</ele>
        <time>2024-02-11T07:53:26Z</time>
      </trkpt>
      <trkpt lat="46.61728" lon="0.61006">
        <ele>109.4</ele>
        <time>2024-02-11T07:53:27Z</time>
      </trkpt>
      <trkpt lat="46.61738" lon="0.6102">
        <ele>110.4</ele>
        <time>2024-02-11T07:53:30Z</time>
      </trkpt>
      <trkpt lat="46.6174" lon="0.61025">
        <ele>110.6</ele>
        <time>2024-02-11T07:53:31Z</time>
      </trkpt>
      <trkpt lat="46.61745" lon="0.61035">
        <ele>110.8</ele>
        <time>2024-02-11T07:53:33Z</time>
      </trkpt>
      <trkpt lat="46.61755" lon="0.61058">
        <ele>111.8</ele>
        <time>2024-02-11T07:53:37Z</time>
      </trkpt>
      <trkpt lat="46.61758" lon="0.61064">
        <ele>112</ele>
        <time>2024-02-11T07:53:38Z</time>
      </trkpt>
      <trkpt lat="46.61768" lon="0.61087">
        <ele>112.8</ele>
        <time>2024-02-11T07:53:42Z</time>
      </trkpt>
      <trkpt lat="46.6178" lon="0.61108">
        <ele>113.6</ele>
        <time>2024-02-11T07:53:46Z</time>
      </trkpt>
      <trkpt lat="46.61783" lon="0.61114">
        <ele>113.8</ele>
        <time>2024-02-11T07:53:47Z</time>
      </trkpt>
      <trkpt lat="46.61797" lon="0.61139">
        <ele>114.8</ele>
        <time>2024-02-11T07:53:52Z</time>
      </trkpt>
      <trkpt lat="46.61805" lon="0.61153">
        <ele>115.2</ele>
        <time>2024-02-11T07:53:55Z</time>
      </trkpt>
      <trkpt lat="46.6182" lon="0.61177">
        <ele>116</ele>
        <time>2024-02-11T07:54:00Z</time>
      </trkpt>
      <trkpt lat="46.61833" lon="0.612">
        <ele>116.6</ele>
        <time>2024-02-11T07:54:05Z</time>
      </trkpt>
      <trkpt lat="46.61842" lon="0.61215">
        <ele>117.2</ele>
        <time>2024-02-11T07:54:08Z</time>
      </trkpt>
      <trkpt lat="46.61854" lon="0.61238">
        <ele>117.6</ele>
        <time>2024-02-11T07:54:12Z</time>
      </trkpt>
      <trkpt lat="46.61866" lon="0.61268">
        <ele>118</ele>
        <time>2024-02-11T07:54:17Z</time>
      </trkpt>
      <trkpt lat="46.6187" lon="0.6128">
        <ele>118</ele>
        <time>2024-02-11T07:54:19Z</time>
      </trkpt>
      <trkpt lat="46.61874" lon="0.61291">
        <ele>118.2</ele>
        <time>2024-02-11T07:54:21Z</time>
      </trkpt>
      <trkpt lat="46.6188" lon="0.61317">
        <ele>118.4</ele>
        <time>2024-02-11T07:54:25Z</time>
      </trkpt>
      <trkpt lat="46.61888" lon="0.61363">
        <ele>119</ele>
        <time>2024-02-11T07:54:32Z</time>
      </trkpt>
      <trkpt lat="46.61889" lon="0.61369">
        <ele>119.2</ele>
        <time>2024-02-11T07:54:33Z</time>
      </trkpt>
      <trkpt lat="46.61892" lon="0.61393">
        <ele>119.2</ele>
        <time>2024-02-11T07:54:37Z</time>
      </trkpt>
      <trkpt lat="46.61893" lon="0.61398">
        <ele>119.4</ele>
        <time>2024-02-11T07:54:39Z</time>
      </trkpt>
      <trkpt lat="46.61891" lon="0.61401">
        <ele>119.4</ele>
        <time>2024-02-11T07:54:41Z</time>
      </trkpt>
      <trkpt lat="46.61883" lon="0.61409">
        <ele>119.4</ele>
        <time>2024-02-11T07:54:46Z</time>
      </trkpt>
      <trkpt lat="46.61869" lon="0.61426">
        <ele>120</ele>
        <time>2024-02-11T07:54:52Z</time>
      </trkpt>
      <trkpt lat="46.61861" lon="0.61436">
        <ele>120.4</ele>
        <time>2024-02-11T07:54:55Z</time>
      </trkpt>
      <trkpt lat="46.61848" lon="0.61449">
        <ele>120.4</ele>
        <time>2024-02-11T07:54:59Z</time>
      </trkpt>
      <trkpt lat="46.61827" lon="0.61472">
        <ele>120.8</ele>
        <time>2024-02-11T07:55:07Z</time>
      </trkpt>
      <trkpt lat="46.61808" lon="0.61489">
        <ele>120</ele>
        <time>2024-02-11T07:55:13Z</time>
      </trkpt>
      <trkpt lat="46.61778" lon="0.61518">
        <ele>119.4</ele>
        <time>2024-02-11T07:55:20Z</time>
      </trkpt>
      <trkpt lat="46.61774" lon="0.61522">
        <ele>119</ele>
        <time>2024-02-11T07:55:21Z</time>
      </trkpt>
      <trkpt lat="46.61752" lon="0.61544">
        <ele>118.4</ele>
        <time>2024-02-11T07:55:26Z</time>
      </trkpt>
      <trkpt lat="46.61748" lon="0.61547">
        <ele>117.6</ele>
        <time>2024-02-11T07:55:27Z</time>
      </trkpt>
      <trkpt lat="46.6174" lon="0.61555">
        <ele>116.4</ele>
        <time>2024-02-11T07:55:29Z</time>
      </trkpt>
      <trkpt lat="46.61728" lon="0.61564">
        <ele>115.8</ele>
        <time>2024-02-11T07:55:32Z</time>
      </trkpt>
      <trkpt lat="46.61724" lon="0.61568">
        <ele>115.4</ele>
        <time>2024-02-11T07:55:33Z</time>
      </trkpt>
      <trkpt lat="46.61721" lon="0.61571">
        <ele>115</ele>
        <time>2024-02-11T07:55:34Z</time>
      </trkpt>
      <trkpt lat="46.61713" lon="0.61585">
        <ele>114.2</ele>
        <time>2024-02-11T07:55:37Z</time>
      </trkpt>
      <trkpt lat="46.61711" lon="0.6159">
        <ele>114</ele>
        <time>2024-02-11T07:55:38Z</time>
      </trkpt>
      <trkpt lat="46.61709" lon="0.6161">
        <ele>113.6</ele>
        <time>2024-02-11T07:55:41Z</time>
      </trkpt>
      <trkpt lat="46.61709" lon="0.61616">
        <ele>113.8</ele>
        <time>2024-02-11T07:55:42Z</time>
      </trkpt>
      <trkpt lat="46.61704" lon="0.61649">
        <ele>114</ele>
        <time>2024-02-11T07:55:47Z</time>
      </trkpt>
      <trkpt lat="46.617" lon="0.61654">
        <ele>114</ele>
        <time>2024-02-11T07:55:49Z</time>
      </trkpt>
      <trkpt lat="46.61696" lon="0.61654">
        <ele>114</ele>
        <time>2024-02-11T07:55:50Z</time>
      </trkpt>
      <trkpt lat="46.61691" lon="0.61653">
        <ele>114</ele>
        <time>2024-02-11T07:55:51Z</time>
      </trkpt>
      <trkpt lat="46.61679" lon="0.6165">
        <ele>114</ele>
        <time>2024-02-11T07:55:53Z</time>
      </trkpt>
      <trkpt lat="46.61641" lon="0.61641">
        <ele>113.4</ele>
        <time>2024-02-11T07:55:59Z</time>
      </trkpt>
      <trkpt lat="46.61628" lon="0.61637">
        <ele>113.2</ele>
        <time>2024-02-11T07:56:01Z</time>
      </trkpt>
      <trkpt lat="46.616" lon="0.61628">
        <ele>111.8</ele>
        <time>2024-02-11T07:56:05Z</time>
      </trkpt>
      <trkpt lat="46.61574" lon="0.61616">
        <ele>110.8</ele>
        <time>2024-02-11T07:56:09Z</time>
      </trkpt>
      <trkpt lat="46.61544" lon="0.61602">
        <ele>110</ele>
        <time>2024-02-11T07:56:14Z</time>
      </trkpt>
      <trkpt lat="46.61538" lon="0.61599">
        <ele>109.6</ele>
        <time>2024-02-11T07:56:15Z</time>
      </trkpt>
      <trkpt lat="46.61515" lon="0.61587">
        <ele>108.4</ele>
        <time>2024-02-11T07:56:19Z</time>
      </trkpt>
      <trkpt lat="46.61502" lon="0.61579">
        <ele>107.6</ele>
        <time>2024-02-11T07:56:21Z</time>
      </trkpt>
      <trkpt lat="46.6149" lon="0.61567">
        <ele>107.2</ele>
        <time>2024-02-11T07:56:23Z</time>
      </trkpt>
      <trkpt lat="46.61479" lon="0.61555">
        <ele>106.6</ele>
        <time>2024-02-11T07:56:25Z</time>
      </trkpt>
      <trkpt lat="46.61472" lon="0.61551">
        <ele>106.2</ele>
        <time>2024-02-11T07:56:26Z</time>
      </trkpt>
      <trkpt lat="46.6146" lon="0.61549">
        <ele>105.6</ele>
        <time>2024-02-11T07:56:28Z</time>
      </trkpt>
      <trkpt lat="46.61432" lon="0.61552">
        <ele>105</ele>
        <time>2024-02-11T07:56:32Z</time>
      </trkpt>
      <trkpt lat="46.61424" lon="0.61552">
        <ele>104.8</ele>
        <time>2024-02-11T07:56:33Z</time>
      </trkpt>
      <trkpt lat="46.61401" lon="0.61555">
        <ele>103.8</ele>
        <time>2024-02-11T07:56:36Z</time>
      </trkpt>
      <trkpt lat="46.61377" lon="0.61559">
        <ele>102.4</ele>
        <time>2024-02-11T07:56:39Z</time>
      </trkpt>
      <trkpt lat="46.61369" lon="0.61561">
        <ele>102.2</ele>
        <time>2024-02-11T07:56:40Z</time>
      </trkpt>
      <trkpt lat="46.61361" lon="0.61564">
        <ele>102</ele>
        <time>2024-02-11T07:56:41Z</time>
      </trkpt>
      <trkpt lat="46.61327" lon="0.6158">
        <ele>102</ele>
        <time>2024-02-11T07:56:46Z</time>
      </trkpt>
      <trkpt lat="46.61287" lon="0.61586">
        <ele>102</ele>
        <time>2024-02-11T07:56:53Z</time>
      </trkpt>
      <trkpt lat="46.61266" lon="0.61584">
        <ele>103.4</ele>
        <time>2024-02-11T07:56:58Z</time>
      </trkpt>
      <trkpt lat="46.61263" lon="0.61584">
        <ele>103.8</ele>
        <time>2024-02-11T07:56:59Z</time>
      </trkpt>
      <trkpt lat="46.61249" lon="0.61582">
        <ele>105.2</ele>
        <time>2024-02-11T07:57:03Z</time>
      </trkpt>
      <trkpt lat="46.61243" lon="0.61582">
        <ele>105.8</ele>
        <time>2024-02-11T07:57:05Z</time>
      </trkpt>
      <trkpt lat="46.61236" lon="0.61582">
        <ele>106.2</ele>
        <time>2024-02-11T07:57:07Z</time>
      </trkpt>
      <trkpt lat="46.61226" lon="0.61581">
        <ele>107.6</ele>
        <time>2024-02-11T07:57:10Z</time>
      </trkpt>
      <trkpt lat="46.61218" lon="0.6158">
        <ele>108.4</ele>
        <time>2024-02-11T07:57:12Z</time>
      </trkpt>
      <trkpt lat="46.61214" lon="0.6158">
        <ele>108.8</ele>
        <time>2024-02-11T07:57:13Z</time>
      </trkpt>
      <trkpt lat="46.61194" lon="0.61582">
        <ele>110</ele>
        <time>2024-02-11T07:57:18Z</time>
      </trkpt>
      <trkpt lat="46.6119" lon="0.61583">
        <ele>110.2</ele>
        <time>2024-02-11T07:57:19Z</time>
      </trkpt>
      <trkpt lat="46.61175" lon="0.61587">
        <ele>111.2</ele>
        <time>2024-02-11T07:57:23Z</time>
      </trkpt>
      <trkpt lat="46.6116" lon="0.61591">
        <ele>112.4</ele>
        <time>2024-02-11T07:57:27Z</time>
      </trkpt>
      <trkpt lat="46.61129" lon="0.61603">
        <ele>113.4</ele>
        <time>2024-02-11T07:57:35Z</time>
      </trkpt>
      <trkpt lat="46.61125" lon="0.61604">
        <ele>113.6</ele>
        <time>2024-02-11T07:57:36Z</time>
      </trkpt>
      <trkpt lat="46.61105" lon="0.6161">
        <ele>114.6</ele>
        <time>2024-02-11T07:57:41Z</time>
      </trkpt>
      <trkpt lat="46.61093" lon="0.61613">
        <ele>114.8</ele>
        <time>2024-02-11T07:57:44Z</time>
      </trkpt>
      <trkpt lat="46.61066" lon="0.61619">
        <ele>115.6</ele>
        <time>2024-02-11T07:57:51Z</time>
      </trkpt>
      <trkpt lat="46.6104" lon="0.61624">
        <ele>116.4</ele>
        <time>2024-02-11T07:57:58Z</time>
      </trkpt>
      <trkpt lat="46.6103" lon="0.61624">
        <ele>116.8</ele>
        <time>2024-02-11T07:58:01Z</time>
      </trkpt>
      <trkpt lat="46.61019" lon="0.61626">
        <ele>117.4</ele>
        <time>2024-02-11T07:58:04Z</time>
      </trkpt>
      <trkpt lat="46.60996" lon="0.61634">
        <ele>117.8</ele>
        <time>2024-02-11T07:58:10Z</time>
      </trkpt>
      <trkpt lat="46.60983" lon="0.61639">
        <ele>118</ele>
        <time>2024-02-11T07:58:14Z</time>
      </trkpt>
      <trkpt lat="46.60976" lon="0.61642">
        <ele>118.2</ele>
        <time>2024-02-11T07:58:16Z</time>
      </trkpt>
      <trkpt lat="46.60955" lon="0.61652">
        <ele>118.8</ele>
        <time>2024-02-11T07:58:22Z</time>
      </trkpt>
      <trkpt lat="46.60946" lon="0.61654">
        <ele>119.2</ele>
        <time>2024-02-11T07:58:24Z</time>
      </trkpt>
      <trkpt lat="46.60913" lon="0.61668">
        <ele>120</ele>
        <time>2024-02-11T07:58:31Z</time>
      </trkpt>
      <trkpt lat="46.60895" lon="0.61676">
        <ele>121</ele>
        <time>2024-02-11T07:58:35Z</time>
      </trkpt>
      <trkpt lat="46.60891" lon="0.61678">
        <ele>121.2</ele>
        <time>2024-02-11T07:58:36Z</time>
      </trkpt>
      <trkpt lat="46.60869" lon="0.61691">
        <ele>122</ele>
        <time>2024-02-11T07:58:41Z</time>
      </trkpt>
      <trkpt lat="46.60864" lon="0.61694">
        <ele>122.2</ele>
        <time>2024-02-11T07:58:42Z</time>
      </trkpt>
      <trkpt lat="46.60857" lon="0.617">
        <ele>122.6</ele>
        <time>2024-02-11T07:58:44Z</time>
      </trkpt>
      <trkpt lat="46.60832" lon="0.61717">
        <ele>123.2</ele>
        <time>2024-02-11T07:58:50Z</time>
      </trkpt>
      <trkpt lat="46.6082" lon="0.61723">
        <ele>124</ele>
        <time>2024-02-11T07:58:53Z</time>
      </trkpt>
      <trkpt lat="46.60804" lon="0.61731">
        <ele>124.4</ele>
        <time>2024-02-11T07:58:58Z</time>
      </trkpt>
      <trkpt lat="46.60797" lon="0.61746">
        <ele>124.8</ele>
        <time>2024-02-11T07:59:02Z</time>
      </trkpt>
      <trkpt lat="46.60794" lon="0.61765">
        <ele>125.4</ele>
        <time>2024-02-11T07:59:06Z</time>
      </trkpt>
      <trkpt lat="46.6079" lon="0.6178">
        <ele>125.6</ele>
        <time>2024-02-11T07:59:09Z</time>
      </trkpt>
      <trkpt lat="46.60777" lon="0.61807">
        <ele>126.4</ele>
        <time>2024-02-11T07:59:15Z</time>
      </trkpt>
      <trkpt lat="46.60774" lon="0.61811">
        <ele>126.4</ele>
        <time>2024-02-11T07:59:16Z</time>
      </trkpt>
      <trkpt lat="46.60761" lon="0.61833">
        <ele>127.4</ele>
        <time>2024-02-11T07:59:21Z</time>
      </trkpt>
      <trkpt lat="46.60756" lon="0.61842">
        <ele>127.6</ele>
        <time>2024-02-11T07:59:23Z</time>
      </trkpt>
      <trkpt lat="46.60747" lon="0.61861">
        <ele>127.6</ele>
        <time>2024-02-11T07:59:28Z</time>
      </trkpt>
      <trkpt lat="46.60724" lon="0.61897">
        <ele>128.4</ele>
        <time>2024-02-11T07:59:36Z</time>
      </trkpt>
      <trkpt lat="46.60721" lon="0.619">
        <ele>128.6</ele>
        <time>2024-02-11T07:59:37Z</time>
      </trkpt>
      <trkpt lat="46.60707" lon="0.61932">
        <ele>129.2</ele>
        <time>2024-02-11T07:59:43Z</time>
      </trkpt>
      <trkpt lat="46.60685" lon="0.61972">
        <ele>129</ele>
        <time>2024-02-11T07:59:50Z</time>
      </trkpt>
      <trkpt lat="46.60658" lon="0.62011">
        <ele>129.2</ele>
        <time>2024-02-11T07:59:58Z</time>
      </trkpt>
      <trkpt lat="46.60642" lon="0.62036">
        <ele>129.6</ele>
        <time>2024-02-11T08:00:03Z</time>
      </trkpt>
      <trkpt lat="46.60635" lon="0.62045">
        <ele>129.6</ele>
        <time>2024-02-11T08:00:05Z</time>
      </trkpt>
      <trkpt lat="46.60629" lon="0.62052">
        <ele>129.2</ele>
        <time>2024-02-11T08:00:07Z</time>
      </trkpt>
      <trkpt lat="46.60627" lon="0.62056">
        <ele>129.2</ele>
        <time>2024-02-11T08:00:09Z</time>
      </trkpt>
      <trkpt lat="46.60624" lon="0.62057">
        <ele>129.2</ele>
        <time>2024-02-11T08:00:12Z</time>
      </trkpt>
      <trkpt lat="46.60624" lon="0.62056">
        <ele>129.2</ele>
        <time>2024-02-11T08:00:13Z</time>
      </trkpt>
      <trkpt lat="46.60625" lon="0.62055">
        <ele>129.2</ele>
        <time>2024-02-11T08:00:14Z</time>
      </trkpt>
      <trkpt lat="46.60626" lon="0.62054">
        <ele>129.2</ele>
        <time>2024-02-11T08:00:16Z</time>
      </trkpt>
      <trkpt lat="46.60627" lon="0.62052">
        <ele>129.2</ele>
        <time>2024-02-11T08:00:18Z</time>
      </trkpt>
      <trkpt lat="46.60626" lon="0.62052">
        <ele>129.2</ele>
        <time>2024-02-11T08:00:19Z</time>
      </trkpt>
      <trkpt lat="46.60623" lon="0.62048">
        <ele>129.2</ele>
        <time>2024-02-11T08:00:26Z</time>
      </trkpt>
      <trkpt lat="46.60611" lon="0.62045">
        <ele>129.2</ele>
        <time>2024-02-11T08:00:33Z</time>
      </trkpt>
      <trkpt lat="46.60597" lon="0.62051">
        <ele>129</ele>
        <time>2024-02-11T08:00:39Z</time>
      </trkpt>
      <trkpt lat="46.60585" lon="0.62057">
        <ele>129.4</ele>
        <time>2024-02-11T08:00:44Z</time>
      </trkpt>
      <trkpt lat="46.60583" lon="0.62057">
        <ele>129.2</ele>
        <time>2024-02-11T08:00:45Z</time>
      </trkpt>
      <trkpt lat="46.60581" lon="0.62057">
        <ele>129</ele>
        <time>2024-02-11T08:00:46Z</time>
      </trkpt>
      <trkpt lat="46.60573" lon="0.62059">
        <ele>128.8</ele>
        <time>2024-02-11T08:00:49Z</time>
      </trkpt>
      <trkpt lat="46.60561" lon="0.62069">
        <ele>128.6</ele>
        <time>2024-02-11T08:00:54Z</time>
      </trkpt>
      <trkpt lat="46.6055" lon="0.62082">
        <ele>128.6</ele>
        <time>2024-02-11T08:00:59Z</time>
      </trkpt>
      <trkpt lat="46.60538" lon="0.6209">
        <ele>128.6</ele>
        <time>2024-02-11T08:01:04Z</time>
      </trkpt>
      <trkpt lat="46.60528" lon="0.62097">
        <ele>128.4</ele>
        <time>2024-02-11T08:01:08Z</time>
      </trkpt>
      <trkpt lat="46.60522" lon="0.62101">
        <ele>128.2</ele>
        <time>2024-02-11T08:01:10Z</time>
      </trkpt>
      <trkpt lat="46.60514" lon="0.62111">
        <ele>127.2</ele>
        <time>2024-02-11T08:01:13Z</time>
      </trkpt>
      <trkpt lat="46.60508" lon="0.62118">
        <ele>126.8</ele>
        <time>2024-02-11T08:01:15Z</time>
      </trkpt>
      <trkpt lat="46.60504" lon="0.62125">
        <ele>126.2</ele>
        <time>2024-02-11T08:01:17Z</time>
      </trkpt>
      <trkpt lat="46.60498" lon="0.62137">
        <ele>125.4</ele>
        <time>2024-02-11T08:01:21Z</time>
      </trkpt>
      <trkpt lat="46.60493" lon="0.62144">
        <ele>125</ele>
        <time>2024-02-11T08:01:23Z</time>
      </trkpt>
      <trkpt lat="46.60483" lon="0.62158">
        <ele>124</ele>
        <time>2024-02-11T08:01:27Z</time>
      </trkpt>
      <trkpt lat="46.60478" lon="0.62174">
        <ele>122.8</ele>
        <time>2024-02-11T08:01:31Z</time>
      </trkpt>
      <trkpt lat="46.60477" lon="0.62178">
        <ele>122.2</ele>
        <time>2024-02-11T08:01:32Z</time>
      </trkpt>
      <trkpt lat="46.60475" lon="0.62182">
        <ele>121.8</ele>
        <time>2024-02-11T08:01:33Z</time>
      </trkpt>
      <trkpt lat="46.60473" lon="0.62186">
        <ele>121.6</ele>
        <time>2024-02-11T08:01:34Z</time>
      </trkpt>
      <trkpt lat="46.60469" lon="0.6219">
        <ele>121.4</ele>
        <time>2024-02-11T08:01:35Z</time>
      </trkpt>
      <trkpt lat="46.60465" lon="0.62195">
        <ele>121.2</ele>
        <time>2024-02-11T08:01:36Z</time>
      </trkpt>
      <trkpt lat="46.60461" lon="0.62198">
        <ele>120.8</ele>
        <time>2024-02-11T08:01:37Z</time>
      </trkpt>
      <trkpt lat="46.60458" lon="0.62201">
        <ele>120.4</ele>
        <time>2024-02-11T08:01:38Z</time>
      </trkpt>
      <trkpt lat="46.60453" lon="0.62205">
        <ele>119.8</ele>
        <time>2024-02-11T08:01:39Z</time>
      </trkpt>
      <trkpt lat="46.6045" lon="0.62206">
        <ele>119.2</ele>
        <time>2024-02-11T08:01:40Z</time>
      </trkpt>
      <trkpt lat="46.60448" lon="0.62207">
        <ele>118.8</ele>
        <time>2024-02-11T08:01:41Z</time>
      </trkpt>
      <trkpt lat="46.60442" lon="0.6221">
        <ele>117.8</ele>
        <time>2024-02-11T08:01:43Z</time>
      </trkpt>
      <trkpt lat="46.60433" lon="0.62213">
        <ele>116.8</ele>
        <time>2024-02-11T08:01:46Z</time>
      </trkpt>
      <trkpt lat="46.60429" lon="0.62214">
        <ele>116.6</ele>
        <time>2024-02-11T08:01:47Z</time>
      </trkpt>
      <trkpt lat="46.60423" lon="0.62216">
        <ele>115.8</ele>
        <time>2024-02-11T08:01:49Z</time>
      </trkpt>
      <trkpt lat="46.6042" lon="0.62215">
        <ele>115.6</ele>
        <time>2024-02-11T08:01:50Z</time>
      </trkpt>
      <trkpt lat="46.60418" lon="0.62216">
        <ele>115.4</ele>
        <time>2024-02-11T08:01:51Z</time>
      </trkpt>
      <trkpt lat="46.60414" lon="0.62216">
        <ele>115.4</ele>
        <time>2024-02-11T08:01:52Z</time>
      </trkpt>
      <trkpt lat="46.60411" lon="0.62217">
        <ele>115.2</ele>
        <time>2024-02-11T08:01:53Z</time>
      </trkpt>
      <trkpt lat="46.60402" lon="0.62221">
        <ele>114.8</ele>
        <time>2024-02-11T08:01:56Z</time>
      </trkpt>
      <trkpt lat="46.60402" lon="0.62221">
        <ele>114</ele>
        <time>2024-02-11T08:01:57Z</time>
      </trkpt>
      <trkpt lat="46.60393" lon="0.62218">
        <ele>113.8</ele>
        <time>2024-02-11T08:01:59Z</time>
      </trkpt>
      <trkpt lat="46.60376" lon="0.62215">
        <ele>113.2</ele>
        <time>2024-02-11T08:02:04Z</time>
      </trkpt>
      <trkpt lat="46.60373" lon="0.62214">
        <ele>113</ele>
        <time>2024-02-11T08:02:05Z</time>
      </trkpt>
      <trkpt lat="46.60366" lon="0.62212">
        <ele>112.8</ele>
        <time>2024-02-11T08:02:07Z</time>
      </trkpt>
      <trkpt lat="46.60359" lon="0.62211">
        <ele>112</ele>
        <time>2024-02-11T08:02:09Z</time>
      </trkpt>
      <trkpt lat="46.60353" lon="0.62207">
        <ele>111</ele>
        <time>2024-02-11T08:02:11Z</time>
      </trkpt>
      <trkpt lat="46.6035" lon="0.62206">
        <ele>110.8</ele>
        <time>2024-02-11T08:02:12Z</time>
      </trkpt>
      <trkpt lat="46.60343" lon="0.62203">
        <ele>110.6</ele>
        <time>2024-02-11T08:02:14Z</time>
      </trkpt>
      <trkpt lat="46.6034" lon="0.62203">
        <ele>110.4</ele>
        <time>2024-02-11T08:02:15Z</time>
      </trkpt>
      <trkpt lat="46.60327" lon="0.622">
        <ele>110</ele>
        <time>2024-02-11T08:02:18Z</time>
      </trkpt>
      <trkpt lat="46.60324" lon="0.62197">
        <ele>109.4</ele>
        <time>2024-02-11T08:02:19Z</time>
      </trkpt>
      <trkpt lat="46.60322" lon="0.62195">
        <ele>109</ele>
        <time>2024-02-11T08:02:20Z</time>
      </trkpt>
      <trkpt lat="46.60313" lon="0.62189">
        <ele>108.2</ele>
        <time>2024-02-11T08:02:22Z</time>
      </trkpt>
      <trkpt lat="46.60299" lon="0.62181">
        <ele>106.6</ele>
        <time>2024-02-11T08:02:26Z</time>
      </trkpt>
      <trkpt lat="46.60297" lon="0.62181">
        <ele>105.2</ele>
        <time>2024-02-11T08:02:27Z</time>
      </trkpt>
      <trkpt lat="46.60292" lon="0.62178">
        <ele>103.8</ele>
        <time>2024-02-11T08:02:29Z</time>
      </trkpt>
      <trkpt lat="46.60287" lon="0.62176">
        <ele>102.6</ele>
        <time>2024-02-11T08:02:31Z</time>
      </trkpt>
      <trkpt lat="46.60285" lon="0.62175">
        <ele>102.2</ele>
        <time>2024-02-11T08:02:32Z</time>
      </trkpt>
      <trkpt lat="46.60283" lon="0.62175">
        <ele>101.6</ele>
        <time>2024-02-11T08:02:33Z</time>
      </trkpt>
      <trkpt lat="46.6028" lon="0.62175">
        <ele>101</ele>
        <time>2024-02-11T08:02:34Z</time>
      </trkpt>
      <trkpt lat="46.60274" lon="0.62175">
        <ele>99.4</ele>
        <time>2024-02-11T08:02:36Z</time>
      </trkpt>
      <trkpt lat="46.60268" lon="0.62173">
        <ele>98</ele>
        <time>2024-02-11T08:02:38Z</time>
      </trkpt>
      <trkpt lat="46.60263" lon="0.62171">
        <ele>96.4</ele>
        <time>2024-02-11T08:02:40Z</time>
      </trkpt>
      <trkpt lat="46.60258" lon="0.62172">
        <ele>95.4</ele>
        <time>2024-02-11T08:02:42Z</time>
      </trkpt>
      <trkpt lat="46.60255" lon="0.62173">
        <ele>93.8</ele>
        <time>2024-02-11T08:02:44Z</time>
      </trkpt>
      <trkpt lat="46.60251" lon="0.62178">
        <ele>92.6</ele>
        <time>2024-02-11T08:02:46Z</time>
      </trkpt>
      <trkpt lat="46.60247" lon="0.62179">
        <ele>91.8</ele>
        <time>2024-02-11T08:02:47Z</time>
      </trkpt>
      <trkpt lat="46.60245" lon="0.62181">
        <ele>90.8</ele>
        <time>2024-02-11T08:02:48Z</time>
      </trkpt>
      <trkpt lat="46.60243" lon="0.62182">
        <ele>90</ele>
        <time>2024-02-11T08:02:49Z</time>
      </trkpt>
      <trkpt lat="46.60241" lon="0.62183">
        <ele>89</ele>
        <time>2024-02-11T08:02:50Z</time>
      </trkpt>
      <trkpt lat="46.60229" lon="0.62187">
        <ele>88.4</ele>
        <time>2024-02-11T08:02:57Z</time>
      </trkpt>
      <trkpt lat="46.60223" lon="0.62193">
        <ele>88.2</ele>
        <time>2024-02-11T08:03:11Z</time>
      </trkpt>
      <trkpt lat="46.60221" lon="0.62194">
        <ele>88.2</ele>
        <time>2024-02-11T08:03:27Z</time>
      </trkpt>
      <trkpt lat="46.60221" lon="0.62194">
        <ele>88</ele>
        <time>2024-02-11T08:03:28Z</time>
      </trkpt>
      <trkpt lat="46.60217" lon="0.62198">
        <ele>88</ele>
        <time>2024-02-11T08:03:44Z</time>
      </trkpt>
      <trkpt lat="46.60216" lon="0.62206">
        <ele>88.2</ele>
        <time>2024-02-11T08:03:54Z</time>
      </trkpt>
      <trkpt lat="46.60217" lon="0.6221">
        <ele>88.4</ele>
        <time>2024-02-11T08:03:58Z</time>
      </trkpt>
      <trkpt lat="46.60217" lon="0.62216">
        <ele>88.2</ele>
        <time>2024-02-11T08:04:05Z</time>
      </trkpt>
      <trkpt lat="46.60217" lon="0.62219">
        <ele>88.4</ele>
        <time>2024-02-11T08:04:07Z</time>
      </trkpt>
      <trkpt lat="46.60216" lon="0.62223">
        <ele>88.2</ele>
        <time>2024-02-11T08:04:11Z</time>
      </trkpt>
      <trkpt lat="46.60215" lon="0.62224">
        <ele>88</ele>
        <time>2024-02-11T08:04:12Z</time>
      </trkpt>
      <trkpt lat="46.6021" lon="0.62223">
        <ele>88.2</ele>
        <time>2024-02-11T08:04:24Z</time>
      </trkpt>
      <trkpt lat="46.60208" lon="0.62209">
        <ele>88.2</ele>
        <time>2024-02-11T08:04:32Z</time>
      </trkpt>
      <trkpt lat="46.60204" lon="0.62184">
        <ele>88.2</ele>
        <time>2024-02-11T08:04:45Z</time>
      </trkpt>
      <trkpt lat="46.60196" lon="0.62166">
        <ele>87.8</ele>
        <time>2024-02-11T08:04:53Z</time>
      </trkpt>
      <trkpt lat="46.6018" lon="0.62147">
        <ele>87.2</ele>
        <time>2024-02-11T08:05:00Z</time>
      </trkpt>
      <trkpt lat="46.60172" lon="0.62132">
        <ele>87.2</ele>
        <time>2024-02-11T08:05:06Z</time>
      </trkpt>
      <trkpt lat="46.60172" lon="0.62125">
        <ele>87</ele>
        <time>2024-02-11T08:05:08Z</time>
      </trkpt>
      <trkpt lat="46.60172" lon="0.62121">
        <ele>86.4</ele>
        <time>2024-02-11T08:05:09Z</time>
      </trkpt>
      <trkpt lat="46.60171" lon="0.62116">
        <ele>86</ele>
        <time>2024-02-11T08:05:10Z</time>
      </trkpt>
      <trkpt lat="46.6017" lon="0.62112">
        <ele>85.6</ele>
        <time>2024-02-11T08:05:11Z</time>
      </trkpt>
      <trkpt lat="46.60165" lon="0.621">
        <ele>84.8</ele>
        <time>2024-02-11T08:05:14Z</time>
      </trkpt>
      <trkpt lat="46.60161" lon="0.62095">
        <ele>84.6</ele>
        <time>2024-02-11T08:05:15Z</time>
      </trkpt>
      <trkpt lat="46.60157" lon="0.62089">
        <ele>84.4</ele>
        <time>2024-02-11T08:05:17Z</time>
      </trkpt>
      <trkpt lat="46.60145" lon="0.62078">
        <ele>83.8</ele>
        <time>2024-02-11T08:05:23Z</time>
      </trkpt>
      <trkpt lat="46.60144" lon="0.62077">
        <ele>83.8</ele>
        <time>2024-02-11T08:05:24Z</time>
      </trkpt>
      <trkpt lat="46.60132" lon="0.62064">
        <ele>84</ele>
        <time>2024-02-11T08:05:37Z</time>
      </trkpt>
      <trkpt lat="46.60129" lon="0.62057">
        <ele>83.4</ele>
        <time>2024-02-11T08:05:49Z</time>
      </trkpt>
      <trkpt lat="46.6013" lon="0.62048">
        <ele>84.2</ele>
        <time>2024-02-11T08:06:00Z</time>
      </trkpt>
      <trkpt lat="46.6013" lon="0.62046">
        <ele>84.2</ele>
        <time>2024-02-11T08:06:02Z</time>
      </trkpt>
      <trkpt lat="46.60128" lon="0.62043">
        <ele>84</ele>
        <time>2024-02-11T08:06:07Z</time>
      </trkpt>
      <trkpt lat="46.60126" lon="0.62042">
        <ele>84</ele>
        <time>2024-02-11T08:06:09Z</time>
      </trkpt>
      <trkpt lat="46.60125" lon="0.62041">
        <ele>84</ele>
        <time>2024-02-11T08:06:11Z</time>
      </trkpt>
      <trkpt lat="46.60124" lon="0.62041">
        <ele>84</ele>
        <time>2024-02-11T08:06:14Z</time>
      </trkpt>
      <trkpt lat="46.60121" lon="0.6204">
        <ele>83.4</ele>
        <time>2024-02-11T08:06:18Z</time>
      </trkpt>
      <trkpt lat="46.60117" lon="0.62038">
        <ele>83.2</ele>
        <time>2024-02-11T08:06:25Z</time>
      </trkpt>
      <trkpt lat="46.60116" lon="0.62037">
        <ele>83.2</ele>
        <time>2024-02-11T08:06:26Z</time>
      </trkpt>
      <trkpt lat="46.6011" lon="0.62033">
        <ele>83.4</ele>
        <time>2024-02-11T08:06:39Z</time>
      </trkpt>
      <trkpt lat="46.60109" lon="0.6203">
        <ele>82.8</ele>
        <time>2024-02-11T08:06:46Z</time>
      </trkpt>
      <trkpt lat="46.6011" lon="0.62029">
        <ele>82.8</ele>
        <time>2024-02-11T08:06:52Z</time>
      </trkpt>
      <trkpt lat="46.60112" lon="0.62028">
        <ele>83</ele>
        <time>2024-02-11T08:06:55Z</time>
      </trkpt>
      <trkpt lat="46.60113" lon="0.62029">
        <ele>83.2</ele>
        <time>2024-02-11T08:06:57Z</time>
      </trkpt>
      <trkpt lat="46.60114" lon="0.62032">
        <ele>83.4</ele>
        <time>2024-02-11T08:07:01Z</time>
      </trkpt>
      <trkpt lat="46.60116" lon="0.62035">
        <ele>83.4</ele>
        <time>2024-02-11T08:07:04Z</time>
      </trkpt>
      <trkpt lat="46.60116" lon="0.62039">
        <ele>83.2</ele>
        <time>2024-02-11T08:07:08Z</time>
      </trkpt>
      <trkpt lat="46.60115" lon="0.62039">
        <ele>83</ele>
        <time>2024-02-11T08:07:10Z</time>
      </trkpt>
      <trkpt lat="46.60111" lon="0.62036">
        <ele>82.6</ele>
        <time>2024-02-11T08:07:16Z</time>
      </trkpt>
      <trkpt lat="46.60109" lon="0.62033">
        <ele>82.6</ele>
        <time>2024-02-11T08:07:18Z</time>
      </trkpt>
      <trkpt lat="46.60102" lon="0.62022">
        <ele>83.6</ele>
        <time>2024-02-11T08:07:28Z</time>
      </trkpt>
      <trkpt lat="46.601" lon="0.62019">
        <ele>83.8</ele>
        <time>2024-02-11T08:07:30Z</time>
      </trkpt>
      <trkpt lat="46.601" lon="0.62006">
        <ele>83</ele>
        <time>2024-02-11T08:07:37Z</time>
      </trkpt>
      <trkpt lat="46.60101" lon="0.62002">
        <ele>82.8</ele>
        <time>2024-02-11T08:07:39Z</time>
      </trkpt>
      <trkpt lat="46.60093" lon="0.61983">
        <ele>83.8</ele>
        <time>2024-02-11T08:07:48Z</time>
      </trkpt>
      <trkpt lat="46.6009" lon="0.61978">
        <ele>84</ele>
        <time>2024-02-11T08:07:50Z</time>
      </trkpt>
      <trkpt lat="46.60086" lon="0.61971">
        <ele>85.4</ele>
        <time>2024-02-11T08:07:53Z</time>
      </trkpt>
      <trkpt lat="46.6008" lon="0.61966">
        <ele>86.4</ele>
        <time>2024-02-11T08:07:56Z</time>
      </trkpt>
      <trkpt lat="46.60076" lon="0.61961">
        <ele>87</ele>
        <time>2024-02-11T08:07:58Z</time>
      </trkpt>
      <trkpt lat="46.60071" lon="0.61953">
        <ele>87.4</ele>
        <time>2024-02-11T08:08:02Z</time>
      </trkpt>
      <trkpt lat="46.60067" lon="0.61945">
        <ele>87.6</ele>
        <time>2024-02-11T08:08:05Z</time>
      </trkpt>
      <trkpt lat="46.60066" lon="0.61941">
        <ele>87.4</ele>
        <time>2024-02-11T08:08:07Z</time>
      </trkpt>
      <trkpt lat="46.60061" lon="0.61923">
        <ele>87.2</ele>
        <time>2024-02-11T08:08:17Z</time>
      </trkpt>
      <trkpt lat="46.60059" lon="0.6192">
        <ele>87.6</ele>
        <time>2024-02-11T08:08:18Z</time>
      </trkpt>
      <trkpt lat="46.60058" lon="0.61917">
        <ele>87.8</ele>
        <time>2024-02-11T08:08:19Z</time>
      </trkpt>
      <trkpt lat="46.60053" lon="0.61905">
        <ele>88.6</ele>
        <time>2024-02-11T08:08:25Z</time>
      </trkpt>
      <trkpt lat="46.60051" lon="0.61894">
        <ele>88.8</ele>
        <time>2024-02-11T08:08:29Z</time>
      </trkpt>
      <trkpt lat="46.60042" lon="0.61866">
        <ele>88.2</ele>
        <time>2024-02-11T08:08:36Z</time>
      </trkpt>
      <trkpt lat="46.60038" lon="0.61861">
        <ele>88</ele>
        <time>2024-02-11T08:08:38Z</time>
      </trkpt>
      <trkpt lat="46.60033" lon="0.61851">
        <ele>88</ele>
        <time>2024-02-11T08:08:41Z</time>
      </trkpt>
      <trkpt lat="46.60028" lon="0.61834">
        <ele>88.4</ele>
        <time>2024-02-11T08:08:47Z</time>
      </trkpt>
      <trkpt lat="46.60025" lon="0.61826">
        <ele>88.8</ele>
        <time>2024-02-11T08:08:50Z</time>
      </trkpt>
      <trkpt lat="46.60025" lon="0.61816">
        <ele>89</ele>
        <time>2024-02-11T08:08:53Z</time>
      </trkpt>
      <trkpt lat="46.60014" lon="0.61797">
        <ele>89.6</ele>
        <time>2024-02-11T08:08:58Z</time>
      </trkpt>
      <trkpt lat="46.60013" lon="0.61793">
        <ele>89.6</ele>
        <time>2024-02-11T08:08:59Z</time>
      </trkpt>
      <trkpt lat="46.60005" lon="0.61775">
        <ele>90.2</ele>
        <time>2024-02-11T08:09:04Z</time>
      </trkpt>
      <trkpt lat="46.60004" lon="0.61772">
        <ele>90.4</ele>
        <time>2024-02-11T08:09:05Z</time>
      </trkpt>
      <trkpt lat="46.60005" lon="0.61766">
        <ele>90.6</ele>
        <time>2024-02-11T08:09:07Z</time>
      </trkpt>
      <trkpt lat="46.59998" lon="0.61758">
        <ele>90.8</ele>
        <time>2024-02-11T08:09:09Z</time>
      </trkpt>
      <trkpt lat="46.59996" lon="0.6175">
        <ele>91.4</ele>
        <time>2024-02-11T08:09:11Z</time>
      </trkpt>
      <trkpt lat="46.59995" lon="0.61742">
        <ele>91.8</ele>
        <time>2024-02-11T08:09:13Z</time>
      </trkpt>
      <trkpt lat="46.59994" lon="0.61723">
        <ele>92.2</ele>
        <time>2024-02-11T08:09:18Z</time>
      </trkpt>
      <trkpt lat="46.59992" lon="0.61711">
        <ele>93.2</ele>
        <time>2024-02-11T08:09:22Z</time>
      </trkpt>
      <trkpt lat="46.5999" lon="0.61708">
        <ele>93.6</ele>
        <time>2024-02-11T08:09:23Z</time>
      </trkpt>
      <trkpt lat="46.59989" lon="0.61703">
        <ele>94.2</ele>
        <time>2024-02-11T08:09:25Z</time>
      </trkpt>
      <trkpt lat="46.5999" lon="0.61701">
        <ele>94.4</ele>
        <time>2024-02-11T08:09:26Z</time>
      </trkpt>
      <trkpt lat="46.59987" lon="0.61696">
        <ele>95.2</ele>
        <time>2024-02-11T08:09:28Z</time>
      </trkpt>
      <trkpt lat="46.59987" lon="0.61694">
        <ele>95.6</ele>
        <time>2024-02-11T08:09:29Z</time>
      </trkpt>
      <trkpt lat="46.59987" lon="0.61691">
        <ele>96</ele>
        <time>2024-02-11T08:09:30Z</time>
      </trkpt>
      <trkpt lat="46.59986" lon="0.61686">
        <ele>96.6</ele>
        <time>2024-02-11T08:09:32Z</time>
      </trkpt>
      <trkpt lat="46.59985" lon="0.61684">
        <ele>96.6</ele>
        <time>2024-02-11T08:09:33Z</time>
      </trkpt>
      <trkpt lat="46.59981" lon="0.61679">
        <ele>98</ele>
        <time>2024-02-11T08:09:37Z</time>
      </trkpt>
      <trkpt lat="46.59979" lon="0.61678">
        <ele>98.2</ele>
        <time>2024-02-11T08:09:39Z</time>
      </trkpt>
      <trkpt lat="46.59974" lon="0.61665">
        <ele>99</ele>
        <time>2024-02-11T08:09:47Z</time>
      </trkpt>
      <trkpt lat="46.59974" lon="0.61662">
        <ele>99.6</ele>
        <time>2024-02-11T08:09:49Z</time>
      </trkpt>
      <trkpt lat="46.59972" lon="0.61658">
        <ele>100</ele>
        <time>2024-02-11T08:09:53Z</time>
      </trkpt>
      <trkpt lat="46.59973" lon="0.61646">
        <ele>100.8</ele>
        <time>2024-02-11T08:09:59Z</time>
      </trkpt>
      <trkpt lat="46.59973" lon="0.61643">
        <ele>101.2</ele>
        <time>2024-02-11T08:10:01Z</time>
      </trkpt>
      <trkpt lat="46.59975" lon="0.61629">
        <ele>102.4</ele>
        <time>2024-02-11T08:10:07Z</time>
      </trkpt>
      <trkpt lat="46.59975" lon="0.61617">
        <ele>103.2</ele>
        <time>2024-02-11T08:10:13Z</time>
      </trkpt>
      <trkpt lat="46.59977" lon="0.6159">
        <ele>103.4</ele>
        <time>2024-02-11T08:10:24Z</time>
      </trkpt>
      <trkpt lat="46.59975" lon="0.61585">
        <ele>103.4</ele>
        <time>2024-02-11T08:10:26Z</time>
      </trkpt>
      <trkpt lat="46.59975" lon="0.61573">
        <ele>103.2</ele>
        <time>2024-02-11T08:10:29Z</time>
      </trkpt>
      <trkpt lat="46.59973" lon="0.61551">
        <ele>101.2</ele>
        <time>2024-02-11T08:10:34Z</time>
      </trkpt>
      <trkpt lat="46.59973" lon="0.61542">
        <ele>100.2</ele>
        <time>2024-02-11T08:10:36Z</time>
      </trkpt>
      <trkpt lat="46.59972" lon="0.61536">
        <ele>99.4</ele>
        <time>2024-02-11T08:10:37Z</time>
      </trkpt>
      <trkpt lat="46.59974" lon="0.61521">
        <ele>97.6</ele>
        <time>2024-02-11T08:10:40Z</time>
      </trkpt>
      <trkpt lat="46.59975" lon="0.61513">
        <ele>95.4</ele>
        <time>2024-02-11T08:10:42Z</time>
      </trkpt>
      <trkpt lat="46.59977" lon="0.61507">
        <ele>94.2</ele>
        <time>2024-02-11T08:10:44Z</time>
      </trkpt>
      <trkpt lat="46.59978" lon="0.61502">
        <ele>92.6</ele>
        <time>2024-02-11T08:10:46Z</time>
      </trkpt>
      <trkpt lat="46.59979" lon="0.61498">
        <ele>91</ele>
        <time>2024-02-11T08:10:48Z</time>
      </trkpt>
      <trkpt lat="46.5998" lon="0.61496">
        <ele>90.6</ele>
        <time>2024-02-11T08:10:49Z</time>
      </trkpt>
      <trkpt lat="46.59981" lon="0.61491">
        <ele>90</ele>
        <time>2024-02-11T08:10:52Z</time>
      </trkpt>
      <trkpt lat="46.59982" lon="0.61489">
        <ele>90</ele>
        <time>2024-02-11T08:10:53Z</time>
      </trkpt>
      <trkpt lat="46.59982" lon="0.61487">
        <ele>89.8</ele>
        <time>2024-02-11T08:10:54Z</time>
      </trkpt>
      <trkpt lat="46.59982" lon="0.61486">
        <ele>89.4</ele>
        <time>2024-02-11T08:10:55Z</time>
      </trkpt>
      <trkpt lat="46.59982" lon="0.61482">
        <ele>89</ele>
        <time>2024-02-11T08:10:57Z</time>
      </trkpt>
      <trkpt lat="46.59982" lon="0.6148">
        <ele>88.8</ele>
        <time>2024-02-11T08:10:58Z</time>
      </trkpt>
      <trkpt lat="46.59984" lon="0.61477">
        <ele>87.6</ele>
        <time>2024-02-11T08:11:01Z</time>
      </trkpt>
      <trkpt lat="46.59985" lon="0.61468">
        <ele>86.4</ele>
        <time>2024-02-11T08:11:06Z</time>
      </trkpt>
      <trkpt lat="46.59985" lon="0.61465">
        <ele>85.4</ele>
        <time>2024-02-11T08:11:07Z</time>
      </trkpt>
      <trkpt lat="46.59985" lon="0.61463">
        <ele>84.8</ele>
        <time>2024-02-11T08:11:08Z</time>
      </trkpt>
      <trkpt lat="46.59986" lon="0.61461">
        <ele>83.8</ele>
        <time>2024-02-11T08:11:09Z</time>
      </trkpt>
      <trkpt lat="46.59986" lon="0.61458">
        <ele>82.4</ele>
        <time>2024-02-11T08:11:10Z</time>
      </trkpt>
      <trkpt lat="46.59988" lon="0.61455">
        <ele>81.2</ele>
        <time>2024-02-11T08:11:11Z</time>
      </trkpt>
      <trkpt lat="46.59989" lon="0.61448">
        <ele>79.2</ele>
        <time>2024-02-11T08:11:13Z</time>
      </trkpt>
      <trkpt lat="46.5999" lon="0.61445">
        <ele>78.2</ele>
        <time>2024-02-11T08:11:14Z</time>
      </trkpt>
      <trkpt lat="46.5999" lon="0.61441">
        <ele>77.6</ele>
        <time>2024-02-11T08:11:15Z</time>
      </trkpt>
      <trkpt lat="46.59993" lon="0.61433">
        <ele>76.4</ele>
        <time>2024-02-11T08:11:17Z</time>
      </trkpt>
      <trkpt lat="46.59995" lon="0.61421">
        <ele>75.4</ele>
        <time>2024-02-11T08:11:20Z</time>
      </trkpt>
      <trkpt lat="46.59997" lon="0.61408">
        <ele>75.2</ele>
        <time>2024-02-11T08:11:23Z</time>
      </trkpt>
      <trkpt lat="46.6" lon="0.61395">
        <ele>74.8</ele>
        <time>2024-02-11T08:11:26Z</time>
      </trkpt>
      <trkpt lat="46.60004" lon="0.61364">
        <ele>74.6</ele>
        <time>2024-02-11T08:11:33Z</time>
      </trkpt>
      <trkpt lat="46.60003" lon="0.6136">
        <ele>74.8</ele>
        <time>2024-02-11T08:11:34Z</time>
      </trkpt>
      <trkpt lat="46.59995" lon="0.61353">
        <ele>74.6</ele>
        <time>2024-02-11T08:11:37Z</time>
      </trkpt>
      <trkpt lat="46.59971" lon="0.61346">
        <ele>75.6</ele>
        <time>2024-02-11T08:11:45Z</time>
      </trkpt>
      <trkpt lat="46.59959" lon="0.61348">
        <ele>76.6</ele>
        <time>2024-02-11T08:11:49Z</time>
      </trkpt>
      <trkpt lat="46.59943" lon="0.61349">
        <ele>77.6</ele>
        <time>2024-02-11T08:11:54Z</time>
      </trkpt>
      <trkpt lat="46.5994" lon="0.6135">
        <ele>77.6</ele>
        <time>2024-02-11T08:11:55Z</time>
      </trkpt>
      <trkpt lat="46.59928" lon="0.61358">
        <ele>78.4</ele>
        <time>2024-02-11T08:12:01Z</time>
      </trkpt>
      <trkpt lat="46.59924" lon="0.61363">
        <ele>79</ele>
        <time>2024-02-11T08:12:04Z</time>
      </trkpt>
      <trkpt lat="46.59923" lon="0.61365">
        <ele>79.4</ele>
        <time>2024-02-11T08:12:05Z</time>
      </trkpt>
      <trkpt lat="46.59923" lon="0.61367">
        <ele>79.8</ele>
        <time>2024-02-11T08:12:06Z</time>
      </trkpt>
      <trkpt lat="46.59923" lon="0.61369">
        <ele>80</ele>
        <time>2024-02-11T08:12:07Z</time>
      </trkpt>
      <trkpt lat="46.59923" lon="0.61376">
        <ele>81.2</ele>
        <time>2024-02-11T08:12:11Z</time>
      </trkpt>
      <trkpt lat="46.59923" lon="0.61381">
        <ele>81.6</ele>
        <time>2024-02-11T08:12:13Z</time>
      </trkpt>
      <trkpt lat="46.59923" lon="0.61384">
        <ele>82.4</ele>
        <time>2024-02-11T08:12:14Z</time>
      </trkpt>
      <trkpt lat="46.59923" lon="0.6139">
        <ele>83.4</ele>
        <time>2024-02-11T08:12:17Z</time>
      </trkpt>
      <trkpt lat="46.59924" lon="0.61395">
        <ele>83.8</ele>
        <time>2024-02-11T08:12:19Z</time>
      </trkpt>
      <trkpt lat="46.59925" lon="0.614">
        <ele>84.4</ele>
        <time>2024-02-11T08:12:21Z</time>
      </trkpt>
      <trkpt lat="46.59924" lon="0.61411">
        <ele>85.6</ele>
        <time>2024-02-11T08:12:25Z</time>
      </trkpt>
      <trkpt lat="46.59925" lon="0.61418">
        <ele>86.2</ele>
        <time>2024-02-11T08:12:28Z</time>
      </trkpt>
      <trkpt lat="46.59925" lon="0.61423">
        <ele>86.8</ele>
        <time>2024-02-11T08:12:30Z</time>
      </trkpt>
      <trkpt lat="46.59926" lon="0.61434">
        <ele>87.8</ele>
        <time>2024-02-11T08:12:34Z</time>
      </trkpt>
      <trkpt lat="46.59925" lon="0.6144">
        <ele>88.2</ele>
        <time>2024-02-11T08:12:37Z</time>
      </trkpt>
      <trkpt lat="46.59924" lon="0.61445">
        <ele>89</ele>
        <time>2024-02-11T08:12:40Z</time>
      </trkpt>
      <trkpt lat="46.59923" lon="0.61453">
        <ele>90.2</ele>
        <time>2024-02-11T08:12:44Z</time>
      </trkpt>
      <trkpt lat="46.59921" lon="0.61463">
        <ele>91.2</ele>
        <time>2024-02-11T08:12:49Z</time>
      </trkpt>
      <trkpt lat="46.59919" lon="0.61469">
        <ele>92</ele>
        <time>2024-02-11T08:12:52Z</time>
      </trkpt>
      <trkpt lat="46.59918" lon="0.61472">
        <ele>92.4</ele>
        <time>2024-02-11T08:12:54Z</time>
      </trkpt>
      <trkpt lat="46.59918" lon="0.61478">
        <ele>93.2</ele>
        <time>2024-02-11T08:12:57Z</time>
      </trkpt>
      <trkpt lat="46.59918" lon="0.6148">
        <ele>93.6</ele>
        <time>2024-02-11T08:12:58Z</time>
      </trkpt>
      <trkpt lat="46.59917" lon="0.61482">
        <ele>93.8</ele>
        <time>2024-02-11T08:12:59Z</time>
      </trkpt>
      <trkpt lat="46.59915" lon="0.6149">
        <ele>95</ele>
        <time>2024-02-11T08:13:03Z</time>
      </trkpt>
      <trkpt lat="46.59914" lon="0.61494">
        <ele>95.6</ele>
        <time>2024-02-11T08:13:05Z</time>
      </trkpt>
      <trkpt lat="46.59914" lon="0.61498">
        <ele>96</ele>
        <time>2024-02-11T08:13:07Z</time>
      </trkpt>
      <trkpt lat="46.59914" lon="0.615">
        <ele>96.2</ele>
        <time>2024-02-11T08:13:08Z</time>
      </trkpt>
      <trkpt lat="46.59913" lon="0.61505">
        <ele>97.4</ele>
        <time>2024-02-11T08:13:11Z</time>
      </trkpt>
      <trkpt lat="46.5991" lon="0.6151">
        <ele>98.2</ele>
        <time>2024-02-11T08:13:15Z</time>
      </trkpt>
      <trkpt lat="46.5991" lon="0.61512">
        <ele>98.4</ele>
        <time>2024-02-11T08:13:16Z</time>
      </trkpt>
      <trkpt lat="46.59908" lon="0.61519">
        <ele>99.4</ele>
        <time>2024-02-11T08:13:20Z</time>
      </trkpt>
      <trkpt lat="46.59906" lon="0.61523">
        <ele>99.8</ele>
        <time>2024-02-11T08:13:22Z</time>
      </trkpt>
      <trkpt lat="46.59905" lon="0.61529">
        <ele>100.6</ele>
        <time>2024-02-11T08:13:25Z</time>
      </trkpt>
      <trkpt lat="46.59904" lon="0.61531">
        <ele>100.8</ele>
        <time>2024-02-11T08:13:26Z</time>
      </trkpt>
      <trkpt lat="46.59904" lon="0.61538">
        <ele>101.8</ele>
        <time>2024-02-11T08:13:30Z</time>
      </trkpt>
      <trkpt lat="46.59902" lon="0.61546">
        <ele>103</ele>
        <time>2024-02-11T08:13:34Z</time>
      </trkpt>
      <trkpt lat="46.59902" lon="0.61551">
        <ele>104</ele>
        <time>2024-02-11T08:13:37Z</time>
      </trkpt>
      <trkpt lat="46.59902" lon="0.61553">
        <ele>104.4</ele>
        <time>2024-02-11T08:13:38Z</time>
      </trkpt>
      <trkpt lat="46.59902" lon="0.61559">
        <ele>105.4</ele>
        <time>2024-02-11T08:13:42Z</time>
      </trkpt>
      <trkpt lat="46.59901" lon="0.61567">
        <ele>106.4</ele>
        <time>2024-02-11T08:13:48Z</time>
      </trkpt>
      <trkpt lat="46.599" lon="0.61572">
        <ele>106.6</ele>
        <time>2024-02-11T08:13:50Z</time>
      </trkpt>
      <trkpt lat="46.59899" lon="0.61579">
        <ele>107.4</ele>
        <time>2024-02-11T08:13:55Z</time>
      </trkpt>
      <trkpt lat="46.599" lon="0.61584">
        <ele>108.4</ele>
        <time>2024-02-11T08:13:58Z</time>
      </trkpt>
      <trkpt lat="46.599" lon="0.61586">
        <ele>108.6</ele>
        <time>2024-02-11T08:13:59Z</time>
      </trkpt>
      <trkpt lat="46.59899" lon="0.61598">
        <ele>109.8</ele>
        <time>2024-02-11T08:14:06Z</time>
      </trkpt>
      <trkpt lat="46.59899" lon="0.61606">
        <ele>110.6</ele>
        <time>2024-02-11T08:14:10Z</time>
      </trkpt>
      <trkpt lat="46.59899" lon="0.61611">
        <ele>111.2</ele>
        <time>2024-02-11T08:14:12Z</time>
      </trkpt>
      <trkpt lat="46.59898" lon="0.6163">
        <ele>112.2</ele>
        <time>2024-02-11T08:14:20Z</time>
      </trkpt>
      <trkpt lat="46.59898" lon="0.61632">
        <ele>112.2</ele>
        <time>2024-02-11T08:14:21Z</time>
      </trkpt>
      <trkpt lat="46.59898" lon="0.61647">
        <ele>113.4</ele>
        <time>2024-02-11T08:14:28Z</time>
      </trkpt>
      <trkpt lat="46.59898" lon="0.61663">
        <ele>114.2</ele>
        <time>2024-02-11T08:14:34Z</time>
      </trkpt>
      <trkpt lat="46.59899" lon="0.61669">
        <ele>114.4</ele>
        <time>2024-02-11T08:14:36Z</time>
      </trkpt>
      <trkpt lat="46.59901" lon="0.61684">
        <ele>114.6</ele>
        <time>2024-02-11T08:14:41Z</time>
      </trkpt>
      <trkpt lat="46.59904" lon="0.617">
        <ele>114.6</ele>
        <time>2024-02-11T08:14:47Z</time>
      </trkpt>
      <trkpt lat="46.59908" lon="0.61725">
        <ele>114.6</ele>
        <time>2024-02-11T08:14:54Z</time>
      </trkpt>
      <trkpt lat="46.59913" lon="0.61757">
        <ele>114.6</ele>
        <time>2024-02-11T08:15:02Z</time>
      </trkpt>
      <trkpt lat="46.59915" lon="0.61784">
        <ele>114.6</ele>
        <time>2024-02-11T08:15:08Z</time>
      </trkpt>
      <trkpt lat="46.59917" lon="0.61821">
        <ele>114.4</ele>
        <time>2024-02-11T08:15:16Z</time>
      </trkpt>
      <trkpt lat="46.59919" lon="0.61849">
        <ele>114.6</ele>
        <time>2024-02-11T08:15:22Z</time>
      </trkpt>
      <trkpt lat="46.59916" lon="0.61882">
        <ele>114.6</ele>
        <time>2024-02-11T08:15:29Z</time>
      </trkpt>
      <trkpt lat="46.59914" lon="0.61913">
        <ele>115</ele>
        <time>2024-02-11T08:15:36Z</time>
      </trkpt>
      <trkpt lat="46.59915" lon="0.61932">
        <ele>115.2</ele>
        <time>2024-02-11T08:15:41Z</time>
      </trkpt>
      <trkpt lat="46.59915" lon="0.61955">
        <ele>115.4</ele>
        <time>2024-02-11T08:15:47Z</time>
      </trkpt>
      <trkpt lat="46.59913" lon="0.61978">
        <ele>115.6</ele>
        <time>2024-02-11T08:15:53Z</time>
      </trkpt>
      <trkpt lat="46.59912" lon="0.61982">
        <ele>115.8</ele>
        <time>2024-02-11T08:15:54Z</time>
      </trkpt>
      <trkpt lat="46.59911" lon="0.62004">
        <ele>116.2</ele>
        <time>2024-02-11T08:16:00Z</time>
      </trkpt>
      <trkpt lat="46.5991" lon="0.6202">
        <ele>116.8</ele>
        <time>2024-02-11T08:16:04Z</time>
      </trkpt>
      <trkpt lat="46.5991" lon="0.62035">
        <ele>117.2</ele>
        <time>2024-02-11T08:16:08Z</time>
      </trkpt>
      <trkpt lat="46.5991" lon="0.62047">
        <ele>117.8</ele>
        <time>2024-02-11T08:16:11Z</time>
      </trkpt>
      <trkpt lat="46.59909" lon="0.62067">
        <ele>118</ele>
        <time>2024-02-11T08:16:16Z</time>
      </trkpt>
      <trkpt lat="46.59908" lon="0.62088">
        <ele>118.8</ele>
        <time>2024-02-11T08:16:21Z</time>
      </trkpt>
      <trkpt lat="46.59907" lon="0.62092">
        <ele>118.8</ele>
        <time>2024-02-11T08:16:22Z</time>
      </trkpt>
      <trkpt lat="46.59906" lon="0.62122">
        <ele>119.8</ele>
        <time>2024-02-11T08:16:29Z</time>
      </trkpt>
      <trkpt lat="46.59908" lon="0.62148">
        <ele>120.4</ele>
        <time>2024-02-11T08:16:36Z</time>
      </trkpt>
      <trkpt lat="46.59908" lon="0.6216">
        <ele>121</ele>
        <time>2024-02-11T08:16:39Z</time>
      </trkpt>
      <trkpt lat="46.59907" lon="0.6217">
        <ele>121.2</ele>
        <time>2024-02-11T08:16:42Z</time>
      </trkpt>
      <trkpt lat="46.59906" lon="0.62172">
        <ele>121.4</ele>
        <time>2024-02-11T08:16:43Z</time>
      </trkpt>
      <trkpt lat="46.59895" lon="0.62183">
        <ele>121.6</ele>
        <time>2024-02-11T08:16:50Z</time>
      </trkpt>
      <trkpt lat="46.59895" lon="0.62189">
        <ele>121.6</ele>
        <time>2024-02-11T08:16:54Z</time>
      </trkpt>
      <trkpt lat="46.59895" lon="0.62193">
        <ele>121.2</ele>
        <time>2024-02-11T08:17:08Z</time>
      </trkpt>
      <trkpt lat="46.59895" lon="0.62193">
        <ele>121</ele>
        <time>2024-02-11T08:17:30Z</time>
      </trkpt>
      <trkpt lat="46.59895" lon="0.62193">
        <ele>120.8</ele>
        <time>2024-02-11T08:17:48Z</time>
      </trkpt>
      <trkpt lat="46.59894" lon="0.62193">
        <ele>121.4</ele>
        <time>2024-02-11T08:18:07Z</time>
      </trkpt>
      <trkpt lat="46.59893" lon="0.62194">
        <ele>121.4</ele>
        <time>2024-02-11T08:18:24Z</time>
      </trkpt>
      <trkpt lat="46.59894" lon="0.62193">
        <ele>121.4</ele>
        <time>2024-02-11T08:18:39Z</time>
      </trkpt>
      <trkpt lat="46.59895" lon="0.62193">
        <ele>121.4</ele>
        <time>2024-02-11T08:18:59Z</time>
      </trkpt>
      <trkpt lat="46.59895" lon="0.62199">
        <ele>121.4</ele>
        <time>2024-02-11T08:19:10Z</time>
      </trkpt>
      <trkpt lat="46.59892" lon="0.62205">
        <ele>121.4</ele>
        <time>2024-02-11T08:19:25Z</time>
      </trkpt>
      <trkpt lat="46.59891" lon="0.62205">
        <ele>121.4</ele>
        <time>2024-02-11T08:19:42Z</time>
      </trkpt>
      <trkpt lat="46.59893" lon="0.62212">
        <ele>121.4</ele>
        <time>2024-02-11T08:19:53Z</time>
      </trkpt>
      <trkpt lat="46.59897" lon="0.62235">
        <ele>121.8</ele>
        <time>2024-02-11T08:20:03Z</time>
      </trkpt>
      <trkpt lat="46.59899" lon="0.62244">
        <ele>122</ele>
        <time>2024-02-11T08:20:06Z</time>
      </trkpt>
      <trkpt lat="46.599" lon="0.62258">
        <ele>122.2</ele>
        <time>2024-02-11T08:20:10Z</time>
      </trkpt>
      <trkpt lat="46.59903" lon="0.62289">
        <ele>123</ele>
        <time>2024-02-11T08:20:17Z</time>
      </trkpt>
      <trkpt lat="46.59908" lon="0.62324">
        <ele>123</ele>
        <time>2024-02-11T08:20:23Z</time>
      </trkpt>
      <trkpt lat="46.59911" lon="0.62361">
        <ele>123.4</ele>
        <time>2024-02-11T08:20:30Z</time>
      </trkpt>
      <trkpt lat="46.59911" lon="0.62402">
        <ele>123.8</ele>
        <time>2024-02-11T08:20:37Z</time>
      </trkpt>
      <trkpt lat="46.59918" lon="0.6243">
        <ele>123.6</ele>
        <time>2024-02-11T08:20:42Z</time>
      </trkpt>
      <trkpt lat="46.59922" lon="0.6244">
        <ele>123.6</ele>
        <time>2024-02-11T08:20:44Z</time>
      </trkpt>
      <trkpt lat="46.59928" lon="0.62459">
        <ele>123.8</ele>
        <time>2024-02-11T08:20:48Z</time>
      </trkpt>
      <trkpt lat="46.5994" lon="0.62482">
        <ele>123.8</ele>
        <time>2024-02-11T08:20:53Z</time>
      </trkpt>
      <trkpt lat="46.59952" lon="0.62501">
        <ele>123.6</ele>
        <time>2024-02-11T08:20:58Z</time>
      </trkpt>
      <trkpt lat="46.59956" lon="0.62508">
        <ele>123.4</ele>
        <time>2024-02-11T08:21:00Z</time>
      </trkpt>
      <trkpt lat="46.5996" lon="0.62514">
        <ele>123.2</ele>
        <time>2024-02-11T08:21:02Z</time>
      </trkpt>
      <trkpt lat="46.5997" lon="0.62523">
        <ele>123</ele>
        <time>2024-02-11T08:21:05Z</time>
      </trkpt>
      <trkpt lat="46.59982" lon="0.62535">
        <ele>122.4</ele>
        <time>2024-02-11T08:21:08Z</time>
      </trkpt>
      <trkpt lat="46.59987" lon="0.62543">
        <ele>122</ele>
        <time>2024-02-11T08:21:10Z</time>
      </trkpt>
      <trkpt lat="46.5999" lon="0.62555">
        <ele>121.6</ele>
        <time>2024-02-11T08:21:12Z</time>
      </trkpt>
      <trkpt lat="46.59993" lon="0.62567">
        <ele>121.2</ele>
        <time>2024-02-11T08:21:14Z</time>
      </trkpt>
      <trkpt lat="46.59995" lon="0.62572">
        <ele>121.2</ele>
        <time>2024-02-11T08:21:15Z</time>
      </trkpt>
      <trkpt lat="46.59998" lon="0.62577">
        <ele>121.2</ele>
        <time>2024-02-11T08:21:16Z</time>
      </trkpt>
      <trkpt lat="46.60004" lon="0.62587">
        <ele>121</ele>
        <time>2024-02-11T08:21:18Z</time>
      </trkpt>
      <trkpt lat="46.60008" lon="0.62597">
        <ele>120.8</ele>
        <time>2024-02-11T08:21:20Z</time>
      </trkpt>
      <trkpt lat="46.60012" lon="0.62606">
        <ele>120.6</ele>
        <time>2024-02-11T08:21:22Z</time>
      </trkpt>
      <trkpt lat="46.60014" lon="0.6261">
        <ele>120</ele>
        <time>2024-02-11T08:21:23Z</time>
      </trkpt>
      <trkpt lat="46.60018" lon="0.62616">
        <ele>119.6</ele>
        <time>2024-02-11T08:21:24Z</time>
      </trkpt>
      <trkpt lat="46.60022" lon="0.62625">
        <ele>118.8</ele>
        <time>2024-02-11T08:21:26Z</time>
      </trkpt>
      <trkpt lat="46.60025" lon="0.6263">
        <ele>118.6</ele>
        <time>2024-02-11T08:21:27Z</time>
      </trkpt>
      <trkpt lat="46.60033" lon="0.62644">
        <ele>118</ele>
        <time>2024-02-11T08:21:30Z</time>
      </trkpt>
      <trkpt lat="46.60035" lon="0.62648">
        <ele>117.8</ele>
        <time>2024-02-11T08:21:31Z</time>
      </trkpt>
      <trkpt lat="46.6004" lon="0.62658">
        <ele>117.2</ele>
        <time>2024-02-11T08:21:33Z</time>
      </trkpt>
      <trkpt lat="46.60049" lon="0.62676">
        <ele>117.2</ele>
        <time>2024-02-11T08:21:36Z</time>
      </trkpt>
      <trkpt lat="46.60052" lon="0.6268">
        <ele>117.2</ele>
        <time>2024-02-11T08:21:37Z</time>
      </trkpt>
      <trkpt lat="46.60056" lon="0.62688">
        <ele>117.4</ele>
        <time>2024-02-11T08:21:39Z</time>
      </trkpt>
      <trkpt lat="46.60065" lon="0.62705">
        <ele>117.6</ele>
        <time>2024-02-11T08:21:42Z</time>
      </trkpt>
      <trkpt lat="46.60069" lon="0.62713">
        <ele>117.4</ele>
        <time>2024-02-11T08:21:44Z</time>
      </trkpt>
      <trkpt lat="46.60075" lon="0.62722">
        <ele>117.4</ele>
        <time>2024-02-11T08:21:46Z</time>
      </trkpt>
      <trkpt lat="46.60087" lon="0.62742">
        <ele>117</ele>
        <time>2024-02-11T08:21:50Z</time>
      </trkpt>
      <trkpt lat="46.60089" lon="0.62748">
        <ele>117</ele>
        <time>2024-02-11T08:21:51Z</time>
      </trkpt>
      <trkpt lat="46.60092" lon="0.62754">
        <ele>116.8</ele>
        <time>2024-02-11T08:21:52Z</time>
      </trkpt>
      <trkpt lat="46.60094" lon="0.62762">
        <ele>116.4</ele>
        <time>2024-02-11T08:21:54Z</time>
      </trkpt>
      <trkpt lat="46.60094" lon="0.62769">
        <ele>116</ele>
        <time>2024-02-11T08:21:56Z</time>
      </trkpt>
      <trkpt lat="46.60092" lon="0.62772">
        <ele>115.8</ele>
        <time>2024-02-11T08:21:58Z</time>
      </trkpt>
      <trkpt lat="46.60091" lon="0.62772">
        <ele>115.8</ele>
        <time>2024-02-11T08:21:59Z</time>
      </trkpt>
      <trkpt lat="46.60083" lon="0.62769">
        <ele>116.2</ele>
        <time>2024-02-11T08:22:03Z</time>
      </trkpt>
      <trkpt lat="46.60075" lon="0.62765">
        <ele>117.2</ele>
        <time>2024-02-11T08:22:06Z</time>
      </trkpt>
      <trkpt lat="46.60065" lon="0.62758">
        <ele>117.8</ele>
        <time>2024-02-11T08:22:10Z</time>
      </trkpt>
      <trkpt lat="46.60059" lon="0.62752">
        <ele>117.8</ele>
        <time>2024-02-11T08:22:13Z</time>
      </trkpt>
      <trkpt lat="46.60058" lon="0.62748">
        <ele>118</ele>
        <time>2024-02-11T08:22:15Z</time>
      </trkpt>
      <trkpt lat="46.60057" lon="0.62744">
        <ele>118</ele>
        <time>2024-02-11T08:22:17Z</time>
      </trkpt>
      <trkpt lat="46.60054" lon="0.62739">
        <ele>118.2</ele>
        <time>2024-02-11T08:22:20Z</time>
      </trkpt>
      <trkpt lat="46.60053" lon="0.62736">
        <ele>118.4</ele>
        <time>2024-02-11T08:22:21Z</time>
      </trkpt>
      <trkpt lat="46.6005" lon="0.62727">
        <ele>119</ele>
        <time>2024-02-11T08:22:25Z</time>
      </trkpt>
      <trkpt lat="46.6005" lon="0.62723">
        <ele>119.2</ele>
        <time>2024-02-11T08:22:26Z</time>
      </trkpt>
      <trkpt lat="46.60045" lon="0.62714">
        <ele>119.4</ele>
        <time>2024-02-11T08:22:30Z</time>
      </trkpt>
      <trkpt lat="46.60032" lon="0.62711">
        <ele>119.8</ele>
        <time>2024-02-11T08:22:35Z</time>
      </trkpt>
      <trkpt lat="46.60022" lon="0.62701">
        <ele>120.4</ele>
        <time>2024-02-11T08:22:40Z</time>
      </trkpt>
      <trkpt lat="46.60016" lon="0.62694">
        <ele>120.6</ele>
        <time>2024-02-11T08:22:43Z</time>
      </trkpt>
      <trkpt lat="46.60008" lon="0.62682">
        <ele>121.4</ele>
        <time>2024-02-11T08:22:48Z</time>
      </trkpt>
      <trkpt lat="46.60004" lon="0.62676">
        <ele>121.6</ele>
        <time>2024-02-11T08:22:50Z</time>
      </trkpt>
      <trkpt lat="46.59994" lon="0.62663">
        <ele>122.4</ele>
        <time>2024-02-11T08:22:54Z</time>
      </trkpt>
      <trkpt lat="46.59989" lon="0.62655">
        <ele>122.6</ele>
        <time>2024-02-11T08:22:56Z</time>
      </trkpt>
      <trkpt lat="46.59973" lon="0.62635">
        <ele>123.6</ele>
        <time>2024-02-11T08:23:03Z</time>
      </trkpt>
      <trkpt lat="46.5997" lon="0.62632">
        <ele>123.6</ele>
        <time>2024-02-11T08:23:04Z</time>
      </trkpt>
      <trkpt lat="46.59959" lon="0.62616">
        <ele>124.6</ele>
        <time>2024-02-11T08:23:09Z</time>
      </trkpt>
      <trkpt lat="46.59952" lon="0.62604">
        <ele>125</ele>
        <time>2024-02-11T08:23:12Z</time>
      </trkpt>
      <trkpt lat="46.59946" lon="0.62598">
        <ele>125</ele>
        <time>2024-02-11T08:23:14Z</time>
      </trkpt>
      <trkpt lat="46.59939" lon="0.62591">
        <ele>125</ele>
        <time>2024-02-11T08:23:16Z</time>
      </trkpt>
      <trkpt lat="46.59934" lon="0.62587">
        <ele>125</ele>
        <time>2024-02-11T08:23:17Z</time>
      </trkpt>
      <trkpt lat="46.59905" lon="0.62563">
        <ele>125</ele>
        <time>2024-02-11T08:23:25Z</time>
      </trkpt>
      <trkpt lat="46.59879" lon="0.62541">
        <ele>125</ele>
        <time>2024-02-11T08:23:31Z</time>
      </trkpt>
      <trkpt lat="46.59871" lon="0.62533">
        <ele>125.4</ele>
        <time>2024-02-11T08:23:33Z</time>
      </trkpt>
      <trkpt lat="46.59861" lon="0.62528">
        <ele>125.4</ele>
        <time>2024-02-11T08:23:35Z</time>
      </trkpt>
      <trkpt lat="46.59857" lon="0.62527">
        <ele>125.4</ele>
        <time>2024-02-11T08:23:36Z</time>
      </trkpt>
      <trkpt lat="46.5984" lon="0.62528">
        <ele>125.4</ele>
        <time>2024-02-11T08:23:41Z</time>
      </trkpt>
      <trkpt lat="46.59838" lon="0.62531">
        <ele>125.4</ele>
        <time>2024-02-11T08:23:43Z</time>
      </trkpt>
      <trkpt lat="46.59838" lon="0.62536">
        <ele>125.2</ele>
        <time>2024-02-11T08:23:46Z</time>
      </trkpt>
      <trkpt lat="46.5984" lon="0.62546">
        <ele>125.2</ele>
        <time>2024-02-11T08:23:50Z</time>
      </trkpt>
      <trkpt lat="46.59844" lon="0.62553">
        <ele>125.4</ele>
        <time>2024-02-11T08:23:52Z</time>
      </trkpt>
      <trkpt lat="46.59846" lon="0.62557">
        <ele>125.4</ele>
        <time>2024-02-11T08:23:53Z</time>
      </trkpt>
      <trkpt lat="46.59849" lon="0.62564">
        <ele>125.6</ele>
        <time>2024-02-11T08:23:55Z</time>
      </trkpt>
      <trkpt lat="46.59852" lon="0.62573">
        <ele>125.6</ele>
        <time>2024-02-11T08:23:57Z</time>
      </trkpt>
      <trkpt lat="46.59852" lon="0.62578">
        <ele>125.6</ele>
        <time>2024-02-11T08:23:58Z</time>
      </trkpt>
      <trkpt lat="46.59855" lon="0.62599">
        <ele>125.4</ele>
        <time>2024-02-11T08:24:02Z</time>
      </trkpt>
      <trkpt lat="46.59859" lon="0.62615">
        <ele>125.2</ele>
        <time>2024-02-11T08:24:05Z</time>
      </trkpt>
      <trkpt lat="46.5986" lon="0.62627">
        <ele>125.2</ele>
        <time>2024-02-11T08:24:07Z</time>
      </trkpt>
      <trkpt lat="46.59861" lon="0.62632">
        <ele>125</ele>
        <time>2024-02-11T08:24:08Z</time>
      </trkpt>
      <trkpt lat="46.59862" lon="0.62636">
        <ele>125</ele>
        <time>2024-02-11T08:24:09Z</time>
      </trkpt>
      <trkpt lat="46.59866" lon="0.62645">
        <ele>124.8</ele>
        <time>2024-02-11T08:24:11Z</time>
      </trkpt>
      <trkpt lat="46.5987" lon="0.62656">
        <ele>124.4</ele>
        <time>2024-02-11T08:24:13Z</time>
      </trkpt>
      <trkpt lat="46.59874" lon="0.62667">
        <ele>124.2</ele>
        <time>2024-02-11T08:24:15Z</time>
      </trkpt>
      <trkpt lat="46.59882" lon="0.62683">
        <ele>123.8</ele>
        <time>2024-02-11T08:24:18Z</time>
      </trkpt>
      <trkpt lat="46.59885" lon="0.62697">
        <ele>123.6</ele>
        <time>2024-02-11T08:24:20Z</time>
      </trkpt>
      <trkpt lat="46.59888" lon="0.62713">
        <ele>123.6</ele>
        <time>2024-02-11T08:24:23Z</time>
      </trkpt>
      <trkpt lat="46.59892" lon="0.62728">
        <ele>123.2</ele>
        <time>2024-02-11T08:24:25Z</time>
      </trkpt>
      <trkpt lat="46.59896" lon="0.62746">
        <ele>122.6</ele>
        <time>2024-02-11T08:24:28Z</time>
      </trkpt>
      <trkpt lat="46.599" lon="0.62758">
        <ele>122.4</ele>
        <time>2024-02-11T08:24:30Z</time>
      </trkpt>
      <trkpt lat="46.59906" lon="0.6277">
        <ele>122.2</ele>
        <time>2024-02-11T08:24:32Z</time>
      </trkpt>
      <trkpt lat="46.59912" lon="0.62783">
        <ele>122</ele>
        <time>2024-02-11T08:24:34Z</time>
      </trkpt>
      <trkpt lat="46.5992" lon="0.62806">
        <ele>121.6</ele>
        <time>2024-02-11T08:24:37Z</time>
      </trkpt>
      <trkpt lat="46.59922" lon="0.62826">
        <ele>121.2</ele>
        <time>2024-02-11T08:24:40Z</time>
      </trkpt>
      <trkpt lat="46.59925" lon="0.62849">
        <ele>120.6</ele>
        <time>2024-02-11T08:24:45Z</time>
      </trkpt>
      <trkpt lat="46.59925" lon="0.62859">
        <ele>120.4</ele>
        <time>2024-02-11T08:24:48Z</time>
      </trkpt>
      <trkpt lat="46.59924" lon="0.62863">
        <ele>120.4</ele>
        <time>2024-02-11T08:24:50Z</time>
      </trkpt>
      <trkpt lat="46.59924" lon="0.62863">
        <ele>120.4</ele>
        <time>2024-02-11T08:24:51Z</time>
      </trkpt>
      <trkpt lat="46.59922" lon="0.62864">
        <ele>120.4</ele>
        <time>2024-02-11T08:24:53Z</time>
      </trkpt>
      <trkpt lat="46.59917" lon="0.62865">
        <ele>120.8</ele>
        <time>2024-02-11T08:24:57Z</time>
      </trkpt>
      <trkpt lat="46.59905" lon="0.62876">
        <ele>121</ele>
        <time>2024-02-11T08:25:03Z</time>
      </trkpt>
      <trkpt lat="46.59892" lon="0.62892">
        <ele>121</ele>
        <time>2024-02-11T08:25:09Z</time>
      </trkpt>
      <trkpt lat="46.59881" lon="0.62908">
        <ele>121.2</ele>
        <time>2024-02-11T08:25:15Z</time>
      </trkpt>
      <trkpt lat="46.5987" lon="0.62921">
        <ele>121.6</ele>
        <time>2024-02-11T08:25:20Z</time>
      </trkpt>
      <trkpt lat="46.59862" lon="0.62939">
        <ele>121.2</ele>
        <time>2024-02-11T08:25:24Z</time>
      </trkpt>
      <trkpt lat="46.59859" lon="0.62943">
        <ele>121</ele>
        <time>2024-02-11T08:25:25Z</time>
      </trkpt>
      <trkpt lat="46.59848" lon="0.62959">
        <ele>121.2</ele>
        <time>2024-02-11T08:25:29Z</time>
      </trkpt>
      <trkpt lat="46.59834" lon="0.62971">
        <ele>120.8</ele>
        <time>2024-02-11T08:25:34Z</time>
      </trkpt>
      <trkpt lat="46.59829" lon="0.6298">
        <ele>120.2</ele>
        <time>2024-02-11T08:25:37Z</time>
      </trkpt>
      <trkpt lat="46.59827" lon="0.62984">
        <ele>120</ele>
        <time>2024-02-11T08:25:38Z</time>
      </trkpt>
      <trkpt lat="46.59814" lon="0.63011">
        <ele>119.6</ele>
        <time>2024-02-11T08:25:45Z</time>
      </trkpt>
      <trkpt lat="46.59812" lon="0.63017">
        <ele>119.6</ele>
        <time>2024-02-11T08:25:47Z</time>
      </trkpt>
      <trkpt lat="46.59808" lon="0.63028">
        <ele>119.4</ele>
        <time>2024-02-11T08:25:50Z</time>
      </trkpt>
      <trkpt lat="46.59801" lon="0.63052">
        <ele>119.8</ele>
        <time>2024-02-11T08:25:55Z</time>
      </trkpt>
      <trkpt lat="46.59792" lon="0.63063">
        <ele>119.4</ele>
        <time>2024-02-11T08:25:59Z</time>
      </trkpt>
      <trkpt lat="46.59791" lon="0.63067">
        <ele>119.2</ele>
        <time>2024-02-11T08:26:00Z</time>
      </trkpt>
      <trkpt lat="46.59788" lon="0.63089">
        <ele>119.6</ele>
        <time>2024-02-11T08:26:05Z</time>
      </trkpt>
      <trkpt lat="46.59782" lon="0.63101">
        <ele>119.2</ele>
        <time>2024-02-11T08:26:09Z</time>
      </trkpt>
      <trkpt lat="46.59782" lon="0.63104">
        <ele>119</ele>
        <time>2024-02-11T08:26:10Z</time>
      </trkpt>
      <trkpt lat="46.5978" lon="0.63112">
        <ele>118.8</ele>
        <time>2024-02-11T08:26:13Z</time>
      </trkpt>
      <trkpt lat="46.59777" lon="0.63118">
        <ele>118.6</ele>
        <time>2024-02-11T08:26:15Z</time>
      </trkpt>
      <trkpt lat="46.59767" lon="0.63135">
        <ele>118.2</ele>
        <time>2024-02-11T08:26:21Z</time>
      </trkpt>
      <trkpt lat="46.59758" lon="0.63145">
        <ele>118</ele>
        <time>2024-02-11T08:26:24Z</time>
      </trkpt>
      <trkpt lat="46.59754" lon="0.63149">
        <ele>117.8</ele>
        <time>2024-02-11T08:26:26Z</time>
      </trkpt>
      <trkpt lat="46.5974" lon="0.63167">
        <ele>117.2</ele>
        <time>2024-02-11T08:26:31Z</time>
      </trkpt>
      <trkpt lat="46.59725" lon="0.63183">
        <ele>117</ele>
        <time>2024-02-11T08:26:36Z</time>
      </trkpt>
      <trkpt lat="46.59723" lon="0.63185">
        <ele>116.6</ele>
        <time>2024-02-11T08:26:37Z</time>
      </trkpt>
      <trkpt lat="46.59713" lon="0.63196">
        <ele>115.6</ele>
        <time>2024-02-11T08:26:40Z</time>
      </trkpt>
      <trkpt lat="46.59706" lon="0.63202">
        <ele>115.2</ele>
        <time>2024-02-11T08:26:42Z</time>
      </trkpt>
      <trkpt lat="46.59696" lon="0.63211">
        <ele>114.2</ele>
        <time>2024-02-11T08:26:45Z</time>
      </trkpt>
      <trkpt lat="46.59694" lon="0.63214">
        <ele>113.6</ele>
        <time>2024-02-11T08:26:46Z</time>
      </trkpt>
      <trkpt lat="46.59692" lon="0.63217">
        <ele>113.2</ele>
        <time>2024-02-11T08:26:47Z</time>
      </trkpt>
      <trkpt lat="46.5969" lon="0.6322">
        <ele>113</ele>
        <time>2024-02-11T08:26:48Z</time>
      </trkpt>
      <trkpt lat="46.59688" lon="0.63223">
        <ele>113</ele>
        <time>2024-02-11T08:26:49Z</time>
      </trkpt>
      <trkpt lat="46.59676" lon="0.63232">
        <ele>112.6</ele>
        <time>2024-02-11T08:26:52Z</time>
      </trkpt>
      <trkpt lat="46.59666" lon="0.63247">
        <ele>112</ele>
        <time>2024-02-11T08:26:55Z</time>
      </trkpt>
      <trkpt lat="46.59663" lon="0.63253">
        <ele>111.6</ele>
        <time>2024-02-11T08:26:56Z</time>
      </trkpt>
      <trkpt lat="46.59658" lon="0.63265">
        <ele>111</ele>
        <time>2024-02-11T08:26:58Z</time>
      </trkpt>
      <trkpt lat="46.59656" lon="0.63271">
        <ele>110.8</ele>
        <time>2024-02-11T08:26:59Z</time>
      </trkpt>
      <trkpt lat="46.59655" lon="0.63275">
        <ele>110.4</ele>
        <time>2024-02-11T08:27:00Z</time>
      </trkpt>
      <trkpt lat="46.59654" lon="0.63279">
        <ele>110.2</ele>
        <time>2024-02-11T08:27:01Z</time>
      </trkpt>
      <trkpt lat="46.59654" lon="0.63294">
        <ele>109.6</ele>
        <time>2024-02-11T08:27:04Z</time>
      </trkpt>
      <trkpt lat="46.59654" lon="0.63299">
        <ele>109.4</ele>
        <time>2024-02-11T08:27:05Z</time>
      </trkpt>
      <trkpt lat="46.59654" lon="0.63319">
        <ele>108.4</ele>
        <time>2024-02-11T08:27:08Z</time>
      </trkpt>
      <trkpt lat="46.59653" lon="0.63334">
        <ele>108</ele>
        <time>2024-02-11T08:27:10Z</time>
      </trkpt>
      <trkpt lat="46.59652" lon="0.63359">
        <ele>107</ele>
        <time>2024-02-11T08:27:13Z</time>
      </trkpt>
      <trkpt lat="46.59651" lon="0.63372">
        <ele>105.8</ele>
        <time>2024-02-11T08:27:15Z</time>
      </trkpt>
      <trkpt lat="46.5965" lon="0.63377">
        <ele>104.8</ele>
        <time>2024-02-11T08:27:16Z</time>
      </trkpt>
      <trkpt lat="46.59649" lon="0.63381">
        <ele>104.2</ele>
        <time>2024-02-11T08:27:17Z</time>
      </trkpt>
      <trkpt lat="46.59647" lon="0.63385">
        <ele>103.6</ele>
        <time>2024-02-11T08:27:18Z</time>
      </trkpt>
      <trkpt lat="46.59644" lon="0.63387">
        <ele>102.8</ele>
        <time>2024-02-11T08:27:19Z</time>
      </trkpt>
      <trkpt lat="46.59644" lon="0.63387">
        <ele>101.6</ele>
        <time>2024-02-11T08:27:20Z</time>
      </trkpt>
      <trkpt lat="46.59638" lon="0.63393">
        <ele>101.6</ele>
        <time>2024-02-11T08:27:21Z</time>
      </trkpt>
      <trkpt lat="46.59635" lon="0.63398">
        <ele>100.2</ele>
        <time>2024-02-11T08:27:23Z</time>
      </trkpt>
      <trkpt lat="46.59629" lon="0.63402">
        <ele>99.2</ele>
        <time>2024-02-11T08:27:25Z</time>
      </trkpt>
      <trkpt lat="46.59626" lon="0.63404">
        <ele>98.8</ele>
        <time>2024-02-11T08:27:26Z</time>
      </trkpt>
      <trkpt lat="46.59619" lon="0.63408">
        <ele>98</ele>
        <time>2024-02-11T08:27:28Z</time>
      </trkpt>
      <trkpt lat="46.59614" lon="0.63411">
        <ele>97.6</ele>
        <time>2024-02-11T08:27:29Z</time>
      </trkpt>
      <trkpt lat="46.59602" lon="0.63417">
        <ele>96.2</ele>
        <time>2024-02-11T08:27:32Z</time>
      </trkpt>
      <trkpt lat="46.59599" lon="0.63419">
        <ele>95.8</ele>
        <time>2024-02-11T08:27:33Z</time>
      </trkpt>
      <trkpt lat="46.59593" lon="0.63425">
        <ele>95</ele>
        <time>2024-02-11T08:27:35Z</time>
      </trkpt>
      <trkpt lat="46.59588" lon="0.63428">
        <ele>93.8</ele>
        <time>2024-02-11T08:27:37Z</time>
      </trkpt>
      <trkpt lat="46.59585" lon="0.6343">
        <ele>93.4</ele>
        <time>2024-02-11T08:27:38Z</time>
      </trkpt>
      <trkpt lat="46.5957" lon="0.63438">
        <ele>94</ele>
        <time>2024-02-11T08:27:43Z</time>
      </trkpt>
      <trkpt lat="46.59556" lon="0.63444">
        <ele>95</ele>
        <time>2024-02-11T08:27:48Z</time>
      </trkpt>
      <trkpt lat="46.59554" lon="0.63444">
        <ele>95.2</ele>
        <time>2024-02-11T08:27:49Z</time>
      </trkpt>
      <trkpt lat="46.59551" lon="0.63442">
        <ele>95.6</ele>
        <time>2024-02-11T08:27:51Z</time>
      </trkpt>
      <trkpt lat="46.59548" lon="0.63436">
        <ele>95.8</ele>
        <time>2024-02-11T08:27:54Z</time>
      </trkpt>
      <trkpt lat="46.59546" lon="0.63432">
        <ele>95.8</ele>
        <time>2024-02-11T08:27:56Z</time>
      </trkpt>
      <trkpt lat="46.59544" lon="0.63425">
        <ele>95</ele>
        <time>2024-02-11T08:27:59Z</time>
      </trkpt>
      <trkpt lat="46.59543" lon="0.6342">
        <ele>94</ele>
        <time>2024-02-11T08:28:02Z</time>
      </trkpt>
      <trkpt lat="46.59542" lon="0.63419">
        <ele>94</ele>
        <time>2024-02-11T08:28:03Z</time>
      </trkpt>
      <trkpt lat="46.59541" lon="0.63417">
        <ele>94</ele>
        <time>2024-02-11T08:28:04Z</time>
      </trkpt>
      <trkpt lat="46.59539" lon="0.63415">
        <ele>93.8</ele>
        <time>2024-02-11T08:28:05Z</time>
      </trkpt>
      <trkpt lat="46.59537" lon="0.63411">
        <ele>93.8</ele>
        <time>2024-02-11T08:28:07Z</time>
      </trkpt>
      <trkpt lat="46.59533" lon="0.63406">
        <ele>94</ele>
        <time>2024-02-11T08:28:09Z</time>
      </trkpt>
      <trkpt lat="46.5953" lon="0.63401">
        <ele>94.6</ele>
        <time>2024-02-11T08:28:12Z</time>
      </trkpt>
      <trkpt lat="46.59526" lon="0.63398">
        <ele>94.8</ele>
        <time>2024-02-11T08:28:15Z</time>
      </trkpt>
      <trkpt lat="46.59526" lon="0.63398">
        <ele>95</ele>
        <time>2024-02-11T08:28:16Z</time>
      </trkpt>
      <trkpt lat="46.59524" lon="0.63397">
        <ele>95.2</ele>
        <time>2024-02-11T08:28:19Z</time>
      </trkpt>
      <trkpt lat="46.59518" lon="0.6339">
        <ele>95.8</ele>
        <time>2024-02-11T08:28:25Z</time>
      </trkpt>
      <trkpt lat="46.59511" lon="0.63384">
        <ele>96</ele>
        <time>2024-02-11T08:28:32Z</time>
      </trkpt>
      <trkpt lat="46.59509" lon="0.63382">
        <ele>96.2</ele>
        <time>2024-02-11T08:28:34Z</time>
      </trkpt>
      <trkpt lat="46.59508" lon="0.63378">
        <ele>96.2</ele>
        <time>2024-02-11T08:28:36Z</time>
      </trkpt>
      <trkpt lat="46.59506" lon="0.63373">
        <ele>96.2</ele>
        <time>2024-02-11T08:28:39Z</time>
      </trkpt>
      <trkpt lat="46.59501" lon="0.63364">
        <ele>96.4</ele>
        <time>2024-02-11T08:28:45Z</time>
      </trkpt>
      <trkpt lat="46.595" lon="0.63363">
        <ele>96.4</ele>
        <time>2024-02-11T08:28:46Z</time>
      </trkpt>
      <trkpt lat="46.59494" lon="0.63358">
        <ele>96.4</ele>
        <time>2024-02-11T08:28:49Z</time>
      </trkpt>
      <trkpt lat="46.59493" lon="0.63357">
        <ele>96.4</ele>
        <time>2024-02-11T08:28:50Z</time>
      </trkpt>
      <trkpt lat="46.59486" lon="0.63349">
        <ele>96.8</ele>
        <time>2024-02-11T08:28:57Z</time>
      </trkpt>
      <trkpt lat="46.59483" lon="0.63346">
        <ele>96.8</ele>
        <time>2024-02-11T08:29:00Z</time>
      </trkpt>
      <trkpt lat="46.59479" lon="0.63343">
        <ele>97</ele>
        <time>2024-02-11T08:29:03Z</time>
      </trkpt>
      <trkpt lat="46.59478" lon="0.63341">
        <ele>97.2</ele>
        <time>2024-02-11T08:29:04Z</time>
      </trkpt>
      <trkpt lat="46.59474" lon="0.63336">
        <ele>97.2</ele>
        <time>2024-02-11T08:29:09Z</time>
      </trkpt>
      <trkpt lat="46.59472" lon="0.63332">
        <ele>97.4</ele>
        <time>2024-02-11T08:29:11Z</time>
      </trkpt>
      <trkpt lat="46.59464" lon="0.63324">
        <ele>98</ele>
        <time>2024-02-11T08:29:18Z</time>
      </trkpt>
      <trkpt lat="46.59458" lon="0.63321">
        <ele>97.8</ele>
        <time>2024-02-11T08:29:21Z</time>
      </trkpt>
      <trkpt lat="46.59449" lon="0.6332">
        <ele>97.6</ele>
        <time>2024-02-11T08:29:26Z</time>
      </trkpt>
      <trkpt lat="46.59433" lon="0.63322">
        <ele>97.4</ele>
        <time>2024-02-11T08:29:34Z</time>
      </trkpt>
      <trkpt lat="46.59429" lon="0.63315">
        <ele>96.6</ele>
        <time>2024-02-11T08:29:36Z</time>
      </trkpt>
      <trkpt lat="46.59427" lon="0.6331">
        <ele>96.2</ele>
        <time>2024-02-11T08:29:37Z</time>
      </trkpt>
      <trkpt lat="46.59425" lon="0.63299">
        <ele>95.4</ele>
        <time>2024-02-11T08:29:39Z</time>
      </trkpt>
      <trkpt lat="46.59424" lon="0.63285">
        <ele>94.4</ele>
        <time>2024-02-11T08:29:42Z</time>
      </trkpt>
      <trkpt lat="46.59424" lon="0.63282">
        <ele>94.2</ele>
        <time>2024-02-11T08:29:43Z</time>
      </trkpt>
      <trkpt lat="46.59422" lon="0.63278">
        <ele>93.8</ele>
        <time>2024-02-11T08:29:46Z</time>
      </trkpt>
      <trkpt lat="46.5942" lon="0.63264">
        <ele>94</ele>
        <time>2024-02-11T08:29:59Z</time>
      </trkpt>
      <trkpt lat="46.5942" lon="0.63263">
        <ele>94.2</ele>
        <time>2024-02-11T08:30:00Z</time>
      </trkpt>
      <trkpt lat="46.5942" lon="0.6326">
        <ele>94</ele>
        <time>2024-02-11T08:30:03Z</time>
      </trkpt>
      <trkpt lat="46.5942" lon="0.63257">
        <ele>94</ele>
        <time>2024-02-11T08:30:05Z</time>
      </trkpt>
      <trkpt lat="46.5942" lon="0.63253">
        <ele>93.8</ele>
        <time>2024-02-11T08:30:08Z</time>
      </trkpt>
      <trkpt lat="46.59419" lon="0.63251">
        <ele>93.8</ele>
        <time>2024-02-11T08:30:10Z</time>
      </trkpt>
      <trkpt lat="46.5942" lon="0.63244">
        <ele>93.6</ele>
        <time>2024-02-11T08:30:16Z</time>
      </trkpt>
      <trkpt lat="46.59421" lon="0.63241">
        <ele>93</ele>
        <time>2024-02-11T08:30:18Z</time>
      </trkpt>
      <trkpt lat="46.59421" lon="0.6324">
        <ele>92.8</ele>
        <time>2024-02-11T08:30:19Z</time>
      </trkpt>
      <trkpt lat="46.59421" lon="0.63237">
        <ele>92.6</ele>
        <time>2024-02-11T08:30:23Z</time>
      </trkpt>
      <trkpt lat="46.59415" lon="0.63228">
        <ele>93.8</ele>
        <time>2024-02-11T08:30:34Z</time>
      </trkpt>
      <trkpt lat="46.59413" lon="0.63227">
        <ele>94.2</ele>
        <time>2024-02-11T08:30:36Z</time>
      </trkpt>
      <trkpt lat="46.59409" lon="0.63226">
        <ele>95.2</ele>
        <time>2024-02-11T08:30:39Z</time>
      </trkpt>
      <trkpt lat="46.59408" lon="0.63225">
        <ele>95.4</ele>
        <time>2024-02-11T08:30:40Z</time>
      </trkpt>
      <trkpt lat="46.59407" lon="0.63225">
        <ele>95.6</ele>
        <time>2024-02-11T08:30:41Z</time>
      </trkpt>
      <trkpt lat="46.59406" lon="0.63224">
        <ele>96.2</ele>
        <time>2024-02-11T08:30:44Z</time>
      </trkpt>
      <trkpt lat="46.59405" lon="0.63224">
        <ele>96.4</ele>
        <time>2024-02-11T08:30:45Z</time>
      </trkpt>
      <trkpt lat="46.59404" lon="0.63223">
        <ele>96.6</ele>
        <time>2024-02-11T08:30:47Z</time>
      </trkpt>
      <trkpt lat="46.59398" lon="0.63221">
        <ele>97.6</ele>
        <time>2024-02-11T08:30:54Z</time>
      </trkpt>
      <trkpt lat="46.59397" lon="0.6322">
        <ele>98</ele>
        <time>2024-02-11T08:30:57Z</time>
      </trkpt>
      <trkpt lat="46.59396" lon="0.6322">
        <ele>98.2</ele>
        <time>2024-02-11T08:30:58Z</time>
      </trkpt>
      <trkpt lat="46.59394" lon="0.63216">
        <ele>98.6</ele>
        <time>2024-02-11T08:31:03Z</time>
      </trkpt>
      <trkpt lat="46.59394" lon="0.6321">
        <ele>98.6</ele>
        <time>2024-02-11T08:31:06Z</time>
      </trkpt>
      <trkpt lat="46.59395" lon="0.63208">
        <ele>98.4</ele>
        <time>2024-02-11T08:31:07Z</time>
      </trkpt>
      <trkpt lat="46.594" lon="0.63194">
        <ele>96.2</ele>
        <time>2024-02-11T08:31:14Z</time>
      </trkpt>
      <trkpt lat="46.59401" lon="0.63188">
        <ele>95.2</ele>
        <time>2024-02-11T08:31:16Z</time>
      </trkpt>
      <trkpt lat="46.59404" lon="0.63176">
        <ele>94</ele>
        <time>2024-02-11T08:31:19Z</time>
      </trkpt>
      <trkpt lat="46.59405" lon="0.63168">
        <ele>92.8</ele>
        <time>2024-02-11T08:31:21Z</time>
      </trkpt>
      <trkpt lat="46.59406" lon="0.63163">
        <ele>92.2</ele>
        <time>2024-02-11T08:31:23Z</time>
      </trkpt>
      <trkpt lat="46.59407" lon="0.6316">
        <ele>91.8</ele>
        <time>2024-02-11T08:31:24Z</time>
      </trkpt>
      <trkpt lat="46.59409" lon="0.63152">
        <ele>90.8</ele>
        <time>2024-02-11T08:31:26Z</time>
      </trkpt>
      <trkpt lat="46.59414" lon="0.6314">
        <ele>89.6</ele>
        <time>2024-02-11T08:31:29Z</time>
      </trkpt>
      <trkpt lat="46.59416" lon="0.63131">
        <ele>88.6</ele>
        <time>2024-02-11T08:31:31Z</time>
      </trkpt>
      <trkpt lat="46.5942" lon="0.63121">
        <ele>87.8</ele>
        <time>2024-02-11T08:31:34Z</time>
      </trkpt>
      <trkpt lat="46.59421" lon="0.63116">
        <ele>87.8</ele>
        <time>2024-02-11T08:31:35Z</time>
      </trkpt>
      <trkpt lat="46.59424" lon="0.63109">
        <ele>87.4</ele>
        <time>2024-02-11T08:31:37Z</time>
      </trkpt>
      <trkpt lat="46.59425" lon="0.63093">
        <ele>86.4</ele>
        <time>2024-02-11T08:31:41Z</time>
      </trkpt>
      <trkpt lat="46.59426" lon="0.6309">
        <ele>86.2</ele>
        <time>2024-02-11T08:31:42Z</time>
      </trkpt>
      <trkpt lat="46.5943" lon="0.63075">
        <ele>85.4</ele>
        <time>2024-02-11T08:31:46Z</time>
      </trkpt>
      <trkpt lat="46.59431" lon="0.63072">
        <ele>85.4</ele>
        <time>2024-02-11T08:31:47Z</time>
      </trkpt>
      <trkpt lat="46.59433" lon="0.63064">
        <ele>85.2</ele>
        <time>2024-02-11T08:31:50Z</time>
      </trkpt>
      <trkpt lat="46.59433" lon="0.63061">
        <ele>85.2</ele>
        <time>2024-02-11T08:31:51Z</time>
      </trkpt>
      <trkpt lat="46.59426" lon="0.63055">
        <ele>85</ele>
        <time>2024-02-11T08:31:55Z</time>
      </trkpt>
      <trkpt lat="46.59412" lon="0.63058">
        <ele>85.6</ele>
        <time>2024-02-11T08:32:02Z</time>
      </trkpt>
      <trkpt lat="46.59407" lon="0.63059">
        <ele>86.2</ele>
        <time>2024-02-11T08:32:06Z</time>
      </trkpt>
      <trkpt lat="46.59406" lon="0.63059">
        <ele>86.4</ele>
        <time>2024-02-11T08:32:07Z</time>
      </trkpt>
      <trkpt lat="46.59403" lon="0.6306">
        <ele>87.4</ele>
        <time>2024-02-11T08:32:09Z</time>
      </trkpt>
      <trkpt lat="46.59399" lon="0.63063">
        <ele>88.8</ele>
        <time>2024-02-11T08:32:12Z</time>
      </trkpt>
      <trkpt lat="46.59398" lon="0.63064">
        <ele>88.8</ele>
        <time>2024-02-11T08:32:13Z</time>
      </trkpt>
      <trkpt lat="46.59395" lon="0.63067">
        <ele>90.2</ele>
        <time>2024-02-11T08:32:16Z</time>
      </trkpt>
      <trkpt lat="46.59391" lon="0.63069">
        <ele>91.6</ele>
        <time>2024-02-11T08:32:19Z</time>
      </trkpt>
      <trkpt lat="46.59389" lon="0.63071">
        <ele>92</ele>
        <time>2024-02-11T08:32:20Z</time>
      </trkpt>
      <trkpt lat="46.59386" lon="0.63075">
        <ele>92.8</ele>
        <time>2024-02-11T08:32:23Z</time>
      </trkpt>
      <trkpt lat="46.5938" lon="0.63082">
        <ele>93.8</ele>
        <time>2024-02-11T08:32:27Z</time>
      </trkpt>
      <trkpt lat="46.59374" lon="0.6309">
        <ele>94.8</ele>
        <time>2024-02-11T08:32:32Z</time>
      </trkpt>
      <trkpt lat="46.5937" lon="0.63093">
        <ele>95.6</ele>
        <time>2024-02-11T08:32:35Z</time>
      </trkpt>
      <trkpt lat="46.59368" lon="0.63097">
        <ele>96</ele>
        <time>2024-02-11T08:32:37Z</time>
      </trkpt>
      <trkpt lat="46.5936" lon="0.63109">
        <ele>96.6</ele>
        <time>2024-02-11T08:32:43Z</time>
      </trkpt>
      <trkpt lat="46.59356" lon="0.63113">
        <ele>97.2</ele>
        <time>2024-02-11T08:32:45Z</time>
      </trkpt>
      <trkpt lat="46.5935" lon="0.6312">
        <ele>98.4</ele>
        <time>2024-02-11T08:32:48Z</time>
      </trkpt>
      <trkpt lat="46.59341" lon="0.63128">
        <ele>99.2</ele>
        <time>2024-02-11T08:32:52Z</time>
      </trkpt>
      <trkpt lat="46.59335" lon="0.63135">
        <ele>99.6</ele>
        <time>2024-02-11T08:32:55Z</time>
      </trkpt>
      <trkpt lat="46.59323" lon="0.63145">
        <ele>100.6</ele>
        <time>2024-02-11T08:33:00Z</time>
      </trkpt>
      <trkpt lat="46.5931" lon="0.63153">
        <ele>101.8</ele>
        <time>2024-02-11T08:33:06Z</time>
      </trkpt>
      <trkpt lat="46.59307" lon="0.63152">
        <ele>102</ele>
        <time>2024-02-11T08:33:07Z</time>
      </trkpt>
      <trkpt lat="46.59299" lon="0.63141">
        <ele>102.8</ele>
        <time>2024-02-11T08:33:11Z</time>
      </trkpt>
      <trkpt lat="46.59295" lon="0.63134">
        <ele>103</ele>
        <time>2024-02-11T08:33:13Z</time>
      </trkpt>
      <trkpt lat="46.59287" lon="0.63115">
        <ele>103.8</ele>
        <time>2024-02-11T08:33:18Z</time>
      </trkpt>
      <trkpt lat="46.59277" lon="0.63098">
        <ele>104</ele>
        <time>2024-02-11T08:33:23Z</time>
      </trkpt>
      <trkpt lat="46.59255" lon="0.63064">
        <ele>104.4</ele>
        <time>2024-02-11T08:33:32Z</time>
      </trkpt>
      <trkpt lat="46.59242" lon="0.63044">
        <ele>104.2</ele>
        <time>2024-02-11T08:33:38Z</time>
      </trkpt>
      <trkpt lat="46.59231" lon="0.63023">
        <ele>104.2</ele>
        <time>2024-02-11T08:33:45Z</time>
      </trkpt>
      <trkpt lat="46.59214" lon="0.62996">
        <ele>104</ele>
        <time>2024-02-11T08:33:55Z</time>
      </trkpt>
      <trkpt lat="46.59198" lon="0.62972">
        <ele>103.8</ele>
        <time>2024-02-11T08:34:03Z</time>
      </trkpt>
      <trkpt lat="46.59187" lon="0.62956">
        <ele>103.8</ele>
        <time>2024-02-11T08:34:09Z</time>
      </trkpt>
      <trkpt lat="46.59177" lon="0.62937">
        <ele>104</ele>
        <time>2024-02-11T08:34:15Z</time>
      </trkpt>
      <trkpt lat="46.59166" lon="0.62916">
        <ele>103.6</ele>
        <time>2024-02-11T08:34:20Z</time>
      </trkpt>
      <trkpt lat="46.59155" lon="0.62898">
        <ele>103.2</ele>
        <time>2024-02-11T08:34:25Z</time>
      </trkpt>
      <trkpt lat="46.59144" lon="0.62885">
        <ele>103</ele>
        <time>2024-02-11T08:34:31Z</time>
      </trkpt>
      <trkpt lat="46.59128" lon="0.62862">
        <ele>103.4</ele>
        <time>2024-02-11T08:34:38Z</time>
      </trkpt>
      <trkpt lat="46.59113" lon="0.6284">
        <ele>103.4</ele>
        <time>2024-02-11T08:34:45Z</time>
      </trkpt>
      <trkpt lat="46.59101" lon="0.62821">
        <ele>103.6</ele>
        <time>2024-02-11T08:34:52Z</time>
      </trkpt>
      <trkpt lat="46.59086" lon="0.62801">
        <ele>102.8</ele>
        <time>2024-02-11T08:34:57Z</time>
      </trkpt>
      <trkpt lat="46.59073" lon="0.62785">
        <ele>101.8</ele>
        <time>2024-02-11T08:35:01Z</time>
      </trkpt>
      <trkpt lat="46.59065" lon="0.62774">
        <ele>100.8</ele>
        <time>2024-02-11T08:35:04Z</time>
      </trkpt>
      <trkpt lat="46.59063" lon="0.62771">
        <ele>100.6</ele>
        <time>2024-02-11T08:35:05Z</time>
      </trkpt>
      <trkpt lat="46.5906" lon="0.62764">
        <ele>100</ele>
        <time>2024-02-11T08:35:08Z</time>
      </trkpt>
      <trkpt lat="46.5906" lon="0.6275">
        <ele>99.4</ele>
        <time>2024-02-11T08:35:12Z</time>
      </trkpt>
      <trkpt lat="46.59061" lon="0.62745">
        <ele>99.2</ele>
        <time>2024-02-11T08:35:13Z</time>
      </trkpt>
      <trkpt lat="46.59067" lon="0.62721">
        <ele>98.2</ele>
        <time>2024-02-11T08:35:18Z</time>
      </trkpt>
      <trkpt lat="46.59069" lon="0.62709">
        <ele>97.6</ele>
        <time>2024-02-11T08:35:20Z</time>
      </trkpt>
      <trkpt lat="46.59072" lon="0.6269">
        <ele>97</ele>
        <time>2024-02-11T08:35:23Z</time>
      </trkpt>
      <trkpt lat="46.59076" lon="0.62654">
        <ele>96.2</ele>
        <time>2024-02-11T08:35:28Z</time>
      </trkpt>
      <trkpt lat="46.59077" lon="0.62647">
        <ele>95.8</ele>
        <time>2024-02-11T08:35:29Z</time>
      </trkpt>
      <trkpt lat="46.59079" lon="0.62586">
        <ele>95</ele>
        <time>2024-02-11T08:35:37Z</time>
      </trkpt>
      <trkpt lat="46.59078" lon="0.62569">
        <ele>94.8</ele>
        <time>2024-02-11T08:35:39Z</time>
      </trkpt>
      <trkpt lat="46.59075" lon="0.62525">
        <ele>93.4</ele>
        <time>2024-02-11T08:35:44Z</time>
      </trkpt>
      <trkpt lat="46.59071" lon="0.62478">
        <ele>92.2</ele>
        <time>2024-02-11T08:35:50Z</time>
      </trkpt>
      <trkpt lat="46.59068" lon="0.62438">
        <ele>91.2</ele>
        <time>2024-02-11T08:35:55Z</time>
      </trkpt>
      <trkpt lat="46.59067" lon="0.62422">
        <ele>90.6</ele>
        <time>2024-02-11T08:35:57Z</time>
      </trkpt>
      <trkpt lat="46.59065" lon="0.62397">
        <ele>90</ele>
        <time>2024-02-11T08:36:00Z</time>
      </trkpt>
      <trkpt lat="46.59062" lon="0.62365">
        <ele>89</ele>
        <time>2024-02-11T08:36:04Z</time>
      </trkpt>
      <trkpt lat="46.59061" lon="0.62357">
        <ele>88.8</ele>
        <time>2024-02-11T08:36:05Z</time>
      </trkpt>
      <trkpt lat="46.59053" lon="0.62311">
        <ele>87.6</ele>
        <time>2024-02-11T08:36:11Z</time>
      </trkpt>
      <trkpt lat="46.59049" lon="0.62285">
        <ele>87</ele>
        <time>2024-02-11T08:36:15Z</time>
      </trkpt>
      <trkpt lat="46.59048" lon="0.62273">
        <ele>86.8</ele>
        <time>2024-02-11T08:36:17Z</time>
      </trkpt>
      <trkpt lat="46.59047" lon="0.62267">
        <ele>86.6</ele>
        <time>2024-02-11T08:36:18Z</time>
      </trkpt>
      <trkpt lat="46.59043" lon="0.62238">
        <ele>85.4</ele>
        <time>2024-02-11T08:36:23Z</time>
      </trkpt>
      <trkpt lat="46.59042" lon="0.62231">
        <ele>85.2</ele>
        <time>2024-02-11T08:36:24Z</time>
      </trkpt>
      <trkpt lat="46.59036" lon="0.62197">
        <ele>84.2</ele>
        <time>2024-02-11T08:36:29Z</time>
      </trkpt>
      <trkpt lat="46.59033" lon="0.62182">
        <ele>84</ele>
        <time>2024-02-11T08:36:31Z</time>
      </trkpt>
      <trkpt lat="46.59028" lon="0.62152">
        <ele>82.6</ele>
        <time>2024-02-11T08:36:35Z</time>
      </trkpt>
      <trkpt lat="46.59023" lon="0.62128">
        <ele>81.6</ele>
        <time>2024-02-11T08:36:38Z</time>
      </trkpt>
      <trkpt lat="46.5902" lon="0.62119">
        <ele>81.2</ele>
        <time>2024-02-11T08:36:39Z</time>
      </trkpt>
      <trkpt lat="46.59014" lon="0.62091">
        <ele>80</ele>
        <time>2024-02-11T08:36:42Z</time>
      </trkpt>
      <trkpt lat="46.59006" lon="0.62063">
        <ele>78.8</ele>
        <time>2024-02-11T08:36:45Z</time>
      </trkpt>
      <trkpt lat="46.58995" lon="0.62021">
        <ele>77.6</ele>
        <time>2024-02-11T08:36:50Z</time>
      </trkpt>
      <trkpt lat="46.58992" lon="0.62016">
        <ele>77.2</ele>
        <time>2024-02-11T08:36:51Z</time>
      </trkpt>
      <trkpt lat="46.58984" lon="0.62015">
        <ele>76.4</ele>
        <time>2024-02-11T08:36:53Z</time>
      </trkpt>
      <trkpt lat="46.5898" lon="0.62017">
        <ele>76.2</ele>
        <time>2024-02-11T08:36:54Z</time>
      </trkpt>
      <trkpt lat="46.58967" lon="0.62023">
        <ele>75.4</ele>
        <time>2024-02-11T08:36:57Z</time>
      </trkpt>
      <trkpt lat="46.58957" lon="0.62026">
        <ele>75.2</ele>
        <time>2024-02-11T08:36:59Z</time>
      </trkpt>
      <trkpt lat="46.58922" lon="0.62039">
        <ele>75</ele>
        <time>2024-02-11T08:37:06Z</time>
      </trkpt>
      <trkpt lat="46.58885" lon="0.6206">
        <ele>75</ele>
        <time>2024-02-11T08:37:14Z</time>
      </trkpt>
      <trkpt lat="46.58855" lon="0.62081">
        <ele>75.4</ele>
        <time>2024-02-11T08:37:21Z</time>
      </trkpt>
      <trkpt lat="46.58846" lon="0.62086">
        <ele>75.4</ele>
        <time>2024-02-11T08:37:23Z</time>
      </trkpt>
      <trkpt lat="46.58803" lon="0.62117">
        <ele>75.8</ele>
        <time>2024-02-11T08:37:33Z</time>
      </trkpt>
      <trkpt lat="46.58765" lon="0.62143">
        <ele>76</ele>
        <time>2024-02-11T08:37:42Z</time>
      </trkpt>
      <trkpt lat="46.58745" lon="0.62158">
        <ele>76.6</ele>
        <time>2024-02-11T08:37:47Z</time>
      </trkpt>
      <trkpt lat="46.58732" lon="0.62167">
        <ele>77</ele>
        <time>2024-02-11T08:37:50Z</time>
      </trkpt>
      <trkpt lat="46.58699" lon="0.62188">
        <ele>76.8</ele>
        <time>2024-02-11T08:37:58Z</time>
      </trkpt>
      <trkpt lat="46.58667" lon="0.62209">
        <ele>77</ele>
        <time>2024-02-11T08:38:06Z</time>
      </trkpt>
      <trkpt lat="46.58654" lon="0.62219">
        <ele>77.2</ele>
        <time>2024-02-11T08:38:09Z</time>
      </trkpt>
      <trkpt lat="46.58646" lon="0.62227">
        <ele>76.8</ele>
        <time>2024-02-11T08:38:11Z</time>
      </trkpt>
      <trkpt lat="46.58642" lon="0.62231">
        <ele>76</ele>
        <time>2024-02-11T08:38:12Z</time>
      </trkpt>
      <trkpt lat="46.58626" lon="0.62246">
        <ele>75.4</ele>
        <time>2024-02-11T08:38:16Z</time>
      </trkpt>
      <trkpt lat="46.58622" lon="0.62249">
        <ele>75.4</ele>
        <time>2024-02-11T08:38:17Z</time>
      </trkpt>
      <trkpt lat="46.58599" lon="0.62264">
        <ele>76.6</ele>
        <time>2024-02-11T08:38:22Z</time>
      </trkpt>
      <trkpt lat="46.5859" lon="0.62269">
        <ele>76.8</ele>
        <time>2024-02-11T08:38:24Z</time>
      </trkpt>
      <trkpt lat="46.5857" lon="0.62278">
        <ele>75.2</ele>
        <time>2024-02-11T08:38:28Z</time>
      </trkpt>
      <trkpt lat="46.58552" lon="0.62291">
        <ele>74.4</ele>
        <time>2024-02-11T08:38:32Z</time>
      </trkpt>
      <trkpt lat="46.58529" lon="0.62319">
        <ele>74.6</ele>
        <time>2024-02-11T08:38:39Z</time>
      </trkpt>
      <trkpt lat="46.58504" lon="0.62347">
        <ele>75.4</ele>
        <time>2024-02-11T08:38:47Z</time>
      </trkpt>
      <trkpt lat="46.58495" lon="0.62357">
        <ele>76.2</ele>
        <time>2024-02-11T08:38:50Z</time>
      </trkpt>
      <trkpt lat="46.58482" lon="0.62369">
        <ele>77</ele>
        <time>2024-02-11T08:38:54Z</time>
      </trkpt>
      <trkpt lat="46.58468" lon="0.62382">
        <ele>77.4</ele>
        <time>2024-02-11T08:38:58Z</time>
      </trkpt>
      <trkpt lat="46.58454" lon="0.62395">
        <ele>77.6</ele>
        <time>2024-02-11T08:39:02Z</time>
      </trkpt>
      <trkpt lat="46.58429" lon="0.62432">
        <ele>77.8</ele>
        <time>2024-02-11T08:39:10Z</time>
      </trkpt>
      <trkpt lat="46.5841" lon="0.62468">
        <ele>78</ele>
        <time>2024-02-11T08:39:17Z</time>
      </trkpt>
      <trkpt lat="46.58408" lon="0.62473">
        <ele>78.4</ele>
        <time>2024-02-11T08:39:18Z</time>
      </trkpt>
      <trkpt lat="46.58397" lon="0.62497">
        <ele>79.6</ele>
        <time>2024-02-11T08:39:23Z</time>
      </trkpt>
      <trkpt lat="46.58393" lon="0.62505">
        <ele>79.8</ele>
        <time>2024-02-11T08:39:25Z</time>
      </trkpt>
      <trkpt lat="46.58378" lon="0.62534">
        <ele>80.4</ele>
        <time>2024-02-11T08:39:32Z</time>
      </trkpt>
      <trkpt lat="46.58375" lon="0.62538">
        <ele>80.6</ele>
        <time>2024-02-11T08:39:33Z</time>
      </trkpt>
      <trkpt lat="46.5836" lon="0.62563">
        <ele>81.2</ele>
        <time>2024-02-11T08:39:39Z</time>
      </trkpt>
      <trkpt lat="46.58345" lon="0.62586">
        <ele>81.8</ele>
        <time>2024-02-11T08:39:45Z</time>
      </trkpt>
      <trkpt lat="46.58338" lon="0.62597">
        <ele>82</ele>
        <time>2024-02-11T08:39:48Z</time>
      </trkpt>
      <trkpt lat="46.58318" lon="0.6262">
        <ele>82.2</ele>
        <time>2024-02-11T08:39:54Z</time>
      </trkpt>
      <trkpt lat="46.58292" lon="0.62648">
        <ele>80.8</ele>
        <time>2024-02-11T08:40:01Z</time>
      </trkpt>
      <trkpt lat="46.58288" lon="0.62652">
        <ele>80.6</ele>
        <time>2024-02-11T08:40:02Z</time>
      </trkpt>
      <trkpt lat="46.58275" lon="0.62668">
        <ele>80.2</ele>
        <time>2024-02-11T08:40:06Z</time>
      </trkpt>
      <trkpt lat="46.58272" lon="0.62673">
        <ele>80</ele>
        <time>2024-02-11T08:40:07Z</time>
      </trkpt>
      <trkpt lat="46.58256" lon="0.62704">
        <ele>79.8</ele>
        <time>2024-02-11T08:40:13Z</time>
      </trkpt>
      <trkpt lat="46.58244" lon="0.62719">
        <ele>80</ele>
        <time>2024-02-11T08:40:18Z</time>
      </trkpt>
      <trkpt lat="46.58236" lon="0.6273">
        <ele>81.4</ele>
        <time>2024-02-11T08:40:23Z</time>
      </trkpt>
      <trkpt lat="46.58234" lon="0.62735">
        <ele>81.8</ele>
        <time>2024-02-11T08:40:25Z</time>
      </trkpt>
      <trkpt lat="46.58228" lon="0.62753">
        <ele>83</ele>
        <time>2024-02-11T08:40:31Z</time>
      </trkpt>
      <trkpt lat="46.58227" lon="0.62763">
        <ele>84.2</ele>
        <time>2024-02-11T08:40:34Z</time>
      </trkpt>
      <trkpt lat="46.58226" lon="0.62773">
        <ele>85.4</ele>
        <time>2024-02-11T08:40:37Z</time>
      </trkpt>
      <trkpt lat="46.58225" lon="0.62777">
        <ele>85.8</ele>
        <time>2024-02-11T08:40:38Z</time>
      </trkpt>
      <trkpt lat="46.58223" lon="0.62787">
        <ele>86.8</ele>
        <time>2024-02-11T08:40:41Z</time>
      </trkpt>
      <trkpt lat="46.5822" lon="0.62799">
        <ele>88</ele>
        <time>2024-02-11T08:40:45Z</time>
      </trkpt>
      <trkpt lat="46.58215" lon="0.62815">
        <ele>89.2</ele>
        <time>2024-02-11T08:40:50Z</time>
      </trkpt>
      <trkpt lat="46.58213" lon="0.62821">
        <ele>89.8</ele>
        <time>2024-02-11T08:40:52Z</time>
      </trkpt>
      <trkpt lat="46.5821" lon="0.62831">
        <ele>90.4</ele>
        <time>2024-02-11T08:40:55Z</time>
      </trkpt>
      <trkpt lat="46.58208" lon="0.62839">
        <ele>91</ele>
        <time>2024-02-11T08:40:58Z</time>
      </trkpt>
      <trkpt lat="46.58205" lon="0.62847">
        <ele>91.8</ele>
        <time>2024-02-11T08:41:01Z</time>
      </trkpt>
      <trkpt lat="46.58202" lon="0.62858">
        <ele>92.2</ele>
        <time>2024-02-11T08:41:04Z</time>
      </trkpt>
      <trkpt lat="46.58199" lon="0.62866">
        <ele>93</ele>
        <time>2024-02-11T08:41:06Z</time>
      </trkpt>
      <trkpt lat="46.58194" lon="0.62883">
        <ele>94</ele>
        <time>2024-02-11T08:41:11Z</time>
      </trkpt>
      <trkpt lat="46.58187" lon="0.62906">
        <ele>95</ele>
        <time>2024-02-11T08:41:17Z</time>
      </trkpt>
      <trkpt lat="46.58185" lon="0.62912">
        <ele>95.2</ele>
        <time>2024-02-11T08:41:19Z</time>
      </trkpt>
      <trkpt lat="46.58182" lon="0.62926">
        <ele>95.6</ele>
        <time>2024-02-11T08:41:23Z</time>
      </trkpt>
      <trkpt lat="46.58178" lon="0.62942">
        <ele>96.2</ele>
        <time>2024-02-11T08:41:27Z</time>
      </trkpt>
      <trkpt lat="46.58175" lon="0.62959">
        <ele>96.6</ele>
        <time>2024-02-11T08:41:31Z</time>
      </trkpt>
      <trkpt lat="46.58172" lon="0.62976">
        <ele>97.4</ele>
        <time>2024-02-11T08:41:35Z</time>
      </trkpt>
      <trkpt lat="46.58169" lon="0.62987">
        <ele>98.2</ele>
        <time>2024-02-11T08:41:38Z</time>
      </trkpt>
      <trkpt lat="46.58168" lon="0.62991">
        <ele>98.4</ele>
        <time>2024-02-11T08:41:39Z</time>
      </trkpt>
      <trkpt lat="46.58158" lon="0.6301">
        <ele>99.4</ele>
        <time>2024-02-11T08:41:45Z</time>
      </trkpt>
      <trkpt lat="46.58156" lon="0.63013">
        <ele>99.6</ele>
        <time>2024-02-11T08:41:46Z</time>
      </trkpt>
      <trkpt lat="46.58143" lon="0.63038">
        <ele>100.6</ele>
        <time>2024-02-11T08:41:54Z</time>
      </trkpt>
      <trkpt lat="46.58141" lon="0.63041">
        <ele>100.8</ele>
        <time>2024-02-11T08:41:55Z</time>
      </trkpt>
      <trkpt lat="46.58132" lon="0.63058">
        <ele>101.8</ele>
        <time>2024-02-11T08:42:01Z</time>
      </trkpt>
      <trkpt lat="46.58129" lon="0.63063">
        <ele>102</ele>
        <time>2024-02-11T08:42:03Z</time>
      </trkpt>
      <trkpt lat="46.58127" lon="0.63069">
        <ele>102.8</ele>
        <time>2024-02-11T08:42:05Z</time>
      </trkpt>
      <trkpt lat="46.58121" lon="0.63081">
        <ele>103.8</ele>
        <time>2024-02-11T08:42:09Z</time>
      </trkpt>
      <trkpt lat="46.58116" lon="0.63094">
        <ele>104</ele>
        <time>2024-02-11T08:42:13Z</time>
      </trkpt>
      <trkpt lat="46.5811" lon="0.63107">
        <ele>104.8</ele>
        <time>2024-02-11T08:42:17Z</time>
      </trkpt>
      <trkpt lat="46.58105" lon="0.63119">
        <ele>105.8</ele>
        <time>2024-02-11T08:42:21Z</time>
      </trkpt>
      <trkpt lat="46.58102" lon="0.63128">
        <ele>106</ele>
        <time>2024-02-11T08:42:24Z</time>
      </trkpt>
      <trkpt lat="46.58094" lon="0.63146">
        <ele>106.6</ele>
        <time>2024-02-11T08:42:30Z</time>
      </trkpt>
      <trkpt lat="46.58091" lon="0.63153">
        <ele>107</ele>
        <time>2024-02-11T08:42:32Z</time>
      </trkpt>
      <trkpt lat="46.58082" lon="0.63174">
        <ele>108</ele>
        <time>2024-02-11T08:42:39Z</time>
      </trkpt>
      <trkpt lat="46.5808" lon="0.63177">
        <ele>108.2</ele>
        <time>2024-02-11T08:42:40Z</time>
      </trkpt>
      <trkpt lat="46.58071" lon="0.632">
        <ele>108.6</ele>
        <time>2024-02-11T08:42:47Z</time>
      </trkpt>
      <trkpt lat="46.58065" lon="0.63213">
        <ele>109.2</ele>
        <time>2024-02-11T08:42:51Z</time>
      </trkpt>
      <trkpt lat="46.58056" lon="0.63233">
        <ele>110</ele>
        <time>2024-02-11T08:42:57Z</time>
      </trkpt>
      <trkpt lat="46.58055" lon="0.63236">
        <ele>110.2</ele>
        <time>2024-02-11T08:42:58Z</time>
      </trkpt>
      <trkpt lat="46.58048" lon="0.63252">
        <ele>111.4</ele>
        <time>2024-02-11T08:43:03Z</time>
      </trkpt>
      <trkpt lat="46.58044" lon="0.63262">
        <ele>112</ele>
        <time>2024-02-11T08:43:06Z</time>
      </trkpt>
      <trkpt lat="46.58039" lon="0.63276">
        <ele>112.4</ele>
        <time>2024-02-11T08:43:10Z</time>
      </trkpt>
      <trkpt lat="46.58034" lon="0.63289">
        <ele>112.8</ele>
        <time>2024-02-11T08:43:14Z</time>
      </trkpt>
      <trkpt lat="46.58028" lon="0.63302">
        <ele>113.4</ele>
        <time>2024-02-11T08:43:18Z</time>
      </trkpt>
      <trkpt lat="46.58026" lon="0.63308">
        <ele>113.8</ele>
        <time>2024-02-11T08:43:20Z</time>
      </trkpt>
      <trkpt lat="46.58022" lon="0.6332">
        <ele>114.8</ele>
        <time>2024-02-11T08:43:24Z</time>
      </trkpt>
      <trkpt lat="46.58018" lon="0.63328">
        <ele>115.4</ele>
        <time>2024-02-11T08:43:27Z</time>
      </trkpt>
      <trkpt lat="46.58016" lon="0.63334">
        <ele>115.8</ele>
        <time>2024-02-11T08:43:29Z</time>
      </trkpt>
      <trkpt lat="46.5801" lon="0.63348">
        <ele>116.8</ele>
        <time>2024-02-11T08:43:34Z</time>
      </trkpt>
      <trkpt lat="46.58007" lon="0.63357">
        <ele>117.2</ele>
        <time>2024-02-11T08:43:37Z</time>
      </trkpt>
      <trkpt lat="46.58004" lon="0.63368">
        <ele>118</ele>
        <time>2024-02-11T08:43:41Z</time>
      </trkpt>
      <trkpt lat="46.58001" lon="0.63376">
        <ele>119</ele>
        <time>2024-02-11T08:43:44Z</time>
      </trkpt>
      <trkpt lat="46.57999" lon="0.6338">
        <ele>119.2</ele>
        <time>2024-02-11T08:43:45Z</time>
      </trkpt>
      <trkpt lat="46.57994" lon="0.63396">
        <ele>120.2</ele>
        <time>2024-02-11T08:43:50Z</time>
      </trkpt>
      <trkpt lat="46.57993" lon="0.63399">
        <ele>120.4</ele>
        <time>2024-02-11T08:43:51Z</time>
      </trkpt>
      <trkpt lat="46.57986" lon="0.63419">
        <ele>121.2</ele>
        <time>2024-02-11T08:43:57Z</time>
      </trkpt>
      <trkpt lat="46.57983" lon="0.63426">
        <ele>121.4</ele>
        <time>2024-02-11T08:43:59Z</time>
      </trkpt>
      <trkpt lat="46.57974" lon="0.63441">
        <ele>122.4</ele>
        <time>2024-02-11T08:44:04Z</time>
      </trkpt>
      <trkpt lat="46.57969" lon="0.63447">
        <ele>122.6</ele>
        <time>2024-02-11T08:44:06Z</time>
      </trkpt>
      <trkpt lat="46.57961" lon="0.63455">
        <ele>123.6</ele>
        <time>2024-02-11T08:44:09Z</time>
      </trkpt>
      <trkpt lat="46.57944" lon="0.63474">
        <ele>124</ele>
        <time>2024-02-11T08:44:15Z</time>
      </trkpt>
      <trkpt lat="46.57917" lon="0.63508">
        <ele>124.2</ele>
        <time>2024-02-11T08:44:24Z</time>
      </trkpt>
      <trkpt lat="46.57905" lon="0.63532">
        <ele>124.6</ele>
        <time>2024-02-11T08:44:29Z</time>
      </trkpt>
      <trkpt lat="46.57899" lon="0.63548">
        <ele>124.8</ele>
        <time>2024-02-11T08:44:32Z</time>
      </trkpt>
      <trkpt lat="46.57887" lon="0.63581">
        <ele>125.2</ele>
        <time>2024-02-11T08:44:38Z</time>
      </trkpt>
      <trkpt lat="46.57882" lon="0.63598">
        <ele>125.8</ele>
        <time>2024-02-11T08:44:41Z</time>
      </trkpt>
      <trkpt lat="46.5787" lon="0.63632">
        <ele>126.2</ele>
        <time>2024-02-11T08:44:47Z</time>
      </trkpt>
      <trkpt lat="46.5785" lon="0.6369">
        <ele>126.6</ele>
        <time>2024-02-11T08:44:57Z</time>
      </trkpt>
      <trkpt lat="46.57839" lon="0.63716">
        <ele>126.8</ele>
        <time>2024-02-11T08:45:01Z</time>
      </trkpt>
      <trkpt lat="46.57834" lon="0.6373">
        <ele>126.8</ele>
        <time>2024-02-11T08:45:03Z</time>
      </trkpt>
      <trkpt lat="46.5782" lon="0.63786">
        <ele>126.4</ele>
        <time>2024-02-11T08:45:10Z</time>
      </trkpt>
      <trkpt lat="46.57811" lon="0.63835">
        <ele>125.6</ele>
        <time>2024-02-11T08:45:16Z</time>
      </trkpt>
      <trkpt lat="46.57809" lon="0.63843">
        <ele>125.4</ele>
        <time>2024-02-11T08:45:17Z</time>
      </trkpt>
      <trkpt lat="46.57795" lon="0.63881">
        <ele>124.8</ele>
        <time>2024-02-11T08:45:22Z</time>
      </trkpt>
      <trkpt lat="46.57785" lon="0.63902">
        <ele>124.6</ele>
        <time>2024-02-11T08:45:25Z</time>
      </trkpt>
      <trkpt lat="46.57782" lon="0.63909">
        <ele>124.6</ele>
        <time>2024-02-11T08:45:26Z</time>
      </trkpt>
      <trkpt lat="46.57775" lon="0.63923">
        <ele>124.6</ele>
        <time>2024-02-11T08:45:28Z</time>
      </trkpt>
      <trkpt lat="46.57771" lon="0.63928">
        <ele>124.6</ele>
        <time>2024-02-11T08:45:29Z</time>
      </trkpt>
      <trkpt lat="46.57745" lon="0.6396">
        <ele>124</ele>
        <time>2024-02-11T08:45:36Z</time>
      </trkpt>
      <trkpt lat="46.5774" lon="0.63968">
        <ele>123.4</ele>
        <time>2024-02-11T08:45:38Z</time>
      </trkpt>
      <trkpt lat="46.5773" lon="0.63981">
        <ele>122.8</ele>
        <time>2024-02-11T08:45:42Z</time>
      </trkpt>
      <trkpt lat="46.5772" lon="0.63993">
        <ele>122.4</ele>
        <time>2024-02-11T08:45:46Z</time>
      </trkpt>
      <trkpt lat="46.57718" lon="0.63995">
        <ele>122.2</ele>
        <time>2024-02-11T08:45:47Z</time>
      </trkpt>
      <trkpt lat="46.57702" lon="0.64017">
        <ele>122</ele>
        <time>2024-02-11T08:45:54Z</time>
      </trkpt>
      <trkpt lat="46.57687" lon="0.64039">
        <ele>122</ele>
        <time>2024-02-11T08:46:01Z</time>
      </trkpt>
      <trkpt lat="46.57668" lon="0.64061">
        <ele>122.4</ele>
        <time>2024-02-11T08:46:09Z</time>
      </trkpt>
      <trkpt lat="46.57652" lon="0.64083">
        <ele>123.4</ele>
        <time>2024-02-11T08:46:16Z</time>
      </trkpt>
      <trkpt lat="46.57649" lon="0.64087">
        <ele>123.6</ele>
        <time>2024-02-11T08:46:17Z</time>
      </trkpt>
      <trkpt lat="46.57635" lon="0.64109">
        <ele>124.6</ele>
        <time>2024-02-11T08:46:23Z</time>
      </trkpt>
      <trkpt lat="46.57631" lon="0.64116">
        <ele>125</ele>
        <time>2024-02-11T08:46:25Z</time>
      </trkpt>
      <trkpt lat="46.57626" lon="0.64127">
        <ele>125.6</ele>
        <time>2024-02-11T08:46:28Z</time>
      </trkpt>
      <trkpt lat="46.57619" lon="0.64142">
        <ele>127</ele>
        <time>2024-02-11T08:46:32Z</time>
      </trkpt>
      <trkpt lat="46.5761" lon="0.64162">
        <ele>128.2</ele>
        <time>2024-02-11T08:46:37Z</time>
      </trkpt>
      <trkpt lat="46.57606" lon="0.6417">
        <ele>128.4</ele>
        <time>2024-02-11T08:46:39Z</time>
      </trkpt>
      <trkpt lat="46.57596" lon="0.64191">
        <ele>129.4</ele>
        <time>2024-02-11T08:46:44Z</time>
      </trkpt>
      <trkpt lat="46.57593" lon="0.64197">
        <ele>129.4</ele>
        <time>2024-02-11T08:46:45Z</time>
      </trkpt>
      <trkpt lat="46.57576" lon="0.64228">
        <ele>130.4</ele>
        <time>2024-02-11T08:46:52Z</time>
      </trkpt>
      <trkpt lat="46.57573" lon="0.64232">
        <ele>130.6</ele>
        <time>2024-02-11T08:46:53Z</time>
      </trkpt>
      <trkpt lat="46.57553" lon="0.64261">
        <ele>131.4</ele>
        <time>2024-02-11T08:47:00Z</time>
      </trkpt>
      <trkpt lat="46.57551" lon="0.64265">
        <ele>131.4</ele>
        <time>2024-02-11T08:47:01Z</time>
      </trkpt>
      <trkpt lat="46.57527" lon="0.64294">
        <ele>131.2</ele>
        <time>2024-02-11T08:47:10Z</time>
      </trkpt>
      <trkpt lat="46.5751" lon="0.6431">
        <ele>130.4</ele>
        <time>2024-02-11T08:47:16Z</time>
      </trkpt>
      <trkpt lat="46.57504" lon="0.64316">
        <ele>130</ele>
        <time>2024-02-11T08:47:18Z</time>
      </trkpt>
      <trkpt lat="46.57492" lon="0.64332">
        <ele>129.6</ele>
        <time>2024-02-11T08:47:22Z</time>
      </trkpt>
      <trkpt lat="46.57486" lon="0.64343">
        <ele>129.2</ele>
        <time>2024-02-11T08:47:24Z</time>
      </trkpt>
      <trkpt lat="46.57481" lon="0.64355">
        <ele>128.8</ele>
        <time>2024-02-11T08:47:26Z</time>
      </trkpt>
      <trkpt lat="46.57473" lon="0.64372">
        <ele>128.2</ele>
        <time>2024-02-11T08:47:29Z</time>
      </trkpt>
      <trkpt lat="46.5747" lon="0.64378">
        <ele>128</ele>
        <time>2024-02-11T08:47:30Z</time>
      </trkpt>
      <trkpt lat="46.57462" lon="0.64395">
        <ele>127.8</ele>
        <time>2024-02-11T08:47:33Z</time>
      </trkpt>
      <trkpt lat="46.57451" lon="0.64417">
        <ele>127.4</ele>
        <time>2024-02-11T08:47:37Z</time>
      </trkpt>
      <trkpt lat="46.57438" lon="0.64446">
        <ele>127</ele>
        <time>2024-02-11T08:47:42Z</time>
      </trkpt>
      <trkpt lat="46.57431" lon="0.64462">
        <ele>126.6</ele>
        <time>2024-02-11T08:47:45Z</time>
      </trkpt>
      <trkpt lat="46.5741" lon="0.64507">
        <ele>126.4</ele>
        <time>2024-02-11T08:47:54Z</time>
      </trkpt>
      <trkpt lat="46.57394" lon="0.64535">
        <ele>126.4</ele>
        <time>2024-02-11T08:48:00Z</time>
      </trkpt>
      <trkpt lat="46.57372" lon="0.64562">
        <ele>126.2</ele>
        <time>2024-02-11T08:48:07Z</time>
      </trkpt>
      <trkpt lat="46.57364" lon="0.64576">
        <ele>126</ele>
        <time>2024-02-11T08:48:10Z</time>
      </trkpt>
      <trkpt lat="46.57356" lon="0.64592">
        <ele>125.8</ele>
        <time>2024-02-11T08:48:13Z</time>
      </trkpt>
      <trkpt lat="46.57349" lon="0.64603">
        <ele>125.2</ele>
        <time>2024-02-11T08:48:15Z</time>
      </trkpt>
      <trkpt lat="46.57342" lon="0.64612">
        <ele>124.8</ele>
        <time>2024-02-11T08:48:17Z</time>
      </trkpt>
      <trkpt lat="46.57338" lon="0.64615">
        <ele>124.6</ele>
        <time>2024-02-11T08:48:18Z</time>
      </trkpt>
      <trkpt lat="46.57324" lon="0.64625">
        <ele>123.8</ele>
        <time>2024-02-11T08:48:21Z</time>
      </trkpt>
      <trkpt lat="46.57309" lon="0.64634">
        <ele>123.2</ele>
        <time>2024-02-11T08:48:24Z</time>
      </trkpt>
      <trkpt lat="46.57298" lon="0.64639">
        <ele>122.8</ele>
        <time>2024-02-11T08:48:26Z</time>
      </trkpt>
      <trkpt lat="46.57265" lon="0.64652">
        <ele>121.6</ele>
        <time>2024-02-11T08:48:32Z</time>
      </trkpt>
      <trkpt lat="46.57243" lon="0.64663">
        <ele>120.8</ele>
        <time>2024-02-11T08:48:37Z</time>
      </trkpt>
      <trkpt lat="46.57234" lon="0.64667">
        <ele>120.6</ele>
        <time>2024-02-11T08:48:39Z</time>
      </trkpt>
      <trkpt lat="46.5723" lon="0.64668">
        <ele>120.6</ele>
        <time>2024-02-11T08:48:40Z</time>
      </trkpt>
      <trkpt lat="46.57208" lon="0.64683">
        <ele>120.4</ele>
        <time>2024-02-11T08:48:45Z</time>
      </trkpt>
      <trkpt lat="46.57205" lon="0.64689">
        <ele>120.2</ele>
        <time>2024-02-11T08:48:46Z</time>
      </trkpt>
      <trkpt lat="46.57188" lon="0.64704">
        <ele>119.4</ele>
        <time>2024-02-11T08:48:50Z</time>
      </trkpt>
      <trkpt lat="46.5718" lon="0.64711">
        <ele>119</ele>
        <time>2024-02-11T08:48:52Z</time>
      </trkpt>
      <trkpt lat="46.5716" lon="0.6472">
        <ele>118.2</ele>
        <time>2024-02-11T08:48:57Z</time>
      </trkpt>
      <trkpt lat="46.57155" lon="0.64722">
        <ele>118.2</ele>
        <time>2024-02-11T08:48:58Z</time>
      </trkpt>
      <trkpt lat="46.57151" lon="0.64724">
        <ele>118.2</ele>
        <time>2024-02-11T08:48:59Z</time>
      </trkpt>
      <trkpt lat="46.57137" lon="0.64734">
        <ele>117.8</ele>
        <time>2024-02-11T08:49:03Z</time>
      </trkpt>
      <trkpt lat="46.57122" lon="0.64749">
        <ele>117.2</ele>
        <time>2024-02-11T08:49:07Z</time>
      </trkpt>
      <trkpt lat="46.57114" lon="0.6476">
        <ele>116.4</ele>
        <time>2024-02-11T08:49:10Z</time>
      </trkpt>
      <trkpt lat="46.57111" lon="0.64762">
        <ele>116.2</ele>
        <time>2024-02-11T08:49:11Z</time>
      </trkpt>
      <trkpt lat="46.57109" lon="0.64763">
        <ele>116</ele>
        <time>2024-02-11T08:49:12Z</time>
      </trkpt>
      <trkpt lat="46.57102" lon="0.64766">
        <ele>115.6</ele>
        <time>2024-02-11T08:49:14Z</time>
      </trkpt>
      <trkpt lat="46.57092" lon="0.64769">
        <ele>114.8</ele>
        <time>2024-02-11T08:49:17Z</time>
      </trkpt>
      <trkpt lat="46.57083" lon="0.6477">
        <ele>114.6</ele>
        <time>2024-02-11T08:49:19Z</time>
      </trkpt>
      <trkpt lat="46.57079" lon="0.64772">
        <ele>113.8</ele>
        <time>2024-02-11T08:49:20Z</time>
      </trkpt>
      <trkpt lat="46.57071" lon="0.64777">
        <ele>112.2</ele>
        <time>2024-02-11T08:49:22Z</time>
      </trkpt>
      <trkpt lat="46.57067" lon="0.64779">
        <ele>111.8</ele>
        <time>2024-02-11T08:49:23Z</time>
      </trkpt>
      <trkpt lat="46.57058" lon="0.64786">
        <ele>110.8</ele>
        <time>2024-02-11T08:49:25Z</time>
      </trkpt>
      <trkpt lat="46.57042" lon="0.64797">
        <ele>109.4</ele>
        <time>2024-02-11T08:49:28Z</time>
      </trkpt>
      <trkpt lat="46.57031" lon="0.64805">
        <ele>108.4</ele>
        <time>2024-02-11T08:49:30Z</time>
      </trkpt>
      <trkpt lat="46.57026" lon="0.6481">
        <ele>107.4</ele>
        <time>2024-02-11T08:49:31Z</time>
      </trkpt>
      <trkpt lat="46.57015" lon="0.64817">
        <ele>106</ele>
        <time>2024-02-11T08:49:33Z</time>
      </trkpt>
      <trkpt lat="46.57" lon="0.64828">
        <ele>104.4</ele>
        <time>2024-02-11T08:49:36Z</time>
      </trkpt>
      <trkpt lat="46.56995" lon="0.64833">
        <ele>104</ele>
        <time>2024-02-11T08:49:37Z</time>
      </trkpt>
      <trkpt lat="46.56989" lon="0.64836">
        <ele>103.4</ele>
        <time>2024-02-11T08:49:38Z</time>
      </trkpt>
      <trkpt lat="46.56967" lon="0.64853">
        <ele>101.8</ele>
        <time>2024-02-11T08:49:42Z</time>
      </trkpt>
      <trkpt lat="46.56956" lon="0.64854">
        <ele>100.2</ele>
        <time>2024-02-11T08:49:44Z</time>
      </trkpt>
      <trkpt lat="46.56948" lon="0.64855">
        <ele>99.6</ele>
        <time>2024-02-11T08:49:46Z</time>
      </trkpt>
      <trkpt lat="46.56943" lon="0.64861">
        <ele>99.6</ele>
        <time>2024-02-11T08:49:48Z</time>
      </trkpt>
      <trkpt lat="46.56941" lon="0.64869">
        <ele>99.6</ele>
        <time>2024-02-11T08:49:50Z</time>
      </trkpt>
      <trkpt lat="46.56945" lon="0.64884">
        <ele>100.2</ele>
        <time>2024-02-11T08:49:54Z</time>
      </trkpt>
      <trkpt lat="46.56954" lon="0.64891">
        <ele>101.2</ele>
        <time>2024-02-11T08:49:59Z</time>
      </trkpt>
      <trkpt lat="46.56956" lon="0.64891">
        <ele>101.4</ele>
        <time>2024-02-11T08:50:00Z</time>
      </trkpt>
      <trkpt lat="46.56963" lon="0.6489">
        <ele>102.4</ele>
        <time>2024-02-11T08:50:03Z</time>
      </trkpt>
      <trkpt lat="46.56967" lon="0.64889">
        <ele>102.6</ele>
        <time>2024-02-11T08:50:05Z</time>
      </trkpt>
      <trkpt lat="46.56981" lon="0.64888">
        <ele>102.6</ele>
        <time>2024-02-11T08:50:11Z</time>
      </trkpt>
      <trkpt lat="46.56987" lon="0.64886">
        <ele>103.4</ele>
        <time>2024-02-11T08:50:14Z</time>
      </trkpt>
      <trkpt lat="46.56996" lon="0.64885">
        <ele>104</ele>
        <time>2024-02-11T08:50:18Z</time>
      </trkpt>
      <trkpt lat="46.57003" lon="0.64887">
        <ele>104.8</ele>
        <time>2024-02-11T08:50:21Z</time>
      </trkpt>
      <trkpt lat="46.57012" lon="0.64887">
        <ele>105.6</ele>
        <time>2024-02-11T08:50:26Z</time>
      </trkpt>
      <trkpt lat="46.57014" lon="0.64887">
        <ele>105.8</ele>
        <time>2024-02-11T08:50:27Z</time>
      </trkpt>
      <trkpt lat="46.57021" lon="0.64885">
        <ele>106.4</ele>
        <time>2024-02-11T08:50:31Z</time>
      </trkpt>
      <trkpt lat="46.57024" lon="0.64885">
        <ele>107</ele>
        <time>2024-02-11T08:50:33Z</time>
      </trkpt>
      <trkpt lat="46.57031" lon="0.6489">
        <ele>107.4</ele>
        <time>2024-02-11T08:50:36Z</time>
      </trkpt>
      <trkpt lat="46.57045" lon="0.64893">
        <ele>107.4</ele>
        <time>2024-02-11T08:50:41Z</time>
      </trkpt>
      <trkpt lat="46.57062" lon="0.64897">
        <ele>107</ele>
        <time>2024-02-11T08:50:46Z</time>
      </trkpt>
      <trkpt lat="46.57085" lon="0.649">
        <ele>106</ele>
        <time>2024-02-11T08:50:53Z</time>
      </trkpt>
      <trkpt lat="46.57088" lon="0.64901">
        <ele>106</ele>
        <time>2024-02-11T08:50:54Z</time>
      </trkpt>
      <trkpt lat="46.57099" lon="0.64904">
        <ele>105.8</ele>
        <time>2024-02-11T08:50:59Z</time>
      </trkpt>
      <trkpt lat="46.57119" lon="0.64909">
        <ele>105.6</ele>
        <time>2024-02-11T08:51:06Z</time>
      </trkpt>
      <trkpt lat="46.57134" lon="0.64913">
        <ele>105.2</ele>
        <time>2024-02-11T08:51:11Z</time>
      </trkpt>
      <trkpt lat="46.57147" lon="0.64918">
        <ele>105</ele>
        <time>2024-02-11T08:51:16Z</time>
      </trkpt>
      <trkpt lat="46.57162" lon="0.64923">
        <ele>105.2</ele>
        <time>2024-02-11T08:51:22Z</time>
      </trkpt>
      <trkpt lat="46.57175" lon="0.64924">
        <ele>105.4</ele>
        <time>2024-02-11T08:51:28Z</time>
      </trkpt>
      <trkpt lat="46.57178" lon="0.64923">
        <ele>105.6</ele>
        <time>2024-02-11T08:51:31Z</time>
      </trkpt>
      <trkpt lat="46.57183" lon="0.64925">
        <ele>105.8</ele>
        <time>2024-02-11T08:51:33Z</time>
      </trkpt>
      <trkpt lat="46.57184" lon="0.64926">
        <ele>106</ele>
        <time>2024-02-11T08:51:34Z</time>
      </trkpt>
      <trkpt lat="46.57185" lon="0.64931">
        <ele>106</ele>
        <time>2024-02-11T08:51:42Z</time>
      </trkpt>
      <trkpt lat="46.57184" lon="0.64932">
        <ele>106</ele>
        <time>2024-02-11T08:51:43Z</time>
      </trkpt>
      <trkpt lat="46.57185" lon="0.64934">
        <ele>106</ele>
        <time>2024-02-11T08:51:45Z</time>
      </trkpt>
      <trkpt lat="46.57188" lon="0.64936">
        <ele>106</ele>
        <time>2024-02-11T08:51:48Z</time>
      </trkpt>
      <trkpt lat="46.57192" lon="0.64936">
        <ele>105.8</ele>
        <time>2024-02-11T08:51:50Z</time>
      </trkpt>
      <trkpt lat="46.57205" lon="0.64939">
        <ele>105.4</ele>
        <time>2024-02-11T08:51:55Z</time>
      </trkpt>
      <trkpt lat="46.57213" lon="0.64941">
        <ele>104.8</ele>
        <time>2024-02-11T08:51:58Z</time>
      </trkpt>
      <trkpt lat="46.5722" lon="0.64945">
        <ele>104.6</ele>
        <time>2024-02-11T08:52:01Z</time>
      </trkpt>
      <trkpt lat="46.57227" lon="0.64953">
        <ele>104.2</ele>
        <time>2024-02-11T08:52:06Z</time>
      </trkpt>
      <trkpt lat="46.57228" lon="0.64958">
        <ele>104.4</ele>
        <time>2024-02-11T08:52:08Z</time>
      </trkpt>
      <trkpt lat="46.57224" lon="0.64975">
        <ele>104.2</ele>
        <time>2024-02-11T08:52:12Z</time>
      </trkpt>
      <trkpt lat="46.57222" lon="0.64987">
        <ele>103.6</ele>
        <time>2024-02-11T08:52:14Z</time>
      </trkpt>
      <trkpt lat="46.5722" lon="0.64998">
        <ele>102.2</ele>
        <time>2024-02-11T08:52:16Z</time>
      </trkpt>
      <trkpt lat="46.57218" lon="0.65005">
        <ele>101.6</ele>
        <time>2024-02-11T08:52:18Z</time>
      </trkpt>
      <trkpt lat="46.57216" lon="0.65009">
        <ele>100.8</ele>
        <time>2024-02-11T08:52:20Z</time>
      </trkpt>
      <trkpt lat="46.57209" lon="0.65013">
        <ele>99.8</ele>
        <time>2024-02-11T08:52:23Z</time>
      </trkpt>
      <trkpt lat="46.57205" lon="0.65015">
        <ele>99.6</ele>
        <time>2024-02-11T08:52:24Z</time>
      </trkpt>
      <trkpt lat="46.57201" lon="0.65024">
        <ele>99.4</ele>
        <time>2024-02-11T08:52:26Z</time>
      </trkpt>
      <trkpt lat="46.57202" lon="0.65037">
        <ele>98.4</ele>
        <time>2024-02-11T08:52:28Z</time>
      </trkpt>
      <trkpt lat="46.57202" lon="0.65045">
        <ele>98.2</ele>
        <time>2024-02-11T08:52:29Z</time>
      </trkpt>
      <trkpt lat="46.57204" lon="0.65062">
        <ele>97</ele>
        <time>2024-02-11T08:52:31Z</time>
      </trkpt>
      <trkpt lat="46.57205" lon="0.65085">
        <ele>95.4</ele>
        <time>2024-02-11T08:52:34Z</time>
      </trkpt>
      <trkpt lat="46.57204" lon="0.65098">
        <ele>93.4</ele>
        <time>2024-02-11T08:52:36Z</time>
      </trkpt>
      <trkpt lat="46.57201" lon="0.6511">
        <ele>92</ele>
        <time>2024-02-11T08:52:38Z</time>
      </trkpt>
      <trkpt lat="46.57199" lon="0.65116">
        <ele>91.4</ele>
        <time>2024-02-11T08:52:39Z</time>
      </trkpt>
      <trkpt lat="46.57196" lon="0.65129">
        <ele>90.4</ele>
        <time>2024-02-11T08:52:41Z</time>
      </trkpt>
      <trkpt lat="46.57191" lon="0.65141">
        <ele>89.2</ele>
        <time>2024-02-11T08:52:43Z</time>
      </trkpt>
      <trkpt lat="46.57188" lon="0.65147">
        <ele>88.4</ele>
        <time>2024-02-11T08:52:44Z</time>
      </trkpt>
      <trkpt lat="46.57185" lon="0.65153">
        <ele>87.8</ele>
        <time>2024-02-11T08:52:45Z</time>
      </trkpt>
      <trkpt lat="46.57177" lon="0.65163">
        <ele>86.6</ele>
        <time>2024-02-11T08:52:47Z</time>
      </trkpt>
      <trkpt lat="46.57169" lon="0.65172">
        <ele>85.2</ele>
        <time>2024-02-11T08:52:49Z</time>
      </trkpt>
      <trkpt lat="46.57161" lon="0.6518">
        <ele>84.4</ele>
        <time>2024-02-11T08:52:51Z</time>
      </trkpt>
      <trkpt lat="46.57157" lon="0.65184">
        <ele>83.8</ele>
        <time>2024-02-11T08:52:52Z</time>
      </trkpt>
      <trkpt lat="46.57144" lon="0.652">
        <ele>82.2</ele>
        <time>2024-02-11T08:52:56Z</time>
      </trkpt>
      <trkpt lat="46.57134" lon="0.65211">
        <ele>81</ele>
        <time>2024-02-11T08:52:59Z</time>
      </trkpt>
      <trkpt lat="46.57122" lon="0.65224">
        <ele>79.8</ele>
        <time>2024-02-11T08:53:03Z</time>
      </trkpt>
      <trkpt lat="46.57116" lon="0.65232">
        <ele>79.2</ele>
        <time>2024-02-11T08:53:05Z</time>
      </trkpt>
      <trkpt lat="46.57111" lon="0.65243">
        <ele>78.4</ele>
        <time>2024-02-11T08:53:07Z</time>
      </trkpt>
      <trkpt lat="46.57109" lon="0.65248">
        <ele>78</ele>
        <time>2024-02-11T08:53:08Z</time>
      </trkpt>
      <trkpt lat="46.57106" lon="0.65266">
        <ele>76.8</ele>
        <time>2024-02-11T08:53:11Z</time>
      </trkpt>
      <trkpt lat="46.57102" lon="0.6529">
        <ele>75.8</ele>
        <time>2024-02-11T08:53:15Z</time>
      </trkpt>
      <trkpt lat="46.571" lon="0.65309">
        <ele>75.6</ele>
        <time>2024-02-11T08:53:18Z</time>
      </trkpt>
      <trkpt lat="46.57097" lon="0.65327">
        <ele>74.8</ele>
        <time>2024-02-11T08:53:21Z</time>
      </trkpt>
      <trkpt lat="46.57093" lon="0.6535">
        <ele>74</ele>
        <time>2024-02-11T08:53:25Z</time>
      </trkpt>
      <trkpt lat="46.5709" lon="0.65372">
        <ele>73.8</ele>
        <time>2024-02-11T08:53:29Z</time>
      </trkpt>
      <trkpt lat="46.57088" lon="0.6538">
        <ele>73.6</ele>
        <time>2024-02-11T08:53:31Z</time>
      </trkpt>
      <trkpt lat="46.57083" lon="0.65406">
        <ele>73.8</ele>
        <time>2024-02-11T08:53:38Z</time>
      </trkpt>
      <trkpt lat="46.57077" lon="0.65443">
        <ele>75</ele>
        <time>2024-02-11T08:53:48Z</time>
      </trkpt>
      <trkpt lat="46.57076" lon="0.65447">
        <ele>75</ele>
        <time>2024-02-11T08:53:49Z</time>
      </trkpt>
      <trkpt lat="46.57074" lon="0.65475">
        <ele>76</ele>
        <time>2024-02-11T08:53:56Z</time>
      </trkpt>
      <trkpt lat="46.57074" lon="0.65483">
        <ele>76.4</ele>
        <time>2024-02-11T08:53:58Z</time>
      </trkpt>
      <trkpt lat="46.57073" lon="0.65502">
        <ele>77.2</ele>
        <time>2024-02-11T08:54:03Z</time>
      </trkpt>
      <trkpt lat="46.57074" lon="0.65517">
        <ele>77.8</ele>
        <time>2024-02-11T08:54:07Z</time>
      </trkpt>
      <trkpt lat="46.57077" lon="0.65553">
        <ele>77.6</ele>
        <time>2024-02-11T08:54:14Z</time>
      </trkpt>
      <trkpt lat="46.57088" lon="0.65608">
        <ele>76.6</ele>
        <time>2024-02-11T08:54:23Z</time>
      </trkpt>
      <trkpt lat="46.5709" lon="0.65615">
        <ele>76.6</ele>
        <time>2024-02-11T08:54:24Z</time>
      </trkpt>
      <trkpt lat="46.57102" lon="0.65653">
        <ele>76</ele>
        <time>2024-02-11T08:54:30Z</time>
      </trkpt>
      <trkpt lat="46.57105" lon="0.65658">
        <ele>75.8</ele>
        <time>2024-02-11T08:54:31Z</time>
      </trkpt>
      <trkpt lat="46.57121" lon="0.65684">
        <ele>75</ele>
        <time>2024-02-11T08:54:36Z</time>
      </trkpt>
      <trkpt lat="46.57124" lon="0.65689">
        <ele>74.8</ele>
        <time>2024-02-11T08:54:37Z</time>
      </trkpt>
      <trkpt lat="46.57131" lon="0.65697">
        <ele>74.4</ele>
        <time>2024-02-11T08:54:39Z</time>
      </trkpt>
      <trkpt lat="46.57138" lon="0.65702">
        <ele>73.6</ele>
        <time>2024-02-11T08:54:41Z</time>
      </trkpt>
      <trkpt lat="46.57142" lon="0.65704">
        <ele>73.4</ele>
        <time>2024-02-11T08:54:42Z</time>
      </trkpt>
      <trkpt lat="46.57146" lon="0.65705">
        <ele>73.2</ele>
        <time>2024-02-11T08:54:43Z</time>
      </trkpt>
      <trkpt lat="46.57167" lon="0.65709">
        <ele>73</ele>
        <time>2024-02-11T08:54:48Z</time>
      </trkpt>
      <trkpt lat="46.57185" lon="0.6571">
        <ele>73.2</ele>
        <time>2024-02-11T08:54:52Z</time>
      </trkpt>
      <trkpt lat="46.57195" lon="0.65711">
        <ele>73.2</ele>
        <time>2024-02-11T08:54:54Z</time>
      </trkpt>
      <trkpt lat="46.57224" lon="0.65715">
        <ele>73.6</ele>
        <time>2024-02-11T08:55:01Z</time>
      </trkpt>
      <trkpt lat="46.57243" lon="0.65717">
        <ele>73.8</ele>
        <time>2024-02-11T08:55:06Z</time>
      </trkpt>
      <trkpt lat="46.57255" lon="0.65719">
        <ele>74.2</ele>
        <time>2024-02-11T08:55:09Z</time>
      </trkpt>
      <trkpt lat="46.57281" lon="0.65726">
        <ele>74.4</ele>
        <time>2024-02-11T08:55:16Z</time>
      </trkpt>
      <trkpt lat="46.57308" lon="0.65738">
        <ele>74.8</ele>
        <time>2024-02-11T08:55:23Z</time>
      </trkpt>
      <trkpt lat="46.57315" lon="0.65743">
        <ele>75</ele>
        <time>2024-02-11T08:55:25Z</time>
      </trkpt>
      <trkpt lat="46.57326" lon="0.6575">
        <ele>75.2</ele>
        <time>2024-02-11T08:55:28Z</time>
      </trkpt>
      <trkpt lat="46.57344" lon="0.65769">
        <ele>74.8</ele>
        <time>2024-02-11T08:55:33Z</time>
      </trkpt>
      <trkpt lat="46.57364" lon="0.65796">
        <ele>74.6</ele>
        <time>2024-02-11T08:55:39Z</time>
      </trkpt>
      <trkpt lat="46.57372" lon="0.65811">
        <ele>74.4</ele>
        <time>2024-02-11T08:55:42Z</time>
      </trkpt>
      <trkpt lat="46.57378" lon="0.65826">
        <ele>74.8</ele>
        <time>2024-02-11T08:55:45Z</time>
      </trkpt>
      <trkpt lat="46.5738" lon="0.65832">
        <ele>74.8</ele>
        <time>2024-02-11T08:55:46Z</time>
      </trkpt>
      <trkpt lat="46.57384" lon="0.65851">
        <ele>75.2</ele>
        <time>2024-02-11T08:55:49Z</time>
      </trkpt>
      <trkpt lat="46.57385" lon="0.65866">
        <ele>75</ele>
        <time>2024-02-11T08:55:51Z</time>
      </trkpt>
      <trkpt lat="46.57385" lon="0.65874">
        <ele>75</ele>
        <time>2024-02-11T08:55:52Z</time>
      </trkpt>
      <trkpt lat="46.57382" lon="0.65912">
        <ele>74.8</ele>
        <time>2024-02-11T08:55:57Z</time>
      </trkpt>
      <trkpt lat="46.57381" lon="0.65937">
        <ele>74.8</ele>
        <time>2024-02-11T08:56:00Z</time>
      </trkpt>
      <trkpt lat="46.57383" lon="0.65952">
        <ele>75.2</ele>
        <time>2024-02-11T08:56:02Z</time>
      </trkpt>
      <trkpt lat="46.5739" lon="0.65987">
        <ele>75.8</ele>
        <time>2024-02-11T08:56:07Z</time>
      </trkpt>
      <trkpt lat="46.57392" lon="0.65995">
        <ele>76</ele>
        <time>2024-02-11T08:56:08Z</time>
      </trkpt>
      <trkpt lat="46.57404" lon="0.66044">
        <ele>76.4</ele>
        <time>2024-02-11T08:56:15Z</time>
      </trkpt>
      <trkpt lat="46.5742" lon="0.6608">
        <ele>76.6</ele>
        <time>2024-02-11T08:56:22Z</time>
      </trkpt>
      <trkpt lat="46.57423" lon="0.66084">
        <ele>76.8</ele>
        <time>2024-02-11T08:56:23Z</time>
      </trkpt>
      <trkpt lat="46.57439" lon="0.66099">
        <ele>77.8</ele>
        <time>2024-02-11T08:56:28Z</time>
      </trkpt>
      <trkpt lat="46.57442" lon="0.66102">
        <ele>78</ele>
        <time>2024-02-11T08:56:29Z</time>
      </trkpt>
      <trkpt lat="46.57456" lon="0.66114">
        <ele>78.2</ele>
        <time>2024-02-11T08:56:34Z</time>
      </trkpt>
      <trkpt lat="46.57468" lon="0.66125">
        <ele>79</ele>
        <time>2024-02-11T08:56:39Z</time>
      </trkpt>
      <trkpt lat="46.5747" lon="0.66127">
        <ele>79</ele>
        <time>2024-02-11T08:56:40Z</time>
      </trkpt>
      <trkpt lat="46.57483" lon="0.6614">
        <ele>80</ele>
        <time>2024-02-11T08:56:45Z</time>
      </trkpt>
      <trkpt lat="46.57486" lon="0.66145">
        <ele>80.8</ele>
        <time>2024-02-11T08:56:47Z</time>
      </trkpt>
      <trkpt lat="46.5749" lon="0.66151">
        <ele>81.2</ele>
        <time>2024-02-11T08:56:49Z</time>
      </trkpt>
      <trkpt lat="46.57498" lon="0.66162">
        <ele>82.8</ele>
        <time>2024-02-11T08:56:53Z</time>
      </trkpt>
      <trkpt lat="46.57502" lon="0.66172">
        <ele>83.8</ele>
        <time>2024-02-11T08:56:56Z</time>
      </trkpt>
      <trkpt lat="46.57507" lon="0.66193">
        <ele>84.6</ele>
        <time>2024-02-11T08:57:01Z</time>
      </trkpt>
      <trkpt lat="46.57507" lon="0.66198">
        <ele>85</ele>
        <time>2024-02-11T08:57:02Z</time>
      </trkpt>
      <trkpt lat="46.5751" lon="0.66215">
        <ele>86</ele>
        <time>2024-02-11T08:57:07Z</time>
      </trkpt>
      <trkpt lat="46.57512" lon="0.66242">
        <ele>87</ele>
        <time>2024-02-11T08:57:14Z</time>
      </trkpt>
      <trkpt lat="46.57513" lon="0.66246">
        <ele>87</ele>
        <time>2024-02-11T08:57:15Z</time>
      </trkpt>
      <trkpt lat="46.57514" lon="0.6627">
        <ele>88</ele>
        <time>2024-02-11T08:57:21Z</time>
      </trkpt>
      <trkpt lat="46.57514" lon="0.66283">
        <ele>88.6</ele>
        <time>2024-02-11T08:57:24Z</time>
      </trkpt>
      <trkpt lat="46.57514" lon="0.66302">
        <ele>89.2</ele>
        <time>2024-02-11T08:57:28Z</time>
      </trkpt>
      <trkpt lat="46.57515" lon="0.66316">
        <ele>89.6</ele>
        <time>2024-02-11T08:57:31Z</time>
      </trkpt>
      <trkpt lat="46.57518" lon="0.66335">
        <ele>90.2</ele>
        <time>2024-02-11T08:57:35Z</time>
      </trkpt>
      <trkpt lat="46.5752" lon="0.66348">
        <ele>90.4</ele>
        <time>2024-02-11T08:57:38Z</time>
      </trkpt>
      <trkpt lat="46.57527" lon="0.66385">
        <ele>91.2</ele>
        <time>2024-02-11T08:57:46Z</time>
      </trkpt>
      <trkpt lat="46.57532" lon="0.66418">
        <ele>92.4</ele>
        <time>2024-02-11T08:57:53Z</time>
      </trkpt>
      <trkpt lat="46.57537" lon="0.66443">
        <ele>92.4</ele>
        <time>2024-02-11T08:57:59Z</time>
      </trkpt>
      <trkpt lat="46.57543" lon="0.66469">
        <ele>93.2</ele>
        <time>2024-02-11T08:58:06Z</time>
      </trkpt>
      <trkpt lat="46.57544" lon="0.66473">
        <ele>93.4</ele>
        <time>2024-02-11T08:58:07Z</time>
      </trkpt>
      <trkpt lat="46.57546" lon="0.66496">
        <ele>93.6</ele>
        <time>2024-02-11T08:58:13Z</time>
      </trkpt>
      <trkpt lat="46.57546" lon="0.66507">
        <ele>94.4</ele>
        <time>2024-02-11T08:58:16Z</time>
      </trkpt>
      <trkpt lat="46.57544" lon="0.66524">
        <ele>95</ele>
        <time>2024-02-11T08:58:20Z</time>
      </trkpt>
      <trkpt lat="46.57542" lon="0.66537">
        <ele>95.6</ele>
        <time>2024-02-11T08:58:23Z</time>
      </trkpt>
      <trkpt lat="46.57537" lon="0.66555">
        <ele>96.2</ele>
        <time>2024-02-11T08:58:28Z</time>
      </trkpt>
      <trkpt lat="46.57534" lon="0.66562">
        <ele>96.8</ele>
        <time>2024-02-11T08:58:31Z</time>
      </trkpt>
      <trkpt lat="46.57534" lon="0.66564">
        <ele>97</ele>
        <time>2024-02-11T08:58:33Z</time>
      </trkpt>
      <trkpt lat="46.57534" lon="0.66565">
        <ele>97.4</ele>
        <time>2024-02-11T08:58:49Z</time>
      </trkpt>
      <trkpt lat="46.57534" lon="0.66566">
        <ele>97.6</ele>
        <time>2024-02-11T08:58:59Z</time>
      </trkpt>
      <trkpt lat="46.57534" lon="0.66566">
        <ele>97.8</ele>
        <time>2024-02-11T08:59:16Z</time>
      </trkpt>
      <trkpt lat="46.57534" lon="0.66566">
        <ele>97.8</ele>
        <time>2024-02-11T08:59:34Z</time>
      </trkpt>
      <trkpt lat="46.57533" lon="0.66567">
        <ele>97.8</ele>
        <time>2024-02-11T08:59:50Z</time>
      </trkpt>
      <trkpt lat="46.57536" lon="0.6656">
        <ele>97.6</ele>
        <time>2024-02-11T09:00:01Z</time>
      </trkpt>
      <trkpt lat="46.57545" lon="0.66536">
        <ele>97</ele>
        <time>2024-02-11T09:00:07Z</time>
      </trkpt>
      <trkpt lat="46.5755" lon="0.66514">
        <ele>96.6</ele>
        <time>2024-02-11T09:00:12Z</time>
      </trkpt>
      <trkpt lat="46.57551" lon="0.66504">
        <ele>96.6</ele>
        <time>2024-02-11T09:00:14Z</time>
      </trkpt>
      <trkpt lat="46.57552" lon="0.66488">
        <ele>95.2</ele>
        <time>2024-02-11T09:00:17Z</time>
      </trkpt>
      <trkpt lat="46.57551" lon="0.66483">
        <ele>95</ele>
        <time>2024-02-11T09:00:18Z</time>
      </trkpt>
      <trkpt lat="46.5755" lon="0.66479">
        <ele>94.6</ele>
        <time>2024-02-11T09:00:19Z</time>
      </trkpt>
      <trkpt lat="46.57549" lon="0.6647">
        <ele>94</ele>
        <time>2024-02-11T09:00:21Z</time>
      </trkpt>
      <trkpt lat="46.57548" lon="0.66465">
        <ele>94</ele>
        <time>2024-02-11T09:00:22Z</time>
      </trkpt>
      <trkpt lat="46.57547" lon="0.66456">
        <ele>93.8</ele>
        <time>2024-02-11T09:00:24Z</time>
      </trkpt>
      <trkpt lat="46.57546" lon="0.66452">
        <ele>93.6</ele>
        <time>2024-02-11T09:00:25Z</time>
      </trkpt>
      <trkpt lat="46.57541" lon="0.66426">
        <ele>93</ele>
        <time>2024-02-11T09:00:30Z</time>
      </trkpt>
      <trkpt lat="46.57541" lon="0.66419">
        <ele>93</ele>
        <time>2024-02-11T09:00:31Z</time>
      </trkpt>
      <trkpt lat="46.57534" lon="0.6638">
        <ele>92.6</ele>
        <time>2024-02-11T09:00:37Z</time>
      </trkpt>
      <trkpt lat="46.57531" lon="0.6636">
        <ele>91.6</ele>
        <time>2024-02-11T09:00:40Z</time>
      </trkpt>
      <trkpt lat="46.57528" lon="0.6634">
        <ele>90.4</ele>
        <time>2024-02-11T09:00:43Z</time>
      </trkpt>
      <trkpt lat="46.57527" lon="0.66333">
        <ele>90.4</ele>
        <time>2024-02-11T09:00:44Z</time>
      </trkpt>
      <trkpt lat="46.57526" lon="0.66289">
        <ele>90</ele>
        <time>2024-02-11T09:00:50Z</time>
      </trkpt>
      <trkpt lat="46.57525" lon="0.66282">
        <ele>89.8</ele>
        <time>2024-02-11T09:00:51Z</time>
      </trkpt>
      <trkpt lat="46.57524" lon="0.66258">
        <ele>89.4</ele>
        <time>2024-02-11T09:00:54Z</time>
      </trkpt>
      <trkpt lat="46.57523" lon="0.66251">
        <ele>88.8</ele>
        <time>2024-02-11T09:00:55Z</time>
      </trkpt>
      <trkpt lat="46.57522" lon="0.66245">
        <ele>88.2</ele>
        <time>2024-02-11T09:00:56Z</time>
      </trkpt>
      <trkpt lat="46.57521" lon="0.66238">
        <ele>87</ele>
        <time>2024-02-11T09:00:58Z</time>
      </trkpt>
      <trkpt lat="46.57521" lon="0.66235">
        <ele>86.6</ele>
        <time>2024-02-11T09:00:59Z</time>
      </trkpt>
      <trkpt lat="46.5752" lon="0.66232">
        <ele>85.8</ele>
        <time>2024-02-11T09:01:02Z</time>
      </trkpt>
      <trkpt lat="46.57519" lon="0.66231">
        <ele>85.6</ele>
        <time>2024-02-11T09:01:04Z</time>
      </trkpt>
      <trkpt lat="46.57517" lon="0.66212">
        <ele>85.6</ele>
        <time>2024-02-11T09:01:10Z</time>
      </trkpt>
      <trkpt lat="46.57514" lon="0.66198">
        <ele>84.8</ele>
        <time>2024-02-11T09:01:13Z</time>
      </trkpt>
      <trkpt lat="46.57512" lon="0.66192">
        <ele>84.6</ele>
        <time>2024-02-11T09:01:14Z</time>
      </trkpt>
      <trkpt lat="46.57509" lon="0.66187">
        <ele>83.6</ele>
        <time>2024-02-11T09:01:15Z</time>
      </trkpt>
      <trkpt lat="46.57506" lon="0.66181">
        <ele>83.2</ele>
        <time>2024-02-11T09:01:16Z</time>
      </trkpt>
      <trkpt lat="46.57502" lon="0.66174">
        <ele>82.8</ele>
        <time>2024-02-11T09:01:17Z</time>
      </trkpt>
      <trkpt lat="46.57492" lon="0.66163">
        <ele>81.6</ele>
        <time>2024-02-11T09:01:19Z</time>
      </trkpt>
      <trkpt lat="46.57486" lon="0.66156">
        <ele>81.4</ele>
        <time>2024-02-11T09:01:20Z</time>
      </trkpt>
      <trkpt lat="46.57474" lon="0.66144">
        <ele>80.6</ele>
        <time>2024-02-11T09:01:22Z</time>
      </trkpt>
      <trkpt lat="46.57463" lon="0.66133">
        <ele>79.4</ele>
        <time>2024-02-11T09:01:24Z</time>
      </trkpt>
      <trkpt lat="46.57451" lon="0.66122">
        <ele>78.6</ele>
        <time>2024-02-11T09:01:26Z</time>
      </trkpt>
      <trkpt lat="46.57444" lon="0.66114">
        <ele>78.4</ele>
        <time>2024-02-11T09:01:27Z</time>
      </trkpt>
      <trkpt lat="46.57438" lon="0.66105">
        <ele>78.2</ele>
        <time>2024-02-11T09:01:28Z</time>
      </trkpt>
      <trkpt lat="46.5743" lon="0.6609">
        <ele>78.2</ele>
        <time>2024-02-11T09:01:30Z</time>
      </trkpt>
      <trkpt lat="46.57422" lon="0.66073">
        <ele>77.6</ele>
        <time>2024-02-11T09:01:32Z</time>
      </trkpt>
      <trkpt lat="46.57416" lon="0.66058">
        <ele>77</ele>
        <time>2024-02-11T09:01:34Z</time>
      </trkpt>
      <trkpt lat="46.57408" lon="0.6604">
        <ele>75.8</ele>
        <time>2024-02-11T09:01:38Z</time>
      </trkpt>
      <trkpt lat="46.57398" lon="0.66009">
        <ele>75.8</ele>
        <time>2024-02-11T09:01:43Z</time>
      </trkpt>
      <trkpt lat="46.57395" lon="0.65997">
        <ele>75.8</ele>
        <time>2024-02-11T09:01:45Z</time>
      </trkpt>
      <trkpt lat="46.57388" lon="0.65971">
        <ele>75.6</ele>
        <time>2024-02-11T09:01:49Z</time>
      </trkpt>
      <trkpt lat="46.57387" lon="0.65963">
        <ele>75.6</ele>
        <time>2024-02-11T09:01:50Z</time>
      </trkpt>
      <trkpt lat="46.57384" lon="0.65932">
        <ele>75.6</ele>
        <time>2024-02-11T09:01:54Z</time>
      </trkpt>
      <trkpt lat="46.57384" lon="0.65924">
        <ele>75.4</ele>
        <time>2024-02-11T09:01:55Z</time>
      </trkpt>
      <trkpt lat="46.57387" lon="0.65902">
        <ele>74.8</ele>
        <time>2024-02-11T09:01:58Z</time>
      </trkpt>
      <trkpt lat="46.57388" lon="0.65895">
        <ele>74.8</ele>
        <time>2024-02-11T09:01:59Z</time>
      </trkpt>
      <trkpt lat="46.5739" lon="0.65873">
        <ele>74.8</ele>
        <time>2024-02-11T09:02:02Z</time>
      </trkpt>
      <trkpt lat="46.57388" lon="0.6586">
        <ele>75</ele>
        <time>2024-02-11T09:02:04Z</time>
      </trkpt>
      <trkpt lat="46.57386" lon="0.65847">
        <ele>74.8</ele>
        <time>2024-02-11T09:02:06Z</time>
      </trkpt>
      <trkpt lat="46.57382" lon="0.65828">
        <ele>74.2</ele>
        <time>2024-02-11T09:02:10Z</time>
      </trkpt>
      <trkpt lat="46.57368" lon="0.65798">
        <ele>74.2</ele>
        <time>2024-02-11T09:02:17Z</time>
      </trkpt>
      <trkpt lat="46.57346" lon="0.65774">
        <ele>74</ele>
        <time>2024-02-11T09:02:23Z</time>
      </trkpt>
      <trkpt lat="46.57314" lon="0.65748">
        <ele>74.2</ele>
        <time>2024-02-11T09:02:31Z</time>
      </trkpt>
      <trkpt lat="46.57284" lon="0.65732">
        <ele>74.8</ele>
        <time>2024-02-11T09:02:38Z</time>
      </trkpt>
      <trkpt lat="46.57251" lon="0.65723">
        <ele>74.2</ele>
        <time>2024-02-11T09:02:44Z</time>
      </trkpt>
      <trkpt lat="46.57222" lon="0.65722">
        <ele>73.6</ele>
        <time>2024-02-11T09:02:49Z</time>
      </trkpt>
      <trkpt lat="46.57211" lon="0.6572">
        <ele>73.6</ele>
        <time>2024-02-11T09:02:51Z</time>
      </trkpt>
      <trkpt lat="46.57168" lon="0.65715">
        <ele>73.6</ele>
        <time>2024-02-11T09:02:59Z</time>
      </trkpt>
      <trkpt lat="46.57139" lon="0.6571">
        <ele>73.8</ele>
        <time>2024-02-11T09:03:05Z</time>
      </trkpt>
      <trkpt lat="46.57137" lon="0.65715">
        <ele>73.2</ele>
        <time>2024-02-11T09:03:08Z</time>
      </trkpt>
      <trkpt lat="46.57141" lon="0.65727">
        <ele>72.6</ele>
        <time>2024-02-11T09:03:11Z</time>
      </trkpt>
      <trkpt lat="46.57144" lon="0.65735">
        <ele>72.4</ele>
        <time>2024-02-11T09:03:13Z</time>
      </trkpt>
      <trkpt lat="46.57148" lon="0.65746">
        <ele>72.4</ele>
        <time>2024-02-11T09:03:16Z</time>
      </trkpt>
      <trkpt lat="46.57151" lon="0.65761">
        <ele>72</ele>
        <time>2024-02-11T09:03:19Z</time>
      </trkpt>
      <trkpt lat="46.57154" lon="0.65779">
        <ele>71.4</ele>
        <time>2024-02-11T09:03:22Z</time>
      </trkpt>
      <trkpt lat="46.57156" lon="0.65792">
        <ele>71.2</ele>
        <time>2024-02-11T09:03:24Z</time>
      </trkpt>
      <trkpt lat="46.57159" lon="0.65803">
        <ele>71.2</ele>
        <time>2024-02-11T09:03:26Z</time>
      </trkpt>
      <trkpt lat="46.57162" lon="0.65812">
        <ele>71.2</ele>
        <time>2024-02-11T09:03:28Z</time>
      </trkpt>
      <trkpt lat="46.57172" lon="0.65818">
        <ele>71.2</ele>
        <time>2024-02-11T09:03:32Z</time>
      </trkpt>
      <trkpt lat="46.57181" lon="0.65821">
        <ele>71.2</ele>
        <time>2024-02-11T09:03:36Z</time>
      </trkpt>
      <trkpt lat="46.57196" lon="0.65825">
        <ele>71</ele>
        <time>2024-02-11T09:03:43Z</time>
      </trkpt>
      <trkpt lat="46.57209" lon="0.65829">
        <ele>71.4</ele>
        <time>2024-02-11T09:03:49Z</time>
      </trkpt>
      <trkpt lat="46.57211" lon="0.65831">
        <ele>72</ele>
        <time>2024-02-11T09:03:51Z</time>
      </trkpt>
      <trkpt lat="46.57211" lon="0.65831">
        <ele>72.4</ele>
        <time>2024-02-11T09:03:52Z</time>
      </trkpt>
      <trkpt lat="46.5722" lon="0.65835">
        <ele>73</ele>
        <time>2024-02-11T09:03:55Z</time>
      </trkpt>
      <trkpt lat="46.57227" lon="0.65843">
        <ele>73.6</ele>
        <time>2024-02-11T09:03:58Z</time>
      </trkpt>
      <trkpt lat="46.57237" lon="0.65855">
        <ele>74.6</ele>
        <time>2024-02-11T09:04:02Z</time>
      </trkpt>
      <trkpt lat="46.57239" lon="0.6586">
        <ele>74.8</ele>
        <time>2024-02-11T09:04:03Z</time>
      </trkpt>
      <trkpt lat="46.57243" lon="0.65873">
        <ele>76</ele>
        <time>2024-02-11T09:04:06Z</time>
      </trkpt>
      <trkpt lat="46.57245" lon="0.65876">
        <ele>76.2</ele>
        <time>2024-02-11T09:04:07Z</time>
      </trkpt>
      <trkpt lat="46.57249" lon="0.65885">
        <ele>77.2</ele>
        <time>2024-02-11T09:04:11Z</time>
      </trkpt>
      <trkpt lat="46.57248" lon="0.65894">
        <ele>78.2</ele>
        <time>2024-02-11T09:04:15Z</time>
      </trkpt>
      <trkpt lat="46.57248" lon="0.65896">
        <ele>78.4</ele>
        <time>2024-02-11T09:04:16Z</time>
      </trkpt>
      <trkpt lat="46.57249" lon="0.65904">
        <ele>79.6</ele>
        <time>2024-02-11T09:04:20Z</time>
      </trkpt>
      <trkpt lat="46.57248" lon="0.65909">
        <ele>80</ele>
        <time>2024-02-11T09:04:22Z</time>
      </trkpt>
      <trkpt lat="46.57247" lon="0.65911">
        <ele>80.2</ele>
        <time>2024-02-11T09:04:23Z</time>
      </trkpt>
      <trkpt lat="46.57246" lon="0.65912">
        <ele>80.6</ele>
        <time>2024-02-11T09:04:25Z</time>
      </trkpt>
      <trkpt lat="46.57246" lon="0.65912">
        <ele>80.6</ele>
        <time>2024-02-11T09:04:26Z</time>
      </trkpt>
      <trkpt lat="46.57245" lon="0.65913">
        <ele>80.8</ele>
        <time>2024-02-11T09:04:28Z</time>
      </trkpt>
      <trkpt lat="46.57245" lon="0.65914">
        <ele>80.8</ele>
        <time>2024-02-11T09:04:29Z</time>
      </trkpt>
      <trkpt lat="46.57244" lon="0.65916">
        <ele>81.2</ele>
        <time>2024-02-11T09:04:31Z</time>
      </trkpt>
      <trkpt lat="46.57241" lon="0.65919">
        <ele>81.8</ele>
        <time>2024-02-11T09:04:34Z</time>
      </trkpt>
      <trkpt lat="46.57237" lon="0.65923">
        <ele>82.2</ele>
        <time>2024-02-11T09:04:37Z</time>
      </trkpt>
      <trkpt lat="46.57233" lon="0.65925">
        <ele>82.8</ele>
        <time>2024-02-11T09:04:40Z</time>
      </trkpt>
      <trkpt lat="46.57223" lon="0.65926">
        <ele>83.6</ele>
        <time>2024-02-11T09:04:47Z</time>
      </trkpt>
      <trkpt lat="46.5722" lon="0.65926">
        <ele>84</ele>
        <time>2024-02-11T09:04:49Z</time>
      </trkpt>
      <trkpt lat="46.57215" lon="0.65927">
        <ele>84.2</ele>
        <time>2024-02-11T09:04:54Z</time>
      </trkpt>
      <trkpt lat="46.57211" lon="0.65928">
        <ele>84.4</ele>
        <time>2024-02-11T09:04:59Z</time>
      </trkpt>
      <trkpt lat="46.57204" lon="0.65928">
        <ele>85</ele>
        <time>2024-02-11T09:05:09Z</time>
      </trkpt>
      <trkpt lat="46.57202" lon="0.65928">
        <ele>85</ele>
        <time>2024-02-11T09:05:11Z</time>
      </trkpt>
      <trkpt lat="46.57201" lon="0.65928">
        <ele>85</ele>
        <time>2024-02-11T09:05:12Z</time>
      </trkpt>
      <trkpt lat="46.572" lon="0.65928">
        <ele>85</ele>
        <time>2024-02-11T09:05:13Z</time>
      </trkpt>
      <trkpt lat="46.57188" lon="0.65932">
        <ele>86</ele>
        <time>2024-02-11T09:05:21Z</time>
      </trkpt>
      <trkpt lat="46.57184" lon="0.65934">
        <ele>87.6</ele>
        <time>2024-02-11T09:05:24Z</time>
      </trkpt>
      <trkpt lat="46.57179" lon="0.65935">
        <ele>88.8</ele>
        <time>2024-02-11T09:05:27Z</time>
      </trkpt>
      <trkpt lat="46.57177" lon="0.65937">
        <ele>89.2</ele>
        <time>2024-02-11T09:05:29Z</time>
      </trkpt>
      <trkpt lat="46.57171" lon="0.65938">
        <ele>89.8</ele>
        <time>2024-02-11T09:05:33Z</time>
      </trkpt>
      <trkpt lat="46.57168" lon="0.6594">
        <ele>90</ele>
        <time>2024-02-11T09:05:35Z</time>
      </trkpt>
      <trkpt lat="46.57164" lon="0.65943">
        <ele>91</ele>
        <time>2024-02-11T09:05:38Z</time>
      </trkpt>
      <trkpt lat="46.57156" lon="0.65948">
        <ele>92.4</ele>
        <time>2024-02-11T09:05:43Z</time>
      </trkpt>
      <trkpt lat="46.57151" lon="0.65951">
        <ele>93.8</ele>
        <time>2024-02-11T09:05:47Z</time>
      </trkpt>
      <trkpt lat="46.57146" lon="0.65952">
        <ele>94.6</ele>
        <time>2024-02-11T09:05:50Z</time>
      </trkpt>
      <trkpt lat="46.57142" lon="0.65954">
        <ele>95.2</ele>
        <time>2024-02-11T09:05:52Z</time>
      </trkpt>
      <trkpt lat="46.57136" lon="0.65955">
        <ele>96</ele>
        <time>2024-02-11T09:05:57Z</time>
      </trkpt>
      <trkpt lat="46.57134" lon="0.65956">
        <ele>96.6</ele>
        <time>2024-02-11T09:05:59Z</time>
      </trkpt>
      <trkpt lat="46.57123" lon="0.6596">
        <ele>97.4</ele>
        <time>2024-02-11T09:06:05Z</time>
      </trkpt>
      <trkpt lat="46.57122" lon="0.6596">
        <ele>97.6</ele>
        <time>2024-02-11T09:06:06Z</time>
      </trkpt>
      <trkpt lat="46.57114" lon="0.6596">
        <ele>98.2</ele>
        <time>2024-02-11T09:06:11Z</time>
      </trkpt>
      <trkpt lat="46.57104" lon="0.65962">
        <ele>98.6</ele>
        <time>2024-02-11T09:06:17Z</time>
      </trkpt>
      <trkpt lat="46.57099" lon="0.65964">
        <ele>98.6</ele>
        <time>2024-02-11T09:06:19Z</time>
      </trkpt>
      <trkpt lat="46.57093" lon="0.65967">
        <ele>99.2</ele>
        <time>2024-02-11T09:06:23Z</time>
      </trkpt>
      <trkpt lat="46.57083" lon="0.65973">
        <ele>99.4</ele>
        <time>2024-02-11T09:06:30Z</time>
      </trkpt>
      <trkpt lat="46.57082" lon="0.65973">
        <ele>99.2</ele>
        <time>2024-02-11T09:06:32Z</time>
      </trkpt>
      <trkpt lat="46.5708" lon="0.65973">
        <ele>99.2</ele>
        <time>2024-02-11T09:06:37Z</time>
      </trkpt>
      <trkpt lat="46.57077" lon="0.65976">
        <ele>99.4</ele>
        <time>2024-02-11T09:06:47Z</time>
      </trkpt>
      <trkpt lat="46.57078" lon="0.6598">
        <ele>97.4</ele>
        <time>2024-02-11T09:06:58Z</time>
      </trkpt>
      <trkpt lat="46.5708" lon="0.6598">
        <ele>96.8</ele>
        <time>2024-02-11T09:07:00Z</time>
      </trkpt>
      <trkpt lat="46.57083" lon="0.65981">
        <ele>96.2</ele>
        <time>2024-02-11T09:07:03Z</time>
      </trkpt>
      <trkpt lat="46.57084" lon="0.65982">
        <ele>95.2</ele>
        <time>2024-02-11T09:07:05Z</time>
      </trkpt>
      <trkpt lat="46.57086" lon="0.65986">
        <ele>94.2</ele>
        <time>2024-02-11T09:07:08Z</time>
      </trkpt>
      <trkpt lat="46.57087" lon="0.65987">
        <ele>93.8</ele>
        <time>2024-02-11T09:07:09Z</time>
      </trkpt>
      <trkpt lat="46.57088" lon="0.65989">
        <ele>92.6</ele>
        <time>2024-02-11T09:07:12Z</time>
      </trkpt>
      <trkpt lat="46.57088" lon="0.65989">
        <ele>92</ele>
        <time>2024-02-11T09:07:13Z</time>
      </trkpt>
      <trkpt lat="46.57088" lon="0.6599">
        <ele>91.6</ele>
        <time>2024-02-11T09:07:14Z</time>
      </trkpt>
      <trkpt lat="46.57088" lon="0.65994">
        <ele>90.8</ele>
        <time>2024-02-11T09:07:19Z</time>
      </trkpt>
      <trkpt lat="46.57088" lon="0.65995">
        <ele>90.4</ele>
        <time>2024-02-11T09:07:20Z</time>
      </trkpt>
      <trkpt lat="46.57089" lon="0.65999">
        <ele>89.2</ele>
        <time>2024-02-11T09:07:24Z</time>
      </trkpt>
      <trkpt lat="46.5709" lon="0.66004">
        <ele>88.2</ele>
        <time>2024-02-11T09:07:30Z</time>
      </trkpt>
      <trkpt lat="46.5709" lon="0.66005">
        <ele>88</ele>
        <time>2024-02-11T09:07:31Z</time>
      </trkpt>
      <trkpt lat="46.57091" lon="0.66007">
        <ele>86.8</ele>
        <time>2024-02-11T09:07:34Z</time>
      </trkpt>
      <trkpt lat="46.57091" lon="0.66011">
        <ele>85.6</ele>
        <time>2024-02-11T09:07:39Z</time>
      </trkpt>
      <trkpt lat="46.57091" lon="0.66016">
        <ele>84.8</ele>
        <time>2024-02-11T09:07:43Z</time>
      </trkpt>
      <trkpt lat="46.57091" lon="0.66017">
        <ele>84.4</ele>
        <time>2024-02-11T09:07:44Z</time>
      </trkpt>
      <trkpt lat="46.57091" lon="0.66021">
        <ele>83.2</ele>
        <time>2024-02-11T09:07:48Z</time>
      </trkpt>
      <trkpt lat="46.57092" lon="0.66025">
        <ele>81.6</ele>
        <time>2024-02-11T09:07:53Z</time>
      </trkpt>
      <trkpt lat="46.57092" lon="0.66028">
        <ele>80.6</ele>
        <time>2024-02-11T09:07:56Z</time>
      </trkpt>
      <trkpt lat="46.57092" lon="0.66029">
        <ele>80.2</ele>
        <time>2024-02-11T09:07:58Z</time>
      </trkpt>
      <trkpt lat="46.57093" lon="0.66031">
        <ele>79.6</ele>
        <time>2024-02-11T09:08:01Z</time>
      </trkpt>
      <trkpt lat="46.57092" lon="0.66033">
        <ele>78.4</ele>
        <time>2024-02-11T09:08:04Z</time>
      </trkpt>
      <trkpt lat="46.57091" lon="0.66038">
        <ele>77.8</ele>
        <time>2024-02-11T09:08:09Z</time>
      </trkpt>
      <trkpt lat="46.57092" lon="0.66041">
        <ele>77.2</ele>
        <time>2024-02-11T09:08:11Z</time>
      </trkpt>
      <trkpt lat="46.57092" lon="0.66042">
        <ele>75.8</ele>
        <time>2024-02-11T09:08:12Z</time>
      </trkpt>
      <trkpt lat="46.57092" lon="0.66044">
        <ele>75</ele>
        <time>2024-02-11T09:08:17Z</time>
      </trkpt>
      <trkpt lat="46.57092" lon="0.66046">
        <ele>75</ele>
        <time>2024-02-11T09:08:35Z</time>
      </trkpt>
      <trkpt lat="46.57092" lon="0.66048">
        <ele>74.8</ele>
        <time>2024-02-11T09:08:39Z</time>
      </trkpt>
      <trkpt lat="46.57092" lon="0.6605">
        <ele>74.6</ele>
        <time>2024-02-11T09:08:48Z</time>
      </trkpt>
      <trkpt lat="46.57091" lon="0.6605">
        <ele>74.6</ele>
        <time>2024-02-11T09:08:50Z</time>
      </trkpt>
      <trkpt lat="46.5709" lon="0.6605">
        <ele>74.6</ele>
        <time>2024-02-11T09:08:53Z</time>
      </trkpt>
      <trkpt lat="46.57086" lon="0.66053">
        <ele>74.2</ele>
        <time>2024-02-11T09:08:57Z</time>
      </trkpt>
      <trkpt lat="46.57085" lon="0.66054">
        <ele>74.2</ele>
        <time>2024-02-11T09:08:58Z</time>
      </trkpt>
      <trkpt lat="46.57078" lon="0.66063">
        <ele>73.8</ele>
        <time>2024-02-11T09:09:05Z</time>
      </trkpt>
      <trkpt lat="46.57076" lon="0.66066">
        <ele>73.6</ele>
        <time>2024-02-11T09:09:07Z</time>
      </trkpt>
      <trkpt lat="46.57069" lon="0.66071">
        <ele>72.8</ele>
        <time>2024-02-11T09:09:13Z</time>
      </trkpt>
      <trkpt lat="46.57065" lon="0.66073">
        <ele>73</ele>
        <time>2024-02-11T09:09:17Z</time>
      </trkpt>
      <trkpt lat="46.5706" lon="0.66075">
        <ele>73.6</ele>
        <time>2024-02-11T09:09:22Z</time>
      </trkpt>
      <trkpt lat="46.57055" lon="0.66077">
        <ele>73.8</ele>
        <time>2024-02-11T09:09:25Z</time>
      </trkpt>
      <trkpt lat="46.5705" lon="0.66079">
        <ele>74</ele>
        <time>2024-02-11T09:09:27Z</time>
      </trkpt>
      <trkpt lat="46.57037" lon="0.66085">
        <ele>74.8</ele>
        <time>2024-02-11T09:09:34Z</time>
      </trkpt>
      <trkpt lat="46.57023" lon="0.66097">
        <ele>74.6</ele>
        <time>2024-02-11T09:09:40Z</time>
      </trkpt>
      <trkpt lat="46.5701" lon="0.66108">
        <ele>74.6</ele>
        <time>2024-02-11T09:09:45Z</time>
      </trkpt>
      <trkpt lat="46.57" lon="0.6612">
        <ele>74.2</ele>
        <time>2024-02-11T09:09:48Z</time>
      </trkpt>
      <trkpt lat="46.56997" lon="0.66122">
        <ele>74</ele>
        <time>2024-02-11T09:09:49Z</time>
      </trkpt>
      <trkpt lat="46.56994" lon="0.66125">
        <ele>73.6</ele>
        <time>2024-02-11T09:09:50Z</time>
      </trkpt>
      <trkpt lat="46.56988" lon="0.66128">
        <ele>73.2</ele>
        <time>2024-02-11T09:09:52Z</time>
      </trkpt>
      <trkpt lat="46.56983" lon="0.6613">
        <ele>73</ele>
        <time>2024-02-11T09:09:54Z</time>
      </trkpt>
      <trkpt lat="46.56974" lon="0.66138">
        <ele>74.4</ele>
        <time>2024-02-11T09:09:59Z</time>
      </trkpt>
      <trkpt lat="46.56966" lon="0.66144">
        <ele>74.6</ele>
        <time>2024-02-11T09:10:02Z</time>
      </trkpt>
      <trkpt lat="46.56963" lon="0.66148">
        <ele>74.8</ele>
        <time>2024-02-11T09:10:04Z</time>
      </trkpt>
      <trkpt lat="46.56958" lon="0.66156">
        <ele>75</ele>
        <time>2024-02-11T09:10:07Z</time>
      </trkpt>
      <trkpt lat="46.56959" lon="0.66159">
        <ele>75</ele>
        <time>2024-02-11T09:10:08Z</time>
      </trkpt>
      <trkpt lat="46.56963" lon="0.66168">
        <ele>73.6</ele>
        <time>2024-02-11T09:10:11Z</time>
      </trkpt>
      <trkpt lat="46.56965" lon="0.66175">
        <ele>73</ele>
        <time>2024-02-11T09:10:13Z</time>
      </trkpt>
      <trkpt lat="46.56964" lon="0.66184">
        <ele>72.4</ele>
        <time>2024-02-11T09:10:16Z</time>
      </trkpt>
      <trkpt lat="46.56964" lon="0.6619">
        <ele>72.4</ele>
        <time>2024-02-11T09:10:18Z</time>
      </trkpt>
      <trkpt lat="46.56965" lon="0.66206">
        <ele>72.4</ele>
        <time>2024-02-11T09:10:24Z</time>
      </trkpt>
      <trkpt lat="46.56972" lon="0.66215">
        <ele>73.6</ele>
        <time>2024-02-11T09:10:32Z</time>
      </trkpt>
      <trkpt lat="46.56975" lon="0.66216">
        <ele>74.8</ele>
        <time>2024-02-11T09:10:36Z</time>
      </trkpt>
      <trkpt lat="46.56982" lon="0.66216">
        <ele>75.6</ele>
        <time>2024-02-11T09:10:41Z</time>
      </trkpt>
      <trkpt lat="46.56983" lon="0.66216">
        <ele>76.2</ele>
        <time>2024-02-11T09:10:42Z</time>
      </trkpt>
      <trkpt lat="46.56989" lon="0.66214">
        <ele>77.4</ele>
        <time>2024-02-11T09:10:47Z</time>
      </trkpt>
      <trkpt lat="46.56998" lon="0.66213">
        <ele>78.4</ele>
        <time>2024-02-11T09:10:52Z</time>
      </trkpt>
      <trkpt lat="46.57007" lon="0.66211">
        <ele>79.4</ele>
        <time>2024-02-11T09:10:57Z</time>
      </trkpt>
      <trkpt lat="46.57012" lon="0.6621">
        <ele>80.6</ele>
        <time>2024-02-11T09:11:01Z</time>
      </trkpt>
      <trkpt lat="46.57015" lon="0.6621">
        <ele>81.2</ele>
        <time>2024-02-11T09:11:04Z</time>
      </trkpt>
      <trkpt lat="46.57018" lon="0.66209">
        <ele>81.8</ele>
        <time>2024-02-11T09:11:06Z</time>
      </trkpt>
      <trkpt lat="46.57025" lon="0.66208">
        <ele>83</ele>
        <time>2024-02-11T09:11:11Z</time>
      </trkpt>
      <trkpt lat="46.57032" lon="0.66207">
        <ele>84</ele>
        <time>2024-02-11T09:11:15Z</time>
      </trkpt>
      <trkpt lat="46.57035" lon="0.66206">
        <ele>84.4</ele>
        <time>2024-02-11T09:11:17Z</time>
      </trkpt>
      <trkpt lat="46.57039" lon="0.66207">
        <ele>85.2</ele>
        <time>2024-02-11T09:11:19Z</time>
      </trkpt>
      <trkpt lat="46.57045" lon="0.66207">
        <ele>86.4</ele>
        <time>2024-02-11T09:11:23Z</time>
      </trkpt>
      <trkpt lat="46.57056" lon="0.66207">
        <ele>87.4</ele>
        <time>2024-02-11T09:11:28Z</time>
      </trkpt>
      <trkpt lat="46.57057" lon="0.66207">
        <ele>87.4</ele>
        <time>2024-02-11T09:11:29Z</time>
      </trkpt>
      <trkpt lat="46.57062" lon="0.66208">
        <ele>88.6</ele>
        <time>2024-02-11T09:11:33Z</time>
      </trkpt>
      <trkpt lat="46.5707" lon="0.66208">
        <ele>89.6</ele>
        <time>2024-02-11T09:11:39Z</time>
      </trkpt>
      <trkpt lat="46.57073" lon="0.66208">
        <ele>89.8</ele>
        <time>2024-02-11T09:11:41Z</time>
      </trkpt>
      <trkpt lat="46.57078" lon="0.66207">
        <ele>90.6</ele>
        <time>2024-02-11T09:11:44Z</time>
      </trkpt>
      <trkpt lat="46.57082" lon="0.66207">
        <ele>91.8</ele>
        <time>2024-02-11T09:11:47Z</time>
      </trkpt>
      <trkpt lat="46.5709" lon="0.66208">
        <ele>93</ele>
        <time>2024-02-11T09:11:53Z</time>
      </trkpt>
      <trkpt lat="46.57091" lon="0.66208">
        <ele>93.2</ele>
        <time>2024-02-11T09:11:54Z</time>
      </trkpt>
      <trkpt lat="46.57096" lon="0.66209">
        <ele>93.6</ele>
        <time>2024-02-11T09:11:57Z</time>
      </trkpt>
      <trkpt lat="46.57104" lon="0.66201">
        <ele>92.6</ele>
        <time>2024-02-11T09:12:02Z</time>
      </trkpt>
      <trkpt lat="46.57108" lon="0.66196">
        <ele>91.2</ele>
        <time>2024-02-11T09:12:05Z</time>
      </trkpt>
      <trkpt lat="46.57111" lon="0.66194">
        <ele>90</ele>
        <time>2024-02-11T09:12:07Z</time>
      </trkpt>
      <trkpt lat="46.57115" lon="0.66189">
        <ele>89</ele>
        <time>2024-02-11T09:12:11Z</time>
      </trkpt>
      <trkpt lat="46.57117" lon="0.66188">
        <ele>88.4</ele>
        <time>2024-02-11T09:12:13Z</time>
      </trkpt>
      <trkpt lat="46.57119" lon="0.66186">
        <ele>87.6</ele>
        <time>2024-02-11T09:12:15Z</time>
      </trkpt>
      <trkpt lat="46.57122" lon="0.66182">
        <ele>87</ele>
        <time>2024-02-11T09:12:18Z</time>
      </trkpt>
      <trkpt lat="46.5713" lon="0.66175">
        <ele>87</ele>
        <time>2024-02-11T09:12:24Z</time>
      </trkpt>
      <trkpt lat="46.57142" lon="0.66168">
        <ele>86.8</ele>
        <time>2024-02-11T09:12:33Z</time>
      </trkpt>
      <trkpt lat="46.57144" lon="0.66166">
        <ele>86.6</ele>
        <time>2024-02-11T09:12:36Z</time>
      </trkpt>
      <trkpt lat="46.57146" lon="0.66164">
        <ele>86</ele>
        <time>2024-02-11T09:12:38Z</time>
      </trkpt>
      <trkpt lat="46.57147" lon="0.6616">
        <ele>85.4</ele>
        <time>2024-02-11T09:12:40Z</time>
      </trkpt>
      <trkpt lat="46.57147" lon="0.66159">
        <ele>84.8</ele>
        <time>2024-02-11T09:12:41Z</time>
      </trkpt>
      <trkpt lat="46.57148" lon="0.66158">
        <ele>84.2</ele>
        <time>2024-02-11T09:12:42Z</time>
      </trkpt>
      <trkpt lat="46.57148" lon="0.66157">
        <ele>83.4</ele>
        <time>2024-02-11T09:12:43Z</time>
      </trkpt>
      <trkpt lat="46.57149" lon="0.66155">
        <ele>82.8</ele>
        <time>2024-02-11T09:12:44Z</time>
      </trkpt>
      <trkpt lat="46.5715" lon="0.66154">
        <ele>82.6</ele>
        <time>2024-02-11T09:12:45Z</time>
      </trkpt>
      <trkpt lat="46.57151" lon="0.66151">
        <ele>81.8</ele>
        <time>2024-02-11T09:12:47Z</time>
      </trkpt>
      <trkpt lat="46.57152" lon="0.6615">
        <ele>81.6</ele>
        <time>2024-02-11T09:12:48Z</time>
      </trkpt>
      <trkpt lat="46.57156" lon="0.66145">
        <ele>80.6</ele>
        <time>2024-02-11T09:12:51Z</time>
      </trkpt>
      <trkpt lat="46.57157" lon="0.66143">
        <ele>80.4</ele>
        <time>2024-02-11T09:12:52Z</time>
      </trkpt>
      <trkpt lat="46.5716" lon="0.66138">
        <ele>79.4</ele>
        <time>2024-02-11T09:12:56Z</time>
      </trkpt>
      <trkpt lat="46.57161" lon="0.66137">
        <ele>79.2</ele>
        <time>2024-02-11T09:12:57Z</time>
      </trkpt>
      <trkpt lat="46.57169" lon="0.6613">
        <ele>78.2</ele>
        <time>2024-02-11T09:13:04Z</time>
      </trkpt>
      <trkpt lat="46.57173" lon="0.66127">
        <ele>78</ele>
        <time>2024-02-11T09:13:07Z</time>
      </trkpt>
      <trkpt lat="46.57188" lon="0.66116">
        <ele>77.6</ele>
        <time>2024-02-11T09:13:17Z</time>
      </trkpt>
      <trkpt lat="46.57199" lon="0.66113">
        <ele>79</ele>
        <time>2024-02-11T09:13:25Z</time>
      </trkpt>
      <trkpt lat="46.57202" lon="0.66113">
        <ele>79.2</ele>
        <time>2024-02-11T09:13:28Z</time>
      </trkpt>
      <trkpt lat="46.57205" lon="0.66111">
        <ele>79.2</ele>
        <time>2024-02-11T09:13:30Z</time>
      </trkpt>
      <trkpt lat="46.57206" lon="0.6611">
        <ele>78.8</ele>
        <time>2024-02-11T09:13:31Z</time>
      </trkpt>
      <trkpt lat="46.57211" lon="0.66105">
        <ele>78.2</ele>
        <time>2024-02-11T09:13:35Z</time>
      </trkpt>
      <trkpt lat="46.57216" lon="0.66102">
        <ele>76.8</ele>
        <time>2024-02-11T09:13:38Z</time>
      </trkpt>
      <trkpt lat="46.57218" lon="0.66101">
        <ele>75.8</ele>
        <time>2024-02-11T09:13:41Z</time>
      </trkpt>
      <trkpt lat="46.57219" lon="0.66101">
        <ele>75.6</ele>
        <time>2024-02-11T09:13:42Z</time>
      </trkpt>
      <trkpt lat="46.57232" lon="0.66089">
        <ele>74.8</ele>
        <time>2024-02-11T09:13:52Z</time>
      </trkpt>
      <trkpt lat="46.57236" lon="0.66086">
        <ele>74.6</ele>
        <time>2024-02-11T09:13:56Z</time>
      </trkpt>
      <trkpt lat="46.57237" lon="0.66084">
        <ele>74.4</ele>
        <time>2024-02-11T09:13:58Z</time>
      </trkpt>
      <trkpt lat="46.57241" lon="0.66078">
        <ele>74</ele>
        <time>2024-02-11T09:14:01Z</time>
      </trkpt>
      <trkpt lat="46.57243" lon="0.66075">
        <ele>73.4</ele>
        <time>2024-02-11T09:14:03Z</time>
      </trkpt>
      <trkpt lat="46.57254" lon="0.66067">
        <ele>72.4</ele>
        <time>2024-02-11T09:14:11Z</time>
      </trkpt>
      <trkpt lat="46.57255" lon="0.66066">
        <ele>72.2</ele>
        <time>2024-02-11T09:14:12Z</time>
      </trkpt>
      <trkpt lat="46.57256" lon="0.66065">
        <ele>72.2</ele>
        <time>2024-02-11T09:14:13Z</time>
      </trkpt>
      <trkpt lat="46.57258" lon="0.66064">
        <ele>71.4</ele>
        <time>2024-02-11T09:14:21Z</time>
      </trkpt>
      <trkpt lat="46.57267" lon="0.66057">
        <ele>71.4</ele>
        <time>2024-02-11T09:14:30Z</time>
      </trkpt>
      <trkpt lat="46.57282" lon="0.66053">
        <ele>71.2</ele>
        <time>2024-02-11T09:14:36Z</time>
      </trkpt>
      <trkpt lat="46.57286" lon="0.66052">
        <ele>71.2</ele>
        <time>2024-02-11T09:14:37Z</time>
      </trkpt>
      <trkpt lat="46.57302" lon="0.66051">
        <ele>71.4</ele>
        <time>2024-02-11T09:14:42Z</time>
      </trkpt>
      <trkpt lat="46.57309" lon="0.66051">
        <ele>72.4</ele>
        <time>2024-02-11T09:14:45Z</time>
      </trkpt>
      <trkpt lat="46.57315" lon="0.66053">
        <ele>73</ele>
        <time>2024-02-11T09:14:48Z</time>
      </trkpt>
      <trkpt lat="46.5732" lon="0.66053">
        <ele>73.6</ele>
        <time>2024-02-11T09:14:50Z</time>
      </trkpt>
      <trkpt lat="46.57329" lon="0.66055">
        <ele>74.6</ele>
        <time>2024-02-11T09:14:54Z</time>
      </trkpt>
      <trkpt lat="46.57333" lon="0.66055">
        <ele>75.2</ele>
        <time>2024-02-11T09:14:56Z</time>
      </trkpt>
      <trkpt lat="46.57339" lon="0.66056">
        <ele>76.2</ele>
        <time>2024-02-11T09:14:59Z</time>
      </trkpt>
      <trkpt lat="46.57341" lon="0.66057">
        <ele>76.6</ele>
        <time>2024-02-11T09:15:00Z</time>
      </trkpt>
      <trkpt lat="46.57348" lon="0.66061">
        <ele>77.2</ele>
        <time>2024-02-11T09:15:04Z</time>
      </trkpt>
      <trkpt lat="46.57352" lon="0.66063">
        <ele>77.4</ele>
        <time>2024-02-11T09:15:06Z</time>
      </trkpt>
      <trkpt lat="46.57356" lon="0.66065">
        <ele>77.6</ele>
        <time>2024-02-11T09:15:08Z</time>
      </trkpt>
      <trkpt lat="46.57359" lon="0.66069">
        <ele>77.8</ele>
        <time>2024-02-11T09:15:10Z</time>
      </trkpt>
      <trkpt lat="46.57361" lon="0.66071">
        <ele>78</ele>
        <time>2024-02-11T09:15:11Z</time>
      </trkpt>
      <trkpt lat="46.57364" lon="0.66074">
        <ele>78.4</ele>
        <time>2024-02-11T09:15:13Z</time>
      </trkpt>
      <trkpt lat="46.57367" lon="0.66078">
        <ele>79</ele>
        <time>2024-02-11T09:15:15Z</time>
      </trkpt>
      <trkpt lat="46.57373" lon="0.66085">
        <ele>79.6</ele>
        <time>2024-02-11T09:15:19Z</time>
      </trkpt>
      <trkpt lat="46.57379" lon="0.66091">
        <ele>79.8</ele>
        <time>2024-02-11T09:15:22Z</time>
      </trkpt>
      <trkpt lat="46.57389" lon="0.66104">
        <ele>80.8</ele>
        <time>2024-02-11T09:15:27Z</time>
      </trkpt>
      <trkpt lat="46.57393" lon="0.66109">
        <ele>81.2</ele>
        <time>2024-02-11T09:15:30Z</time>
      </trkpt>
      <trkpt lat="46.57397" lon="0.66113">
        <ele>81.6</ele>
        <time>2024-02-11T09:15:32Z</time>
      </trkpt>
      <trkpt lat="46.574" lon="0.66115">
        <ele>82.2</ele>
        <time>2024-02-11T09:15:34Z</time>
      </trkpt>
      <trkpt lat="46.57403" lon="0.6612">
        <ele>83</ele>
        <time>2024-02-11T09:15:36Z</time>
      </trkpt>
      <trkpt lat="46.57404" lon="0.66123">
        <ele>83.4</ele>
        <time>2024-02-11T09:15:37Z</time>
      </trkpt>
      <trkpt lat="46.57407" lon="0.66127">
        <ele>84</ele>
        <time>2024-02-11T09:15:39Z</time>
      </trkpt>
      <trkpt lat="46.57411" lon="0.66133">
        <ele>84.4</ele>
        <time>2024-02-11T09:15:41Z</time>
      </trkpt>
      <trkpt lat="46.57413" lon="0.66135">
        <ele>84.6</ele>
        <time>2024-02-11T09:15:42Z</time>
      </trkpt>
      <trkpt lat="46.57417" lon="0.66142">
        <ele>85</ele>
        <time>2024-02-11T09:15:45Z</time>
      </trkpt>
      <trkpt lat="46.57417" lon="0.66145">
        <ele>85.6</ele>
        <time>2024-02-11T09:15:47Z</time>
      </trkpt>
      <trkpt lat="46.57418" lon="0.66145">
        <ele>86</ele>
        <time>2024-02-11T09:15:48Z</time>
      </trkpt>
      <trkpt lat="46.57419" lon="0.66155">
        <ele>86.6</ele>
        <time>2024-02-11T09:15:55Z</time>
      </trkpt>
      <trkpt lat="46.57419" lon="0.66156">
        <ele>87</ele>
        <time>2024-02-11T09:15:56Z</time>
      </trkpt>
      <trkpt lat="46.57418" lon="0.66163">
        <ele>88.2</ele>
        <time>2024-02-11T09:16:02Z</time>
      </trkpt>
      <trkpt lat="46.57416" lon="0.6617">
        <ele>89.4</ele>
        <time>2024-02-11T09:16:07Z</time>
      </trkpt>
      <trkpt lat="46.57415" lon="0.66171">
        <ele>89.4</ele>
        <time>2024-02-11T09:16:08Z</time>
      </trkpt>
      <trkpt lat="46.57414" lon="0.66174">
        <ele>90.4</ele>
        <time>2024-02-11T09:16:11Z</time>
      </trkpt>
      <trkpt lat="46.57414" lon="0.66176">
        <ele>90.8</ele>
        <time>2024-02-11T09:16:19Z</time>
      </trkpt>
      <trkpt lat="46.57409" lon="0.66179">
        <ele>91.8</ele>
        <time>2024-02-11T09:16:27Z</time>
      </trkpt>
      <trkpt lat="46.57406" lon="0.6618">
        <ele>92.2</ele>
        <time>2024-02-11T09:16:29Z</time>
      </trkpt>
      <trkpt lat="46.57403" lon="0.6618">
        <ele>92.8</ele>
        <time>2024-02-11T09:16:31Z</time>
      </trkpt>
      <trkpt lat="46.57393" lon="0.66181">
        <ele>94</ele>
        <time>2024-02-11T09:16:38Z</time>
      </trkpt>
      <trkpt lat="46.57387" lon="0.66182">
        <ele>95</ele>
        <time>2024-02-11T09:16:42Z</time>
      </trkpt>
      <trkpt lat="46.57383" lon="0.66183">
        <ele>95.2</ele>
        <time>2024-02-11T09:16:44Z</time>
      </trkpt>
      <trkpt lat="46.57373" lon="0.66187">
        <ele>96.2</ele>
        <time>2024-02-11T09:16:50Z</time>
      </trkpt>
      <trkpt lat="46.57364" lon="0.66189">
        <ele>97.4</ele>
        <time>2024-02-11T09:16:55Z</time>
      </trkpt>
      <trkpt lat="46.57362" lon="0.6619">
        <ele>97.6</ele>
        <time>2024-02-11T09:16:56Z</time>
      </trkpt>
      <trkpt lat="46.57353" lon="0.66192">
        <ele>98.4</ele>
        <time>2024-02-11T09:17:01Z</time>
      </trkpt>
      <trkpt lat="46.57347" lon="0.66193">
        <ele>99</ele>
        <time>2024-02-11T09:17:04Z</time>
      </trkpt>
      <trkpt lat="46.57333" lon="0.66195">
        <ele>99.4</ele>
        <time>2024-02-11T09:17:10Z</time>
      </trkpt>
      <trkpt lat="46.57331" lon="0.66196">
        <ele>99.6</ele>
        <time>2024-02-11T09:17:11Z</time>
      </trkpt>
      <trkpt lat="46.57316" lon="0.66202">
        <ele>100.6</ele>
        <time>2024-02-11T09:17:17Z</time>
      </trkpt>
      <trkpt lat="46.57302" lon="0.66214">
        <ele>101.4</ele>
        <time>2024-02-11T09:17:23Z</time>
      </trkpt>
      <trkpt lat="46.57299" lon="0.66216">
        <ele>101.6</ele>
        <time>2024-02-11T09:17:24Z</time>
      </trkpt>
      <trkpt lat="46.57287" lon="0.66227">
        <ele>102.2</ele>
        <time>2024-02-11T09:17:29Z</time>
      </trkpt>
      <trkpt lat="46.57271" lon="0.66243">
        <ele>102.8</ele>
        <time>2024-02-11T09:17:35Z</time>
      </trkpt>
      <trkpt lat="46.57268" lon="0.66246">
        <ele>102.8</ele>
        <time>2024-02-11T09:17:36Z</time>
      </trkpt>
      <trkpt lat="46.57248" lon="0.66266">
        <ele>103.6</ele>
        <time>2024-02-11T09:17:43Z</time>
      </trkpt>
      <trkpt lat="46.57241" lon="0.66274">
        <ele>103.8</ele>
        <time>2024-02-11T09:17:46Z</time>
      </trkpt>
      <trkpt lat="46.57231" lon="0.66284">
        <ele>104.2</ele>
        <time>2024-02-11T09:17:50Z</time>
      </trkpt>
      <trkpt lat="46.57214" lon="0.663">
        <ele>104.8</ele>
        <time>2024-02-11T09:17:56Z</time>
      </trkpt>
      <trkpt lat="46.57194" lon="0.66322">
        <ele>105</ele>
        <time>2024-02-11T09:18:02Z</time>
      </trkpt>
      <trkpt lat="46.5718" lon="0.66338">
        <ele>105.4</ele>
        <time>2024-02-11T09:18:06Z</time>
      </trkpt>
      <trkpt lat="46.57173" lon="0.66346">
        <ele>105.2</ele>
        <time>2024-02-11T09:18:08Z</time>
      </trkpt>
      <trkpt lat="46.57152" lon="0.66367">
        <ele>105.4</ele>
        <time>2024-02-11T09:18:14Z</time>
      </trkpt>
      <trkpt lat="46.57146" lon="0.66374">
        <ele>105.4</ele>
        <time>2024-02-11T09:18:16Z</time>
      </trkpt>
      <trkpt lat="46.57139" lon="0.66378">
        <ele>105.4</ele>
        <time>2024-02-11T09:18:18Z</time>
      </trkpt>
      <trkpt lat="46.57136" lon="0.66377">
        <ele>105.4</ele>
        <time>2024-02-11T09:18:19Z</time>
      </trkpt>
      <trkpt lat="46.57133" lon="0.66376">
        <ele>105.4</ele>
        <time>2024-02-11T09:18:20Z</time>
      </trkpt>
      <trkpt lat="46.57128" lon="0.66371">
        <ele>105.4</ele>
        <time>2024-02-11T09:18:22Z</time>
      </trkpt>
      <trkpt lat="46.57125" lon="0.66368">
        <ele>105.4</ele>
        <time>2024-02-11T09:18:23Z</time>
      </trkpt>
      <trkpt lat="46.57107" lon="0.66342">
        <ele>104.8</ele>
        <time>2024-02-11T09:18:29Z</time>
      </trkpt>
      <trkpt lat="46.57089" lon="0.66315">
        <ele>104.4</ele>
        <time>2024-02-11T09:18:35Z</time>
      </trkpt>
      <trkpt lat="46.57082" lon="0.66306">
        <ele>103.8</ele>
        <time>2024-02-11T09:18:37Z</time>
      </trkpt>
      <trkpt lat="46.57067" lon="0.66287">
        <ele>102.8</ele>
        <time>2024-02-11T09:18:42Z</time>
      </trkpt>
      <trkpt lat="46.57064" lon="0.66284">
        <ele>102.4</ele>
        <time>2024-02-11T09:18:43Z</time>
      </trkpt>
      <trkpt lat="46.57056" lon="0.66277">
        <ele>102</ele>
        <time>2024-02-11T09:18:47Z</time>
      </trkpt>
      <trkpt lat="46.57054" lon="0.66273">
        <ele>101.8</ele>
        <time>2024-02-11T09:18:49Z</time>
      </trkpt>
      <trkpt lat="46.57055" lon="0.66269">
        <ele>101.4</ele>
        <time>2024-02-11T09:18:51Z</time>
      </trkpt>
      <trkpt lat="46.57055" lon="0.66269">
        <ele>101.4</ele>
        <time>2024-02-11T09:18:52Z</time>
      </trkpt>
      <trkpt lat="46.57055" lon="0.66269">
        <ele>101.2</ele>
        <time>2024-02-11T09:18:53Z</time>
      </trkpt>
      <trkpt lat="46.57054" lon="0.66271">
        <ele>101.2</ele>
        <time>2024-02-11T09:18:55Z</time>
      </trkpt>
      <trkpt lat="46.57052" lon="0.66273">
        <ele>101.4</ele>
        <time>2024-02-11T09:19:01Z</time>
      </trkpt>
      <trkpt lat="46.57048" lon="0.66274">
        <ele>101</ele>
        <time>2024-02-11T09:19:16Z</time>
      </trkpt>
      <trkpt lat="46.57048" lon="0.66274">
        <ele>100.8</ele>
        <time>2024-02-11T09:19:32Z</time>
      </trkpt>
      <trkpt lat="46.57047" lon="0.66273">
        <ele>100.6</ele>
        <time>2024-02-11T09:19:54Z</time>
      </trkpt>
      <trkpt lat="46.57047" lon="0.66271">
        <ele>100.8</ele>
        <time>2024-02-11T09:20:09Z</time>
      </trkpt>
      <trkpt lat="46.57045" lon="0.66271">
        <ele>100.8</ele>
        <time>2024-02-11T09:20:26Z</time>
      </trkpt>
      <trkpt lat="46.57045" lon="0.66271">
        <ele>100.8</ele>
        <time>2024-02-11T09:20:46Z</time>
      </trkpt>
      <trkpt lat="46.57046" lon="0.6627">
        <ele>100.8</ele>
        <time>2024-02-11T09:21:05Z</time>
      </trkpt>
      <trkpt lat="46.57046" lon="0.66271">
        <ele>100.8</ele>
        <time>2024-02-11T09:21:19Z</time>
      </trkpt>
      <trkpt lat="46.57045" lon="0.66271">
        <ele>100.8</ele>
        <time>2024-02-11T09:21:29Z</time>
      </trkpt>
      <trkpt lat="46.57045" lon="0.66272">
        <ele>100.8</ele>
        <time>2024-02-11T09:21:48Z</time>
      </trkpt>
      <trkpt lat="46.57045" lon="0.66273">
        <ele>100.8</ele>
        <time>2024-02-11T09:22:06Z</time>
      </trkpt>
      <trkpt lat="46.57045" lon="0.66272">
        <ele>100.8</ele>
        <time>2024-02-11T09:22:22Z</time>
      </trkpt>
      <trkpt lat="46.5704" lon="0.66277">
        <ele>100.8</ele>
        <time>2024-02-11T09:22:35Z</time>
      </trkpt>
      <trkpt lat="46.57032" lon="0.66281">
        <ele>100.8</ele>
        <time>2024-02-11T09:22:39Z</time>
      </trkpt>
      <trkpt lat="46.5703" lon="0.66283">
        <ele>100.8</ele>
        <time>2024-02-11T09:22:41Z</time>
      </trkpt>
      <trkpt lat="46.57029" lon="0.66287">
        <ele>100.8</ele>
        <time>2024-02-11T09:22:43Z</time>
      </trkpt>
      <trkpt lat="46.57028" lon="0.66289">
        <ele>100.6</ele>
        <time>2024-02-11T09:22:44Z</time>
      </trkpt>
      <trkpt lat="46.57023" lon="0.66295">
        <ele>100.6</ele>
        <time>2024-02-11T09:22:47Z</time>
      </trkpt>
      <trkpt lat="46.57011" lon="0.66307">
        <ele>101.2</ele>
        <time>2024-02-11T09:22:52Z</time>
      </trkpt>
      <trkpt lat="46.57002" lon="0.6632">
        <ele>101.2</ele>
        <time>2024-02-11T09:22:58Z</time>
      </trkpt>
      <trkpt lat="46.57002" lon="0.66321">
        <ele>101.2</ele>
        <time>2024-02-11T09:22:59Z</time>
      </trkpt>
      <trkpt lat="46.57002" lon="0.66324">
        <ele>101</ele>
        <time>2024-02-11T09:23:01Z</time>
      </trkpt>
      <trkpt lat="46.57004" lon="0.66327">
        <ele>101</ele>
        <time>2024-02-11T09:23:04Z</time>
      </trkpt>
      <trkpt lat="46.57006" lon="0.66328">
        <ele>101</ele>
        <time>2024-02-11T09:23:05Z</time>
      </trkpt>
      <trkpt lat="46.57007" lon="0.66329">
        <ele>101.2</ele>
        <time>2024-02-11T09:23:06Z</time>
      </trkpt>
      <trkpt lat="46.57012" lon="0.66334">
        <ele>101.2</ele>
        <time>2024-02-11T09:23:09Z</time>
      </trkpt>
      <trkpt lat="46.57015" lon="0.66348">
        <ele>101.2</ele>
        <time>2024-02-11T09:23:13Z</time>
      </trkpt>
      <trkpt lat="46.57017" lon="0.6635">
        <ele>101</ele>
        <time>2024-02-11T09:23:14Z</time>
      </trkpt>
      <trkpt lat="46.57024" lon="0.66362">
        <ele>101</ele>
        <time>2024-02-11T09:23:18Z</time>
      </trkpt>
      <trkpt lat="46.57026" lon="0.66364">
        <ele>101</ele>
        <time>2024-02-11T09:23:19Z</time>
      </trkpt>
      <trkpt lat="46.57034" lon="0.66375">
        <ele>100.6</ele>
        <time>2024-02-11T09:23:24Z</time>
      </trkpt>
      <trkpt lat="46.57036" lon="0.66377">
        <ele>100.6</ele>
        <time>2024-02-11T09:23:25Z</time>
      </trkpt>
      <trkpt lat="46.57039" lon="0.66383">
        <ele>100.2</ele>
        <time>2024-02-11T09:23:28Z</time>
      </trkpt>
      <trkpt lat="46.57042" lon="0.66387">
        <ele>100</ele>
        <time>2024-02-11T09:23:30Z</time>
      </trkpt>
      <trkpt lat="46.57049" lon="0.66397">
        <ele>99.6</ele>
        <time>2024-02-11T09:23:34Z</time>
      </trkpt>
      <trkpt lat="46.57053" lon="0.66405">
        <ele>99.2</ele>
        <time>2024-02-11T09:23:37Z</time>
      </trkpt>
      <trkpt lat="46.57057" lon="0.6641">
        <ele>99.4</ele>
        <time>2024-02-11T09:23:39Z</time>
      </trkpt>
      <trkpt lat="46.57058" lon="0.66413">
        <ele>99.6</ele>
        <time>2024-02-11T09:23:40Z</time>
      </trkpt>
      <trkpt lat="46.57058" lon="0.66423">
        <ele>99.8</ele>
        <time>2024-02-11T09:23:41Z</time>
      </trkpt>
      <trkpt lat="46.57057" lon="0.66434">
        <ele>99.8</ele>
        <time>2024-02-11T09:23:43Z</time>
      </trkpt>
      <trkpt lat="46.57058" lon="0.66438">
        <ele>99.8</ele>
        <time>2024-02-11T09:23:44Z</time>
      </trkpt>
      <trkpt lat="46.57061" lon="0.66449">
        <ele>99.8</ele>
        <time>2024-02-11T09:23:46Z</time>
      </trkpt>
      <trkpt lat="46.57063" lon="0.66454">
        <ele>99.6</ele>
        <time>2024-02-11T09:23:47Z</time>
      </trkpt>
      <trkpt lat="46.57068" lon="0.66464">
        <ele>99.6</ele>
        <time>2024-02-11T09:23:49Z</time>
      </trkpt>
      <trkpt lat="46.57073" lon="0.66472">
        <ele>99.6</ele>
        <time>2024-02-11T09:23:51Z</time>
      </trkpt>
      <trkpt lat="46.57076" lon="0.66485">
        <ele>99.6</ele>
        <time>2024-02-11T09:23:53Z</time>
      </trkpt>
      <trkpt lat="46.57079" lon="0.66497">
        <ele>99.6</ele>
        <time>2024-02-11T09:23:55Z</time>
      </trkpt>
      <trkpt lat="46.57083" lon="0.66504">
        <ele>99.6</ele>
        <time>2024-02-11T09:23:57Z</time>
      </trkpt>
      <trkpt lat="46.57088" lon="0.66511">
        <ele>99.2</ele>
        <time>2024-02-11T09:23:59Z</time>
      </trkpt>
      <trkpt lat="46.5709" lon="0.66521">
        <ele>99.2</ele>
        <time>2024-02-11T09:24:01Z</time>
      </trkpt>
      <trkpt lat="46.57089" lon="0.66534">
        <ele>98.8</ele>
        <time>2024-02-11T09:24:03Z</time>
      </trkpt>
      <trkpt lat="46.57089" lon="0.66542">
        <ele>97.8</ele>
        <time>2024-02-11T09:24:05Z</time>
      </trkpt>
      <trkpt lat="46.57089" lon="0.6655">
        <ele>96.4</ele>
        <time>2024-02-11T09:24:07Z</time>
      </trkpt>
      <trkpt lat="46.57089" lon="0.66558">
        <ele>95.2</ele>
        <time>2024-02-11T09:24:09Z</time>
      </trkpt>
      <trkpt lat="46.5709" lon="0.66564">
        <ele>94.2</ele>
        <time>2024-02-11T09:24:11Z</time>
      </trkpt>
      <trkpt lat="46.57086" lon="0.66576">
        <ele>93</ele>
        <time>2024-02-11T09:24:14Z</time>
      </trkpt>
      <trkpt lat="46.57086" lon="0.66582">
        <ele>91.2</ele>
        <time>2024-02-11T09:24:16Z</time>
      </trkpt>
      <trkpt lat="46.57085" lon="0.66589">
        <ele>90.2</ele>
        <time>2024-02-11T09:24:18Z</time>
      </trkpt>
      <trkpt lat="46.57085" lon="0.66591">
        <ele>89.8</ele>
        <time>2024-02-11T09:24:19Z</time>
      </trkpt>
      <trkpt lat="46.57085" lon="0.66609">
        <ele>90.2</ele>
        <time>2024-02-11T09:24:25Z</time>
      </trkpt>
      <trkpt lat="46.57082" lon="0.66628">
        <ele>91.8</ele>
        <time>2024-02-11T09:24:30Z</time>
      </trkpt>
      <trkpt lat="46.5708" lon="0.66632">
        <ele>92</ele>
        <time>2024-02-11T09:24:31Z</time>
      </trkpt>
      <trkpt lat="46.57078" lon="0.66642">
        <ele>92.8</ele>
        <time>2024-02-11T09:24:34Z</time>
      </trkpt>
      <trkpt lat="46.57076" lon="0.66649">
        <ele>93</ele>
        <time>2024-02-11T09:24:36Z</time>
      </trkpt>
      <trkpt lat="46.57075" lon="0.66663">
        <ele>93.8</ele>
        <time>2024-02-11T09:24:40Z</time>
      </trkpt>
      <trkpt lat="46.57075" lon="0.66668">
        <ele>94.2</ele>
        <time>2024-02-11T09:24:42Z</time>
      </trkpt>
      <trkpt lat="46.57075" lon="0.66668">
        <ele>95</ele>
        <time>2024-02-11T09:24:43Z</time>
      </trkpt>
      <trkpt lat="46.57076" lon="0.66673">
        <ele>95</ele>
        <time>2024-02-11T09:24:44Z</time>
      </trkpt>
      <trkpt lat="46.57081" lon="0.66678">
        <ele>96.2</ele>
        <time>2024-02-11T09:24:47Z</time>
      </trkpt>
      <trkpt lat="46.5709" lon="0.66681">
        <ele>97</ele>
        <time>2024-02-11T09:24:52Z</time>
      </trkpt>
      <trkpt lat="46.57093" lon="0.66685">
        <ele>97.2</ele>
        <time>2024-02-11T09:24:54Z</time>
      </trkpt>
      <trkpt lat="46.57094" lon="0.66692">
        <ele>97.6</ele>
        <time>2024-02-11T09:24:57Z</time>
      </trkpt>
      <trkpt lat="46.57095" lon="0.66702">
        <ele>98.4</ele>
        <time>2024-02-11T09:25:01Z</time>
      </trkpt>
      <trkpt lat="46.57096" lon="0.66704">
        <ele>98.6</ele>
        <time>2024-02-11T09:25:02Z</time>
      </trkpt>
      <trkpt lat="46.57102" lon="0.66719">
        <ele>99</ele>
        <time>2024-02-11T09:25:08Z</time>
      </trkpt>
      <trkpt lat="46.57109" lon="0.66727">
        <ele>99.6</ele>
        <time>2024-02-11T09:25:13Z</time>
      </trkpt>
      <trkpt lat="46.57113" lon="0.6673">
        <ele>100.2</ele>
        <time>2024-02-11T09:25:15Z</time>
      </trkpt>
      <trkpt lat="46.57118" lon="0.66734">
        <ele>100.4</ele>
        <time>2024-02-11T09:25:17Z</time>
      </trkpt>
      <trkpt lat="46.57119" lon="0.66739">
        <ele>100.4</ele>
        <time>2024-02-11T09:25:19Z</time>
      </trkpt>
      <trkpt lat="46.5712" lon="0.66743">
        <ele>100.4</ele>
        <time>2024-02-11T09:25:20Z</time>
      </trkpt>
      <trkpt lat="46.57122" lon="0.66761">
        <ele>99.6</ele>
        <time>2024-02-11T09:25:24Z</time>
      </trkpt>
      <trkpt lat="46.57122" lon="0.66765">
        <ele>99</ele>
        <time>2024-02-11T09:25:25Z</time>
      </trkpt>
      <trkpt lat="46.57121" lon="0.66769">
        <ele>98.6</ele>
        <time>2024-02-11T09:25:26Z</time>
      </trkpt>
      <trkpt lat="46.57122" lon="0.66771">
        <ele>98.2</ele>
        <time>2024-02-11T09:25:27Z</time>
      </trkpt>
      <trkpt lat="46.57125" lon="0.66775">
        <ele>97.2</ele>
        <time>2024-02-11T09:25:29Z</time>
      </trkpt>
      <trkpt lat="46.57133" lon="0.66789">
        <ele>96.4</ele>
        <time>2024-02-11T09:25:35Z</time>
      </trkpt>
      <trkpt lat="46.57134" lon="0.66792">
        <ele>96</ele>
        <time>2024-02-11T09:25:36Z</time>
      </trkpt>
      <trkpt lat="46.5714" lon="0.66804">
        <ele>94.8</ele>
        <time>2024-02-11T09:25:41Z</time>
      </trkpt>
      <trkpt lat="46.57142" lon="0.66808">
        <ele>94.2</ele>
        <time>2024-02-11T09:25:43Z</time>
      </trkpt>
      <trkpt lat="46.57142" lon="0.66811">
        <ele>93.8</ele>
        <time>2024-02-11T09:25:44Z</time>
      </trkpt>
      <trkpt lat="46.57143" lon="0.66815">
        <ele>93</ele>
        <time>2024-02-11T09:25:46Z</time>
      </trkpt>
      <trkpt lat="46.57144" lon="0.66818">
        <ele>92.6</ele>
        <time>2024-02-11T09:25:48Z</time>
      </trkpt>
      <trkpt lat="46.57145" lon="0.66832">
        <ele>91.6</ele>
        <time>2024-02-11T09:25:54Z</time>
      </trkpt>
      <trkpt lat="46.57145" lon="0.66844">
        <ele>90.6</ele>
        <time>2024-02-11T09:26:00Z</time>
      </trkpt>
      <trkpt lat="46.57144" lon="0.66846">
        <ele>90.4</ele>
        <time>2024-02-11T09:26:01Z</time>
      </trkpt>
      <trkpt lat="46.57147" lon="0.66855">
        <ele>89.6</ele>
        <time>2024-02-11T09:26:06Z</time>
      </trkpt>
      <trkpt lat="46.57146" lon="0.66858">
        <ele>88.4</ele>
        <time>2024-02-11T09:26:08Z</time>
      </trkpt>
      <trkpt lat="46.57145" lon="0.66859">
        <ele>88</ele>
        <time>2024-02-11T09:26:09Z</time>
      </trkpt>
      <trkpt lat="46.57143" lon="0.66859">
        <ele>87.4</ele>
        <time>2024-02-11T09:26:10Z</time>
      </trkpt>
      <trkpt lat="46.57138" lon="0.6686">
        <ele>85.4</ele>
        <time>2024-02-11T09:26:12Z</time>
      </trkpt>
      <trkpt lat="46.57135" lon="0.66861">
        <ele>85.4</ele>
        <time>2024-02-11T09:26:13Z</time>
      </trkpt>
      <trkpt lat="46.57125" lon="0.66862">
        <ele>84</ele>
        <time>2024-02-11T09:26:16Z</time>
      </trkpt>
      <trkpt lat="46.57118" lon="0.66861">
        <ele>82.6</ele>
        <time>2024-02-11T09:26:18Z</time>
      </trkpt>
      <trkpt lat="46.57114" lon="0.66861">
        <ele>80.8</ele>
        <time>2024-02-11T09:26:19Z</time>
      </trkpt>
      <trkpt lat="46.57111" lon="0.66859">
        <ele>79.6</ele>
        <time>2024-02-11T09:26:20Z</time>
      </trkpt>
      <trkpt lat="46.57104" lon="0.66857">
        <ele>78.4</ele>
        <time>2024-02-11T09:26:22Z</time>
      </trkpt>
      <trkpt lat="46.57098" lon="0.66855">
        <ele>77.8</ele>
        <time>2024-02-11T09:26:24Z</time>
      </trkpt>
      <trkpt lat="46.57093" lon="0.6685">
        <ele>77.6</ele>
        <time>2024-02-11T09:26:26Z</time>
      </trkpt>
      <trkpt lat="46.57086" lon="0.66844">
        <ele>77.2</ele>
        <time>2024-02-11T09:26:28Z</time>
      </trkpt>
      <trkpt lat="46.57079" lon="0.66837">
        <ele>77</ele>
        <time>2024-02-11T09:26:30Z</time>
      </trkpt>
      <trkpt lat="46.57071" lon="0.66833">
        <ele>76.8</ele>
        <time>2024-02-11T09:26:32Z</time>
      </trkpt>
      <trkpt lat="46.57065" lon="0.66827">
        <ele>76.6</ele>
        <time>2024-02-11T09:26:34Z</time>
      </trkpt>
      <trkpt lat="46.57062" lon="0.66823">
        <ele>76.4</ele>
        <time>2024-02-11T09:26:35Z</time>
      </trkpt>
      <trkpt lat="46.57056" lon="0.66816">
        <ele>76.2</ele>
        <time>2024-02-11T09:26:37Z</time>
      </trkpt>
      <trkpt lat="46.57052" lon="0.6681">
        <ele>75.8</ele>
        <time>2024-02-11T09:26:39Z</time>
      </trkpt>
      <trkpt lat="46.57051" lon="0.66806">
        <ele>75.6</ele>
        <time>2024-02-11T09:26:40Z</time>
      </trkpt>
      <trkpt lat="46.5705" lon="0.66801">
        <ele>75.2</ele>
        <time>2024-02-11T09:26:42Z</time>
      </trkpt>
      <trkpt lat="46.5705" lon="0.66799">
        <ele>75.2</ele>
        <time>2024-02-11T09:26:43Z</time>
      </trkpt>
      <trkpt lat="46.57044" lon="0.66785">
        <ele>75</ele>
        <time>2024-02-11T09:26:50Z</time>
      </trkpt>
      <trkpt lat="46.5704" lon="0.66779">
        <ele>74.8</ele>
        <time>2024-02-11T09:26:52Z</time>
      </trkpt>
      <trkpt lat="46.57035" lon="0.66767">
        <ele>74.2</ele>
        <time>2024-02-11T09:26:55Z</time>
      </trkpt>
      <trkpt lat="46.57032" lon="0.66761">
        <ele>74</ele>
        <time>2024-02-11T09:26:57Z</time>
      </trkpt>
      <trkpt lat="46.5703" lon="0.6676">
        <ele>73.8</ele>
        <time>2024-02-11T09:26:58Z</time>
      </trkpt>
      <trkpt lat="46.57019" lon="0.66752">
        <ele>73.2</ele>
        <time>2024-02-11T09:27:02Z</time>
      </trkpt>
      <trkpt lat="46.57016" lon="0.66749">
        <ele>73</ele>
        <time>2024-02-11T09:27:03Z</time>
      </trkpt>
      <trkpt lat="46.57003" lon="0.6674">
        <ele>72.6</ele>
        <time>2024-02-11T09:27:08Z</time>
      </trkpt>
      <trkpt lat="46.56994" lon="0.66739">
        <ele>72.6</ele>
        <time>2024-02-11T09:27:12Z</time>
      </trkpt>
      <trkpt lat="46.56992" lon="0.66739">
        <ele>72.6</ele>
        <time>2024-02-11T09:27:13Z</time>
      </trkpt>
      <trkpt lat="46.56989" lon="0.66747">
        <ele>73.2</ele>
        <time>2024-02-11T09:27:20Z</time>
      </trkpt>
      <trkpt lat="46.56992" lon="0.66756">
        <ele>73.6</ele>
        <time>2024-02-11T09:27:25Z</time>
      </trkpt>
      <trkpt lat="46.5699" lon="0.66759">
        <ele>73.6</ele>
        <time>2024-02-11T09:27:27Z</time>
      </trkpt>
      <trkpt lat="46.56986" lon="0.66761">
        <ele>74.4</ele>
        <time>2024-02-11T09:27:30Z</time>
      </trkpt>
      <trkpt lat="46.56982" lon="0.66764">
        <ele>75.2</ele>
        <time>2024-02-11T09:27:32Z</time>
      </trkpt>
      <trkpt lat="46.5698" lon="0.6677">
        <ele>75.6</ele>
        <time>2024-02-11T09:27:34Z</time>
      </trkpt>
      <trkpt lat="46.56977" lon="0.66778">
        <ele>75.6</ele>
        <time>2024-02-11T09:27:37Z</time>
      </trkpt>
      <trkpt lat="46.56971" lon="0.66778">
        <ele>75.4</ele>
        <time>2024-02-11T09:27:40Z</time>
      </trkpt>
      <trkpt lat="46.56969" lon="0.66775">
        <ele>75.4</ele>
        <time>2024-02-11T09:27:41Z</time>
      </trkpt>
      <trkpt lat="46.56962" lon="0.66757">
        <ele>74.2</ele>
        <time>2024-02-11T09:27:45Z</time>
      </trkpt>
      <trkpt lat="46.5696" lon="0.66753">
        <ele>74</ele>
        <time>2024-02-11T09:27:46Z</time>
      </trkpt>
      <trkpt lat="46.56956" lon="0.66745">
        <ele>73</ele>
        <time>2024-02-11T09:27:49Z</time>
      </trkpt>
      <trkpt lat="46.56955" lon="0.66743">
        <ele>72.6</ele>
        <time>2024-02-11T09:27:50Z</time>
      </trkpt>
      <trkpt lat="46.56955" lon="0.66742">
        <ele>71.8</ele>
        <time>2024-02-11T09:27:52Z</time>
      </trkpt>
      <trkpt lat="46.56955" lon="0.66742">
        <ele>71.6</ele>
        <time>2024-02-11T09:27:55Z</time>
      </trkpt>
      <trkpt lat="46.56955" lon="0.66741">
        <ele>71.8</ele>
        <time>2024-02-11T09:28:16Z</time>
      </trkpt>
      <trkpt lat="46.56955" lon="0.66741">
        <ele>71.6</ele>
        <time>2024-02-11T09:28:36Z</time>
      </trkpt>
      <trkpt lat="46.56955" lon="0.6674">
        <ele>72</ele>
        <time>2024-02-11T09:28:53Z</time>
      </trkpt>
      <trkpt lat="46.56953" lon="0.66732">
        <ele>71.4</ele>
        <time>2024-02-11T09:29:01Z</time>
      </trkpt>
      <trkpt lat="46.5695" lon="0.66719">
        <ele>71.4</ele>
        <time>2024-02-11T09:29:06Z</time>
      </trkpt>
      <trkpt lat="46.56945" lon="0.66704">
        <ele>72</ele>
        <time>2024-02-11T09:29:13Z</time>
      </trkpt>
      <trkpt lat="46.56939" lon="0.66693">
        <ele>72.4</ele>
        <time>2024-02-11T09:29:20Z</time>
      </trkpt>
      <trkpt lat="46.56938" lon="0.66692">
        <ele>72.6</ele>
        <time>2024-02-11T09:29:23Z</time>
      </trkpt>
      <trkpt lat="46.56938" lon="0.66692">
        <ele>72.8</ele>
        <time>2024-02-11T09:29:26Z</time>
      </trkpt>
      <trkpt lat="46.56938" lon="0.66692">
        <ele>73</ele>
        <time>2024-02-11T09:29:28Z</time>
      </trkpt>
      <trkpt lat="46.56936" lon="0.66689">
        <ele>72.8</ele>
        <time>2024-02-11T09:29:37Z</time>
      </trkpt>
      <trkpt lat="46.56935" lon="0.66686">
        <ele>73.2</ele>
        <time>2024-02-11T09:29:41Z</time>
      </trkpt>
      <trkpt lat="46.56935" lon="0.66683">
        <ele>74</ele>
        <time>2024-02-11T09:29:46Z</time>
      </trkpt>
      <trkpt lat="46.56934" lon="0.66682">
        <ele>74.2</ele>
        <time>2024-02-11T09:29:47Z</time>
      </trkpt>
      <trkpt lat="46.5693" lon="0.6668">
        <ele>74.6</ele>
        <time>2024-02-11T09:29:55Z</time>
      </trkpt>
      <trkpt lat="46.56927" lon="0.6668">
        <ele>74.4</ele>
        <time>2024-02-11T09:29:57Z</time>
      </trkpt>
      <trkpt lat="46.56925" lon="0.66679">
        <ele>74.4</ele>
        <time>2024-02-11T09:29:58Z</time>
      </trkpt>
      <trkpt lat="46.56915" lon="0.66679">
        <ele>75</ele>
        <time>2024-02-11T09:30:05Z</time>
      </trkpt>
      <trkpt lat="46.56908" lon="0.66674">
        <ele>76.2</ele>
        <time>2024-02-11T09:30:09Z</time>
      </trkpt>
      <trkpt lat="46.56906" lon="0.66673">
        <ele>76.8</ele>
        <time>2024-02-11T09:30:11Z</time>
      </trkpt>
      <trkpt lat="46.56905" lon="0.66672">
        <ele>77.4</ele>
        <time>2024-02-11T09:30:12Z</time>
      </trkpt>
      <trkpt lat="46.56902" lon="0.6667">
        <ele>78</ele>
        <time>2024-02-11T09:30:14Z</time>
      </trkpt>
      <trkpt lat="46.569" lon="0.66668">
        <ele>78.6</ele>
        <time>2024-02-11T09:30:16Z</time>
      </trkpt>
      <trkpt lat="46.56893" lon="0.66661">
        <ele>79.4</ele>
        <time>2024-02-11T09:30:21Z</time>
      </trkpt>
      <trkpt lat="46.56888" lon="0.66657">
        <ele>79.8</ele>
        <time>2024-02-11T09:30:24Z</time>
      </trkpt>
      <trkpt lat="46.56882" lon="0.66652">
        <ele>80</ele>
        <time>2024-02-11T09:30:28Z</time>
      </trkpt>
      <trkpt lat="46.56877" lon="0.66648">
        <ele>80.8</ele>
        <time>2024-02-11T09:30:31Z</time>
      </trkpt>
      <trkpt lat="46.56873" lon="0.66643">
        <ele>81.8</ele>
        <time>2024-02-11T09:30:34Z</time>
      </trkpt>
      <trkpt lat="46.56871" lon="0.66643">
        <ele>82</ele>
        <time>2024-02-11T09:30:35Z</time>
      </trkpt>
      <trkpt lat="46.56863" lon="0.66635">
        <ele>82.8</ele>
        <time>2024-02-11T09:30:40Z</time>
      </trkpt>
      <trkpt lat="46.56857" lon="0.66628">
        <ele>83.6</ele>
        <time>2024-02-11T09:30:44Z</time>
      </trkpt>
      <trkpt lat="46.56853" lon="0.66622">
        <ele>83.8</ele>
        <time>2024-02-11T09:30:48Z</time>
      </trkpt>
      <trkpt lat="46.56844" lon="0.66612">
        <ele>84.4</ele>
        <time>2024-02-11T09:30:57Z</time>
      </trkpt>
      <trkpt lat="46.56837" lon="0.66608">
        <ele>85</ele>
        <time>2024-02-11T09:31:04Z</time>
      </trkpt>
      <trkpt lat="46.56834" lon="0.66605">
        <ele>85</ele>
        <time>2024-02-11T09:31:10Z</time>
      </trkpt>
      <trkpt lat="46.56833" lon="0.66604">
        <ele>85</ele>
        <time>2024-02-11T09:31:11Z</time>
      </trkpt>
      <trkpt lat="46.5683" lon="0.66605">
        <ele>85</ele>
        <time>2024-02-11T09:31:16Z</time>
      </trkpt>
      <trkpt lat="46.56827" lon="0.66605">
        <ele>85.2</ele>
        <time>2024-02-11T09:31:19Z</time>
      </trkpt>
      <trkpt lat="46.56825" lon="0.66604">
        <ele>85.4</ele>
        <time>2024-02-11T09:31:21Z</time>
      </trkpt>
      <trkpt lat="46.56818" lon="0.66598">
        <ele>86</ele>
        <time>2024-02-11T09:31:27Z</time>
      </trkpt>
      <trkpt lat="46.5681" lon="0.66593">
        <ele>87.4</ele>
        <time>2024-02-11T09:31:33Z</time>
      </trkpt>
      <trkpt lat="46.56808" lon="0.66592">
        <ele>87.4</ele>
        <time>2024-02-11T09:31:34Z</time>
      </trkpt>
      <trkpt lat="46.56803" lon="0.66584">
        <ele>88.4</ele>
        <time>2024-02-11T09:31:39Z</time>
      </trkpt>
      <trkpt lat="46.56796" lon="0.66578">
        <ele>89.4</ele>
        <time>2024-02-11T09:31:44Z</time>
      </trkpt>
      <trkpt lat="46.56794" lon="0.66577">
        <ele>89.4</ele>
        <time>2024-02-11T09:31:45Z</time>
      </trkpt>
      <trkpt lat="46.56785" lon="0.66566">
        <ele>90.6</ele>
        <time>2024-02-11T09:31:51Z</time>
      </trkpt>
      <trkpt lat="46.56783" lon="0.66564">
        <ele>90.6</ele>
        <time>2024-02-11T09:31:52Z</time>
      </trkpt>
      <trkpt lat="46.56776" lon="0.66557">
        <ele>91.6</ele>
        <time>2024-02-11T09:31:57Z</time>
      </trkpt>
      <trkpt lat="46.56774" lon="0.66555">
        <ele>91.8</ele>
        <time>2024-02-11T09:31:58Z</time>
      </trkpt>
      <trkpt lat="46.56772" lon="0.66554">
        <ele>92</ele>
        <time>2024-02-11T09:31:59Z</time>
      </trkpt>
      <trkpt lat="46.56764" lon="0.66554">
        <ele>92.6</ele>
        <time>2024-02-11T09:32:03Z</time>
      </trkpt>
      <trkpt lat="46.56759" lon="0.66551">
        <ele>93</ele>
        <time>2024-02-11T09:32:07Z</time>
      </trkpt>
      <trkpt lat="46.56758" lon="0.6655">
        <ele>93</ele>
        <time>2024-02-11T09:32:09Z</time>
      </trkpt>
      <trkpt lat="46.56753" lon="0.66547">
        <ele>93.6</ele>
        <time>2024-02-11T09:32:18Z</time>
      </trkpt>
      <trkpt lat="46.56752" lon="0.66546">
        <ele>93.6</ele>
        <time>2024-02-11T09:32:20Z</time>
      </trkpt>
      <trkpt lat="46.56748" lon="0.66539">
        <ele>93.6</ele>
        <time>2024-02-11T09:32:31Z</time>
      </trkpt>
      <trkpt lat="46.56743" lon="0.66531">
        <ele>94.2</ele>
        <time>2024-02-11T09:32:40Z</time>
      </trkpt>
      <trkpt lat="46.5674" lon="0.6653">
        <ele>94.8</ele>
        <time>2024-02-11T09:32:42Z</time>
      </trkpt>
      <trkpt lat="46.56736" lon="0.6653">
        <ele>95.2</ele>
        <time>2024-02-11T09:32:44Z</time>
      </trkpt>
      <trkpt lat="46.56733" lon="0.66531">
        <ele>95.4</ele>
        <time>2024-02-11T09:32:46Z</time>
      </trkpt>
      <trkpt lat="46.56728" lon="0.66535">
        <ele>95.8</ele>
        <time>2024-02-11T09:32:49Z</time>
      </trkpt>
      <trkpt lat="46.56727" lon="0.66536">
        <ele>95.8</ele>
        <time>2024-02-11T09:32:50Z</time>
      </trkpt>
      <trkpt lat="46.56725" lon="0.66535">
        <ele>95.8</ele>
        <time>2024-02-11T09:32:51Z</time>
      </trkpt>
      <trkpt lat="46.5671" lon="0.66528">
        <ele>96.8</ele>
        <time>2024-02-11T09:32:58Z</time>
      </trkpt>
      <trkpt lat="46.56708" lon="0.66527">
        <ele>97</ele>
        <time>2024-02-11T09:32:59Z</time>
      </trkpt>
      <trkpt lat="46.56695" lon="0.66517">
        <ele>98</ele>
        <time>2024-02-11T09:33:05Z</time>
      </trkpt>
      <trkpt lat="46.56693" lon="0.66516">
        <ele>98</ele>
        <time>2024-02-11T09:33:06Z</time>
      </trkpt>
      <trkpt lat="46.5669" lon="0.66513">
        <ele>98.4</ele>
        <time>2024-02-11T09:33:08Z</time>
      </trkpt>
      <trkpt lat="46.56689" lon="0.66507">
        <ele>99</ele>
        <time>2024-02-11T09:33:10Z</time>
      </trkpt>
      <trkpt lat="46.56694" lon="0.66489">
        <ele>99</ele>
        <time>2024-02-11T09:33:15Z</time>
      </trkpt>
      <trkpt lat="46.56697" lon="0.66482">
        <ele>99</ele>
        <time>2024-02-11T09:33:17Z</time>
      </trkpt>
      <trkpt lat="46.56704" lon="0.66469">
        <ele>100.2</ele>
        <time>2024-02-11T09:33:22Z</time>
      </trkpt>
      <trkpt lat="46.56706" lon="0.66466">
        <ele>100.4</ele>
        <time>2024-02-11T09:33:23Z</time>
      </trkpt>
      <trkpt lat="46.56715" lon="0.66453">
        <ele>101.2</ele>
        <time>2024-02-11T09:33:28Z</time>
      </trkpt>
      <trkpt lat="46.56721" lon="0.66445">
        <ele>101.2</ele>
        <time>2024-02-11T09:33:31Z</time>
      </trkpt>
      <trkpt lat="46.56729" lon="0.66434">
        <ele>102.2</ele>
        <time>2024-02-11T09:33:35Z</time>
      </trkpt>
      <trkpt lat="46.56749" lon="0.66412">
        <ele>102.2</ele>
        <time>2024-02-11T09:33:43Z</time>
      </trkpt>
      <trkpt lat="46.56751" lon="0.6641">
        <ele>102.6</ele>
        <time>2024-02-11T09:33:44Z</time>
      </trkpt>
      <trkpt lat="46.56768" lon="0.66389">
        <ele>103</ele>
        <time>2024-02-11T09:33:51Z</time>
      </trkpt>
      <trkpt lat="46.56789" lon="0.66361">
        <ele>101.6</ele>
        <time>2024-02-11T09:33:58Z</time>
      </trkpt>
      <trkpt lat="46.56793" lon="0.66356">
        <ele>101.2</ele>
        <time>2024-02-11T09:33:59Z</time>
      </trkpt>
      <trkpt lat="46.56806" lon="0.66337">
        <ele>100.6</ele>
        <time>2024-02-11T09:34:03Z</time>
      </trkpt>
      <trkpt lat="46.5681" lon="0.6633">
        <ele>100</ele>
        <time>2024-02-11T09:34:06Z</time>
      </trkpt>
      <trkpt lat="46.56811" lon="0.66328">
        <ele>99.2</ele>
        <time>2024-02-11T09:34:07Z</time>
      </trkpt>
      <trkpt lat="46.56812" lon="0.66327">
        <ele>98.8</ele>
        <time>2024-02-11T09:34:08Z</time>
      </trkpt>
      <trkpt lat="46.56815" lon="0.66323">
        <ele>98</ele>
        <time>2024-02-11T09:34:11Z</time>
      </trkpt>
      <trkpt lat="46.56815" lon="0.66323">
        <ele>97.8</ele>
        <time>2024-02-11T09:34:12Z</time>
      </trkpt>
      <trkpt lat="46.56816" lon="0.66323">
        <ele>97.8</ele>
        <time>2024-02-11T09:34:13Z</time>
      </trkpt>
      <trkpt lat="46.56817" lon="0.66323">
        <ele>97.8</ele>
        <time>2024-02-11T09:34:14Z</time>
      </trkpt>
      <trkpt lat="46.56818" lon="0.66325">
        <ele>97.8</ele>
        <time>2024-02-11T09:34:17Z</time>
      </trkpt>
      <trkpt lat="46.5682" lon="0.66332">
        <ele>97.6</ele>
        <time>2024-02-11T09:34:21Z</time>
      </trkpt>
      <trkpt lat="46.56822" lon="0.66344">
        <ele>97.8</ele>
        <time>2024-02-11T09:34:28Z</time>
      </trkpt>
      <trkpt lat="46.56825" lon="0.6635">
        <ele>97.6</ele>
        <time>2024-02-11T09:34:35Z</time>
      </trkpt>
      <trkpt lat="46.56825" lon="0.66351">
        <ele>97.6</ele>
        <time>2024-02-11T09:34:36Z</time>
      </trkpt>
      <trkpt lat="46.56828" lon="0.66359">
        <ele>97.6</ele>
        <time>2024-02-11T09:34:42Z</time>
      </trkpt>
      <trkpt lat="46.56828" lon="0.66361">
        <ele>97.6</ele>
        <time>2024-02-11T09:34:44Z</time>
      </trkpt>
      <trkpt lat="46.56828" lon="0.66362">
        <ele>97.4</ele>
        <time>2024-02-11T09:34:45Z</time>
      </trkpt>
      <trkpt lat="46.56829" lon="0.66367">
        <ele>97.4</ele>
        <time>2024-02-11T09:34:48Z</time>
      </trkpt>
      <trkpt lat="46.56831" lon="0.66376">
        <ele>97.4</ele>
        <time>2024-02-11T09:34:53Z</time>
      </trkpt>
      <trkpt lat="46.56835" lon="0.66396">
        <ele>96.8</ele>
        <time>2024-02-11T09:35:00Z</time>
      </trkpt>
      <trkpt lat="46.56836" lon="0.66399">
        <ele>96.8</ele>
        <time>2024-02-11T09:35:01Z</time>
      </trkpt>
      <trkpt lat="46.56837" lon="0.66403">
        <ele>96.6</ele>
        <time>2024-02-11T09:35:03Z</time>
      </trkpt>
      <trkpt lat="46.56842" lon="0.6641">
        <ele>96.6</ele>
        <time>2024-02-11T09:35:07Z</time>
      </trkpt>
      <trkpt lat="46.56846" lon="0.6642">
        <ele>95.6</ele>
        <time>2024-02-11T09:35:10Z</time>
      </trkpt>
      <trkpt lat="46.56849" lon="0.66428">
        <ele>95</ele>
        <time>2024-02-11T09:35:12Z</time>
      </trkpt>
      <trkpt lat="46.5685" lon="0.66435">
        <ele>94.6</ele>
        <time>2024-02-11T09:35:14Z</time>
      </trkpt>
      <trkpt lat="46.56856" lon="0.66452">
        <ele>94.4</ele>
        <time>2024-02-11T09:35:18Z</time>
      </trkpt>
      <trkpt lat="46.56863" lon="0.66475">
        <ele>94.6</ele>
        <time>2024-02-11T09:35:24Z</time>
      </trkpt>
      <trkpt lat="46.56869" lon="0.66492">
        <ele>94.2</ele>
        <time>2024-02-11T09:35:31Z</time>
      </trkpt>
      <trkpt lat="46.56874" lon="0.66508">
        <ele>93.4</ele>
        <time>2024-02-11T09:35:35Z</time>
      </trkpt>
      <trkpt lat="46.56876" lon="0.66511">
        <ele>93.2</ele>
        <time>2024-02-11T09:35:36Z</time>
      </trkpt>
      <trkpt lat="46.56878" lon="0.66513">
        <ele>93</ele>
        <time>2024-02-11T09:35:37Z</time>
      </trkpt>
      <trkpt lat="46.5688" lon="0.66516">
        <ele>92.8</ele>
        <time>2024-02-11T09:35:38Z</time>
      </trkpt>
      <trkpt lat="46.56881" lon="0.66519">
        <ele>92.2</ele>
        <time>2024-02-11T09:35:39Z</time>
      </trkpt>
      <trkpt lat="46.56884" lon="0.66527">
        <ele>91.6</ele>
        <time>2024-02-11T09:35:42Z</time>
      </trkpt>
      <trkpt lat="46.56885" lon="0.66528">
        <ele>91.2</ele>
        <time>2024-02-11T09:35:43Z</time>
      </trkpt>
      <trkpt lat="46.56885" lon="0.66531">
        <ele>90.8</ele>
        <time>2024-02-11T09:35:44Z</time>
      </trkpt>
      <trkpt lat="46.56888" lon="0.66536">
        <ele>90.2</ele>
        <time>2024-02-11T09:35:46Z</time>
      </trkpt>
      <trkpt lat="46.5689" lon="0.6654">
        <ele>90</ele>
        <time>2024-02-11T09:35:47Z</time>
      </trkpt>
      <trkpt lat="46.56893" lon="0.66549">
        <ele>89</ele>
        <time>2024-02-11T09:35:50Z</time>
      </trkpt>
      <trkpt lat="46.56894" lon="0.66556">
        <ele>87.8</ele>
        <time>2024-02-11T09:35:52Z</time>
      </trkpt>
      <trkpt lat="46.56897" lon="0.66565">
        <ele>86.6</ele>
        <time>2024-02-11T09:35:55Z</time>
      </trkpt>
      <trkpt lat="46.56899" lon="0.6657">
        <ele>85.4</ele>
        <time>2024-02-11T09:35:57Z</time>
      </trkpt>
      <trkpt lat="46.56901" lon="0.66575">
        <ele>84.4</ele>
        <time>2024-02-11T09:35:59Z</time>
      </trkpt>
      <trkpt lat="46.56901" lon="0.66577">
        <ele>84</ele>
        <time>2024-02-11T09:36:00Z</time>
      </trkpt>
      <trkpt lat="46.56903" lon="0.66582">
        <ele>83</ele>
        <time>2024-02-11T09:36:02Z</time>
      </trkpt>
      <trkpt lat="46.56904" lon="0.66586">
        <ele>82</ele>
        <time>2024-02-11T09:36:04Z</time>
      </trkpt>
      <trkpt lat="46.56906" lon="0.66592">
        <ele>80.6</ele>
        <time>2024-02-11T09:36:06Z</time>
      </trkpt>
      <trkpt lat="46.56907" lon="0.66597">
        <ele>79.4</ele>
        <time>2024-02-11T09:36:08Z</time>
      </trkpt>
      <trkpt lat="46.56908" lon="0.66599">
        <ele>78.6</ele>
        <time>2024-02-11T09:36:09Z</time>
      </trkpt>
      <trkpt lat="46.56909" lon="0.66602">
        <ele>78.2</ele>
        <time>2024-02-11T09:36:10Z</time>
      </trkpt>
      <trkpt lat="46.56911" lon="0.66617">
        <ele>77.4</ele>
        <time>2024-02-11T09:36:14Z</time>
      </trkpt>
      <trkpt lat="46.56911" lon="0.6662">
        <ele>77</ele>
        <time>2024-02-11T09:36:15Z</time>
      </trkpt>
      <trkpt lat="46.56911" lon="0.66623">
        <ele>76.8</ele>
        <time>2024-02-11T09:36:16Z</time>
      </trkpt>
      <trkpt lat="46.5691" lon="0.66625">
        <ele>76.2</ele>
        <time>2024-02-11T09:36:19Z</time>
      </trkpt>
      <trkpt lat="46.56909" lon="0.66627">
        <ele>76</ele>
        <time>2024-02-11T09:36:21Z</time>
      </trkpt>
      <trkpt lat="46.56907" lon="0.66628">
        <ele>76.2</ele>
        <time>2024-02-11T09:36:23Z</time>
      </trkpt>
      <trkpt lat="46.56907" lon="0.66628">
        <ele>76.2</ele>
        <time>2024-02-11T09:36:24Z</time>
      </trkpt>
      <trkpt lat="46.56903" lon="0.66629">
        <ele>77.4</ele>
        <time>2024-02-11T09:36:27Z</time>
      </trkpt>
      <trkpt lat="46.56899" lon="0.66627">
        <ele>78.4</ele>
        <time>2024-02-11T09:36:30Z</time>
      </trkpt>
      <trkpt lat="46.56898" lon="0.66627">
        <ele>78.6</ele>
        <time>2024-02-11T09:36:31Z</time>
      </trkpt>
      <trkpt lat="46.56891" lon="0.66624">
        <ele>79.6</ele>
        <time>2024-02-11T09:36:36Z</time>
      </trkpt>
      <trkpt lat="46.56884" lon="0.66621">
        <ele>80.6</ele>
        <time>2024-02-11T09:36:41Z</time>
      </trkpt>
      <trkpt lat="46.5688" lon="0.6662">
        <ele>81</ele>
        <time>2024-02-11T09:36:44Z</time>
      </trkpt>
      <trkpt lat="46.56876" lon="0.66621">
        <ele>81.6</ele>
        <time>2024-02-11T09:36:46Z</time>
      </trkpt>
      <trkpt lat="46.56864" lon="0.66617">
        <ele>82.6</ele>
        <time>2024-02-11T09:36:53Z</time>
      </trkpt>
      <trkpt lat="46.56861" lon="0.66615">
        <ele>82.8</ele>
        <time>2024-02-11T09:36:56Z</time>
      </trkpt>
      <trkpt lat="46.56854" lon="0.66616">
        <ele>83.8</ele>
        <time>2024-02-11T09:36:59Z</time>
      </trkpt>
      <trkpt lat="46.56849" lon="0.66616">
        <ele>84.2</ele>
        <time>2024-02-11T09:37:05Z</time>
      </trkpt>
      <trkpt lat="46.56847" lon="0.66615">
        <ele>84.2</ele>
        <time>2024-02-11T09:37:06Z</time>
      </trkpt>
      <trkpt lat="46.56843" lon="0.66614">
        <ele>84.2</ele>
        <time>2024-02-11T09:37:09Z</time>
      </trkpt>
      <trkpt lat="46.5684" lon="0.66613">
        <ele>84.2</ele>
        <time>2024-02-11T09:37:12Z</time>
      </trkpt>
      <trkpt lat="46.56836" lon="0.6661">
        <ele>84.4</ele>
        <time>2024-02-11T09:37:15Z</time>
      </trkpt>
      <trkpt lat="46.56833" lon="0.66608">
        <ele>85</ele>
        <time>2024-02-11T09:37:17Z</time>
      </trkpt>
      <trkpt lat="46.56819" lon="0.66598">
        <ele>86.2</ele>
        <time>2024-02-11T09:37:26Z</time>
      </trkpt>
      <trkpt lat="46.56817" lon="0.66597">
        <ele>86.2</ele>
        <time>2024-02-11T09:37:27Z</time>
      </trkpt>
      <trkpt lat="46.5681" lon="0.66594">
        <ele>87.2</ele>
        <time>2024-02-11T09:37:32Z</time>
      </trkpt>
      <trkpt lat="46.56805" lon="0.66586">
        <ele>88</ele>
        <time>2024-02-11T09:37:37Z</time>
      </trkpt>
      <trkpt lat="46.56804" lon="0.66585">
        <ele>88.4</ele>
        <time>2024-02-11T09:37:38Z</time>
      </trkpt>
      <trkpt lat="46.56799" lon="0.66579">
        <ele>89</ele>
        <time>2024-02-11T09:37:42Z</time>
      </trkpt>
      <trkpt lat="46.56793" lon="0.66573">
        <ele>89.4</ele>
        <time>2024-02-11T09:37:46Z</time>
      </trkpt>
      <trkpt lat="46.5679" lon="0.66571">
        <ele>89.8</ele>
        <time>2024-02-11T09:37:48Z</time>
      </trkpt>
      <trkpt lat="46.56783" lon="0.66563">
        <ele>90.4</ele>
        <time>2024-02-11T09:37:53Z</time>
      </trkpt>
      <trkpt lat="46.56775" lon="0.66557">
        <ele>91</ele>
        <time>2024-02-11T09:37:59Z</time>
      </trkpt>
      <trkpt lat="46.5677" lon="0.66551">
        <ele>91.6</ele>
        <time>2024-02-11T09:38:04Z</time>
      </trkpt>
      <trkpt lat="46.56765" lon="0.66547">
        <ele>92</ele>
        <time>2024-02-11T09:38:09Z</time>
      </trkpt>
      <trkpt lat="46.56762" lon="0.66545">
        <ele>92.6</ele>
        <time>2024-02-11T09:38:11Z</time>
      </trkpt>
      <trkpt lat="46.56761" lon="0.66545">
        <ele>93</ele>
        <time>2024-02-11T09:38:12Z</time>
      </trkpt>
      <trkpt lat="46.56751" lon="0.66539">
        <ele>93.4</ele>
        <time>2024-02-11T09:38:19Z</time>
      </trkpt>
      <trkpt lat="46.56747" lon="0.66534">
        <ele>94.6</ele>
        <time>2024-02-11T09:38:22Z</time>
      </trkpt>
      <trkpt lat="46.56736" lon="0.66534">
        <ele>95.4</ele>
        <time>2024-02-11T09:38:28Z</time>
      </trkpt>
      <trkpt lat="46.56729" lon="0.66537">
        <ele>95.4</ele>
        <time>2024-02-11T09:38:33Z</time>
      </trkpt>
      <trkpt lat="46.56728" lon="0.66536">
        <ele>95.4</ele>
        <time>2024-02-11T09:38:34Z</time>
      </trkpt>
      <trkpt lat="46.56722" lon="0.66533">
        <ele>95.6</ele>
        <time>2024-02-11T09:38:37Z</time>
      </trkpt>
      <trkpt lat="46.56712" lon="0.66526">
        <ele>96.4</ele>
        <time>2024-02-11T09:38:42Z</time>
      </trkpt>
      <trkpt lat="46.56702" lon="0.66519">
        <ele>96.8</ele>
        <time>2024-02-11T09:38:47Z</time>
      </trkpt>
      <trkpt lat="46.56698" lon="0.66516">
        <ele>97</ele>
        <time>2024-02-11T09:38:49Z</time>
      </trkpt>
      <trkpt lat="46.56687" lon="0.66508">
        <ele>97.8</ele>
        <time>2024-02-11T09:38:55Z</time>
      </trkpt>
      <trkpt lat="46.56685" lon="0.66507">
        <ele>98</ele>
        <time>2024-02-11T09:38:56Z</time>
      </trkpt>
      <trkpt lat="46.56672" lon="0.66494">
        <ele>99</ele>
        <time>2024-02-11T09:39:03Z</time>
      </trkpt>
      <trkpt lat="46.5666" lon="0.66474">
        <ele>99</ele>
        <time>2024-02-11T09:39:10Z</time>
      </trkpt>
      <trkpt lat="46.56657" lon="0.66468">
        <ele>99.2</ele>
        <time>2024-02-11T09:39:12Z</time>
      </trkpt>
      <trkpt lat="46.56656" lon="0.6646">
        <ele>99.6</ele>
        <time>2024-02-11T09:39:14Z</time>
      </trkpt>
      <trkpt lat="46.56658" lon="0.66454">
        <ele>100</ele>
        <time>2024-02-11T09:39:16Z</time>
      </trkpt>
      <trkpt lat="46.56663" lon="0.66443">
        <ele>100.6</ele>
        <time>2024-02-11T09:39:20Z</time>
      </trkpt>
      <trkpt lat="46.56665" lon="0.66438">
        <ele>101</ele>
        <time>2024-02-11T09:39:22Z</time>
      </trkpt>
      <trkpt lat="46.56668" lon="0.66433">
        <ele>102</ele>
        <time>2024-02-11T09:39:25Z</time>
      </trkpt>
      <trkpt lat="46.56668" lon="0.66431">
        <ele>102</ele>
        <time>2024-02-11T09:39:26Z</time>
      </trkpt>
      <trkpt lat="46.5667" lon="0.66428">
        <ele>102.2</ele>
        <time>2024-02-11T09:39:28Z</time>
      </trkpt>
      <trkpt lat="46.56672" lon="0.66425">
        <ele>102.6</ele>
        <time>2024-02-11T09:39:31Z</time>
      </trkpt>
      <trkpt lat="46.56673" lon="0.66422">
        <ele>102.8</ele>
        <time>2024-02-11T09:39:33Z</time>
      </trkpt>
      <trkpt lat="46.56674" lon="0.66419">
        <ele>102.8</ele>
        <time>2024-02-11T09:39:35Z</time>
      </trkpt>
      <trkpt lat="46.56679" lon="0.6641">
        <ele>103</ele>
        <time>2024-02-11T09:39:41Z</time>
      </trkpt>
      <trkpt lat="46.5668" lon="0.66408">
        <ele>103</ele>
        <time>2024-02-11T09:39:42Z</time>
      </trkpt>
      <trkpt lat="46.56682" lon="0.66404">
        <ele>103.2</ele>
        <time>2024-02-11T09:39:45Z</time>
      </trkpt>
      <trkpt lat="46.56684" lon="0.66399">
        <ele>103.4</ele>
        <time>2024-02-11T09:39:48Z</time>
      </trkpt>
      <trkpt lat="46.5669" lon="0.66389">
        <ele>103.6</ele>
        <time>2024-02-11T09:39:53Z</time>
      </trkpt>
      <trkpt lat="46.56693" lon="0.66382">
        <ele>104.2</ele>
        <time>2024-02-11T09:39:57Z</time>
      </trkpt>
      <trkpt lat="46.56695" lon="0.66379">
        <ele>104.4</ele>
        <time>2024-02-11T09:40:00Z</time>
      </trkpt>
      <trkpt lat="46.56702" lon="0.66366">
        <ele>104.4</ele>
        <time>2024-02-11T09:40:06Z</time>
      </trkpt>
      <trkpt lat="46.56719" lon="0.66337">
        <ele>105</ele>
        <time>2024-02-11T09:40:15Z</time>
      </trkpt>
      <trkpt lat="46.56726" lon="0.66313">
        <ele>105.2</ele>
        <time>2024-02-11T09:40:21Z</time>
      </trkpt>
      <trkpt lat="46.56727" lon="0.66308">
        <ele>105.4</ele>
        <time>2024-02-11T09:40:22Z</time>
      </trkpt>
      <trkpt lat="46.56729" lon="0.66277">
        <ele>105.6</ele>
        <time>2024-02-11T09:40:29Z</time>
      </trkpt>
      <trkpt lat="46.56731" lon="0.66236">
        <ele>106</ele>
        <time>2024-02-11T09:40:37Z</time>
      </trkpt>
      <trkpt lat="46.56737" lon="0.66204">
        <ele>106</ele>
        <time>2024-02-11T09:40:44Z</time>
      </trkpt>
      <trkpt lat="46.56748" lon="0.66167">
        <ele>106</ele>
        <time>2024-02-11T09:40:52Z</time>
      </trkpt>
      <trkpt lat="46.56764" lon="0.66134">
        <ele>104.6</ele>
        <time>2024-02-11T09:41:00Z</time>
      </trkpt>
      <trkpt lat="46.56775" lon="0.66121">
        <ele>104.2</ele>
        <time>2024-02-11T09:41:04Z</time>
      </trkpt>
      <trkpt lat="46.56785" lon="0.66109">
        <ele>104.2</ele>
        <time>2024-02-11T09:41:08Z</time>
      </trkpt>
      <trkpt lat="46.56805" lon="0.66088">
        <ele>103.6</ele>
        <time>2024-02-11T09:41:16Z</time>
      </trkpt>
      <trkpt lat="46.56814" lon="0.66071">
        <ele>103.6</ele>
        <time>2024-02-11T09:41:22Z</time>
      </trkpt>
      <trkpt lat="46.56813" lon="0.66049">
        <ele>103.4</ele>
        <time>2024-02-11T09:41:28Z</time>
      </trkpt>
      <trkpt lat="46.56813" lon="0.66027">
        <ele>104</ele>
        <time>2024-02-11T09:41:34Z</time>
      </trkpt>
      <trkpt lat="46.56814" lon="0.66002">
        <ele>103.6</ele>
        <time>2024-02-11T09:41:41Z</time>
      </trkpt>
      <trkpt lat="46.56817" lon="0.65978">
        <ele>103.4</ele>
        <time>2024-02-11T09:41:46Z</time>
      </trkpt>
      <trkpt lat="46.56818" lon="0.65958">
        <ele>103.2</ele>
        <time>2024-02-11T09:41:52Z</time>
      </trkpt>
      <trkpt lat="46.56818" lon="0.65954">
        <ele>102.8</ele>
        <time>2024-02-11T09:41:53Z</time>
      </trkpt>
      <trkpt lat="46.56817" lon="0.65941">
        <ele>101.8</ele>
        <time>2024-02-11T09:41:56Z</time>
      </trkpt>
      <trkpt lat="46.56815" lon="0.6593">
        <ele>101</ele>
        <time>2024-02-11T09:41:58Z</time>
      </trkpt>
      <trkpt lat="46.56815" lon="0.65925">
        <ele>100.8</ele>
        <time>2024-02-11T09:41:59Z</time>
      </trkpt>
      <trkpt lat="46.56815" lon="0.65919">
        <ele>99.8</ele>
        <time>2024-02-11T09:42:00Z</time>
      </trkpt>
      <trkpt lat="46.56814" lon="0.65897">
        <ele>98.2</ele>
        <time>2024-02-11T09:42:04Z</time>
      </trkpt>
      <trkpt lat="46.56813" lon="0.6589">
        <ele>97.6</ele>
        <time>2024-02-11T09:42:05Z</time>
      </trkpt>
      <trkpt lat="46.56813" lon="0.65884">
        <ele>97.2</ele>
        <time>2024-02-11T09:42:06Z</time>
      </trkpt>
      <trkpt lat="46.56811" lon="0.65868">
        <ele>96.2</ele>
        <time>2024-02-11T09:42:09Z</time>
      </trkpt>
      <trkpt lat="46.56811" lon="0.65862">
        <ele>96</ele>
        <time>2024-02-11T09:42:10Z</time>
      </trkpt>
      <trkpt lat="46.5681" lon="0.65856">
        <ele>95.8</ele>
        <time>2024-02-11T09:42:11Z</time>
      </trkpt>
      <trkpt lat="46.5681" lon="0.65846">
        <ele>95.6</ele>
        <time>2024-02-11T09:42:12Z</time>
      </trkpt>
      <trkpt lat="46.56804" lon="0.65805">
        <ele>95.8</ele>
        <time>2024-02-11T09:42:17Z</time>
      </trkpt>
      <trkpt lat="46.568" lon="0.65769">
        <ele>97.4</ele>
        <time>2024-02-11T09:42:23Z</time>
      </trkpt>
      <trkpt lat="46.56798" lon="0.65763">
        <ele>97.6</ele>
        <time>2024-02-11T09:42:24Z</time>
      </trkpt>
      <trkpt lat="46.56796" lon="0.65751">
        <ele>98.6</ele>
        <time>2024-02-11T09:42:26Z</time>
      </trkpt>
      <trkpt lat="46.56791" lon="0.65729">
        <ele>99.8</ele>
        <time>2024-02-11T09:42:30Z</time>
      </trkpt>
      <trkpt lat="46.5679" lon="0.6572">
        <ele>99.8</ele>
        <time>2024-02-11T09:42:32Z</time>
      </trkpt>
      <trkpt lat="46.56793" lon="0.65691">
        <ele>100</ele>
        <time>2024-02-11T09:42:38Z</time>
      </trkpt>
      <trkpt lat="46.56804" lon="0.65685">
        <ele>99.2</ele>
        <time>2024-02-11T09:42:42Z</time>
      </trkpt>
      <trkpt lat="46.5682" lon="0.65678">
        <ele>98.8</ele>
        <time>2024-02-11T09:42:48Z</time>
      </trkpt>
      <trkpt lat="46.56826" lon="0.6566">
        <ele>98.2</ele>
        <time>2024-02-11T09:42:53Z</time>
      </trkpt>
      <trkpt lat="46.56829" lon="0.65626">
        <ele>98</ele>
        <time>2024-02-11T09:43:00Z</time>
      </trkpt>
      <trkpt lat="46.5682" lon="0.65601">
        <ele>98.8</ele>
        <time>2024-02-11T09:43:06Z</time>
      </trkpt>
      <trkpt lat="46.5681" lon="0.65563">
        <ele>99.6</ele>
        <time>2024-02-11T09:43:14Z</time>
      </trkpt>
      <trkpt lat="46.568" lon="0.65521">
        <ele>99.4</ele>
        <time>2024-02-11T09:43:22Z</time>
      </trkpt>
      <trkpt lat="46.56791" lon="0.65478">
        <ele>99.4</ele>
        <time>2024-02-11T09:43:29Z</time>
      </trkpt>
      <trkpt lat="46.56787" lon="0.65433">
        <ele>99.2</ele>
        <time>2024-02-11T09:43:36Z</time>
      </trkpt>
      <trkpt lat="46.5678" lon="0.65384">
        <ele>98</ele>
        <time>2024-02-11T09:43:44Z</time>
      </trkpt>
      <trkpt lat="46.56774" lon="0.65368">
        <ele>98</ele>
        <time>2024-02-11T09:43:47Z</time>
      </trkpt>
      <trkpt lat="46.56771" lon="0.65364">
        <ele>97.8</ele>
        <time>2024-02-11T09:43:48Z</time>
      </trkpt>
      <trkpt lat="46.56768" lon="0.65361">
        <ele>97.4</ele>
        <time>2024-02-11T09:43:49Z</time>
      </trkpt>
      <trkpt lat="46.56759" lon="0.65353">
        <ele>96.4</ele>
        <time>2024-02-11T09:43:51Z</time>
      </trkpt>
      <trkpt lat="46.56751" lon="0.65343">
        <ele>95.8</ele>
        <time>2024-02-11T09:43:53Z</time>
      </trkpt>
      <trkpt lat="46.56748" lon="0.65337">
        <ele>95.6</ele>
        <time>2024-02-11T09:43:54Z</time>
      </trkpt>
      <trkpt lat="46.56745" lon="0.6533">
        <ele>95.4</ele>
        <time>2024-02-11T09:43:55Z</time>
      </trkpt>
      <trkpt lat="46.56739" lon="0.65313">
        <ele>94.2</ele>
        <time>2024-02-11T09:43:57Z</time>
      </trkpt>
      <trkpt lat="46.56737" lon="0.65304">
        <ele>93.6</ele>
        <time>2024-02-11T09:43:58Z</time>
      </trkpt>
      <trkpt lat="46.56734" lon="0.65295">
        <ele>93</ele>
        <time>2024-02-11T09:43:59Z</time>
      </trkpt>
      <trkpt lat="46.56731" lon="0.65279">
        <ele>91</ele>
        <time>2024-02-11T09:44:01Z</time>
      </trkpt>
      <trkpt lat="46.5673" lon="0.65272">
        <ele>89.4</ele>
        <time>2024-02-11T09:44:02Z</time>
      </trkpt>
      <trkpt lat="46.56729" lon="0.65267">
        <ele>87.8</ele>
        <time>2024-02-11T09:44:03Z</time>
      </trkpt>
      <trkpt lat="46.56728" lon="0.65263">
        <ele>86.6</ele>
        <time>2024-02-11T09:44:04Z</time>
      </trkpt>
      <trkpt lat="46.56727" lon="0.65257">
        <ele>85.2</ele>
        <time>2024-02-11T09:44:06Z</time>
      </trkpt>
      <trkpt lat="46.56727" lon="0.65255">
        <ele>84.4</ele>
        <time>2024-02-11T09:44:07Z</time>
      </trkpt>
      <trkpt lat="46.56727" lon="0.65252">
        <ele>84</ele>
        <time>2024-02-11T09:44:08Z</time>
      </trkpt>
      <trkpt lat="46.56725" lon="0.65242">
        <ele>83</ele>
        <time>2024-02-11T09:44:12Z</time>
      </trkpt>
      <trkpt lat="46.56724" lon="0.65239">
        <ele>83</ele>
        <time>2024-02-11T09:44:13Z</time>
      </trkpt>
      <trkpt lat="46.56711" lon="0.65213">
        <ele>82.4</ele>
        <time>2024-02-11T09:44:19Z</time>
      </trkpt>
      <trkpt lat="46.56704" lon="0.65196">
        <ele>81.8</ele>
        <time>2024-02-11T09:44:22Z</time>
      </trkpt>
      <trkpt lat="46.56697" lon="0.65176">
        <ele>81.4</ele>
        <time>2024-02-11T09:44:25Z</time>
      </trkpt>
      <trkpt lat="46.56695" lon="0.65169">
        <ele>80.8</ele>
        <time>2024-02-11T09:44:26Z</time>
      </trkpt>
      <trkpt lat="46.56686" lon="0.65138">
        <ele>79.6</ele>
        <time>2024-02-11T09:44:30Z</time>
      </trkpt>
      <trkpt lat="46.56683" lon="0.65119">
        <ele>79</ele>
        <time>2024-02-11T09:44:32Z</time>
      </trkpt>
      <trkpt lat="46.5668" lon="0.65101">
        <ele>77.8</ele>
        <time>2024-02-11T09:44:34Z</time>
      </trkpt>
      <trkpt lat="46.56678" lon="0.65081">
        <ele>76.2</ele>
        <time>2024-02-11T09:44:36Z</time>
      </trkpt>
      <trkpt lat="46.56676" lon="0.6506">
        <ele>74.8</ele>
        <time>2024-02-11T09:44:38Z</time>
      </trkpt>
      <trkpt lat="46.56676" lon="0.65032">
        <ele>73.4</ele>
        <time>2024-02-11T09:44:41Z</time>
      </trkpt>
      <trkpt lat="46.56676" lon="0.65024">
        <ele>72.8</ele>
        <time>2024-02-11T09:44:42Z</time>
      </trkpt>
      <trkpt lat="46.56678" lon="0.65018">
        <ele>71.6</ele>
        <time>2024-02-11T09:44:43Z</time>
      </trkpt>
      <trkpt lat="46.56681" lon="0.65012">
        <ele>70.8</ele>
        <time>2024-02-11T09:44:44Z</time>
      </trkpt>
      <trkpt lat="46.56684" lon="0.65005">
        <ele>70</ele>
        <time>2024-02-11T09:44:45Z</time>
      </trkpt>
      <trkpt lat="46.56687" lon="0.64999">
        <ele>69</ele>
        <time>2024-02-11T09:44:46Z</time>
      </trkpt>
      <trkpt lat="46.5669" lon="0.64993">
        <ele>68</ele>
        <time>2024-02-11T09:44:47Z</time>
      </trkpt>
      <trkpt lat="46.56697" lon="0.64985">
        <ele>66.6</ele>
        <time>2024-02-11T09:44:49Z</time>
      </trkpt>
      <trkpt lat="46.56705" lon="0.64982">
        <ele>66</ele>
        <time>2024-02-11T09:44:51Z</time>
      </trkpt>
      <trkpt lat="46.56709" lon="0.64983">
        <ele>66</ele>
        <time>2024-02-11T09:44:52Z</time>
      </trkpt>
      <trkpt lat="46.56717" lon="0.64986">
        <ele>66</ele>
        <time>2024-02-11T09:44:54Z</time>
      </trkpt>
      <trkpt lat="46.56722" lon="0.64987">
        <ele>66</ele>
        <time>2024-02-11T09:44:55Z</time>
      </trkpt>
      <trkpt lat="46.56733" lon="0.64986">
        <ele>66.2</ele>
        <time>2024-02-11T09:44:58Z</time>
      </trkpt>
      <trkpt lat="46.56735" lon="0.64982">
        <ele>66.2</ele>
        <time>2024-02-11T09:44:59Z</time>
      </trkpt>
      <trkpt lat="46.56749" lon="0.64951">
        <ele>65.6</ele>
        <time>2024-02-11T09:45:05Z</time>
      </trkpt>
      <trkpt lat="46.56751" lon="0.64948">
        <ele>65.4</ele>
        <time>2024-02-11T09:45:06Z</time>
      </trkpt>
      <trkpt lat="46.56753" lon="0.64945">
        <ele>65.4</ele>
        <time>2024-02-11T09:45:07Z</time>
      </trkpt>
      <trkpt lat="46.5676" lon="0.64942">
        <ele>65</ele>
        <time>2024-02-11T09:45:10Z</time>
      </trkpt>
      <trkpt lat="46.56773" lon="0.64933">
        <ele>64.8</ele>
        <time>2024-02-11T09:45:16Z</time>
      </trkpt>
      <trkpt lat="46.56786" lon="0.64929">
        <ele>64.8</ele>
        <time>2024-02-11T09:45:21Z</time>
      </trkpt>
      <trkpt lat="46.568" lon="0.64927">
        <ele>64.6</ele>
        <time>2024-02-11T09:45:25Z</time>
      </trkpt>
      <trkpt lat="46.56818" lon="0.64921">
        <ele>64.8</ele>
        <time>2024-02-11T09:45:31Z</time>
      </trkpt>
      <trkpt lat="46.56821" lon="0.64921">
        <ele>64.8</ele>
        <time>2024-02-11T09:45:33Z</time>
      </trkpt>
      <trkpt lat="46.56825" lon="0.64915">
        <ele>65</ele>
        <time>2024-02-11T09:45:36Z</time>
      </trkpt>
      <trkpt lat="46.56829" lon="0.64911">
        <ele>65</ele>
        <time>2024-02-11T09:45:38Z</time>
      </trkpt>
      <trkpt lat="46.56835" lon="0.64907">
        <ele>64.6</ele>
        <time>2024-02-11T09:45:41Z</time>
      </trkpt>
      <trkpt lat="46.56841" lon="0.64907">
        <ele>64.8</ele>
        <time>2024-02-11T09:45:44Z</time>
      </trkpt>
      <trkpt lat="46.56844" lon="0.64904">
        <ele>65.2</ele>
        <time>2024-02-11T09:45:46Z</time>
      </trkpt>
      <trkpt lat="46.56849" lon="0.649">
        <ele>66</ele>
        <time>2024-02-11T09:45:48Z</time>
      </trkpt>
      <trkpt lat="46.56851" lon="0.64898">
        <ele>67</ele>
        <time>2024-02-11T09:45:51Z</time>
      </trkpt>
      <trkpt lat="46.56855" lon="0.64894">
        <ele>67.4</ele>
        <time>2024-02-11T09:45:56Z</time>
      </trkpt>
      <trkpt lat="46.56859" lon="0.64889">
        <ele>67.8</ele>
        <time>2024-02-11T09:45:59Z</time>
      </trkpt>
      <trkpt lat="46.56864" lon="0.64873">
        <ele>67.4</ele>
        <time>2024-02-11T09:46:05Z</time>
      </trkpt>
      <trkpt lat="46.56866" lon="0.64858">
        <ele>66.8</ele>
        <time>2024-02-11T09:46:11Z</time>
      </trkpt>
      <trkpt lat="46.5687" lon="0.64841">
        <ele>66.4</ele>
        <time>2024-02-11T09:46:17Z</time>
      </trkpt>
      <trkpt lat="46.56871" lon="0.64839">
        <ele>66</ele>
        <time>2024-02-11T09:46:18Z</time>
      </trkpt>
      <trkpt lat="46.56872" lon="0.6484">
        <ele>64.6</ele>
        <time>2024-02-11T09:46:22Z</time>
      </trkpt>
      <trkpt lat="46.56879" lon="0.64838">
        <ele>64.4</ele>
        <time>2024-02-11T09:46:23Z</time>
      </trkpt>
      <trkpt lat="46.56886" lon="0.64837">
        <ele>63.6</ele>
        <time>2024-02-11T09:46:26Z</time>
      </trkpt>
      <trkpt lat="46.56892" lon="0.64829">
        <ele>63.6</ele>
        <time>2024-02-11T09:46:28Z</time>
      </trkpt>
      <trkpt lat="46.56897" lon="0.64824">
        <ele>63.8</ele>
        <time>2024-02-11T09:46:30Z</time>
      </trkpt>
      <trkpt lat="46.56906" lon="0.64817">
        <ele>64.4</ele>
        <time>2024-02-11T09:46:33Z</time>
      </trkpt>
      <trkpt lat="46.56923" lon="0.648">
        <ele>65.8</ele>
        <time>2024-02-11T09:46:39Z</time>
      </trkpt>
      <trkpt lat="46.56929" lon="0.64794">
        <ele>66.2</ele>
        <time>2024-02-11T09:46:41Z</time>
      </trkpt>
      <trkpt lat="46.56943" lon="0.64776">
        <ele>66.6</ele>
        <time>2024-02-11T09:46:47Z</time>
      </trkpt>
      <trkpt lat="46.5695" lon="0.64769">
        <ele>67</ele>
        <time>2024-02-11T09:46:50Z</time>
      </trkpt>
      <trkpt lat="46.5696" lon="0.64761">
        <ele>67.6</ele>
        <time>2024-02-11T09:46:54Z</time>
      </trkpt>
      <trkpt lat="46.56964" lon="0.64761">
        <ele>68</ele>
        <time>2024-02-11T09:46:56Z</time>
      </trkpt>
      <trkpt lat="46.56967" lon="0.6476">
        <ele>68.6</ele>
        <time>2024-02-11T09:46:58Z</time>
      </trkpt>
      <trkpt lat="46.56969" lon="0.64761">
        <ele>69</ele>
        <time>2024-02-11T09:47:00Z</time>
      </trkpt>
      <trkpt lat="46.56969" lon="0.64763">
        <ele>69.4</ele>
        <time>2024-02-11T09:47:01Z</time>
      </trkpt>
      <trkpt lat="46.5697" lon="0.64765">
        <ele>69.8</ele>
        <time>2024-02-11T09:47:03Z</time>
      </trkpt>
      <trkpt lat="46.56967" lon="0.6477">
        <ele>70.2</ele>
        <time>2024-02-11T09:47:06Z</time>
      </trkpt>
      <trkpt lat="46.56966" lon="0.64772">
        <ele>70.4</ele>
        <time>2024-02-11T09:47:07Z</time>
      </trkpt>
      <trkpt lat="46.56963" lon="0.64781">
        <ele>71.8</ele>
        <time>2024-02-11T09:47:12Z</time>
      </trkpt>
      <trkpt lat="46.56962" lon="0.64784">
        <ele>72.4</ele>
        <time>2024-02-11T09:47:15Z</time>
      </trkpt>
      <trkpt lat="46.5696" lon="0.64786">
        <ele>72.8</ele>
        <time>2024-02-11T09:47:17Z</time>
      </trkpt>
      <trkpt lat="46.5696" lon="0.6479">
        <ele>73.4</ele>
        <time>2024-02-11T09:47:20Z</time>
      </trkpt>
      <trkpt lat="46.56957" lon="0.64799">
        <ele>74.2</ele>
        <time>2024-02-11T09:47:23Z</time>
      </trkpt>
      <trkpt lat="46.56954" lon="0.64808">
        <ele>75.2</ele>
        <time>2024-02-11T09:47:26Z</time>
      </trkpt>
      <trkpt lat="46.56953" lon="0.6481">
        <ele>75.4</ele>
        <time>2024-02-11T09:47:27Z</time>
      </trkpt>
      <trkpt lat="46.56953" lon="0.64814">
        <ele>76</ele>
        <time>2024-02-11T09:47:29Z</time>
      </trkpt>
      <trkpt lat="46.56953" lon="0.64815">
        <ele>76.6</ele>
        <time>2024-02-11T09:47:30Z</time>
      </trkpt>
      <trkpt lat="46.56952" lon="0.64817">
        <ele>77</ele>
        <time>2024-02-11T09:47:31Z</time>
      </trkpt>
      <trkpt lat="46.56952" lon="0.64819">
        <ele>77.4</ele>
        <time>2024-02-11T09:47:32Z</time>
      </trkpt>
      <trkpt lat="46.5695" lon="0.64823">
        <ele>77.8</ele>
        <time>2024-02-11T09:47:34Z</time>
      </trkpt>
      <trkpt lat="46.56946" lon="0.64833">
        <ele>79.2</ele>
        <time>2024-02-11T09:47:38Z</time>
      </trkpt>
      <trkpt lat="46.56942" lon="0.64839">
        <ele>80.2</ele>
        <time>2024-02-11T09:47:41Z</time>
      </trkpt>
      <trkpt lat="46.56939" lon="0.64847">
        <ele>81.4</ele>
        <time>2024-02-11T09:47:44Z</time>
      </trkpt>
      <trkpt lat="46.56938" lon="0.64849">
        <ele>81.6</ele>
        <time>2024-02-11T09:47:45Z</time>
      </trkpt>
      <trkpt lat="46.56935" lon="0.64853">
        <ele>82.4</ele>
        <time>2024-02-11T09:47:47Z</time>
      </trkpt>
      <trkpt lat="46.56932" lon="0.64858">
        <ele>83.6</ele>
        <time>2024-02-11T09:47:51Z</time>
      </trkpt>
      <trkpt lat="46.56932" lon="0.64857">
        <ele>84</ele>
        <time>2024-02-11T09:47:54Z</time>
      </trkpt>
      <trkpt lat="46.56934" lon="0.64857">
        <ele>84.8</ele>
        <time>2024-02-11T09:47:57Z</time>
      </trkpt>
      <trkpt lat="46.56936" lon="0.64858">
        <ele>85.2</ele>
        <time>2024-02-11T09:47:59Z</time>
      </trkpt>
      <trkpt lat="46.56938" lon="0.64862">
        <ele>85.8</ele>
        <time>2024-02-11T09:48:02Z</time>
      </trkpt>
      <trkpt lat="46.5694" lon="0.64868">
        <ele>87.2</ele>
        <time>2024-02-11T09:48:05Z</time>
      </trkpt>
      <trkpt lat="46.56942" lon="0.64875">
        <ele>88.2</ele>
        <time>2024-02-11T09:48:08Z</time>
      </trkpt>
      <trkpt lat="46.56943" lon="0.64881">
        <ele>89</ele>
        <time>2024-02-11T09:48:10Z</time>
      </trkpt>
      <trkpt lat="46.56944" lon="0.64885">
        <ele>90</ele>
        <time>2024-02-11T09:48:12Z</time>
      </trkpt>
      <trkpt lat="46.56945" lon="0.64887">
        <ele>90</ele>
        <time>2024-02-11T09:48:13Z</time>
      </trkpt>
      <trkpt lat="46.56946" lon="0.64888">
        <ele>90.4</ele>
        <time>2024-02-11T09:48:14Z</time>
      </trkpt>
      <trkpt lat="46.56949" lon="0.64894">
        <ele>91</ele>
        <time>2024-02-11T09:48:17Z</time>
      </trkpt>
      <trkpt lat="46.56949" lon="0.649">
        <ele>91.4</ele>
        <time>2024-02-11T09:48:19Z</time>
      </trkpt>
      <trkpt lat="46.56949" lon="0.64907">
        <ele>92.4</ele>
        <time>2024-02-11T09:48:22Z</time>
      </trkpt>
      <trkpt lat="46.5695" lon="0.64916">
        <ele>93.6</ele>
        <time>2024-02-11T09:48:26Z</time>
      </trkpt>
      <trkpt lat="46.56949" lon="0.64918">
        <ele>93.8</ele>
        <time>2024-02-11T09:48:28Z</time>
      </trkpt>
      <trkpt lat="46.56949" lon="0.64917">
        <ele>94.4</ele>
        <time>2024-02-11T09:48:30Z</time>
      </trkpt>
      <trkpt lat="46.56949" lon="0.64915">
        <ele>94.8</ele>
        <time>2024-02-11T09:48:31Z</time>
      </trkpt>
      <trkpt lat="46.56945" lon="0.64902">
        <ele>95.2</ele>
        <time>2024-02-11T09:48:36Z</time>
      </trkpt>
      <trkpt lat="46.56943" lon="0.64894">
        <ele>95.4</ele>
        <time>2024-02-11T09:48:40Z</time>
      </trkpt>
      <trkpt lat="46.56944" lon="0.64894">
        <ele>95.4</ele>
        <time>2024-02-11T09:48:41Z</time>
      </trkpt>
      <trkpt lat="46.56945" lon="0.64894">
        <ele>95.6</ele>
        <time>2024-02-11T09:48:42Z</time>
      </trkpt>
      <trkpt lat="46.56947" lon="0.64896">
        <ele>95.8</ele>
        <time>2024-02-11T09:48:44Z</time>
      </trkpt>
      <trkpt lat="46.56949" lon="0.64896">
        <ele>96</ele>
        <time>2024-02-11T09:48:45Z</time>
      </trkpt>
      <trkpt lat="46.56963" lon="0.64894">
        <ele>96.6</ele>
        <time>2024-02-11T09:48:52Z</time>
      </trkpt>
      <trkpt lat="46.56971" lon="0.64891">
        <ele>96.8</ele>
        <time>2024-02-11T09:48:56Z</time>
      </trkpt>
      <trkpt lat="46.56979" lon="0.6489">
        <ele>97.6</ele>
        <time>2024-02-11T09:49:00Z</time>
      </trkpt>
      <trkpt lat="46.56983" lon="0.6489">
        <ele>98</ele>
        <time>2024-02-11T09:49:02Z</time>
      </trkpt>
      <trkpt lat="46.56991" lon="0.64889">
        <ele>99</ele>
        <time>2024-02-11T09:49:06Z</time>
      </trkpt>
      <trkpt lat="46.56993" lon="0.6489">
        <ele>99.2</ele>
        <time>2024-02-11T09:49:07Z</time>
      </trkpt>
      <trkpt lat="46.57007" lon="0.64888">
        <ele>100</ele>
        <time>2024-02-11T09:49:13Z</time>
      </trkpt>
      <trkpt lat="46.57013" lon="0.64887">
        <ele>100.4</ele>
        <time>2024-02-11T09:49:15Z</time>
      </trkpt>
      <trkpt lat="46.57016" lon="0.64888">
        <ele>100.6</ele>
        <time>2024-02-11T09:49:17Z</time>
      </trkpt>
      <trkpt lat="46.57019" lon="0.6489">
        <ele>101</ele>
        <time>2024-02-11T09:49:19Z</time>
      </trkpt>
      <trkpt lat="46.57021" lon="0.64891">
        <ele>101.2</ele>
        <time>2024-02-11T09:49:20Z</time>
      </trkpt>
      <trkpt lat="46.57026" lon="0.649">
        <ele>101.6</ele>
        <time>2024-02-11T09:49:24Z</time>
      </trkpt>
      <trkpt lat="46.57029" lon="0.649">
        <ele>101.6</ele>
        <time>2024-02-11T09:49:25Z</time>
      </trkpt>
      <trkpt lat="46.57031" lon="0.64902">
        <ele>101.6</ele>
        <time>2024-02-11T09:49:27Z</time>
      </trkpt>
      <trkpt lat="46.57032" lon="0.64902">
        <ele>101.6</ele>
        <time>2024-02-11T09:49:28Z</time>
      </trkpt>
      <trkpt lat="46.57046" lon="0.64904">
        <ele>101.4</ele>
        <time>2024-02-11T09:49:32Z</time>
      </trkpt>
      <trkpt lat="46.5707" lon="0.64908">
        <ele>100.6</ele>
        <time>2024-02-11T09:49:38Z</time>
      </trkpt>
      <trkpt lat="46.57085" lon="0.6491">
        <ele>100.2</ele>
        <time>2024-02-11T09:49:42Z</time>
      </trkpt>
      <trkpt lat="46.57089" lon="0.64909">
        <ele>100</ele>
        <time>2024-02-11T09:49:44Z</time>
      </trkpt>
      <trkpt lat="46.57093" lon="0.64897">
        <ele>100.6</ele>
        <time>2024-02-11T09:49:48Z</time>
      </trkpt>
      <trkpt lat="46.57095" lon="0.64886">
        <ele>101.2</ele>
        <time>2024-02-11T09:49:51Z</time>
      </trkpt>
      <trkpt lat="46.57097" lon="0.64883">
        <ele>101.8</ele>
        <time>2024-02-11T09:49:53Z</time>
      </trkpt>
      <trkpt lat="46.57098" lon="0.64882">
        <ele>102</ele>
        <time>2024-02-11T09:49:54Z</time>
      </trkpt>
      <trkpt lat="46.57103" lon="0.64882">
        <ele>102.4</ele>
        <time>2024-02-11T09:49:56Z</time>
      </trkpt>
      <trkpt lat="46.57113" lon="0.64884">
        <ele>103.2</ele>
        <time>2024-02-11T09:50:00Z</time>
      </trkpt>
      <trkpt lat="46.57115" lon="0.64884">
        <ele>103.8</ele>
        <time>2024-02-11T09:50:01Z</time>
      </trkpt>
      <trkpt lat="46.57121" lon="0.64883">
        <ele>104.8</ele>
        <time>2024-02-11T09:50:04Z</time>
      </trkpt>
      <trkpt lat="46.57122" lon="0.6488">
        <ele>105</ele>
        <time>2024-02-11T09:50:05Z</time>
      </trkpt>
      <trkpt lat="46.57127" lon="0.6486">
        <ele>105.8</ele>
        <time>2024-02-11T09:50:11Z</time>
      </trkpt>
      <trkpt lat="46.57127" lon="0.64855">
        <ele>106</ele>
        <time>2024-02-11T09:50:12Z</time>
      </trkpt>
      <trkpt lat="46.57129" lon="0.64838">
        <ele>107</ele>
        <time>2024-02-11T09:50:16Z</time>
      </trkpt>
      <trkpt lat="46.57129" lon="0.64834">
        <ele>107.2</ele>
        <time>2024-02-11T09:50:18Z</time>
      </trkpt>
      <trkpt lat="46.5713" lon="0.64833">
        <ele>107.4</ele>
        <time>2024-02-11T09:50:19Z</time>
      </trkpt>
      <trkpt lat="46.5713" lon="0.64833">
        <ele>108.4</ele>
        <time>2024-02-11T09:50:20Z</time>
      </trkpt>
      <trkpt lat="46.5713" lon="0.64832">
        <ele>108.6</ele>
        <time>2024-02-11T09:50:23Z</time>
      </trkpt>
      <trkpt lat="46.57131" lon="0.64835">
        <ele>108.6</ele>
        <time>2024-02-11T09:50:24Z</time>
      </trkpt>
      <trkpt lat="46.5713" lon="0.64836">
        <ele>108</ele>
        <time>2024-02-11T09:50:27Z</time>
      </trkpt>
      <trkpt lat="46.57128" lon="0.64836">
        <ele>107.6</ele>
        <time>2024-02-11T09:50:28Z</time>
      </trkpt>
      <trkpt lat="46.57123" lon="0.64836">
        <ele>107.4</ele>
        <time>2024-02-11T09:50:30Z</time>
      </trkpt>
      <trkpt lat="46.57116" lon="0.64833">
        <ele>106.6</ele>
        <time>2024-02-11T09:50:33Z</time>
      </trkpt>
      <trkpt lat="46.57113" lon="0.64828">
        <ele>106.2</ele>
        <time>2024-02-11T09:50:35Z</time>
      </trkpt>
      <trkpt lat="46.5711" lon="0.64817">
        <ele>106.2</ele>
        <time>2024-02-11T09:50:38Z</time>
      </trkpt>
      <trkpt lat="46.57107" lon="0.648">
        <ele>107.4</ele>
        <time>2024-02-11T09:50:43Z</time>
      </trkpt>
      <trkpt lat="46.57107" lon="0.64795">
        <ele>107.8</ele>
        <time>2024-02-11T09:50:45Z</time>
      </trkpt>
      <trkpt lat="46.5711" lon="0.64783">
        <ele>108.6</ele>
        <time>2024-02-11T09:50:49Z</time>
      </trkpt>
      <trkpt lat="46.57111" lon="0.64781">
        <ele>108.8</ele>
        <time>2024-02-11T09:50:50Z</time>
      </trkpt>
      <trkpt lat="46.57119" lon="0.6477">
        <ele>109.6</ele>
        <time>2024-02-11T09:50:53Z</time>
      </trkpt>
      <trkpt lat="46.57122" lon="0.64766">
        <ele>110</ele>
        <time>2024-02-11T09:50:54Z</time>
      </trkpt>
      <trkpt lat="46.57135" lon="0.64748">
        <ele>111</ele>
        <time>2024-02-11T09:50:58Z</time>
      </trkpt>
      <trkpt lat="46.57143" lon="0.6474">
        <ele>111.2</ele>
        <time>2024-02-11T09:51:00Z</time>
      </trkpt>
      <trkpt lat="46.57157" lon="0.64729">
        <ele>111.4</ele>
        <time>2024-02-11T09:51:04Z</time>
      </trkpt>
      <trkpt lat="46.57167" lon="0.64722">
        <ele>111.6</ele>
        <time>2024-02-11T09:51:07Z</time>
      </trkpt>
      <trkpt lat="46.57182" lon="0.64713">
        <ele>112.2</ele>
        <time>2024-02-11T09:51:11Z</time>
      </trkpt>
      <trkpt lat="46.57192" lon="0.64704">
        <ele>112.8</ele>
        <time>2024-02-11T09:51:14Z</time>
      </trkpt>
      <trkpt lat="46.57196" lon="0.64701">
        <ele>112.8</ele>
        <time>2024-02-11T09:51:15Z</time>
      </trkpt>
      <trkpt lat="46.57207" lon="0.6469">
        <ele>113.2</ele>
        <time>2024-02-11T09:51:18Z</time>
      </trkpt>
      <trkpt lat="46.57215" lon="0.64684">
        <ele>113.6</ele>
        <time>2024-02-11T09:51:20Z</time>
      </trkpt>
      <trkpt lat="46.57223" lon="0.64678">
        <ele>113.6</ele>
        <time>2024-02-11T09:51:22Z</time>
      </trkpt>
      <trkpt lat="46.57236" lon="0.64669">
        <ele>114</ele>
        <time>2024-02-11T09:51:26Z</time>
      </trkpt>
      <trkpt lat="46.57247" lon="0.64663">
        <ele>114.2</ele>
        <time>2024-02-11T09:51:29Z</time>
      </trkpt>
      <trkpt lat="46.57265" lon="0.64654">
        <ele>114.8</ele>
        <time>2024-02-11T09:51:33Z</time>
      </trkpt>
      <trkpt lat="46.57294" lon="0.64643">
        <ele>115</ele>
        <time>2024-02-11T09:51:40Z</time>
      </trkpt>
      <trkpt lat="46.57301" lon="0.6464">
        <ele>115.2</ele>
        <time>2024-02-11T09:51:44Z</time>
      </trkpt>
      <trkpt lat="46.57301" lon="0.64639">
        <ele>115.2</ele>
        <time>2024-02-11T09:51:45Z</time>
      </trkpt>
      <trkpt lat="46.57301" lon="0.64639">
        <ele>115.2</ele>
        <time>2024-02-11T09:51:46Z</time>
      </trkpt>
      <trkpt lat="46.57301" lon="0.64638">
        <ele>115.2</ele>
        <time>2024-02-11T09:51:48Z</time>
      </trkpt>
      <trkpt lat="46.57301" lon="0.64637">
        <ele>115</ele>
        <time>2024-02-11T09:51:55Z</time>
      </trkpt>
      <trkpt lat="46.57298" lon="0.64629">
        <ele>115.4</ele>
        <time>2024-02-11T09:52:07Z</time>
      </trkpt>
      <trkpt lat="46.57292" lon="0.6461">
        <ele>114.6</ele>
        <time>2024-02-11T09:52:11Z</time>
      </trkpt>
      <trkpt lat="46.5729" lon="0.64602">
        <ele>113.6</ele>
        <time>2024-02-11T09:52:12Z</time>
      </trkpt>
      <trkpt lat="46.57285" lon="0.64587">
        <ele>112.6</ele>
        <time>2024-02-11T09:52:14Z</time>
      </trkpt>
      <trkpt lat="46.57279" lon="0.64571">
        <ele>111.4</ele>
        <time>2024-02-11T09:52:16Z</time>
      </trkpt>
      <trkpt lat="46.57276" lon="0.64563">
        <ele>110.4</ele>
        <time>2024-02-11T09:52:17Z</time>
      </trkpt>
      <trkpt lat="46.57274" lon="0.64554">
        <ele>108.4</ele>
        <time>2024-02-11T09:52:18Z</time>
      </trkpt>
      <trkpt lat="46.57271" lon="0.64547">
        <ele>106.8</ele>
        <time>2024-02-11T09:52:19Z</time>
      </trkpt>
      <trkpt lat="46.57267" lon="0.64534">
        <ele>105.2</ele>
        <time>2024-02-11T09:52:21Z</time>
      </trkpt>
      <trkpt lat="46.57261" lon="0.64522">
        <ele>103.2</ele>
        <time>2024-02-11T09:52:23Z</time>
      </trkpt>
      <trkpt lat="46.57258" lon="0.64517">
        <ele>102</ele>
        <time>2024-02-11T09:52:24Z</time>
      </trkpt>
      <trkpt lat="46.57255" lon="0.64513">
        <ele>100.6</ele>
        <time>2024-02-11T09:52:25Z</time>
      </trkpt>
      <trkpt lat="46.57252" lon="0.64509">
        <ele>98.8</ele>
        <time>2024-02-11T09:52:26Z</time>
      </trkpt>
      <trkpt lat="46.57248" lon="0.64499">
        <ele>97.2</ele>
        <time>2024-02-11T09:52:28Z</time>
      </trkpt>
      <trkpt lat="46.57246" lon="0.64493">
        <ele>95.8</ele>
        <time>2024-02-11T09:52:29Z</time>
      </trkpt>
      <trkpt lat="46.57244" lon="0.64489">
        <ele>94</ele>
        <time>2024-02-11T09:52:30Z</time>
      </trkpt>
      <trkpt lat="46.57242" lon="0.64484">
        <ele>91.8</ele>
        <time>2024-02-11T09:52:31Z</time>
      </trkpt>
      <trkpt lat="46.5724" lon="0.64481">
        <ele>90.6</ele>
        <time>2024-02-11T09:52:32Z</time>
      </trkpt>
      <trkpt lat="46.57239" lon="0.64478">
        <ele>89.6</ele>
        <time>2024-02-11T09:52:33Z</time>
      </trkpt>
      <trkpt lat="46.57237" lon="0.64476">
        <ele>87.8</ele>
        <time>2024-02-11T09:52:34Z</time>
      </trkpt>
      <trkpt lat="46.57236" lon="0.64473">
        <ele>86.4</ele>
        <time>2024-02-11T09:52:35Z</time>
      </trkpt>
      <trkpt lat="46.57235" lon="0.64472">
        <ele>85.4</ele>
        <time>2024-02-11T09:52:36Z</time>
      </trkpt>
      <trkpt lat="46.57234" lon="0.6447">
        <ele>84</ele>
        <time>2024-02-11T09:52:37Z</time>
      </trkpt>
      <trkpt lat="46.57232" lon="0.64467">
        <ele>82.6</ele>
        <time>2024-02-11T09:52:38Z</time>
      </trkpt>
      <trkpt lat="46.5723" lon="0.64464">
        <ele>81.6</ele>
        <time>2024-02-11T09:52:39Z</time>
      </trkpt>
      <trkpt lat="46.57226" lon="0.64457">
        <ele>80</ele>
        <time>2024-02-11T09:52:41Z</time>
      </trkpt>
      <trkpt lat="46.57226" lon="0.64457">
        <ele>78.6</ele>
        <time>2024-02-11T09:52:42Z</time>
      </trkpt>
      <trkpt lat="46.57221" lon="0.64449">
        <ele>76.8</ele>
        <time>2024-02-11T09:52:44Z</time>
      </trkpt>
      <trkpt lat="46.57221" lon="0.64447">
        <ele>75.6</ele>
        <time>2024-02-11T09:52:45Z</time>
      </trkpt>
      <trkpt lat="46.57221" lon="0.64446">
        <ele>74.2</ele>
        <time>2024-02-11T09:52:46Z</time>
      </trkpt>
      <trkpt lat="46.57221" lon="0.64445">
        <ele>73</ele>
        <time>2024-02-11T09:52:47Z</time>
      </trkpt>
      <trkpt lat="46.57221" lon="0.64443">
        <ele>71.6</ele>
        <time>2024-02-11T09:52:49Z</time>
      </trkpt>
      <trkpt lat="46.57221" lon="0.64443">
        <ele>70.8</ele>
        <time>2024-02-11T09:52:51Z</time>
      </trkpt>
      <trkpt lat="46.57221" lon="0.64442">
        <ele>70.6</ele>
        <time>2024-02-11T09:52:52Z</time>
      </trkpt>
      <trkpt lat="46.57219" lon="0.64436">
        <ele>69.6</ele>
        <time>2024-02-11T09:52:57Z</time>
      </trkpt>
      <trkpt lat="46.57219" lon="0.64435">
        <ele>69.2</ele>
        <time>2024-02-11T09:52:58Z</time>
      </trkpt>
      <trkpt lat="46.57218" lon="0.64432">
        <ele>68.8</ele>
        <time>2024-02-11T09:53:00Z</time>
      </trkpt>
      <trkpt lat="46.57217" lon="0.64432">
        <ele>68.2</ele>
        <time>2024-02-11T09:53:01Z</time>
      </trkpt>
      <trkpt lat="46.57216" lon="0.6443">
        <ele>67.4</ele>
        <time>2024-02-11T09:53:03Z</time>
      </trkpt>
      <trkpt lat="46.57215" lon="0.64428">
        <ele>66.8</ele>
        <time>2024-02-11T09:53:04Z</time>
      </trkpt>
      <trkpt lat="46.57215" lon="0.64426">
        <ele>66.2</ele>
        <time>2024-02-11T09:53:06Z</time>
      </trkpt>
      <trkpt lat="46.57214" lon="0.64424">
        <ele>65.8</ele>
        <time>2024-02-11T09:53:07Z</time>
      </trkpt>
      <trkpt lat="46.57215" lon="0.64418">
        <ele>64.6</ele>
        <time>2024-02-11T09:53:10Z</time>
      </trkpt>
      <trkpt lat="46.57215" lon="0.64417">
        <ele>64.4</ele>
        <time>2024-02-11T09:53:11Z</time>
      </trkpt>
      <trkpt lat="46.57215" lon="0.64416">
        <ele>64</ele>
        <time>2024-02-11T09:53:12Z</time>
      </trkpt>
      <trkpt lat="46.57215" lon="0.64413">
        <ele>64</ele>
        <time>2024-02-11T09:53:14Z</time>
      </trkpt>
      <trkpt lat="46.57216" lon="0.64412">
        <ele>64</ele>
        <time>2024-02-11T09:53:15Z</time>
      </trkpt>
      <trkpt lat="46.57219" lon="0.64399">
        <ele>64</ele>
        <time>2024-02-11T09:53:23Z</time>
      </trkpt>
      <trkpt lat="46.57219" lon="0.64394">
        <ele>63.6</ele>
        <time>2024-02-11T09:53:29Z</time>
      </trkpt>
      <trkpt lat="46.57219" lon="0.64391">
        <ele>63.4</ele>
        <time>2024-02-11T09:53:34Z</time>
      </trkpt>
      <trkpt lat="46.57213" lon="0.64377">
        <ele>63.4</ele>
        <time>2024-02-11T09:53:39Z</time>
      </trkpt>
      <trkpt lat="46.57206" lon="0.64351">
        <ele>62.6</ele>
        <time>2024-02-11T09:53:44Z</time>
      </trkpt>
      <trkpt lat="46.57205" lon="0.64344">
        <ele>62.4</ele>
        <time>2024-02-11T09:53:45Z</time>
      </trkpt>
      <trkpt lat="46.57197" lon="0.64313">
        <ele>61</ele>
        <time>2024-02-11T09:53:49Z</time>
      </trkpt>
      <trkpt lat="46.57195" lon="0.64306">
        <ele>60.8</ele>
        <time>2024-02-11T09:53:50Z</time>
      </trkpt>
      <trkpt lat="46.5719" lon="0.64282">
        <ele>60.2</ele>
        <time>2024-02-11T09:53:54Z</time>
      </trkpt>
      <trkpt lat="46.57189" lon="0.64277">
        <ele>60</ele>
        <time>2024-02-11T09:53:55Z</time>
      </trkpt>
      <trkpt lat="46.57183" lon="0.64259">
        <ele>59.6</ele>
        <time>2024-02-11T09:53:59Z</time>
      </trkpt>
      <trkpt lat="46.57181" lon="0.64244">
        <ele>59</ele>
        <time>2024-02-11T09:54:03Z</time>
      </trkpt>
      <trkpt lat="46.5718" lon="0.64238">
        <ele>58.8</ele>
        <time>2024-02-11T09:54:05Z</time>
      </trkpt>
      <trkpt lat="46.57175" lon="0.64217">
        <ele>58.8</ele>
        <time>2024-02-11T09:54:12Z</time>
      </trkpt>
      <trkpt lat="46.57162" lon="0.64207">
        <ele>58.6</ele>
        <time>2024-02-11T09:54:17Z</time>
      </trkpt>
      <trkpt lat="46.5715" lon="0.64211">
        <ele>58.6</ele>
        <time>2024-02-11T09:54:22Z</time>
      </trkpt>
      <trkpt lat="46.57139" lon="0.64221">
        <ele>58.6</ele>
        <time>2024-02-11T09:54:27Z</time>
      </trkpt>
      <trkpt lat="46.57121" lon="0.64223">
        <ele>58.4</ele>
        <time>2024-02-11T09:54:33Z</time>
      </trkpt>
      <trkpt lat="46.57095" lon="0.64223">
        <ele>58.2</ele>
        <time>2024-02-11T09:54:42Z</time>
      </trkpt>
      <trkpt lat="46.57078" lon="0.64224">
        <ele>58.2</ele>
        <time>2024-02-11T09:54:47Z</time>
      </trkpt>
      <trkpt lat="46.57062" lon="0.64222">
        <ele>58.2</ele>
        <time>2024-02-11T09:54:52Z</time>
      </trkpt>
      <trkpt lat="46.57049" lon="0.64222">
        <ele>58.8</ele>
        <time>2024-02-11T09:54:57Z</time>
      </trkpt>
      <trkpt lat="46.57045" lon="0.64223">
        <ele>58.6</ele>
        <time>2024-02-11T09:54:59Z</time>
      </trkpt>
      <trkpt lat="46.57043" lon="0.64223">
        <ele>58.6</ele>
        <time>2024-02-11T09:55:00Z</time>
      </trkpt>
      <trkpt lat="46.57029" lon="0.64229">
        <ele>58.4</ele>
        <time>2024-02-11T09:55:06Z</time>
      </trkpt>
      <trkpt lat="46.57008" lon="0.64234">
        <ele>58.4</ele>
        <time>2024-02-11T09:55:14Z</time>
      </trkpt>
      <trkpt lat="46.56989" lon="0.6424">
        <ele>58.8</ele>
        <time>2024-02-11T09:55:21Z</time>
      </trkpt>
      <trkpt lat="46.5697" lon="0.64245">
        <ele>59.6</ele>
        <time>2024-02-11T09:55:30Z</time>
      </trkpt>
      <trkpt lat="46.56968" lon="0.64243">
        <ele>59.8</ele>
        <time>2024-02-11T09:55:31Z</time>
      </trkpt>
      <trkpt lat="46.56967" lon="0.64237">
        <ele>60.2</ele>
        <time>2024-02-11T09:55:33Z</time>
      </trkpt>
      <trkpt lat="46.56966" lon="0.64234">
        <ele>60.2</ele>
        <time>2024-02-11T09:55:34Z</time>
      </trkpt>
      <trkpt lat="46.5696" lon="0.64208">
        <ele>60.8</ele>
        <time>2024-02-11T09:55:40Z</time>
      </trkpt>
      <trkpt lat="46.56954" lon="0.64178">
        <ele>61.2</ele>
        <time>2024-02-11T09:55:46Z</time>
      </trkpt>
      <trkpt lat="46.56952" lon="0.64168">
        <ele>61.4</ele>
        <time>2024-02-11T09:55:48Z</time>
      </trkpt>
      <trkpt lat="46.56946" lon="0.64119">
        <ele>61.4</ele>
        <time>2024-02-11T09:55:58Z</time>
      </trkpt>
      <trkpt lat="46.5694" lon="0.64071">
        <ele>61</ele>
        <time>2024-02-11T09:56:08Z</time>
      </trkpt>
      <trkpt lat="46.56936" lon="0.64034">
        <ele>61</ele>
        <time>2024-02-11T09:56:16Z</time>
      </trkpt>
      <trkpt lat="46.56938" lon="0.64021">
        <ele>60.8</ele>
        <time>2024-02-11T09:56:18Z</time>
      </trkpt>
      <trkpt lat="46.56943" lon="0.6401">
        <ele>60.2</ele>
        <time>2024-02-11T09:56:20Z</time>
      </trkpt>
      <trkpt lat="46.56943" lon="0.6401">
        <ele>59.8</ele>
        <time>2024-02-11T09:56:21Z</time>
      </trkpt>
      <trkpt lat="46.56965" lon="0.63982">
        <ele>59</ele>
        <time>2024-02-11T09:56:25Z</time>
      </trkpt>
      <trkpt lat="46.56975" lon="0.63971">
        <ele>58.6</ele>
        <time>2024-02-11T09:56:27Z</time>
      </trkpt>
      <trkpt lat="46.5698" lon="0.63966">
        <ele>58.4</ele>
        <time>2024-02-11T09:56:28Z</time>
      </trkpt>
      <trkpt lat="46.5699" lon="0.63959">
        <ele>58.2</ele>
        <time>2024-02-11T09:56:30Z</time>
      </trkpt>
      <trkpt lat="46.57016" lon="0.6394">
        <ele>57.8</ele>
        <time>2024-02-11T09:56:36Z</time>
      </trkpt>
      <trkpt lat="46.57024" lon="0.63933">
        <ele>57.6</ele>
        <time>2024-02-11T09:56:38Z</time>
      </trkpt>
      <trkpt lat="46.57042" lon="0.63913">
        <ele>57.6</ele>
        <time>2024-02-11T09:56:43Z</time>
      </trkpt>
      <trkpt lat="46.57047" lon="0.63904">
        <ele>57.8</ele>
        <time>2024-02-11T09:56:45Z</time>
      </trkpt>
      <trkpt lat="46.57053" lon="0.6389">
        <ele>58</ele>
        <time>2024-02-11T09:56:48Z</time>
      </trkpt>
      <trkpt lat="46.57058" lon="0.63876">
        <ele>57.8</ele>
        <time>2024-02-11T09:56:51Z</time>
      </trkpt>
      <trkpt lat="46.57061" lon="0.63869">
        <ele>57.8</ele>
        <time>2024-02-11T09:56:53Z</time>
      </trkpt>
      <trkpt lat="46.57062" lon="0.63866">
        <ele>57.8</ele>
        <time>2024-02-11T09:56:54Z</time>
      </trkpt>
      <trkpt lat="46.57066" lon="0.63858">
        <ele>58.2</ele>
        <time>2024-02-11T09:56:56Z</time>
      </trkpt>
      <trkpt lat="46.57072" lon="0.63844">
        <ele>58.4</ele>
        <time>2024-02-11T09:56:59Z</time>
      </trkpt>
      <trkpt lat="46.57077" lon="0.63835">
        <ele>58.6</ele>
        <time>2024-02-11T09:57:01Z</time>
      </trkpt>
      <trkpt lat="46.57084" lon="0.63819">
        <ele>58.8</ele>
        <time>2024-02-11T09:57:05Z</time>
      </trkpt>
      <trkpt lat="46.57084" lon="0.63809">
        <ele>58.8</ele>
        <time>2024-02-11T09:57:07Z</time>
      </trkpt>
      <trkpt lat="46.57082" lon="0.63797">
        <ele>59.4</ele>
        <time>2024-02-11T09:57:09Z</time>
      </trkpt>
      <trkpt lat="46.57079" lon="0.63793">
        <ele>59.4</ele>
        <time>2024-02-11T09:57:10Z</time>
      </trkpt>
      <trkpt lat="46.57076" lon="0.63789">
        <ele>59.6</ele>
        <time>2024-02-11T09:57:11Z</time>
      </trkpt>
      <trkpt lat="46.57073" lon="0.63784">
        <ele>59.8</ele>
        <time>2024-02-11T09:57:12Z</time>
      </trkpt>
      <trkpt lat="46.5707" lon="0.63774">
        <ele>60.6</ele>
        <time>2024-02-11T09:57:14Z</time>
      </trkpt>
      <trkpt lat="46.5707" lon="0.63769">
        <ele>60.8</ele>
        <time>2024-02-11T09:57:15Z</time>
      </trkpt>
      <trkpt lat="46.57065" lon="0.63758">
        <ele>61.4</ele>
        <time>2024-02-11T09:57:18Z</time>
      </trkpt>
      <trkpt lat="46.57061" lon="0.63749">
        <ele>62</ele>
        <time>2024-02-11T09:57:20Z</time>
      </trkpt>
      <trkpt lat="46.57056" lon="0.63728">
        <ele>63.4</ele>
        <time>2024-02-11T09:57:24Z</time>
      </trkpt>
      <trkpt lat="46.57054" lon="0.63717">
        <ele>64</ele>
        <time>2024-02-11T09:57:26Z</time>
      </trkpt>
      <trkpt lat="46.57052" lon="0.63707">
        <ele>64.6</ele>
        <time>2024-02-11T09:57:28Z</time>
      </trkpt>
      <trkpt lat="46.57051" lon="0.63692">
        <ele>65.6</ele>
        <time>2024-02-11T09:57:31Z</time>
      </trkpt>
      <trkpt lat="46.57052" lon="0.63688">
        <ele>65.8</ele>
        <time>2024-02-11T09:57:32Z</time>
      </trkpt>
      <trkpt lat="46.57058" lon="0.63669">
        <ele>66.8</ele>
        <time>2024-02-11T09:57:36Z</time>
      </trkpt>
      <trkpt lat="46.5706" lon="0.63664">
        <ele>67</ele>
        <time>2024-02-11T09:57:37Z</time>
      </trkpt>
      <trkpt lat="46.57073" lon="0.63634">
        <ele>67.4</ele>
        <time>2024-02-11T09:57:43Z</time>
      </trkpt>
      <trkpt lat="46.57082" lon="0.63603">
        <ele>67.8</ele>
        <time>2024-02-11T09:57:49Z</time>
      </trkpt>
      <trkpt lat="46.57081" lon="0.63598">
        <ele>67.6</ele>
        <time>2024-02-11T09:57:50Z</time>
      </trkpt>
      <trkpt lat="46.57075" lon="0.63584">
        <ele>68</ele>
        <time>2024-02-11T09:57:53Z</time>
      </trkpt>
      <trkpt lat="46.5707" lon="0.63574">
        <ele>68.2</ele>
        <time>2024-02-11T09:57:55Z</time>
      </trkpt>
      <trkpt lat="46.57068" lon="0.63569">
        <ele>68.2</ele>
        <time>2024-02-11T09:57:56Z</time>
      </trkpt>
      <trkpt lat="46.57054" lon="0.63546">
        <ele>68.8</ele>
        <time>2024-02-11T09:58:01Z</time>
      </trkpt>
      <trkpt lat="46.57051" lon="0.63534">
        <ele>68.8</ele>
        <time>2024-02-11T09:58:03Z</time>
      </trkpt>
      <trkpt lat="46.57052" lon="0.63521">
        <ele>69</ele>
        <time>2024-02-11T09:58:05Z</time>
      </trkpt>
      <trkpt lat="46.57053" lon="0.63515">
        <ele>69</ele>
        <time>2024-02-11T09:58:06Z</time>
      </trkpt>
      <trkpt lat="46.57063" lon="0.63477">
        <ele>68.6</ele>
        <time>2024-02-11T09:58:12Z</time>
      </trkpt>
      <trkpt lat="46.57077" lon="0.63424">
        <ele>68.8</ele>
        <time>2024-02-11T09:58:20Z</time>
      </trkpt>
      <trkpt lat="46.57091" lon="0.63379">
        <ele>68.6</ele>
        <time>2024-02-11T09:58:27Z</time>
      </trkpt>
      <trkpt lat="46.57108" lon="0.63338">
        <ele>68.6</ele>
        <time>2024-02-11T09:58:34Z</time>
      </trkpt>
      <trkpt lat="46.57135" lon="0.63277">
        <ele>68.8</ele>
        <time>2024-02-11T09:58:44Z</time>
      </trkpt>
      <trkpt lat="46.57149" lon="0.63243">
        <ele>68.8</ele>
        <time>2024-02-11T09:58:50Z</time>
      </trkpt>
      <trkpt lat="46.57157" lon="0.63216">
        <ele>69</ele>
        <time>2024-02-11T09:58:55Z</time>
      </trkpt>
      <trkpt lat="46.57159" lon="0.63211">
        <ele>68.8</ele>
        <time>2024-02-11T09:58:56Z</time>
      </trkpt>
      <trkpt lat="46.5716" lon="0.63206">
        <ele>68.8</ele>
        <time>2024-02-11T09:58:57Z</time>
      </trkpt>
      <trkpt lat="46.57164" lon="0.63197">
        <ele>68.6</ele>
        <time>2024-02-11T09:58:59Z</time>
      </trkpt>
      <trkpt lat="46.57167" lon="0.63193">
        <ele>68.8</ele>
        <time>2024-02-11T09:59:00Z</time>
      </trkpt>
      <trkpt lat="46.57174" lon="0.63184">
        <ele>69</ele>
        <time>2024-02-11T09:59:02Z</time>
      </trkpt>
      <trkpt lat="46.57187" lon="0.63166">
        <ele>69</ele>
        <time>2024-02-11T09:59:06Z</time>
      </trkpt>
      <trkpt lat="46.57194" lon="0.63156">
        <ele>68.8</ele>
        <time>2024-02-11T09:59:08Z</time>
      </trkpt>
      <trkpt lat="46.5721" lon="0.63133">
        <ele>68.8</ele>
        <time>2024-02-11T09:59:12Z</time>
      </trkpt>
      <trkpt lat="46.57219" lon="0.6312">
        <ele>68.8</ele>
        <time>2024-02-11T09:59:14Z</time>
      </trkpt>
      <trkpt lat="46.57235" lon="0.63094">
        <ele>69</ele>
        <time>2024-02-11T09:59:18Z</time>
      </trkpt>
      <trkpt lat="46.57251" lon="0.63063">
        <ele>68.4</ele>
        <time>2024-02-11T09:59:23Z</time>
      </trkpt>
      <trkpt lat="46.5726" lon="0.63045">
        <ele>68.2</ele>
        <time>2024-02-11T09:59:26Z</time>
      </trkpt>
      <trkpt lat="46.57268" lon="0.63033">
        <ele>68.4</ele>
        <time>2024-02-11T09:59:28Z</time>
      </trkpt>
      <trkpt lat="46.57289" lon="0.62984">
        <ele>68.8</ele>
        <time>2024-02-11T09:59:34Z</time>
      </trkpt>
      <trkpt lat="46.57307" lon="0.62937">
        <ele>69</ele>
        <time>2024-02-11T09:59:40Z</time>
      </trkpt>
      <trkpt lat="46.57324" lon="0.62892">
        <ele>69.4</ele>
        <time>2024-02-11T09:59:46Z</time>
      </trkpt>
      <trkpt lat="46.57342" lon="0.62845">
        <ele>69.4</ele>
        <time>2024-02-11T09:59:52Z</time>
      </trkpt>
      <trkpt lat="46.57359" lon="0.62805">
        <ele>70</ele>
        <time>2024-02-11T09:59:57Z</time>
      </trkpt>
      <trkpt lat="46.57364" lon="0.62791">
        <ele>70.2</ele>
        <time>2024-02-11T09:59:59Z</time>
      </trkpt>
      <trkpt lat="46.57386" lon="0.62737">
        <ele>70.6</ele>
        <time>2024-02-11T10:00:06Z</time>
      </trkpt>
      <trkpt lat="46.57395" lon="0.62714">
        <ele>71.2</ele>
        <time>2024-02-11T10:00:09Z</time>
      </trkpt>
      <trkpt lat="46.574" lon="0.62701">
        <ele>71.6</ele>
        <time>2024-02-11T10:00:11Z</time>
      </trkpt>
      <trkpt lat="46.57411" lon="0.62672">
        <ele>71.8</ele>
        <time>2024-02-11T10:00:16Z</time>
      </trkpt>
      <trkpt lat="46.57411" lon="0.62663">
        <ele>71.6</ele>
        <time>2024-02-11T10:00:18Z</time>
      </trkpt>
      <trkpt lat="46.5741" lon="0.62661">
        <ele>71.6</ele>
        <time>2024-02-11T10:00:19Z</time>
      </trkpt>
      <trkpt lat="46.57409" lon="0.62661">
        <ele>71.6</ele>
        <time>2024-02-11T10:00:20Z</time>
      </trkpt>
      <trkpt lat="46.57408" lon="0.62666">
        <ele>71.2</ele>
        <time>2024-02-11T10:00:22Z</time>
      </trkpt>
      <trkpt lat="46.574" lon="0.62684">
        <ele>70.2</ele>
        <time>2024-02-11T10:00:27Z</time>
      </trkpt>
      <trkpt lat="46.57396" lon="0.62694">
        <ele>70</ele>
        <time>2024-02-11T10:00:29Z</time>
      </trkpt>
      <trkpt lat="46.57393" lon="0.62701">
        <ele>69.4</ele>
        <time>2024-02-11T10:00:30Z</time>
      </trkpt>
      <trkpt lat="46.5739" lon="0.62709">
        <ele>69.2</ele>
        <time>2024-02-11T10:00:31Z</time>
      </trkpt>
      <trkpt lat="46.5738" lon="0.62729">
        <ele>68.8</ele>
        <time>2024-02-11T10:00:34Z</time>
      </trkpt>
      <trkpt lat="46.57377" lon="0.62736">
        <ele>68.8</ele>
        <time>2024-02-11T10:00:35Z</time>
      </trkpt>
      <trkpt lat="46.57372" lon="0.62747">
        <ele>68.2</ele>
        <time>2024-02-11T10:00:37Z</time>
      </trkpt>
      <trkpt lat="46.57365" lon="0.62761">
        <ele>67.2</ele>
        <time>2024-02-11T10:00:39Z</time>
      </trkpt>
      <trkpt lat="46.57361" lon="0.62769">
        <ele>67</ele>
        <time>2024-02-11T10:00:40Z</time>
      </trkpt>
      <trkpt lat="46.57357" lon="0.62779">
        <ele>66.6</ele>
        <time>2024-02-11T10:00:41Z</time>
      </trkpt>
      <trkpt lat="46.57356" lon="0.62789">
        <ele>66.2</ele>
        <time>2024-02-11T10:00:42Z</time>
      </trkpt>
      <trkpt lat="46.57355" lon="0.62799">
        <ele>66</ele>
        <time>2024-02-11T10:00:43Z</time>
      </trkpt>
      <trkpt lat="46.57356" lon="0.62808">
        <ele>65.4</ele>
        <time>2024-02-11T10:00:44Z</time>
      </trkpt>
      <trkpt lat="46.57358" lon="0.62816">
        <ele>65.2</ele>
        <time>2024-02-11T10:00:45Z</time>
      </trkpt>
      <trkpt lat="46.57361" lon="0.62823">
        <ele>65</ele>
        <time>2024-02-11T10:00:46Z</time>
      </trkpt>
      <trkpt lat="46.57367" lon="0.62827">
        <ele>64.4</ele>
        <time>2024-02-11T10:00:47Z</time>
      </trkpt>
      <trkpt lat="46.57373" lon="0.62827">
        <ele>63.8</ele>
        <time>2024-02-11T10:00:48Z</time>
      </trkpt>
      <trkpt lat="46.5738" lon="0.62825">
        <ele>63</ele>
        <time>2024-02-11T10:00:50Z</time>
      </trkpt>
      <trkpt lat="46.57381" lon="0.62822">
        <ele>62.8</ele>
        <time>2024-02-11T10:00:51Z</time>
      </trkpt>
      <trkpt lat="46.57382" lon="0.62818">
        <ele>62.8</ele>
        <time>2024-02-11T10:00:52Z</time>
      </trkpt>
      <trkpt lat="46.57384" lon="0.62804">
        <ele>62.6</ele>
        <time>2024-02-11T10:00:55Z</time>
      </trkpt>
      <trkpt lat="46.57386" lon="0.62798">
        <ele>62.6</ele>
        <time>2024-02-11T10:00:56Z</time>
      </trkpt>
      <trkpt lat="46.57388" lon="0.62791">
        <ele>62.8</ele>
        <time>2024-02-11T10:00:57Z</time>
      </trkpt>
      <trkpt lat="46.57398" lon="0.62764">
        <ele>63.2</ele>
        <time>2024-02-11T10:01:01Z</time>
      </trkpt>
      <trkpt lat="46.57412" lon="0.62726">
        <ele>63.6</ele>
        <time>2024-02-11T10:01:08Z</time>
      </trkpt>
      <trkpt lat="46.57419" lon="0.62709">
        <ele>63.8</ele>
        <time>2024-02-11T10:01:11Z</time>
      </trkpt>
      <trkpt lat="46.57427" lon="0.62686">
        <ele>64.2</ele>
        <time>2024-02-11T10:01:15Z</time>
      </trkpt>
      <trkpt lat="46.57447" lon="0.62635">
        <ele>64.8</ele>
        <time>2024-02-11T10:01:23Z</time>
      </trkpt>
      <trkpt lat="46.57465" lon="0.62588">
        <ele>64.4</ele>
        <time>2024-02-11T10:01:30Z</time>
      </trkpt>
      <trkpt lat="46.57482" lon="0.62534">
        <ele>64.4</ele>
        <time>2024-02-11T10:01:38Z</time>
      </trkpt>
      <trkpt lat="46.57502" lon="0.62486">
        <ele>65.2</ele>
        <time>2024-02-11T10:01:45Z</time>
      </trkpt>
      <trkpt lat="46.5753" lon="0.62435">
        <ele>64.8</ele>
        <time>2024-02-11T10:01:52Z</time>
      </trkpt>
      <trkpt lat="46.57559" lon="0.62381">
        <ele>64</ele>
        <time>2024-02-11T10:01:59Z</time>
      </trkpt>
      <trkpt lat="46.57568" lon="0.62366">
        <ele>63.8</ele>
        <time>2024-02-11T10:02:01Z</time>
      </trkpt>
      <trkpt lat="46.57597" lon="0.62321">
        <ele>63.4</ele>
        <time>2024-02-11T10:02:07Z</time>
      </trkpt>
      <trkpt lat="46.57624" lon="0.62282">
        <ele>62.8</ele>
        <time>2024-02-11T10:02:12Z</time>
      </trkpt>
      <trkpt lat="46.57634" lon="0.62266">
        <ele>62.6</ele>
        <time>2024-02-11T10:02:14Z</time>
      </trkpt>
      <trkpt lat="46.57671" lon="0.62205">
        <ele>62.4</ele>
        <time>2024-02-11T10:02:22Z</time>
      </trkpt>
      <trkpt lat="46.57705" lon="0.62152">
        <ele>62.4</ele>
        <time>2024-02-11T10:02:29Z</time>
      </trkpt>
      <trkpt lat="46.57735" lon="0.62109">
        <ele>62.8</ele>
        <time>2024-02-11T10:02:35Z</time>
      </trkpt>
      <trkpt lat="46.5774" lon="0.62104">
        <ele>62.6</ele>
        <time>2024-02-11T10:02:36Z</time>
      </trkpt>
      <trkpt lat="46.57752" lon="0.62099">
        <ele>62.2</ele>
        <time>2024-02-11T10:02:38Z</time>
      </trkpt>
      <trkpt lat="46.57768" lon="0.62107">
        <ele>61.6</ele>
        <time>2024-02-11T10:02:41Z</time>
      </trkpt>
      <trkpt lat="46.57794" lon="0.62121">
        <ele>60.2</ele>
        <time>2024-02-11T10:02:45Z</time>
      </trkpt>
      <trkpt lat="46.578" lon="0.62123">
        <ele>59.8</ele>
        <time>2024-02-11T10:02:46Z</time>
      </trkpt>
      <trkpt lat="46.57805" lon="0.62126">
        <ele>59.8</ele>
        <time>2024-02-11T10:02:47Z</time>
      </trkpt>
      <trkpt lat="46.57812" lon="0.62136">
        <ele>59.4</ele>
        <time>2024-02-11T10:02:49Z</time>
      </trkpt>
      <trkpt lat="46.57815" lon="0.6214">
        <ele>59.4</ele>
        <time>2024-02-11T10:02:50Z</time>
      </trkpt>
      <trkpt lat="46.57822" lon="0.62139">
        <ele>59.2</ele>
        <time>2024-02-11T10:02:52Z</time>
      </trkpt>
      <trkpt lat="46.57826" lon="0.62135">
        <ele>59.2</ele>
        <time>2024-02-11T10:02:53Z</time>
      </trkpt>
      <trkpt lat="46.5783" lon="0.6213">
        <ele>59</ele>
        <time>2024-02-11T10:02:54Z</time>
      </trkpt>
      <trkpt lat="46.57839" lon="0.6212">
        <ele>58.6</ele>
        <time>2024-02-11T10:02:56Z</time>
      </trkpt>
      <trkpt lat="46.57875" lon="0.62077">
        <ele>58.2</ele>
        <time>2024-02-11T10:03:04Z</time>
      </trkpt>
      <trkpt lat="46.5788" lon="0.62071">
        <ele>57.8</ele>
        <time>2024-02-11T10:03:05Z</time>
      </trkpt>
      <trkpt lat="46.57893" lon="0.62056">
        <ele>56.2</ele>
        <time>2024-02-11T10:03:08Z</time>
      </trkpt>
      <trkpt lat="46.57899" lon="0.62045">
        <ele>55.6</ele>
        <time>2024-02-11T10:03:10Z</time>
      </trkpt>
      <trkpt lat="46.57904" lon="0.62036">
        <ele>55.2</ele>
        <time>2024-02-11T10:03:12Z</time>
      </trkpt>
      <trkpt lat="46.5791" lon="0.62023">
        <ele>54.8</ele>
        <time>2024-02-11T10:03:15Z</time>
      </trkpt>
      <trkpt lat="46.57931" lon="0.61981">
        <ele>55.2</ele>
        <time>2024-02-11T10:03:23Z</time>
      </trkpt>
      <trkpt lat="46.57937" lon="0.61971">
        <ele>55</ele>
        <time>2024-02-11T10:03:25Z</time>
      </trkpt>
      <trkpt lat="46.57944" lon="0.61961">
        <ele>54.8</ele>
        <time>2024-02-11T10:03:28Z</time>
      </trkpt>
      <trkpt lat="46.57948" lon="0.6195">
        <ele>54.8</ele>
        <time>2024-02-11T10:03:31Z</time>
      </trkpt>
      <trkpt lat="46.5795" lon="0.61943">
        <ele>54.4</ele>
        <time>2024-02-11T10:03:33Z</time>
      </trkpt>
      <trkpt lat="46.57952" lon="0.61935">
        <ele>54.2</ele>
        <time>2024-02-11T10:03:35Z</time>
      </trkpt>
      <trkpt lat="46.57956" lon="0.61924">
        <ele>54</ele>
        <time>2024-02-11T10:03:38Z</time>
      </trkpt>
      <trkpt lat="46.57962" lon="0.61911">
        <ele>53.6</ele>
        <time>2024-02-11T10:03:43Z</time>
      </trkpt>
      <trkpt lat="46.57971" lon="0.61887">
        <ele>53.6</ele>
        <time>2024-02-11T10:03:50Z</time>
      </trkpt>
      <trkpt lat="46.57976" lon="0.61873">
        <ele>53.8</ele>
        <time>2024-02-11T10:03:56Z</time>
      </trkpt>
      <trkpt lat="46.57978" lon="0.61866">
        <ele>55.2</ele>
        <time>2024-02-11T10:04:00Z</time>
      </trkpt>
      <trkpt lat="46.57979" lon="0.61857">
        <ele>56.4</ele>
        <time>2024-02-11T10:04:04Z</time>
      </trkpt>
      <trkpt lat="46.5798" lon="0.61853">
        <ele>57.4</ele>
        <time>2024-02-11T10:04:06Z</time>
      </trkpt>
      <trkpt lat="46.57981" lon="0.6185">
        <ele>58.4</ele>
        <time>2024-02-11T10:04:08Z</time>
      </trkpt>
      <trkpt lat="46.57981" lon="0.61848">
        <ele>58.8</ele>
        <time>2024-02-11T10:04:09Z</time>
      </trkpt>
      <trkpt lat="46.57981" lon="0.61848">
        <ele>59.2</ele>
        <time>2024-02-11T10:04:10Z</time>
      </trkpt>
      <trkpt lat="46.57982" lon="0.61847">
        <ele>60.4</ele>
        <time>2024-02-11T10:04:12Z</time>
      </trkpt>
      <trkpt lat="46.57983" lon="0.61843">
        <ele>60.6</ele>
        <time>2024-02-11T10:04:18Z</time>
      </trkpt>
      <trkpt lat="46.57988" lon="0.61833">
        <ele>61</ele>
        <time>2024-02-11T10:04:26Z</time>
      </trkpt>
      <trkpt lat="46.57991" lon="0.6183">
        <ele>61.4</ele>
        <time>2024-02-11T10:04:28Z</time>
      </trkpt>
      <trkpt lat="46.57999" lon="0.61824">
        <ele>62.6</ele>
        <time>2024-02-11T10:04:33Z</time>
      </trkpt>
      <trkpt lat="46.58001" lon="0.61821">
        <ele>63.2</ele>
        <time>2024-02-11T10:04:35Z</time>
      </trkpt>
      <trkpt lat="46.58002" lon="0.61819">
        <ele>63.6</ele>
        <time>2024-02-11T10:04:37Z</time>
      </trkpt>
      <trkpt lat="46.58003" lon="0.61818">
        <ele>63.8</ele>
        <time>2024-02-11T10:04:38Z</time>
      </trkpt>
      <trkpt lat="46.58006" lon="0.61813">
        <ele>64.2</ele>
        <time>2024-02-11T10:04:41Z</time>
      </trkpt>
      <trkpt lat="46.58007" lon="0.61812">
        <ele>64.4</ele>
        <time>2024-02-11T10:04:42Z</time>
      </trkpt>
      <trkpt lat="46.58008" lon="0.61809">
        <ele>64.8</ele>
        <time>2024-02-11T10:04:44Z</time>
      </trkpt>
      <trkpt lat="46.58011" lon="0.61804">
        <ele>66</ele>
        <time>2024-02-11T10:04:49Z</time>
      </trkpt>
      <trkpt lat="46.58013" lon="0.618">
        <ele>66.8</ele>
        <time>2024-02-11T10:04:53Z</time>
      </trkpt>
      <trkpt lat="46.58014" lon="0.61799">
        <ele>67</ele>
        <time>2024-02-11T10:04:55Z</time>
      </trkpt>
      <trkpt lat="46.58017" lon="0.61793">
        <ele>67.4</ele>
        <time>2024-02-11T10:04:59Z</time>
      </trkpt>
      <trkpt lat="46.58019" lon="0.61788">
        <ele>68.2</ele>
        <time>2024-02-11T10:05:02Z</time>
      </trkpt>
      <trkpt lat="46.58021" lon="0.61786">
        <ele>68.4</ele>
        <time>2024-02-11T10:05:03Z</time>
      </trkpt>
      <trkpt lat="46.58025" lon="0.61778">
        <ele>69.2</ele>
        <time>2024-02-11T10:05:07Z</time>
      </trkpt>
      <trkpt lat="46.58032" lon="0.61768">
        <ele>69.6</ele>
        <time>2024-02-11T10:05:13Z</time>
      </trkpt>
      <trkpt lat="46.58037" lon="0.6176">
        <ele>70.2</ele>
        <time>2024-02-11T10:05:18Z</time>
      </trkpt>
      <trkpt lat="46.58038" lon="0.61756">
        <ele>70.8</ele>
        <time>2024-02-11T10:05:20Z</time>
      </trkpt>
      <trkpt lat="46.58038" lon="0.61756">
        <ele>71.4</ele>
        <time>2024-02-11T10:05:21Z</time>
      </trkpt>
      <trkpt lat="46.58042" lon="0.61753">
        <ele>71.6</ele>
        <time>2024-02-11T10:05:29Z</time>
      </trkpt>
      <trkpt lat="46.58046" lon="0.61746">
        <ele>71.8</ele>
        <time>2024-02-11T10:05:40Z</time>
      </trkpt>
      <trkpt lat="46.58058" lon="0.61735">
        <ele>72</ele>
        <time>2024-02-11T10:05:47Z</time>
      </trkpt>
      <trkpt lat="46.58067" lon="0.61726">
        <ele>72.2</ele>
        <time>2024-02-11T10:05:51Z</time>
      </trkpt>
      <trkpt lat="46.58072" lon="0.61719">
        <ele>72</ele>
        <time>2024-02-11T10:05:53Z</time>
      </trkpt>
      <trkpt lat="46.58073" lon="0.61716">
        <ele>72</ele>
        <time>2024-02-11T10:05:54Z</time>
      </trkpt>
      <trkpt lat="46.58083" lon="0.61706">
        <ele>72.4</ele>
        <time>2024-02-11T10:05:58Z</time>
      </trkpt>
      <trkpt lat="46.58085" lon="0.61703">
        <ele>72.8</ele>
        <time>2024-02-11T10:05:59Z</time>
      </trkpt>
      <trkpt lat="46.58099" lon="0.61686">
        <ele>73.6</ele>
        <time>2024-02-11T10:06:03Z</time>
      </trkpt>
      <trkpt lat="46.58106" lon="0.61677">
        <ele>73.8</ele>
        <time>2024-02-11T10:06:05Z</time>
      </trkpt>
      <trkpt lat="46.58117" lon="0.6167">
        <ele>74</ele>
        <time>2024-02-11T10:06:09Z</time>
      </trkpt>
      <trkpt lat="46.58123" lon="0.61664">
        <ele>74</ele>
        <time>2024-02-11T10:06:11Z</time>
      </trkpt>
      <trkpt lat="46.58133" lon="0.61651">
        <ele>74</ele>
        <time>2024-02-11T10:06:14Z</time>
      </trkpt>
      <trkpt lat="46.58136" lon="0.61647">
        <ele>73.8</ele>
        <time>2024-02-11T10:06:15Z</time>
      </trkpt>
      <trkpt lat="46.5815" lon="0.6163">
        <ele>73.4</ele>
        <time>2024-02-11T10:06:20Z</time>
      </trkpt>
      <trkpt lat="46.58153" lon="0.61627">
        <ele>73.4</ele>
        <time>2024-02-11T10:06:21Z</time>
      </trkpt>
      <trkpt lat="46.5816" lon="0.61621">
        <ele>73.2</ele>
        <time>2024-02-11T10:06:23Z</time>
      </trkpt>
      <trkpt lat="46.58165" lon="0.61612">
        <ele>73.2</ele>
        <time>2024-02-11T10:06:25Z</time>
      </trkpt>
      <trkpt lat="46.58169" lon="0.61603">
        <ele>73</ele>
        <time>2024-02-11T10:06:27Z</time>
      </trkpt>
      <trkpt lat="46.58172" lon="0.6159">
        <ele>73.2</ele>
        <time>2024-02-11T10:06:30Z</time>
      </trkpt>
      <trkpt lat="46.58181" lon="0.61569">
        <ele>74.8</ele>
        <time>2024-02-11T10:06:35Z</time>
      </trkpt>
      <trkpt lat="46.58183" lon="0.61566">
        <ele>75.2</ele>
        <time>2024-02-11T10:06:36Z</time>
      </trkpt>
      <trkpt lat="46.58195" lon="0.61547">
        <ele>76</ele>
        <time>2024-02-11T10:06:42Z</time>
      </trkpt>
      <trkpt lat="46.58199" lon="0.61536">
        <ele>76.6</ele>
        <time>2024-02-11T10:06:46Z</time>
      </trkpt>
      <trkpt lat="46.58201" lon="0.61529">
        <ele>77</ele>
        <time>2024-02-11T10:06:48Z</time>
      </trkpt>
      <trkpt lat="46.58204" lon="0.61516">
        <ele>77.6</ele>
        <time>2024-02-11T10:06:52Z</time>
      </trkpt>
      <trkpt lat="46.58206" lon="0.6151">
        <ele>78</ele>
        <time>2024-02-11T10:06:54Z</time>
      </trkpt>
      <trkpt lat="46.58209" lon="0.61502">
        <ele>78.8</ele>
        <time>2024-02-11T10:06:58Z</time>
      </trkpt>
      <trkpt lat="46.58211" lon="0.615">
        <ele>79.4</ele>
        <time>2024-02-11T10:06:59Z</time>
      </trkpt>
      <trkpt lat="46.58213" lon="0.61498">
        <ele>80</ele>
        <time>2024-02-11T10:07:00Z</time>
      </trkpt>
      <trkpt lat="46.58216" lon="0.61495">
        <ele>80.4</ele>
        <time>2024-02-11T10:07:02Z</time>
      </trkpt>
      <trkpt lat="46.58226" lon="0.61487">
        <ele>81.6</ele>
        <time>2024-02-11T10:07:07Z</time>
      </trkpt>
      <trkpt lat="46.58229" lon="0.61484">
        <ele>82.2</ele>
        <time>2024-02-11T10:07:09Z</time>
      </trkpt>
      <trkpt lat="46.5824" lon="0.61477">
        <ele>82.6</ele>
        <time>2024-02-11T10:07:14Z</time>
      </trkpt>
      <trkpt lat="46.58242" lon="0.61475">
        <ele>82.8</ele>
        <time>2024-02-11T10:07:15Z</time>
      </trkpt>
      <trkpt lat="46.58251" lon="0.61467">
        <ele>83.8</ele>
        <time>2024-02-11T10:07:20Z</time>
      </trkpt>
      <trkpt lat="46.58257" lon="0.61462">
        <ele>84</ele>
        <time>2024-02-11T10:07:23Z</time>
      </trkpt>
      <trkpt lat="46.58272" lon="0.61446">
        <ele>84.8</ele>
        <time>2024-02-11T10:07:31Z</time>
      </trkpt>
      <trkpt lat="46.58275" lon="0.61443">
        <ele>85</ele>
        <time>2024-02-11T10:07:32Z</time>
      </trkpt>
      <trkpt lat="46.58287" lon="0.61426">
        <ele>86</ele>
        <time>2024-02-11T10:07:37Z</time>
      </trkpt>
      <trkpt lat="46.5829" lon="0.61423">
        <ele>86.2</ele>
        <time>2024-02-11T10:07:38Z</time>
      </trkpt>
      <trkpt lat="46.58303" lon="0.61408">
        <ele>86.8</ele>
        <time>2024-02-11T10:07:44Z</time>
      </trkpt>
      <trkpt lat="46.58317" lon="0.61389">
        <ele>86.8</ele>
        <time>2024-02-11T10:07:50Z</time>
      </trkpt>
      <trkpt lat="46.58325" lon="0.61379">
        <ele>87.2</ele>
        <time>2024-02-11T10:07:53Z</time>
      </trkpt>
      <trkpt lat="46.58336" lon="0.61365">
        <ele>88</ele>
        <time>2024-02-11T10:07:57Z</time>
      </trkpt>
      <trkpt lat="46.5834" lon="0.61359">
        <ele>88.2</ele>
        <time>2024-02-11T10:07:59Z</time>
      </trkpt>
      <trkpt lat="46.58348" lon="0.61346">
        <ele>88.2</ele>
        <time>2024-02-11T10:08:03Z</time>
      </trkpt>
      <trkpt lat="46.58362" lon="0.61328">
        <ele>89.2</ele>
        <time>2024-02-11T10:08:09Z</time>
      </trkpt>
      <trkpt lat="46.58367" lon="0.61318">
        <ele>89.8</ele>
        <time>2024-02-11T10:08:12Z</time>
      </trkpt>
      <trkpt lat="46.58373" lon="0.61307">
        <ele>90.4</ele>
        <time>2024-02-11T10:08:16Z</time>
      </trkpt>
      <trkpt lat="46.58376" lon="0.61303">
        <ele>90.6</ele>
        <time>2024-02-11T10:08:18Z</time>
      </trkpt>
      <trkpt lat="46.58382" lon="0.61288">
        <ele>91.8</ele>
        <time>2024-02-11T10:08:24Z</time>
      </trkpt>
      <trkpt lat="46.58384" lon="0.61286">
        <ele>92</ele>
        <time>2024-02-11T10:08:25Z</time>
      </trkpt>
      <trkpt lat="46.58398" lon="0.61267">
        <ele>92.2</ele>
        <time>2024-02-11T10:08:32Z</time>
      </trkpt>
      <trkpt lat="46.58413" lon="0.61245">
        <ele>92.4</ele>
        <time>2024-02-11T10:08:38Z</time>
      </trkpt>
      <trkpt lat="46.58428" lon="0.61226">
        <ele>92.8</ele>
        <time>2024-02-11T10:08:44Z</time>
      </trkpt>
      <trkpt lat="46.58435" lon="0.61215">
        <ele>94</ele>
        <time>2024-02-11T10:08:48Z</time>
      </trkpt>
      <trkpt lat="46.5844" lon="0.61206">
        <ele>94.4</ele>
        <time>2024-02-11T10:08:52Z</time>
      </trkpt>
      <trkpt lat="46.58454" lon="0.61188">
        <ele>95</ele>
        <time>2024-02-11T10:08:57Z</time>
      </trkpt>
      <trkpt lat="46.58455" lon="0.61185">
        <ele>95</ele>
        <time>2024-02-11T10:08:58Z</time>
      </trkpt>
      <trkpt lat="46.58459" lon="0.61176">
        <ele>96</ele>
        <time>2024-02-11T10:09:01Z</time>
      </trkpt>
      <trkpt lat="46.58468" lon="0.61163">
        <ele>97</ele>
        <time>2024-02-11T10:09:05Z</time>
      </trkpt>
      <trkpt lat="46.5847" lon="0.6116">
        <ele>97.2</ele>
        <time>2024-02-11T10:09:06Z</time>
      </trkpt>
      <trkpt lat="46.58478" lon="0.61145">
        <ele>97.8</ele>
        <time>2024-02-11T10:09:11Z</time>
      </trkpt>
      <trkpt lat="46.58485" lon="0.61137">
        <ele>98.4</ele>
        <time>2024-02-11T10:09:14Z</time>
      </trkpt>
      <trkpt lat="46.5849" lon="0.61131">
        <ele>98.8</ele>
        <time>2024-02-11T10:09:16Z</time>
      </trkpt>
      <trkpt lat="46.58494" lon="0.61125">
        <ele>98.8</ele>
        <time>2024-02-11T10:09:18Z</time>
      </trkpt>
      <trkpt lat="46.58498" lon="0.61117">
        <ele>98.8</ele>
        <time>2024-02-11T10:09:20Z</time>
      </trkpt>
      <trkpt lat="46.58505" lon="0.61105">
        <ele>99.4</ele>
        <time>2024-02-11T10:09:24Z</time>
      </trkpt>
      <trkpt lat="46.58508" lon="0.61099">
        <ele>99.6</ele>
        <time>2024-02-11T10:09:26Z</time>
      </trkpt>
      <trkpt lat="46.58524" lon="0.61087">
        <ele>99.6</ele>
        <time>2024-02-11T10:09:31Z</time>
      </trkpt>
      <trkpt lat="46.58537" lon="0.61074">
        <ele>99</ele>
        <time>2024-02-11T10:09:36Z</time>
      </trkpt>
      <trkpt lat="46.58551" lon="0.61054">
        <ele>99</ele>
        <time>2024-02-11T10:09:42Z</time>
      </trkpt>
      <trkpt lat="46.58555" lon="0.6105">
        <ele>98.6</ele>
        <time>2024-02-11T10:09:46Z</time>
      </trkpt>
      <trkpt lat="46.58563" lon="0.61041">
        <ele>98</ele>
        <time>2024-02-11T10:09:50Z</time>
      </trkpt>
      <trkpt lat="46.58577" lon="0.61024">
        <ele>97.6</ele>
        <time>2024-02-11T10:09:58Z</time>
      </trkpt>
      <trkpt lat="46.58581" lon="0.61021">
        <ele>97.4</ele>
        <time>2024-02-11T10:10:00Z</time>
      </trkpt>
      <trkpt lat="46.58584" lon="0.61015">
        <ele>97.2</ele>
        <time>2024-02-11T10:10:04Z</time>
      </trkpt>
      <trkpt lat="46.58586" lon="0.61012">
        <ele>97</ele>
        <time>2024-02-11T10:10:06Z</time>
      </trkpt>
      <trkpt lat="46.5859" lon="0.61004">
        <ele>97.4</ele>
        <time>2024-02-11T10:10:10Z</time>
      </trkpt>
      <trkpt lat="46.58592" lon="0.61001">
        <ele>97.4</ele>
        <time>2024-02-11T10:10:11Z</time>
      </trkpt>
      <trkpt lat="46.58593" lon="0.60997">
        <ele>97.8</ele>
        <time>2024-02-11T10:10:14Z</time>
      </trkpt>
      <trkpt lat="46.58595" lon="0.60995">
        <ele>98</ele>
        <time>2024-02-11T10:10:15Z</time>
      </trkpt>
      <trkpt lat="46.58596" lon="0.60994">
        <ele>98.2</ele>
        <time>2024-02-11T10:10:16Z</time>
      </trkpt>
      <trkpt lat="46.586" lon="0.60988">
        <ele>98.4</ele>
        <time>2024-02-11T10:10:19Z</time>
      </trkpt>
      <trkpt lat="46.58611" lon="0.60977">
        <ele>98.8</ele>
        <time>2024-02-11T10:10:28Z</time>
      </trkpt>
      <trkpt lat="46.58619" lon="0.60967">
        <ele>98.6</ele>
        <time>2024-02-11T10:10:33Z</time>
      </trkpt>
      <trkpt lat="46.58622" lon="0.60963">
        <ele>98.6</ele>
        <time>2024-02-11T10:10:34Z</time>
      </trkpt>
      <trkpt lat="46.58635" lon="0.60945">
        <ele>98.2</ele>
        <time>2024-02-11T10:10:40Z</time>
      </trkpt>
      <trkpt lat="46.58641" lon="0.60942">
        <ele>98.2</ele>
        <time>2024-02-11T10:10:42Z</time>
      </trkpt>
      <trkpt lat="46.58645" lon="0.60938">
        <ele>98</ele>
        <time>2024-02-11T10:10:44Z</time>
      </trkpt>
      <trkpt lat="46.58655" lon="0.60926">
        <ele>97.4</ele>
        <time>2024-02-11T10:10:48Z</time>
      </trkpt>
      <trkpt lat="46.58657" lon="0.60922">
        <ele>97.4</ele>
        <time>2024-02-11T10:10:49Z</time>
      </trkpt>
      <trkpt lat="46.58664" lon="0.60901">
        <ele>97.8</ele>
        <time>2024-02-11T10:10:55Z</time>
      </trkpt>
      <trkpt lat="46.58665" lon="0.60895">
        <ele>98</ele>
        <time>2024-02-11T10:10:57Z</time>
      </trkpt>
      <trkpt lat="46.5867" lon="0.60891">
        <ele>98.2</ele>
        <time>2024-02-11T10:10:59Z</time>
      </trkpt>
      <trkpt lat="46.58686" lon="0.60883">
        <ele>97.4</ele>
        <time>2024-02-11T10:11:04Z</time>
      </trkpt>
      <trkpt lat="46.58689" lon="0.60881">
        <ele>96.8</ele>
        <time>2024-02-11T10:11:05Z</time>
      </trkpt>
      <trkpt lat="46.58692" lon="0.60876">
        <ele>96.2</ele>
        <time>2024-02-11T10:11:07Z</time>
      </trkpt>
      <trkpt lat="46.58695" lon="0.60872">
        <ele>95.8</ele>
        <time>2024-02-11T10:11:08Z</time>
      </trkpt>
      <trkpt lat="46.58697" lon="0.6087">
        <ele>95.8</ele>
        <time>2024-02-11T10:11:09Z</time>
      </trkpt>
      <trkpt lat="46.58711" lon="0.60855">
        <ele>95.6</ele>
        <time>2024-02-11T10:11:14Z</time>
      </trkpt>
      <trkpt lat="46.58721" lon="0.60834">
        <ele>95.8</ele>
        <time>2024-02-11T10:11:20Z</time>
      </trkpt>
      <trkpt lat="46.58725" lon="0.60821">
        <ele>96.8</ele>
        <time>2024-02-11T10:11:23Z</time>
      </trkpt>
      <trkpt lat="46.58727" lon="0.60819">
        <ele>97.4</ele>
        <time>2024-02-11T10:11:24Z</time>
      </trkpt>
      <trkpt lat="46.58733" lon="0.60817">
        <ele>97.8</ele>
        <time>2024-02-11T10:11:27Z</time>
      </trkpt>
      <trkpt lat="46.58735" lon="0.60816">
        <ele>97.8</ele>
        <time>2024-02-11T10:11:28Z</time>
      </trkpt>
      <trkpt lat="46.58743" lon="0.60806">
        <ele>97.2</ele>
        <time>2024-02-11T10:11:32Z</time>
      </trkpt>
      <trkpt lat="46.58746" lon="0.60804">
        <ele>97</ele>
        <time>2024-02-11T10:11:33Z</time>
      </trkpt>
      <trkpt lat="46.58754" lon="0.60794">
        <ele>97.8</ele>
        <time>2024-02-11T10:11:38Z</time>
      </trkpt>
      <trkpt lat="46.58758" lon="0.6079">
        <ele>98</ele>
        <time>2024-02-11T10:11:39Z</time>
      </trkpt>
      <trkpt lat="46.58774" lon="0.60773">
        <ele>98.8</ele>
        <time>2024-02-11T10:11:44Z</time>
      </trkpt>
      <trkpt lat="46.58787" lon="0.60764">
        <ele>99</ele>
        <time>2024-02-11T10:11:47Z</time>
      </trkpt>
      <trkpt lat="46.58794" lon="0.60759">
        <ele>98.8</ele>
        <time>2024-02-11T10:11:49Z</time>
      </trkpt>
      <trkpt lat="46.58797" lon="0.60755">
        <ele>98.8</ele>
        <time>2024-02-11T10:11:50Z</time>
      </trkpt>
      <trkpt lat="46.58805" lon="0.60744">
        <ele>99</ele>
        <time>2024-02-11T10:11:55Z</time>
      </trkpt>
      <trkpt lat="46.58808" lon="0.60741">
        <ele>99</ele>
        <time>2024-02-11T10:11:56Z</time>
      </trkpt>
      <trkpt lat="46.58811" lon="0.60739">
        <ele>99</ele>
        <time>2024-02-11T10:11:57Z</time>
      </trkpt>
      <trkpt lat="46.58823" lon="0.60724">
        <ele>98.8</ele>
        <time>2024-02-11T10:12:01Z</time>
      </trkpt>
      <trkpt lat="46.58844" lon="0.60705">
        <ele>98.2</ele>
        <time>2024-02-11T10:12:07Z</time>
      </trkpt>
      <trkpt lat="46.58852" lon="0.60697">
        <ele>98</ele>
        <time>2024-02-11T10:12:09Z</time>
      </trkpt>
      <trkpt lat="46.58855" lon="0.60693">
        <ele>98</ele>
        <time>2024-02-11T10:12:10Z</time>
      </trkpt>
      <trkpt lat="46.58865" lon="0.60684">
        <ele>97.2</ele>
        <time>2024-02-11T10:12:12Z</time>
      </trkpt>
      <trkpt lat="46.58877" lon="0.60671">
        <ele>97</ele>
        <time>2024-02-11T10:12:15Z</time>
      </trkpt>
      <trkpt lat="46.58888" lon="0.60659">
        <ele>96.8</ele>
        <time>2024-02-11T10:12:17Z</time>
      </trkpt>
      <trkpt lat="46.58897" lon="0.60648">
        <ele>96.8</ele>
        <time>2024-02-11T10:12:19Z</time>
      </trkpt>
      <trkpt lat="46.58906" lon="0.60638">
        <ele>96.4</ele>
        <time>2024-02-11T10:12:21Z</time>
      </trkpt>
      <trkpt lat="46.58914" lon="0.60627">
        <ele>96.4</ele>
        <time>2024-02-11T10:12:23Z</time>
      </trkpt>
      <trkpt lat="46.58918" lon="0.60621">
        <ele>96.4</ele>
        <time>2024-02-11T10:12:24Z</time>
      </trkpt>
      <trkpt lat="46.5892" lon="0.60616">
        <ele>96.4</ele>
        <time>2024-02-11T10:12:25Z</time>
      </trkpt>
      <trkpt lat="46.58929" lon="0.60598">
        <ele>96.4</ele>
        <time>2024-02-11T10:12:28Z</time>
      </trkpt>
      <trkpt lat="46.5893" lon="0.60594">
        <ele>96.4</ele>
        <time>2024-02-11T10:12:30Z</time>
      </trkpt>
      <trkpt lat="46.5893" lon="0.60593">
        <ele>96.6</ele>
        <time>2024-02-11T10:12:31Z</time>
      </trkpt>
      <trkpt lat="46.58925" lon="0.60592">
        <ele>96.8</ele>
        <time>2024-02-11T10:12:34Z</time>
      </trkpt>
      <trkpt lat="46.58923" lon="0.6059">
        <ele>96.8</ele>
        <time>2024-02-11T10:12:35Z</time>
      </trkpt>
      <trkpt lat="46.58919" lon="0.60588">
        <ele>97</ele>
        <time>2024-02-11T10:12:37Z</time>
      </trkpt>
      <trkpt lat="46.58913" lon="0.60588">
        <ele>97.2</ele>
        <time>2024-02-11T10:12:40Z</time>
      </trkpt>
      <trkpt lat="46.58906" lon="0.60576">
        <ele>97.4</ele>
        <time>2024-02-11T10:12:44Z</time>
      </trkpt>
      <trkpt lat="46.58906" lon="0.60572">
        <ele>97.2</ele>
        <time>2024-02-11T10:12:45Z</time>
      </trkpt>
      <trkpt lat="46.58907" lon="0.60556">
        <ele>97.2</ele>
        <time>2024-02-11T10:12:48Z</time>
      </trkpt>
      <trkpt lat="46.58907" lon="0.60543">
        <ele>97</ele>
        <time>2024-02-11T10:12:50Z</time>
      </trkpt>
      <trkpt lat="46.58904" lon="0.60531">
        <ele>96.6</ele>
        <time>2024-02-11T10:12:52Z</time>
      </trkpt>
      <trkpt lat="46.58897" lon="0.60514">
        <ele>96</ele>
        <time>2024-02-11T10:12:55Z</time>
      </trkpt>
      <trkpt lat="46.5889" lon="0.60502">
        <ele>95.4</ele>
        <time>2024-02-11T10:12:57Z</time>
      </trkpt>
      <trkpt lat="46.58887" lon="0.60496">
        <ele>95.2</ele>
        <time>2024-02-11T10:12:58Z</time>
      </trkpt>
      <trkpt lat="46.58873" lon="0.60485">
        <ele>95</ele>
        <time>2024-02-11T10:13:01Z</time>
      </trkpt>
      <trkpt lat="46.58868" lon="0.60481">
        <ele>94.6</ele>
        <time>2024-02-11T10:13:02Z</time>
      </trkpt>
      <trkpt lat="46.58862" lon="0.60477">
        <ele>94.4</ele>
        <time>2024-02-11T10:13:03Z</time>
      </trkpt>
      <trkpt lat="46.58852" lon="0.60471">
        <ele>94.2</ele>
        <time>2024-02-11T10:13:05Z</time>
      </trkpt>
      <trkpt lat="46.58842" lon="0.60468">
        <ele>94</ele>
        <time>2024-02-11T10:13:07Z</time>
      </trkpt>
      <trkpt lat="46.5883" lon="0.60469">
        <ele>94</ele>
        <time>2024-02-11T10:13:10Z</time>
      </trkpt>
      <trkpt lat="46.58818" lon="0.60471">
        <ele>94.6</ele>
        <time>2024-02-11T10:13:15Z</time>
      </trkpt>
      <trkpt lat="46.58806" lon="0.60472">
        <ele>94.6</ele>
        <time>2024-02-11T10:13:21Z</time>
      </trkpt>
      <trkpt lat="46.58787" lon="0.60479">
        <ele>95.4</ele>
        <time>2024-02-11T10:13:29Z</time>
      </trkpt>
      <trkpt lat="46.58783" lon="0.60482">
        <ele>95.8</ele>
        <time>2024-02-11T10:13:30Z</time>
      </trkpt>
      <trkpt lat="46.58768" lon="0.60491">
        <ele>96.4</ele>
        <time>2024-02-11T10:13:34Z</time>
      </trkpt>
      <trkpt lat="46.58748" lon="0.60496">
        <ele>96.6</ele>
        <time>2024-02-11T10:13:40Z</time>
      </trkpt>
      <trkpt lat="46.58739" lon="0.60496">
        <ele>96.6</ele>
        <time>2024-02-11T10:13:42Z</time>
      </trkpt>
      <trkpt lat="46.5873" lon="0.60498">
        <ele>96.4</ele>
        <time>2024-02-11T10:13:44Z</time>
      </trkpt>
      <trkpt lat="46.58724" lon="0.60499">
        <ele>96.2</ele>
        <time>2024-02-11T10:13:45Z</time>
      </trkpt>
      <trkpt lat="46.5872" lon="0.60501">
        <ele>96.2</ele>
        <time>2024-02-11T10:13:46Z</time>
      </trkpt>
      <trkpt lat="46.58702" lon="0.60509">
        <ele>95.6</ele>
        <time>2024-02-11T10:13:50Z</time>
      </trkpt>
      <trkpt lat="46.58697" lon="0.60512">
        <ele>95.2</ele>
        <time>2024-02-11T10:13:51Z</time>
      </trkpt>
      <trkpt lat="46.58686" lon="0.60514">
        <ele>94.6</ele>
        <time>2024-02-11T10:13:54Z</time>
      </trkpt>
      <trkpt lat="46.58682" lon="0.60515">
        <ele>94.6</ele>
        <time>2024-02-11T10:13:55Z</time>
      </trkpt>
      <trkpt lat="46.58669" lon="0.60517">
        <ele>94.4</ele>
        <time>2024-02-11T10:13:58Z</time>
      </trkpt>
      <trkpt lat="46.58662" lon="0.60519">
        <ele>94</ele>
        <time>2024-02-11T10:14:00Z</time>
      </trkpt>
      <trkpt lat="46.58657" lon="0.60521">
        <ele>94</ele>
        <time>2024-02-11T10:14:02Z</time>
      </trkpt>
      <trkpt lat="46.58653" lon="0.60519">
        <ele>93.8</ele>
        <time>2024-02-11T10:14:04Z</time>
      </trkpt>
      <trkpt lat="46.58652" lon="0.60516">
        <ele>94</ele>
        <time>2024-02-11T10:14:05Z</time>
      </trkpt>
      <trkpt lat="46.58649" lon="0.60508">
        <ele>93.8</ele>
        <time>2024-02-11T10:14:09Z</time>
      </trkpt>
      <trkpt lat="46.58649" lon="0.60505">
        <ele>93.6</ele>
        <time>2024-02-11T10:14:10Z</time>
      </trkpt>
      <trkpt lat="46.5865" lon="0.60502">
        <ele>93.4</ele>
        <time>2024-02-11T10:14:11Z</time>
      </trkpt>
      <trkpt lat="46.58651" lon="0.60501">
        <ele>92</ele>
        <time>2024-02-11T10:14:12Z</time>
      </trkpt>
      <trkpt lat="46.58654" lon="0.605">
        <ele>91.8</ele>
        <time>2024-02-11T10:14:14Z</time>
      </trkpt>
      <trkpt lat="46.58656" lon="0.60497">
        <ele>91</ele>
        <time>2024-02-11T10:14:17Z</time>
      </trkpt>
      <trkpt lat="46.58656" lon="0.60495">
        <ele>90</ele>
        <time>2024-02-11T10:14:19Z</time>
      </trkpt>
      <trkpt lat="46.58656" lon="0.60496">
        <ele>89.6</ele>
        <time>2024-02-11T10:14:20Z</time>
      </trkpt>
      <trkpt lat="46.58659" lon="0.60494">
        <ele>89</ele>
        <time>2024-02-11T10:14:23Z</time>
      </trkpt>
      <trkpt lat="46.5866" lon="0.60493">
        <ele>88.6</ele>
        <time>2024-02-11T10:14:25Z</time>
      </trkpt>
      <trkpt lat="46.58662" lon="0.60491">
        <ele>88.6</ele>
        <time>2024-02-11T10:14:27Z</time>
      </trkpt>
      <trkpt lat="46.5867" lon="0.60477">
        <ele>87.4</ele>
        <time>2024-02-11T10:14:34Z</time>
      </trkpt>
      <trkpt lat="46.58677" lon="0.60469">
        <ele>86</ele>
        <time>2024-02-11T10:14:38Z</time>
      </trkpt>
      <trkpt lat="46.58678" lon="0.60468">
        <ele>86</ele>
        <time>2024-02-11T10:14:39Z</time>
      </trkpt>
      <trkpt lat="46.5868" lon="0.60463">
        <ele>85.6</ele>
        <time>2024-02-11T10:14:41Z</time>
      </trkpt>
      <trkpt lat="46.58685" lon="0.60454">
        <ele>85</ele>
        <time>2024-02-11T10:14:45Z</time>
      </trkpt>
      <trkpt lat="46.58687" lon="0.60451">
        <ele>84.8</ele>
        <time>2024-02-11T10:14:46Z</time>
      </trkpt>
      <trkpt lat="46.58695" lon="0.60439">
        <ele>84.2</ele>
        <time>2024-02-11T10:14:50Z</time>
      </trkpt>
      <trkpt lat="46.58698" lon="0.60434">
        <ele>83.8</ele>
        <time>2024-02-11T10:14:52Z</time>
      </trkpt>
      <trkpt lat="46.58711" lon="0.60421">
        <ele>83</ele>
        <time>2024-02-11T10:14:59Z</time>
      </trkpt>
      <trkpt lat="46.58724" lon="0.60408">
        <ele>82.8</ele>
        <time>2024-02-11T10:15:05Z</time>
      </trkpt>
      <trkpt lat="46.58727" lon="0.60406">
        <ele>82.4</ele>
        <time>2024-02-11T10:15:06Z</time>
      </trkpt>
      <trkpt lat="46.58739" lon="0.60395">
        <ele>82</ele>
        <time>2024-02-11T10:15:12Z</time>
      </trkpt>
      <trkpt lat="46.58744" lon="0.60393">
        <ele>81.6</ele>
        <time>2024-02-11T10:15:15Z</time>
      </trkpt>
      <trkpt lat="46.58746" lon="0.60391">
        <ele>81.4</ele>
        <time>2024-02-11T10:15:16Z</time>
      </trkpt>
      <trkpt lat="46.58752" lon="0.60386">
        <ele>81</ele>
        <time>2024-02-11T10:15:19Z</time>
      </trkpt>
      <trkpt lat="46.58759" lon="0.60382">
        <ele>80.4</ele>
        <time>2024-02-11T10:15:23Z</time>
      </trkpt>
      <trkpt lat="46.58761" lon="0.60381">
        <ele>80.2</ele>
        <time>2024-02-11T10:15:24Z</time>
      </trkpt>
      <trkpt lat="46.58778" lon="0.60374">
        <ele>79.6</ele>
        <time>2024-02-11T10:15:31Z</time>
      </trkpt>
      <trkpt lat="46.5878" lon="0.60374">
        <ele>79.4</ele>
        <time>2024-02-11T10:15:32Z</time>
      </trkpt>
      <trkpt lat="46.58789" lon="0.60368">
        <ele>78.8</ele>
        <time>2024-02-11T10:15:36Z</time>
      </trkpt>
      <trkpt lat="46.58797" lon="0.60363">
        <ele>78.4</ele>
        <time>2024-02-11T10:15:40Z</time>
      </trkpt>
      <trkpt lat="46.58798" lon="0.60362">
        <ele>78.2</ele>
        <time>2024-02-11T10:15:41Z</time>
      </trkpt>
      <trkpt lat="46.58799" lon="0.60362">
        <ele>78</ele>
        <time>2024-02-11T10:15:42Z</time>
      </trkpt>
      <trkpt lat="46.58814" lon="0.60358">
        <ele>78.6</ele>
        <time>2024-02-11T10:15:53Z</time>
      </trkpt>
      <trkpt lat="46.58818" lon="0.60358">
        <ele>79.2</ele>
        <time>2024-02-11T10:15:58Z</time>
      </trkpt>
      <trkpt lat="46.58826" lon="0.60361">
        <ele>80.2</ele>
        <time>2024-02-11T10:16:06Z</time>
      </trkpt>
      <trkpt lat="46.58827" lon="0.60361">
        <ele>80.4</ele>
        <time>2024-02-11T10:16:07Z</time>
      </trkpt>
      <trkpt lat="46.58828" lon="0.60361">
        <ele>80.4</ele>
        <time>2024-02-11T10:16:08Z</time>
      </trkpt>
      <trkpt lat="46.5883" lon="0.60361">
        <ele>80.4</ele>
        <time>2024-02-11T10:16:10Z</time>
      </trkpt>
      <trkpt lat="46.58839" lon="0.60358">
        <ele>79.2</ele>
        <time>2024-02-11T10:16:17Z</time>
      </trkpt>
      <trkpt lat="46.58841" lon="0.60358">
        <ele>79</ele>
        <time>2024-02-11T10:16:18Z</time>
      </trkpt>
      <trkpt lat="46.58843" lon="0.60359">
        <ele>78.8</ele>
        <time>2024-02-11T10:16:19Z</time>
      </trkpt>
      <trkpt lat="46.58848" lon="0.60359">
        <ele>78.2</ele>
        <time>2024-02-11T10:16:22Z</time>
      </trkpt>
      <trkpt lat="46.5885" lon="0.60358">
        <ele>78</ele>
        <time>2024-02-11T10:16:23Z</time>
      </trkpt>
      <trkpt lat="46.58855" lon="0.60355">
        <ele>76.8</ele>
        <time>2024-02-11T10:16:26Z</time>
      </trkpt>
      <trkpt lat="46.5886" lon="0.60352">
        <ele>76.4</ele>
        <time>2024-02-11T10:16:28Z</time>
      </trkpt>
      <trkpt lat="46.58863" lon="0.60351">
        <ele>76.2</ele>
        <time>2024-02-11T10:16:29Z</time>
      </trkpt>
      <trkpt lat="46.58865" lon="0.60351">
        <ele>75.4</ele>
        <time>2024-02-11T10:16:30Z</time>
      </trkpt>
      <trkpt lat="46.58867" lon="0.60351">
        <ele>74</ele>
        <time>2024-02-11T10:16:31Z</time>
      </trkpt>
      <trkpt lat="46.58871" lon="0.60353">
        <ele>72.6</ele>
        <time>2024-02-11T10:16:33Z</time>
      </trkpt>
      <trkpt lat="46.58876" lon="0.60354">
        <ele>71.4</ele>
        <time>2024-02-11T10:16:35Z</time>
      </trkpt>
      <trkpt lat="46.58889" lon="0.60356">
        <ele>70.2</ele>
        <time>2024-02-11T10:16:40Z</time>
      </trkpt>
      <trkpt lat="46.58897" lon="0.60356">
        <ele>70.4</ele>
        <time>2024-02-11T10:16:45Z</time>
      </trkpt>
      <trkpt lat="46.58916" lon="0.60353">
        <ele>71.2</ele>
        <time>2024-02-11T10:16:53Z</time>
      </trkpt>
      <trkpt lat="46.58932" lon="0.60354">
        <ele>72</ele>
        <time>2024-02-11T10:17:02Z</time>
      </trkpt>
      <trkpt lat="46.5894" lon="0.60354">
        <ele>69.8</ele>
        <time>2024-02-11T10:17:05Z</time>
      </trkpt>
      <trkpt lat="46.58946" lon="0.60355">
        <ele>69.2</ele>
        <time>2024-02-11T10:17:07Z</time>
      </trkpt>
      <trkpt lat="46.58948" lon="0.60356">
        <ele>69</ele>
        <time>2024-02-11T10:17:08Z</time>
      </trkpt>
      <trkpt lat="46.5895" lon="0.60357">
        <ele>69</ele>
        <time>2024-02-11T10:17:09Z</time>
      </trkpt>
      <trkpt lat="46.58956" lon="0.60355">
        <ele>69</ele>
        <time>2024-02-11T10:17:13Z</time>
      </trkpt>
      <trkpt lat="46.58969" lon="0.60355">
        <ele>70.6</ele>
        <time>2024-02-11T10:17:23Z</time>
      </trkpt>
      <trkpt lat="46.58969" lon="0.60354">
        <ele>70.8</ele>
        <time>2024-02-11T10:17:25Z</time>
      </trkpt>
      <trkpt lat="46.58969" lon="0.60354">
        <ele>71.2</ele>
        <time>2024-02-11T10:17:26Z</time>
      </trkpt>
      <trkpt lat="46.58966" lon="0.60349">
        <ele>72.4</ele>
        <time>2024-02-11T10:17:31Z</time>
      </trkpt>
      <trkpt lat="46.58965" lon="0.60339">
        <ele>73.6</ele>
        <time>2024-02-11T10:17:35Z</time>
      </trkpt>
      <trkpt lat="46.58964" lon="0.60335">
        <ele>74.2</ele>
        <time>2024-02-11T10:17:37Z</time>
      </trkpt>
      <trkpt lat="46.58966" lon="0.60324">
        <ele>74.8</ele>
        <time>2024-02-11T10:17:41Z</time>
      </trkpt>
      <trkpt lat="46.58967" lon="0.6032">
        <ele>74.8</ele>
        <time>2024-02-11T10:17:42Z</time>
      </trkpt>
      <trkpt lat="46.58972" lon="0.60301">
        <ele>74.8</ele>
        <time>2024-02-11T10:17:47Z</time>
      </trkpt>
      <trkpt lat="46.58973" lon="0.60297">
        <ele>74.8</ele>
        <time>2024-02-11T10:17:48Z</time>
      </trkpt>
      <trkpt lat="46.58971" lon="0.60292">
        <ele>74.8</ele>
        <time>2024-02-11T10:17:50Z</time>
      </trkpt>
      <trkpt lat="46.58967" lon="0.60287">
        <ele>74</ele>
        <time>2024-02-11T10:17:53Z</time>
      </trkpt>
      <trkpt lat="46.58964" lon="0.60286">
        <ele>74.2</ele>
        <time>2024-02-11T10:17:55Z</time>
      </trkpt>
      <trkpt lat="46.58957" lon="0.60289">
        <ele>75.2</ele>
        <time>2024-02-11T10:18:01Z</time>
      </trkpt>
      <trkpt lat="46.58952" lon="0.60289">
        <ele>76</ele>
        <time>2024-02-11T10:18:04Z</time>
      </trkpt>
      <trkpt lat="46.58947" lon="0.60289">
        <ele>77</ele>
        <time>2024-02-11T10:18:07Z</time>
      </trkpt>
      <trkpt lat="46.58946" lon="0.60288">
        <ele>77.2</ele>
        <time>2024-02-11T10:18:08Z</time>
      </trkpt>
      <trkpt lat="46.58939" lon="0.60288">
        <ele>78.4</ele>
        <time>2024-02-11T10:18:12Z</time>
      </trkpt>
      <trkpt lat="46.58937" lon="0.60288">
        <ele>78.4</ele>
        <time>2024-02-11T10:18:13Z</time>
      </trkpt>
      <trkpt lat="46.58933" lon="0.60288">
        <ele>78.8</ele>
        <time>2024-02-11T10:18:16Z</time>
      </trkpt>
      <trkpt lat="46.5893" lon="0.6029">
        <ele>79.4</ele>
        <time>2024-02-11T10:18:19Z</time>
      </trkpt>
      <trkpt lat="46.58928" lon="0.60292">
        <ele>79.8</ele>
        <time>2024-02-11T10:18:21Z</time>
      </trkpt>
      <trkpt lat="46.58925" lon="0.60292">
        <ele>80.6</ele>
        <time>2024-02-11T10:18:23Z</time>
      </trkpt>
      <trkpt lat="46.58922" lon="0.60291">
        <ele>81.2</ele>
        <time>2024-02-11T10:18:25Z</time>
      </trkpt>
      <trkpt lat="46.58921" lon="0.60292">
        <ele>81.4</ele>
        <time>2024-02-11T10:18:26Z</time>
      </trkpt>
      <trkpt lat="46.58915" lon="0.60293">
        <ele>81.4</ele>
        <time>2024-02-11T10:18:30Z</time>
      </trkpt>
      <trkpt lat="46.5891" lon="0.60293">
        <ele>82</ele>
        <time>2024-02-11T10:18:33Z</time>
      </trkpt>
      <trkpt lat="46.58905" lon="0.60292">
        <ele>82.8</ele>
        <time>2024-02-11T10:18:36Z</time>
      </trkpt>
      <trkpt lat="46.58904" lon="0.60291">
        <ele>83.2</ele>
        <time>2024-02-11T10:18:37Z</time>
      </trkpt>
      <trkpt lat="46.58903" lon="0.6029">
        <ele>83.4</ele>
        <time>2024-02-11T10:18:38Z</time>
      </trkpt>
      <trkpt lat="46.58899" lon="0.60286">
        <ele>83.8</ele>
        <time>2024-02-11T10:18:41Z</time>
      </trkpt>
      <trkpt lat="46.58891" lon="0.60284">
        <ele>84.6</ele>
        <time>2024-02-11T10:18:46Z</time>
      </trkpt>
      <trkpt lat="46.58888" lon="0.60282">
        <ele>85.4</ele>
        <time>2024-02-11T10:18:48Z</time>
      </trkpt>
      <trkpt lat="46.58885" lon="0.60281">
        <ele>85.6</ele>
        <time>2024-02-11T10:18:50Z</time>
      </trkpt>
      <trkpt lat="46.58877" lon="0.60279">
        <ele>86.2</ele>
        <time>2024-02-11T10:18:55Z</time>
      </trkpt>
      <trkpt lat="46.58873" lon="0.6028">
        <ele>87</ele>
        <time>2024-02-11T10:18:58Z</time>
      </trkpt>
      <trkpt lat="46.58866" lon="0.60282">
        <ele>88.2</ele>
        <time>2024-02-11T10:19:03Z</time>
      </trkpt>
      <trkpt lat="46.58865" lon="0.60282">
        <ele>88.2</ele>
        <time>2024-02-11T10:19:04Z</time>
      </trkpt>
      <trkpt lat="46.5886" lon="0.60285">
        <ele>89.2</ele>
        <time>2024-02-11T10:19:08Z</time>
      </trkpt>
      <trkpt lat="46.58856" lon="0.60285">
        <ele>89.8</ele>
        <time>2024-02-11T10:19:10Z</time>
      </trkpt>
      <trkpt lat="46.58853" lon="0.60284">
        <ele>90</ele>
        <time>2024-02-11T10:19:12Z</time>
      </trkpt>
      <trkpt lat="46.58852" lon="0.60282">
        <ele>90.2</ele>
        <time>2024-02-11T10:19:13Z</time>
      </trkpt>
      <trkpt lat="46.58841" lon="0.60275">
        <ele>90.8</ele>
        <time>2024-02-11T10:19:18Z</time>
      </trkpt>
      <trkpt lat="46.58833" lon="0.60266">
        <ele>90.2</ele>
        <time>2024-02-11T10:19:23Z</time>
      </trkpt>
      <trkpt lat="46.58831" lon="0.60265">
        <ele>90</ele>
        <time>2024-02-11T10:19:24Z</time>
      </trkpt>
      <trkpt lat="46.58822" lon="0.60252">
        <ele>89.2</ele>
        <time>2024-02-11T10:19:29Z</time>
      </trkpt>
      <trkpt lat="46.58819" lon="0.60249">
        <ele>89</ele>
        <time>2024-02-11T10:19:30Z</time>
      </trkpt>
      <trkpt lat="46.58818" lon="0.60247">
        <ele>89</ele>
        <time>2024-02-11T10:19:31Z</time>
      </trkpt>
      <trkpt lat="46.58814" lon="0.60241">
        <ele>87.6</ele>
        <time>2024-02-11T10:19:33Z</time>
      </trkpt>
      <trkpt lat="46.5881" lon="0.60235">
        <ele>86</ele>
        <time>2024-02-11T10:19:35Z</time>
      </trkpt>
      <trkpt lat="46.58806" lon="0.60229">
        <ele>85</ele>
        <time>2024-02-11T10:19:37Z</time>
      </trkpt>
      <trkpt lat="46.58802" lon="0.60224">
        <ele>84</ele>
        <time>2024-02-11T10:19:39Z</time>
      </trkpt>
      <trkpt lat="46.58799" lon="0.60222">
        <ele>83.8</ele>
        <time>2024-02-11T10:19:40Z</time>
      </trkpt>
      <trkpt lat="46.58787" lon="0.60213">
        <ele>82.6</ele>
        <time>2024-02-11T10:19:44Z</time>
      </trkpt>
      <trkpt lat="46.58784" lon="0.60211">
        <ele>82.6</ele>
        <time>2024-02-11T10:19:45Z</time>
      </trkpt>
      <trkpt lat="46.58775" lon="0.60196">
        <ele>81.6</ele>
        <time>2024-02-11T10:19:49Z</time>
      </trkpt>
      <trkpt lat="46.58774" lon="0.60193">
        <ele>81.2</ele>
        <time>2024-02-11T10:19:50Z</time>
      </trkpt>
      <trkpt lat="46.58774" lon="0.60189">
        <ele>80.2</ele>
        <time>2024-02-11T10:19:51Z</time>
      </trkpt>
      <trkpt lat="46.58772" lon="0.60181">
        <ele>78.2</ele>
        <time>2024-02-11T10:19:53Z</time>
      </trkpt>
      <trkpt lat="46.58773" lon="0.60177">
        <ele>77.2</ele>
        <time>2024-02-11T10:19:54Z</time>
      </trkpt>
      <trkpt lat="46.58772" lon="0.6017">
        <ele>76.4</ele>
        <time>2024-02-11T10:19:55Z</time>
      </trkpt>
      <trkpt lat="46.58772" lon="0.60165">
        <ele>75.6</ele>
        <time>2024-02-11T10:19:56Z</time>
      </trkpt>
      <trkpt lat="46.5877" lon="0.60144">
        <ele>73.8</ele>
        <time>2024-02-11T10:19:59Z</time>
      </trkpt>
      <trkpt lat="46.58771" lon="0.60127">
        <ele>71.6</ele>
        <time>2024-02-11T10:20:02Z</time>
      </trkpt>
      <trkpt lat="46.58772" lon="0.60123">
        <ele>70.6</ele>
        <time>2024-02-11T10:20:03Z</time>
      </trkpt>
      <trkpt lat="46.58774" lon="0.60119">
        <ele>70</ele>
        <time>2024-02-11T10:20:04Z</time>
      </trkpt>
      <trkpt lat="46.58776" lon="0.60112">
        <ele>68.4</ele>
        <time>2024-02-11T10:20:06Z</time>
      </trkpt>
      <trkpt lat="46.58777" lon="0.60106">
        <ele>67.6</ele>
        <time>2024-02-11T10:20:07Z</time>
      </trkpt>
      <trkpt lat="46.58776" lon="0.60102">
        <ele>67.2</ele>
        <time>2024-02-11T10:20:08Z</time>
      </trkpt>
      <trkpt lat="46.58773" lon="0.60087">
        <ele>66.8</ele>
        <time>2024-02-11T10:20:11Z</time>
      </trkpt>
      <trkpt lat="46.58761" lon="0.60067">
        <ele>66.8</ele>
        <time>2024-02-11T10:20:18Z</time>
      </trkpt>
      <trkpt lat="46.58756" lon="0.60053">
        <ele>67</ele>
        <time>2024-02-11T10:20:25Z</time>
      </trkpt>
      <trkpt lat="46.58754" lon="0.60051">
        <ele>67</ele>
        <time>2024-02-11T10:20:27Z</time>
      </trkpt>
      <trkpt lat="46.58747" lon="0.60046">
        <ele>67.2</ele>
        <time>2024-02-11T10:20:31Z</time>
      </trkpt>
      <trkpt lat="46.58737" lon="0.60037">
        <ele>67.4</ele>
        <time>2024-02-11T10:20:39Z</time>
      </trkpt>
      <trkpt lat="46.58731" lon="0.60028">
        <ele>67.4</ele>
        <time>2024-02-11T10:20:47Z</time>
      </trkpt>
      <trkpt lat="46.5873" lon="0.60025">
        <ele>67.4</ele>
        <time>2024-02-11T10:20:49Z</time>
      </trkpt>
      <trkpt lat="46.58727" lon="0.6002">
        <ele>67.4</ele>
        <time>2024-02-11T10:20:53Z</time>
      </trkpt>
      <trkpt lat="46.58726" lon="0.60021">
        <ele>67.4</ele>
        <time>2024-02-11T10:20:54Z</time>
      </trkpt>
      <trkpt lat="46.58726" lon="0.60022">
        <ele>67.4</ele>
        <time>2024-02-11T10:20:55Z</time>
      </trkpt>
      <trkpt lat="46.58727" lon="0.60023">
        <ele>67.4</ele>
        <time>2024-02-11T10:20:57Z</time>
      </trkpt>
      <trkpt lat="46.58726" lon="0.60026">
        <ele>67.4</ele>
        <time>2024-02-11T10:21:01Z</time>
      </trkpt>
      <trkpt lat="46.58726" lon="0.60027">
        <ele>67.4</ele>
        <time>2024-02-11T10:21:03Z</time>
      </trkpt>
      <trkpt lat="46.58724" lon="0.6003">
        <ele>68.2</ele>
        <time>2024-02-11T10:21:07Z</time>
      </trkpt>
      <trkpt lat="46.58722" lon="0.6003">
        <ele>69.2</ele>
        <time>2024-02-11T10:21:11Z</time>
      </trkpt>
      <trkpt lat="46.5872" lon="0.60031">
        <ele>69.4</ele>
        <time>2024-02-11T10:21:12Z</time>
      </trkpt>
      <trkpt lat="46.58716" lon="0.60034">
        <ele>70.4</ele>
        <time>2024-02-11T10:21:20Z</time>
      </trkpt>
      <trkpt lat="46.58713" lon="0.60036">
        <ele>71.2</ele>
        <time>2024-02-11T10:21:24Z</time>
      </trkpt>
      <trkpt lat="46.58712" lon="0.60036">
        <ele>71.6</ele>
        <time>2024-02-11T10:21:25Z</time>
      </trkpt>
      <trkpt lat="46.5871" lon="0.60035">
        <ele>72.6</ele>
        <time>2024-02-11T10:21:30Z</time>
      </trkpt>
      <trkpt lat="46.58705" lon="0.60036">
        <ele>73.4</ele>
        <time>2024-02-11T10:21:37Z</time>
      </trkpt>
      <trkpt lat="46.58704" lon="0.60036">
        <ele>73.6</ele>
        <time>2024-02-11T10:21:38Z</time>
      </trkpt>
      <trkpt lat="46.58701" lon="0.60036">
        <ele>74.8</ele>
        <time>2024-02-11T10:21:43Z</time>
      </trkpt>
      <trkpt lat="46.58698" lon="0.60034">
        <ele>75.8</ele>
        <time>2024-02-11T10:21:49Z</time>
      </trkpt>
      <trkpt lat="46.58698" lon="0.60034">
        <ele>76</ele>
        <time>2024-02-11T10:21:50Z</time>
      </trkpt>
      <trkpt lat="46.58695" lon="0.60034">
        <ele>77</ele>
        <time>2024-02-11T10:21:57Z</time>
      </trkpt>
      <trkpt lat="46.58691" lon="0.60034">
        <ele>78.2</ele>
        <time>2024-02-11T10:22:04Z</time>
      </trkpt>
      <trkpt lat="46.58689" lon="0.60036">
        <ele>79.4</ele>
        <time>2024-02-11T10:22:09Z</time>
      </trkpt>
      <trkpt lat="46.58685" lon="0.60036">
        <ele>80.4</ele>
        <time>2024-02-11T10:22:16Z</time>
      </trkpt>
      <trkpt lat="46.58684" lon="0.60036">
        <ele>80.6</ele>
        <time>2024-02-11T10:22:17Z</time>
      </trkpt>
      <trkpt lat="46.58682" lon="0.60036">
        <ele>80.8</ele>
        <time>2024-02-11T10:22:19Z</time>
      </trkpt>
      <trkpt lat="46.58679" lon="0.60035">
        <ele>81.4</ele>
        <time>2024-02-11T10:22:24Z</time>
      </trkpt>
      <trkpt lat="46.58677" lon="0.60036">
        <ele>82</ele>
        <time>2024-02-11T10:22:30Z</time>
      </trkpt>
      <trkpt lat="46.58676" lon="0.60035">
        <ele>82.4</ele>
        <time>2024-02-11T10:22:34Z</time>
      </trkpt>
      <trkpt lat="46.58672" lon="0.60036">
        <ele>83.6</ele>
        <time>2024-02-11T10:22:40Z</time>
      </trkpt>
      <trkpt lat="46.5867" lon="0.60035">
        <ele>84</ele>
        <time>2024-02-11T10:22:43Z</time>
      </trkpt>
      <trkpt lat="46.58668" lon="0.60033">
        <ele>84.6</ele>
        <time>2024-02-11T10:22:47Z</time>
      </trkpt>
      <trkpt lat="46.58663" lon="0.60028">
        <ele>85</ele>
        <time>2024-02-11T10:22:53Z</time>
      </trkpt>
      <trkpt lat="46.5866" lon="0.60027">
        <ele>85.2</ele>
        <time>2024-02-11T10:22:55Z</time>
      </trkpt>
      <trkpt lat="46.58654" lon="0.60023">
        <ele>85.6</ele>
        <time>2024-02-11T10:23:00Z</time>
      </trkpt>
      <trkpt lat="46.58645" lon="0.60019">
        <ele>86.2</ele>
        <time>2024-02-11T10:23:06Z</time>
      </trkpt>
      <trkpt lat="46.58636" lon="0.60013">
        <ele>86.8</ele>
        <time>2024-02-11T10:23:12Z</time>
      </trkpt>
      <trkpt lat="46.58634" lon="0.60009">
        <ele>87</ele>
        <time>2024-02-11T10:23:15Z</time>
      </trkpt>
      <trkpt lat="46.5862" lon="0.59995">
        <ele>86.2</ele>
        <time>2024-02-11T10:23:25Z</time>
      </trkpt>
      <trkpt lat="46.58606" lon="0.59989">
        <ele>87.2</ele>
        <time>2024-02-11T10:23:33Z</time>
      </trkpt>
      <trkpt lat="46.58604" lon="0.59986">
        <ele>87.6</ele>
        <time>2024-02-11T10:23:36Z</time>
      </trkpt>
      <trkpt lat="46.58603" lon="0.59985">
        <ele>87.8</ele>
        <time>2024-02-11T10:23:37Z</time>
      </trkpt>
      <trkpt lat="46.58599" lon="0.59984">
        <ele>89</ele>
        <time>2024-02-11T10:23:41Z</time>
      </trkpt>
      <trkpt lat="46.58596" lon="0.59986">
        <ele>90</ele>
        <time>2024-02-11T10:23:45Z</time>
      </trkpt>
      <trkpt lat="46.58596" lon="0.59986">
        <ele>90.4</ele>
        <time>2024-02-11T10:23:46Z</time>
      </trkpt>
      <trkpt lat="46.58589" lon="0.59987">
        <ele>91.2</ele>
        <time>2024-02-11T10:23:50Z</time>
      </trkpt>
      <trkpt lat="46.58588" lon="0.59987">
        <ele>91.4</ele>
        <time>2024-02-11T10:23:51Z</time>
      </trkpt>
      <trkpt lat="46.58587" lon="0.59987">
        <ele>91.6</ele>
        <time>2024-02-11T10:23:52Z</time>
      </trkpt>
      <trkpt lat="46.58575" lon="0.59985">
        <ele>92.6</ele>
        <time>2024-02-11T10:24:02Z</time>
      </trkpt>
      <trkpt lat="46.58573" lon="0.59986">
        <ele>92.8</ele>
        <time>2024-02-11T10:24:03Z</time>
      </trkpt>
      <trkpt lat="46.58564" lon="0.59987">
        <ele>93.8</ele>
        <time>2024-02-11T10:24:10Z</time>
      </trkpt>
      <trkpt lat="46.5856" lon="0.59987">
        <ele>94.2</ele>
        <time>2024-02-11T10:24:13Z</time>
      </trkpt>
      <trkpt lat="46.58555" lon="0.59985">
        <ele>94.8</ele>
        <time>2024-02-11T10:24:17Z</time>
      </trkpt>
      <trkpt lat="46.5855" lon="0.59983">
        <ele>95.2</ele>
        <time>2024-02-11T10:24:22Z</time>
      </trkpt>
      <trkpt lat="46.5854" lon="0.59981">
        <ele>96</ele>
        <time>2024-02-11T10:24:31Z</time>
      </trkpt>
      <trkpt lat="46.58538" lon="0.5998">
        <ele>96</ele>
        <time>2024-02-11T10:24:32Z</time>
      </trkpt>
      <trkpt lat="46.58536" lon="0.59973">
        <ele>96.4</ele>
        <time>2024-02-11T10:24:35Z</time>
      </trkpt>
      <trkpt lat="46.58534" lon="0.59969">
        <ele>96</ele>
        <time>2024-02-11T10:24:37Z</time>
      </trkpt>
      <trkpt lat="46.58532" lon="0.59967">
        <ele>96</ele>
        <time>2024-02-11T10:24:38Z</time>
      </trkpt>
      <trkpt lat="46.58524" lon="0.59963">
        <ele>95.8</ele>
        <time>2024-02-11T10:24:42Z</time>
      </trkpt>
      <trkpt lat="46.58521" lon="0.59962">
        <ele>96.2</ele>
        <time>2024-02-11T10:24:44Z</time>
      </trkpt>
      <trkpt lat="46.58518" lon="0.59961">
        <ele>96.4</ele>
        <time>2024-02-11T10:24:46Z</time>
      </trkpt>
      <trkpt lat="46.58515" lon="0.59959">
        <ele>96.6</ele>
        <time>2024-02-11T10:24:47Z</time>
      </trkpt>
      <trkpt lat="46.58513" lon="0.59957">
        <ele>97</ele>
        <time>2024-02-11T10:24:48Z</time>
      </trkpt>
      <trkpt lat="46.58511" lon="0.59956">
        <ele>97.2</ele>
        <time>2024-02-11T10:24:49Z</time>
      </trkpt>
      <trkpt lat="46.58509" lon="0.59956">
        <ele>97.4</ele>
        <time>2024-02-11T10:24:50Z</time>
      </trkpt>
      <trkpt lat="46.58504" lon="0.59956">
        <ele>98.4</ele>
        <time>2024-02-11T10:24:53Z</time>
      </trkpt>
      <trkpt lat="46.58497" lon="0.59956">
        <ele>99</ele>
        <time>2024-02-11T10:24:56Z</time>
      </trkpt>
      <trkpt lat="46.58486" lon="0.59957">
        <ele>99.6</ele>
        <time>2024-02-11T10:25:03Z</time>
      </trkpt>
      <trkpt lat="46.58477" lon="0.59962">
        <ele>100.6</ele>
        <time>2024-02-11T10:25:09Z</time>
      </trkpt>
      <trkpt lat="46.58476" lon="0.59962">
        <ele>100.6</ele>
        <time>2024-02-11T10:25:10Z</time>
      </trkpt>
      <trkpt lat="46.58466" lon="0.59967">
        <ele>101.2</ele>
        <time>2024-02-11T10:25:17Z</time>
      </trkpt>
      <trkpt lat="46.5846" lon="0.59965">
        <ele>101.6</ele>
        <time>2024-02-11T10:25:20Z</time>
      </trkpt>
      <trkpt lat="46.58458" lon="0.59965">
        <ele>101.8</ele>
        <time>2024-02-11T10:25:22Z</time>
      </trkpt>
      <trkpt lat="46.58455" lon="0.59966">
        <ele>101.6</ele>
        <time>2024-02-11T10:25:40Z</time>
      </trkpt>
      <trkpt lat="46.58456" lon="0.59958">
        <ele>101.4</ele>
        <time>2024-02-11T10:25:53Z</time>
      </trkpt>
      <trkpt lat="46.58453" lon="0.59933">
        <ele>101</ele>
        <time>2024-02-11T10:26:00Z</time>
      </trkpt>
      <trkpt lat="46.58452" lon="0.59919">
        <ele>100.6</ele>
        <time>2024-02-11T10:26:03Z</time>
      </trkpt>
      <trkpt lat="46.58451" lon="0.59905">
        <ele>99.8</ele>
        <time>2024-02-11T10:26:06Z</time>
      </trkpt>
      <trkpt lat="46.5845" lon="0.59892">
        <ele>99.4</ele>
        <time>2024-02-11T10:26:08Z</time>
      </trkpt>
      <trkpt lat="46.58451" lon="0.59868">
        <ele>99</ele>
        <time>2024-02-11T10:26:12Z</time>
      </trkpt>
      <trkpt lat="46.58452" lon="0.59834">
        <ele>98.4</ele>
        <time>2024-02-11T10:26:18Z</time>
      </trkpt>
      <trkpt lat="46.58453" lon="0.59827">
        <ele>98</ele>
        <time>2024-02-11T10:26:19Z</time>
      </trkpt>
      <trkpt lat="46.58454" lon="0.59793">
        <ele>96.8</ele>
        <time>2024-02-11T10:26:23Z</time>
      </trkpt>
      <trkpt lat="46.58454" lon="0.59784">
        <ele>96.4</ele>
        <time>2024-02-11T10:26:24Z</time>
      </trkpt>
      <trkpt lat="46.58455" lon="0.59766">
        <ele>96</ele>
        <time>2024-02-11T10:26:26Z</time>
      </trkpt>
      <trkpt lat="46.58458" lon="0.59748">
        <ele>95.6</ele>
        <time>2024-02-11T10:26:28Z</time>
      </trkpt>
      <trkpt lat="46.58458" lon="0.5974">
        <ele>95.2</ele>
        <time>2024-02-11T10:26:29Z</time>
      </trkpt>
      <trkpt lat="46.58461" lon="0.59703">
        <ele>94.4</ele>
        <time>2024-02-11T10:26:33Z</time>
      </trkpt>
      <trkpt lat="46.58463" lon="0.59682">
        <ele>93.6</ele>
        <time>2024-02-11T10:26:35Z</time>
      </trkpt>
      <trkpt lat="46.58464" lon="0.59672">
        <ele>93</ele>
        <time>2024-02-11T10:26:36Z</time>
      </trkpt>
      <trkpt lat="46.58465" lon="0.5965">
        <ele>90.6</ele>
        <time>2024-02-11T10:26:38Z</time>
      </trkpt>
      <trkpt lat="46.58464" lon="0.59628">
        <ele>89.4</ele>
        <time>2024-02-11T10:26:40Z</time>
      </trkpt>
      <trkpt lat="46.58463" lon="0.59616">
        <ele>87.6</ele>
        <time>2024-02-11T10:26:41Z</time>
      </trkpt>
      <trkpt lat="46.5846" lon="0.59594">
        <ele>86.4</ele>
        <time>2024-02-11T10:26:43Z</time>
      </trkpt>
      <trkpt lat="46.58458" lon="0.59584">
        <ele>85</ele>
        <time>2024-02-11T10:26:44Z</time>
      </trkpt>
      <trkpt lat="46.58456" lon="0.59574">
        <ele>83.6</ele>
        <time>2024-02-11T10:26:45Z</time>
      </trkpt>
      <trkpt lat="46.58455" lon="0.59565">
        <ele>82</ele>
        <time>2024-02-11T10:26:46Z</time>
      </trkpt>
      <trkpt lat="46.58454" lon="0.59557">
        <ele>81</ele>
        <time>2024-02-11T10:26:47Z</time>
      </trkpt>
      <trkpt lat="46.58453" lon="0.59551">
        <ele>79.8</ele>
        <time>2024-02-11T10:26:48Z</time>
      </trkpt>
      <trkpt lat="46.58453" lon="0.59545">
        <ele>78.8</ele>
        <time>2024-02-11T10:26:49Z</time>
      </trkpt>
      <trkpt lat="46.58454" lon="0.59534">
        <ele>77.2</ele>
        <time>2024-02-11T10:26:51Z</time>
      </trkpt>
      <trkpt lat="46.58456" lon="0.5953">
        <ele>76.6</ele>
        <time>2024-02-11T10:26:52Z</time>
      </trkpt>
      <trkpt lat="46.58459" lon="0.59525">
        <ele>75.8</ele>
        <time>2024-02-11T10:26:54Z</time>
      </trkpt>
      <trkpt lat="46.58463" lon="0.59519">
        <ele>75.6</ele>
        <time>2024-02-11T10:26:57Z</time>
      </trkpt>
      <trkpt lat="46.58477" lon="0.595">
        <ele>75.8</ele>
        <time>2024-02-11T10:27:05Z</time>
      </trkpt>
      <trkpt lat="46.58489" lon="0.59489">
        <ele>77</ele>
        <time>2024-02-11T10:27:11Z</time>
      </trkpt>
      <trkpt lat="46.5849" lon="0.59488">
        <ele>77.2</ele>
        <time>2024-02-11T10:27:12Z</time>
      </trkpt>
      <trkpt lat="46.58494" lon="0.59486">
        <ele>78</ele>
        <time>2024-02-11T10:27:15Z</time>
      </trkpt>
      <trkpt lat="46.58496" lon="0.59485">
        <ele>78.2</ele>
        <time>2024-02-11T10:27:16Z</time>
      </trkpt>
      <trkpt lat="46.58498" lon="0.59484">
        <ele>78.6</ele>
        <time>2024-02-11T10:27:18Z</time>
      </trkpt>
      <trkpt lat="46.58498" lon="0.59484">
        <ele>78.6</ele>
        <time>2024-02-11T10:27:19Z</time>
      </trkpt>
      <trkpt lat="46.58499" lon="0.59485">
        <ele>78.6</ele>
        <time>2024-02-11T10:27:22Z</time>
      </trkpt>
      <trkpt lat="46.585" lon="0.59486">
        <ele>78.2</ele>
        <time>2024-02-11T10:27:24Z</time>
      </trkpt>
      <trkpt lat="46.58503" lon="0.59488">
        <ele>78</ele>
        <time>2024-02-11T10:27:27Z</time>
      </trkpt>
      <trkpt lat="46.58506" lon="0.59489">
        <ele>78</ele>
        <time>2024-02-11T10:27:30Z</time>
      </trkpt>
      <trkpt lat="46.58512" lon="0.59492">
        <ele>79.8</ele>
        <time>2024-02-11T10:27:37Z</time>
      </trkpt>
      <trkpt lat="46.58515" lon="0.59493">
        <ele>80.6</ele>
        <time>2024-02-11T10:27:39Z</time>
      </trkpt>
      <trkpt lat="46.58516" lon="0.59493">
        <ele>80.8</ele>
        <time>2024-02-11T10:27:40Z</time>
      </trkpt>
      <trkpt lat="46.58518" lon="0.59493">
        <ele>81.8</ele>
        <time>2024-02-11T10:27:42Z</time>
      </trkpt>
      <trkpt lat="46.58519" lon="0.59493">
        <ele>82.2</ele>
        <time>2024-02-11T10:27:43Z</time>
      </trkpt>
      <trkpt lat="46.58524" lon="0.59492">
        <ele>83</ele>
        <time>2024-02-11T10:27:50Z</time>
      </trkpt>
      <trkpt lat="46.58524" lon="0.59492">
        <ele>83.2</ele>
        <time>2024-02-11T10:27:51Z</time>
      </trkpt>
      <trkpt lat="46.58525" lon="0.59489">
        <ele>84.4</ele>
        <time>2024-02-11T10:27:55Z</time>
      </trkpt>
      <trkpt lat="46.58528" lon="0.59488">
        <ele>85.2</ele>
        <time>2024-02-11T10:28:01Z</time>
      </trkpt>
      <trkpt lat="46.58531" lon="0.59488">
        <ele>85.4</ele>
        <time>2024-02-11T10:28:10Z</time>
      </trkpt>
      <trkpt lat="46.58533" lon="0.59488">
        <ele>86.6</ele>
        <time>2024-02-11T10:28:14Z</time>
      </trkpt>
      <trkpt lat="46.58533" lon="0.59488">
        <ele>87</ele>
        <time>2024-02-11T10:28:16Z</time>
      </trkpt>
      <trkpt lat="46.58536" lon="0.59495">
        <ele>87.6</ele>
        <time>2024-02-11T10:28:25Z</time>
      </trkpt>
      <trkpt lat="46.58536" lon="0.59495">
        <ele>87.8</ele>
        <time>2024-02-11T10:28:26Z</time>
      </trkpt>
      <trkpt lat="46.58536" lon="0.59504">
        <ele>88</ele>
        <time>2024-02-11T10:28:39Z</time>
      </trkpt>
      <trkpt lat="46.58535" lon="0.59508">
        <ele>88</ele>
        <time>2024-02-11T10:28:48Z</time>
      </trkpt>
      <trkpt lat="46.58535" lon="0.5951">
        <ele>87.4</ele>
        <time>2024-02-11T10:28:51Z</time>
      </trkpt>
      <trkpt lat="46.58534" lon="0.59514">
        <ele>86.6</ele>
        <time>2024-02-11T10:28:53Z</time>
      </trkpt>
      <trkpt lat="46.58534" lon="0.59519">
        <ele>85.2</ele>
        <time>2024-02-11T10:28:56Z</time>
      </trkpt>
      <trkpt lat="46.58535" lon="0.59521">
        <ele>84.8</ele>
        <time>2024-02-11T10:28:57Z</time>
      </trkpt>
      <trkpt lat="46.58535" lon="0.59522">
        <ele>84</ele>
        <time>2024-02-11T10:28:59Z</time>
      </trkpt>
      <trkpt lat="46.58536" lon="0.59523">
        <ele>83.8</ele>
        <time>2024-02-11T10:29:00Z</time>
      </trkpt>
      <trkpt lat="46.5854" lon="0.59528">
        <ele>84.2</ele>
        <time>2024-02-11T10:29:05Z</time>
      </trkpt>
      <trkpt lat="46.58543" lon="0.59531">
        <ele>85.4</ele>
        <time>2024-02-11T10:29:09Z</time>
      </trkpt>
      <trkpt lat="46.58547" lon="0.59533">
        <ele>86.4</ele>
        <time>2024-02-11T10:29:13Z</time>
      </trkpt>
      <trkpt lat="46.58549" lon="0.59536">
        <ele>87</ele>
        <time>2024-02-11T10:29:15Z</time>
      </trkpt>
      <trkpt lat="46.58556" lon="0.59551">
        <ele>85.2</ele>
        <time>2024-02-11T10:29:22Z</time>
      </trkpt>
      <trkpt lat="46.58559" lon="0.59555">
        <ele>85.2</ele>
        <time>2024-02-11T10:29:25Z</time>
      </trkpt>
      <trkpt lat="46.58569" lon="0.59573">
        <ele>85.8</ele>
        <time>2024-02-11T10:29:36Z</time>
      </trkpt>
      <trkpt lat="46.58572" lon="0.59578">
        <ele>86.2</ele>
        <time>2024-02-11T10:29:41Z</time>
      </trkpt>
      <trkpt lat="46.58576" lon="0.59583">
        <ele>86.2</ele>
        <time>2024-02-11T10:29:47Z</time>
      </trkpt>
      <trkpt lat="46.5858" lon="0.59589">
        <ele>86</ele>
        <time>2024-02-11T10:29:52Z</time>
      </trkpt>
      <trkpt lat="46.58582" lon="0.59594">
        <ele>86</ele>
        <time>2024-02-11T10:29:56Z</time>
      </trkpt>
      <trkpt lat="46.58583" lon="0.59598">
        <ele>85.6</ele>
        <time>2024-02-11T10:29:58Z</time>
      </trkpt>
      <trkpt lat="46.58583" lon="0.596">
        <ele>85.6</ele>
        <time>2024-02-11T10:29:59Z</time>
      </trkpt>
      <trkpt lat="46.58586" lon="0.59611">
        <ele>85</ele>
        <time>2024-02-11T10:30:04Z</time>
      </trkpt>
      <trkpt lat="46.5859" lon="0.5962">
        <ele>84</ele>
        <time>2024-02-11T10:30:08Z</time>
      </trkpt>
      <trkpt lat="46.58591" lon="0.59622">
        <ele>83.8</ele>
        <time>2024-02-11T10:30:09Z</time>
      </trkpt>
      <trkpt lat="46.58591" lon="0.59622">
        <ele>83.2</ele>
        <time>2024-02-11T10:30:11Z</time>
      </trkpt>
      <trkpt lat="46.58597" lon="0.59642">
        <ele>82.6</ele>
        <time>2024-02-11T10:30:15Z</time>
      </trkpt>
      <trkpt lat="46.58598" lon="0.59646">
        <ele>82.6</ele>
        <time>2024-02-11T10:30:16Z</time>
      </trkpt>
      <trkpt lat="46.586" lon="0.59652">
        <ele>81.6</ele>
        <time>2024-02-11T10:30:18Z</time>
      </trkpt>
      <trkpt lat="46.58601" lon="0.59655">
        <ele>81</ele>
        <time>2024-02-11T10:30:19Z</time>
      </trkpt>
      <trkpt lat="46.58601" lon="0.59662">
        <ele>80.6</ele>
        <time>2024-02-11T10:30:21Z</time>
      </trkpt>
      <trkpt lat="46.58609" lon="0.59679">
        <ele>80.8</ele>
        <time>2024-02-11T10:30:27Z</time>
      </trkpt>
      <trkpt lat="46.5861" lon="0.59682">
        <ele>81</ele>
        <time>2024-02-11T10:30:28Z</time>
      </trkpt>
      <trkpt lat="46.5861" lon="0.59689">
        <ele>81.6</ele>
        <time>2024-02-11T10:30:30Z</time>
      </trkpt>
      <trkpt lat="46.58609" lon="0.59695">
        <ele>81.4</ele>
        <time>2024-02-11T10:30:32Z</time>
      </trkpt>
      <trkpt lat="46.5861" lon="0.597">
        <ele>80</ele>
        <time>2024-02-11T10:30:34Z</time>
      </trkpt>
      <trkpt lat="46.58611" lon="0.59703">
        <ele>79.6</ele>
        <time>2024-02-11T10:30:35Z</time>
      </trkpt>
      <trkpt lat="46.58613" lon="0.59709">
        <ele>79.2</ele>
        <time>2024-02-11T10:30:37Z</time>
      </trkpt>
      <trkpt lat="46.58619" lon="0.59729">
        <ele>80</ele>
        <time>2024-02-11T10:30:44Z</time>
      </trkpt>
      <trkpt lat="46.58623" lon="0.59744">
        <ele>79.8</ele>
        <time>2024-02-11T10:30:49Z</time>
      </trkpt>
      <trkpt lat="46.58624" lon="0.59748">
        <ele>79.8</ele>
        <time>2024-02-11T10:30:50Z</time>
      </trkpt>
      <trkpt lat="46.58628" lon="0.59754">
        <ele>81</ele>
        <time>2024-02-11T10:30:54Z</time>
      </trkpt>
      <trkpt lat="46.5863" lon="0.59757">
        <ele>82.2</ele>
        <time>2024-02-11T10:30:57Z</time>
      </trkpt>
      <trkpt lat="46.58632" lon="0.59761">
        <ele>83.2</ele>
        <time>2024-02-11T10:31:00Z</time>
      </trkpt>
      <trkpt lat="46.58634" lon="0.59765">
        <ele>84</ele>
        <time>2024-02-11T10:31:02Z</time>
      </trkpt>
      <trkpt lat="46.58636" lon="0.5977">
        <ele>84.4</ele>
        <time>2024-02-11T10:31:04Z</time>
      </trkpt>
      <trkpt lat="46.58636" lon="0.59784">
        <ele>82.4</ele>
        <time>2024-02-11T10:31:10Z</time>
      </trkpt>
      <trkpt lat="46.58637" lon="0.59787">
        <ele>82</ele>
        <time>2024-02-11T10:31:11Z</time>
      </trkpt>
      <trkpt lat="46.58637" lon="0.59793">
        <ele>81</ele>
        <time>2024-02-11T10:31:13Z</time>
      </trkpt>
      <trkpt lat="46.58637" lon="0.59799">
        <ele>79.4</ele>
        <time>2024-02-11T10:31:15Z</time>
      </trkpt>
      <trkpt lat="46.58639" lon="0.59801">
        <ele>78.6</ele>
        <time>2024-02-11T10:31:16Z</time>
      </trkpt>
      <trkpt lat="46.5864" lon="0.59804">
        <ele>78</ele>
        <time>2024-02-11T10:31:17Z</time>
      </trkpt>
      <trkpt lat="46.58643" lon="0.59814">
        <ele>77</ele>
        <time>2024-02-11T10:31:20Z</time>
      </trkpt>
      <trkpt lat="46.5865" lon="0.59826">
        <ele>76</ele>
        <time>2024-02-11T10:31:24Z</time>
      </trkpt>
      <trkpt lat="46.58651" lon="0.59828">
        <ele>75.8</ele>
        <time>2024-02-11T10:31:25Z</time>
      </trkpt>
      <trkpt lat="46.58656" lon="0.59834">
        <ele>76</ele>
        <time>2024-02-11T10:31:30Z</time>
      </trkpt>
      <trkpt lat="46.58663" lon="0.5984">
        <ele>77</ele>
        <time>2024-02-11T10:31:34Z</time>
      </trkpt>
      <trkpt lat="46.58667" lon="0.59842">
        <ele>78.2</ele>
        <time>2024-02-11T10:31:37Z</time>
      </trkpt>
      <trkpt lat="46.5868" lon="0.59847">
        <ele>79.2</ele>
        <time>2024-02-11T10:31:44Z</time>
      </trkpt>
      <trkpt lat="46.58691" lon="0.59848">
        <ele>80</ele>
        <time>2024-02-11T10:31:51Z</time>
      </trkpt>
      <trkpt lat="46.58707" lon="0.59848">
        <ele>80</ele>
        <time>2024-02-11T10:31:55Z</time>
      </trkpt>
      <trkpt lat="46.58723" lon="0.59848">
        <ele>79</ele>
        <time>2024-02-11T10:31:58Z</time>
      </trkpt>
      <trkpt lat="46.58725" lon="0.59848">
        <ele>78.6</ele>
        <time>2024-02-11T10:31:59Z</time>
      </trkpt>
      <trkpt lat="46.58726" lon="0.59847">
        <ele>78.4</ele>
        <time>2024-02-11T10:32:00Z</time>
      </trkpt>
      <trkpt lat="46.58727" lon="0.59847">
        <ele>78.2</ele>
        <time>2024-02-11T10:32:01Z</time>
      </trkpt>
      <trkpt lat="46.5873" lon="0.59848">
        <ele>78.8</ele>
        <time>2024-02-11T10:32:05Z</time>
      </trkpt>
      <trkpt lat="46.58731" lon="0.59849">
        <ele>79.2</ele>
        <time>2024-02-11T10:32:07Z</time>
      </trkpt>
      <trkpt lat="46.58733" lon="0.5985">
        <ele>80.6</ele>
        <time>2024-02-11T10:32:12Z</time>
      </trkpt>
      <trkpt lat="46.58736" lon="0.5985">
        <ele>81.6</ele>
        <time>2024-02-11T10:32:19Z</time>
      </trkpt>
      <trkpt lat="46.58736" lon="0.5985">
        <ele>81.8</ele>
        <time>2024-02-11T10:32:20Z</time>
      </trkpt>
      <trkpt lat="46.58739" lon="0.59849">
        <ele>82.8</ele>
        <time>2024-02-11T10:32:26Z</time>
      </trkpt>
      <trkpt lat="46.58743" lon="0.59848">
        <ele>83.4</ele>
        <time>2024-02-11T10:32:31Z</time>
      </trkpt>
      <trkpt lat="46.58744" lon="0.59848">
        <ele>84</ele>
        <time>2024-02-11T10:32:33Z</time>
      </trkpt>
      <trkpt lat="46.58746" lon="0.59848">
        <ele>85</ele>
        <time>2024-02-11T10:32:38Z</time>
      </trkpt>
      <trkpt lat="46.58749" lon="0.59848">
        <ele>85.4</ele>
        <time>2024-02-11T10:32:44Z</time>
      </trkpt>
      <trkpt lat="46.5875" lon="0.59849">
        <ele>86.2</ele>
        <time>2024-02-11T10:32:49Z</time>
      </trkpt>
      <trkpt lat="46.58753" lon="0.59852">
        <ele>87</ele>
        <time>2024-02-11T10:32:56Z</time>
      </trkpt>
      <trkpt lat="46.58754" lon="0.59862">
        <ele>86.6</ele>
        <time>2024-02-11T10:33:06Z</time>
      </trkpt>
      <trkpt lat="46.5875" lon="0.59868">
        <ele>85.6</ele>
        <time>2024-02-11T10:33:11Z</time>
      </trkpt>
      <trkpt lat="46.58747" lon="0.5987">
        <ele>85</ele>
        <time>2024-02-11T10:33:13Z</time>
      </trkpt>
      <trkpt lat="46.58744" lon="0.5987">
        <ele>84.2</ele>
        <time>2024-02-11T10:33:15Z</time>
      </trkpt>
      <trkpt lat="46.58743" lon="0.59871">
        <ele>84</ele>
        <time>2024-02-11T10:33:16Z</time>
      </trkpt>
      <trkpt lat="46.58742" lon="0.59876">
        <ele>82.8</ele>
        <time>2024-02-11T10:33:18Z</time>
      </trkpt>
      <trkpt lat="46.58742" lon="0.59881">
        <ele>82</ele>
        <time>2024-02-11T10:33:20Z</time>
      </trkpt>
      <trkpt lat="46.58743" lon="0.59881">
        <ele>81.6</ele>
        <time>2024-02-11T10:33:21Z</time>
      </trkpt>
      <trkpt lat="46.58743" lon="0.59881">
        <ele>80.2</ele>
        <time>2024-02-11T10:33:22Z</time>
      </trkpt>
      <trkpt lat="46.58743" lon="0.59881">
        <ele>79.2</ele>
        <time>2024-02-11T10:33:24Z</time>
      </trkpt>
      <trkpt lat="46.58746" lon="0.59883">
        <ele>79.6</ele>
        <time>2024-02-11T10:33:30Z</time>
      </trkpt>
      <trkpt lat="46.58747" lon="0.59884">
        <ele>80.2</ele>
        <time>2024-02-11T10:33:32Z</time>
      </trkpt>
      <trkpt lat="46.58747" lon="0.59885">
        <ele>80.4</ele>
        <time>2024-02-11T10:33:33Z</time>
      </trkpt>
      <trkpt lat="46.58748" lon="0.59886">
        <ele>80.6</ele>
        <time>2024-02-11T10:33:35Z</time>
      </trkpt>
      <trkpt lat="46.58749" lon="0.59887">
        <ele>80.8</ele>
        <time>2024-02-11T10:33:38Z</time>
      </trkpt>
      <trkpt lat="46.5875" lon="0.59889">
        <ele>80.8</ele>
        <time>2024-02-11T10:33:40Z</time>
      </trkpt>
      <trkpt lat="46.58754" lon="0.59893">
        <ele>80.8</ele>
        <time>2024-02-11T10:33:44Z</time>
      </trkpt>
      <trkpt lat="46.58756" lon="0.59897">
        <ele>81.2</ele>
        <time>2024-02-11T10:33:48Z</time>
      </trkpt>
      <trkpt lat="46.58755" lon="0.59899">
        <ele>81</ele>
        <time>2024-02-11T10:33:49Z</time>
      </trkpt>
      <trkpt lat="46.58755" lon="0.59904">
        <ele>79.4</ele>
        <time>2024-02-11T10:33:52Z</time>
      </trkpt>
      <trkpt lat="46.58755" lon="0.59906">
        <ele>78.4</ele>
        <time>2024-02-11T10:33:53Z</time>
      </trkpt>
      <trkpt lat="46.58755" lon="0.59907">
        <ele>77.8</ele>
        <time>2024-02-11T10:33:54Z</time>
      </trkpt>
      <trkpt lat="46.58755" lon="0.59915">
        <ele>76.2</ele>
        <time>2024-02-11T10:33:57Z</time>
      </trkpt>
      <trkpt lat="46.58757" lon="0.59919">
        <ele>74.8</ele>
        <time>2024-02-11T10:33:59Z</time>
      </trkpt>
      <trkpt lat="46.58757" lon="0.59922">
        <ele>74.2</ele>
        <time>2024-02-11T10:34:00Z</time>
      </trkpt>
      <trkpt lat="46.58759" lon="0.59926">
        <ele>73.6</ele>
        <time>2024-02-11T10:34:02Z</time>
      </trkpt>
      <trkpt lat="46.58759" lon="0.59927">
        <ele>73.4</ele>
        <time>2024-02-11T10:34:03Z</time>
      </trkpt>
      <trkpt lat="46.58762" lon="0.59935">
        <ele>73.4</ele>
        <time>2024-02-11T10:34:08Z</time>
      </trkpt>
      <trkpt lat="46.58764" lon="0.59937">
        <ele>73.4</ele>
        <time>2024-02-11T10:34:11Z</time>
      </trkpt>
      <trkpt lat="46.58766" lon="0.59941">
        <ele>74.2</ele>
        <time>2024-02-11T10:34:15Z</time>
      </trkpt>
      <trkpt lat="46.58767" lon="0.59943">
        <ele>74.8</ele>
        <time>2024-02-11T10:34:17Z</time>
      </trkpt>
      <trkpt lat="46.58768" lon="0.59944">
        <ele>75</ele>
        <time>2024-02-11T10:34:18Z</time>
      </trkpt>
      <trkpt lat="46.58773" lon="0.59953">
        <ele>75.6</ele>
        <time>2024-02-11T10:34:26Z</time>
      </trkpt>
      <trkpt lat="46.58775" lon="0.59956">
        <ele>75.4</ele>
        <time>2024-02-11T10:34:28Z</time>
      </trkpt>
      <trkpt lat="46.58775" lon="0.59958">
        <ele>75.2</ele>
        <time>2024-02-11T10:34:29Z</time>
      </trkpt>
      <trkpt lat="46.58776" lon="0.5996">
        <ele>75</ele>
        <time>2024-02-11T10:34:30Z</time>
      </trkpt>
      <trkpt lat="46.58786" lon="0.59975">
        <ele>74.8</ele>
        <time>2024-02-11T10:34:39Z</time>
      </trkpt>
      <trkpt lat="46.58791" lon="0.59983">
        <ele>75</ele>
        <time>2024-02-11T10:34:43Z</time>
      </trkpt>
      <trkpt lat="46.58792" lon="0.59989">
        <ele>75</ele>
        <time>2024-02-11T10:34:46Z</time>
      </trkpt>
      <trkpt lat="46.58795" lon="0.59999">
        <ele>74.6</ele>
        <time>2024-02-11T10:34:50Z</time>
      </trkpt>
      <trkpt lat="46.58797" lon="0.6">
        <ele>74.4</ele>
        <time>2024-02-11T10:34:51Z</time>
      </trkpt>
      <trkpt lat="46.58811" lon="0.60008">
        <ele>75</ele>
        <time>2024-02-11T10:34:59Z</time>
      </trkpt>
      <trkpt lat="46.58815" lon="0.60009">
        <ele>75.2</ele>
        <time>2024-02-11T10:35:01Z</time>
      </trkpt>
      <trkpt lat="46.58818" lon="0.6001">
        <ele>75.2</ele>
        <time>2024-02-11T10:35:04Z</time>
      </trkpt>
      <trkpt lat="46.58822" lon="0.60011">
        <ele>74.4</ele>
        <time>2024-02-11T10:35:08Z</time>
      </trkpt>
      <trkpt lat="46.58829" lon="0.60016">
        <ele>73.8</ele>
        <time>2024-02-11T10:35:12Z</time>
      </trkpt>
      <trkpt lat="46.58831" lon="0.60019">
        <ele>73.4</ele>
        <time>2024-02-11T10:35:13Z</time>
      </trkpt>
      <trkpt lat="46.58839" lon="0.60023">
        <ele>72</ele>
        <time>2024-02-11T10:35:16Z</time>
      </trkpt>
      <trkpt lat="46.58842" lon="0.60024">
        <ele>71.4</ele>
        <time>2024-02-11T10:35:17Z</time>
      </trkpt>
      <trkpt lat="46.58844" lon="0.60024">
        <ele>71</ele>
        <time>2024-02-11T10:35:18Z</time>
      </trkpt>
      <trkpt lat="46.58846" lon="0.60025">
        <ele>71</ele>
        <time>2024-02-11T10:35:19Z</time>
      </trkpt>
      <trkpt lat="46.58848" lon="0.60024">
        <ele>70.8</ele>
        <time>2024-02-11T10:35:21Z</time>
      </trkpt>
      <trkpt lat="46.58852" lon="0.60021">
        <ele>72</ele>
        <time>2024-02-11T10:35:25Z</time>
      </trkpt>
      <trkpt lat="46.58853" lon="0.60021">
        <ele>72.2</ele>
        <time>2024-02-11T10:35:26Z</time>
      </trkpt>
      <trkpt lat="46.58857" lon="0.60018">
        <ele>73.2</ele>
        <time>2024-02-11T10:35:29Z</time>
      </trkpt>
      <trkpt lat="46.58861" lon="0.60016">
        <ele>74.2</ele>
        <time>2024-02-11T10:35:32Z</time>
      </trkpt>
      <trkpt lat="46.58862" lon="0.60015">
        <ele>74.4</ele>
        <time>2024-02-11T10:35:33Z</time>
      </trkpt>
      <trkpt lat="46.58864" lon="0.60013">
        <ele>74.8</ele>
        <time>2024-02-11T10:35:35Z</time>
      </trkpt>
      <trkpt lat="46.58867" lon="0.60012">
        <ele>75</ele>
        <time>2024-02-11T10:35:37Z</time>
      </trkpt>
      <trkpt lat="46.58868" lon="0.60012">
        <ele>75.2</ele>
        <time>2024-02-11T10:35:38Z</time>
      </trkpt>
      <trkpt lat="46.58871" lon="0.60011">
        <ele>75.6</ele>
        <time>2024-02-11T10:35:40Z</time>
      </trkpt>
      <trkpt lat="46.58874" lon="0.60009">
        <ele>76.4</ele>
        <time>2024-02-11T10:35:44Z</time>
      </trkpt>
      <trkpt lat="46.58877" lon="0.60011">
        <ele>76.4</ele>
        <time>2024-02-11T10:35:46Z</time>
      </trkpt>
      <trkpt lat="46.58891" lon="0.60018">
        <ele>76.4</ele>
        <time>2024-02-11T10:35:52Z</time>
      </trkpt>
      <trkpt lat="46.58893" lon="0.60018">
        <ele>76.6</ele>
        <time>2024-02-11T10:35:53Z</time>
      </trkpt>
      <trkpt lat="46.58902" lon="0.60016">
        <ele>77.6</ele>
        <time>2024-02-11T10:35:58Z</time>
      </trkpt>
      <trkpt lat="46.58906" lon="0.60015">
        <ele>78.2</ele>
        <time>2024-02-11T10:36:01Z</time>
      </trkpt>
      <trkpt lat="46.58909" lon="0.60015">
        <ele>78.6</ele>
        <time>2024-02-11T10:36:03Z</time>
      </trkpt>
      <trkpt lat="46.58928" lon="0.60011">
        <ele>79.8</ele>
        <time>2024-02-11T10:36:14Z</time>
      </trkpt>
      <trkpt lat="46.5893" lon="0.6001">
        <ele>79.8</ele>
        <time>2024-02-11T10:36:15Z</time>
      </trkpt>
      <trkpt lat="46.5894" lon="0.60004">
        <ele>80.8</ele>
        <time>2024-02-11T10:36:24Z</time>
      </trkpt>
      <trkpt lat="46.58946" lon="0.60002">
        <ele>81.8</ele>
        <time>2024-02-11T10:36:29Z</time>
      </trkpt>
      <trkpt lat="46.58947" lon="0.60002">
        <ele>81.8</ele>
        <time>2024-02-11T10:36:30Z</time>
      </trkpt>
      <trkpt lat="46.58953" lon="0.60001">
        <ele>82.8</ele>
        <time>2024-02-11T10:36:36Z</time>
      </trkpt>
      <trkpt lat="46.58953" lon="0.60001">
        <ele>83</ele>
        <time>2024-02-11T10:36:37Z</time>
      </trkpt>
      <trkpt lat="46.58955" lon="0.6">
        <ele>82.8</ele>
        <time>2024-02-11T10:36:40Z</time>
      </trkpt>
      <trkpt lat="46.58956" lon="0.6">
        <ele>82.8</ele>
        <time>2024-02-11T10:36:52Z</time>
      </trkpt>
      <trkpt lat="46.58956" lon="0.6">
        <ele>82.8</ele>
        <time>2024-02-11T10:37:13Z</time>
      </trkpt>
      <trkpt lat="46.58957" lon="0.60001">
        <ele>82.8</ele>
        <time>2024-02-11T10:37:27Z</time>
      </trkpt>
      <trkpt lat="46.58958" lon="0.60002">
        <ele>82.8</ele>
        <time>2024-02-11T10:37:46Z</time>
      </trkpt>
      <trkpt lat="46.58958" lon="0.60003">
        <ele>82.8</ele>
        <time>2024-02-11T10:38:04Z</time>
      </trkpt>
      <trkpt lat="46.58959" lon="0.60003">
        <ele>82.8</ele>
        <time>2024-02-11T10:38:20Z</time>
      </trkpt>
      <trkpt lat="46.58961" lon="0.60002">
        <ele>82.8</ele>
        <time>2024-02-11T10:38:38Z</time>
      </trkpt>
      <trkpt lat="46.58961" lon="0.60002">
        <ele>82.8</ele>
        <time>2024-02-11T10:38:55Z</time>
      </trkpt>
      <trkpt lat="46.5896" lon="0.60004">
        <ele>82.8</ele>
        <time>2024-02-11T10:39:10Z</time>
      </trkpt>
      <trkpt lat="46.58959" lon="0.60006">
        <ele>82.8</ele>
        <time>2024-02-11T10:39:25Z</time>
      </trkpt>
      <trkpt lat="46.58961" lon="0.60005">
        <ele>82.8</ele>
        <time>2024-02-11T10:39:41Z</time>
      </trkpt>
      <trkpt lat="46.58962" lon="0.60005">
        <ele>82.8</ele>
        <time>2024-02-11T10:39:59Z</time>
      </trkpt>
      <trkpt lat="46.58964" lon="0.60005">
        <ele>82.8</ele>
        <time>2024-02-11T10:40:14Z</time>
      </trkpt>
      <trkpt lat="46.58964" lon="0.60004">
        <ele>82.8</ele>
        <time>2024-02-11T10:40:36Z</time>
      </trkpt>
      <trkpt lat="46.58963" lon="0.60005">
        <ele>82.8</ele>
        <time>2024-02-11T10:40:52Z</time>
      </trkpt>
      <trkpt lat="46.58964" lon="0.60005">
        <ele>82.8</ele>
        <time>2024-02-11T10:41:11Z</time>
      </trkpt>
      <trkpt lat="46.58971" lon="0.60011">
        <ele>82.8</ele>
        <time>2024-02-11T10:41:20Z</time>
      </trkpt>
      <trkpt lat="46.58981" lon="0.60024">
        <ele>82.2</ele>
        <time>2024-02-11T10:41:26Z</time>
      </trkpt>
      <trkpt lat="46.58985" lon="0.6003">
        <ele>81.8</ele>
        <time>2024-02-11T10:41:28Z</time>
      </trkpt>
      <trkpt lat="46.58995" lon="0.60044">
        <ele>81</ele>
        <time>2024-02-11T10:41:31Z</time>
      </trkpt>
      <trkpt lat="46.58998" lon="0.6005">
        <ele>80.8</ele>
        <time>2024-02-11T10:41:32Z</time>
      </trkpt>
      <trkpt lat="46.59004" lon="0.60062">
        <ele>79.4</ele>
        <time>2024-02-11T10:41:34Z</time>
      </trkpt>
      <trkpt lat="46.5901" lon="0.60074">
        <ele>78.2</ele>
        <time>2024-02-11T10:41:36Z</time>
      </trkpt>
      <trkpt lat="46.59013" lon="0.6008">
        <ele>78</ele>
        <time>2024-02-11T10:41:37Z</time>
      </trkpt>
      <trkpt lat="46.59018" lon="0.60091">
        <ele>77</ele>
        <time>2024-02-11T10:41:39Z</time>
      </trkpt>
      <trkpt lat="46.59028" lon="0.60108">
        <ele>76</ele>
        <time>2024-02-11T10:41:42Z</time>
      </trkpt>
      <trkpt lat="46.59036" lon="0.60127">
        <ele>75</ele>
        <time>2024-02-11T10:41:45Z</time>
      </trkpt>
      <trkpt lat="46.59036" lon="0.60127">
        <ele>74.6</ele>
        <time>2024-02-11T10:41:46Z</time>
      </trkpt>
      <trkpt lat="46.59054" lon="0.60174">
        <ele>73.4</ele>
        <time>2024-02-11T10:41:51Z</time>
      </trkpt>
      <trkpt lat="46.59061" lon="0.6019">
        <ele>71.8</ele>
        <time>2024-02-11T10:41:53Z</time>
      </trkpt>
      <trkpt lat="46.59065" lon="0.60198">
        <ele>71.4</ele>
        <time>2024-02-11T10:41:54Z</time>
      </trkpt>
      <trkpt lat="46.59075" lon="0.60211">
        <ele>70.8</ele>
        <time>2024-02-11T10:41:56Z</time>
      </trkpt>
      <trkpt lat="46.59081" lon="0.60218">
        <ele>70.8</ele>
        <time>2024-02-11T10:41:57Z</time>
      </trkpt>
      <trkpt lat="46.59101" lon="0.6024">
        <ele>69.4</ele>
        <time>2024-02-11T10:42:00Z</time>
      </trkpt>
      <trkpt lat="46.59109" lon="0.60247">
        <ele>69.2</ele>
        <time>2024-02-11T10:42:01Z</time>
      </trkpt>
      <trkpt lat="46.59116" lon="0.60253">
        <ele>68.6</ele>
        <time>2024-02-11T10:42:02Z</time>
      </trkpt>
      <trkpt lat="46.59123" lon="0.60258">
        <ele>68</ele>
        <time>2024-02-11T10:42:03Z</time>
      </trkpt>
      <trkpt lat="46.59137" lon="0.60266">
        <ele>66.8</ele>
        <time>2024-02-11T10:42:05Z</time>
      </trkpt>
      <trkpt lat="46.59154" lon="0.60274">
        <ele>65.2</ele>
        <time>2024-02-11T10:42:08Z</time>
      </trkpt>
      <trkpt lat="46.59163" lon="0.6028">
        <ele>63.6</ele>
        <time>2024-02-11T10:42:10Z</time>
      </trkpt>
      <trkpt lat="46.5917" lon="0.60283">
        <ele>62.8</ele>
        <time>2024-02-11T10:42:12Z</time>
      </trkpt>
      <trkpt lat="46.59174" lon="0.60283">
        <ele>62.8</ele>
        <time>2024-02-11T10:42:14Z</time>
      </trkpt>
      <trkpt lat="46.59182" lon="0.60287">
        <ele>62.8</ele>
        <time>2024-02-11T10:42:20Z</time>
      </trkpt>
      <trkpt lat="46.59196" lon="0.6029">
        <ele>64.2</ele>
        <time>2024-02-11T10:42:28Z</time>
      </trkpt>
      <trkpt lat="46.59198" lon="0.6029">
        <ele>64.8</ele>
        <time>2024-02-11T10:42:29Z</time>
      </trkpt>
      <trkpt lat="46.59201" lon="0.60291">
        <ele>65.8</ele>
        <time>2024-02-11T10:42:32Z</time>
      </trkpt>
      <trkpt lat="46.59207" lon="0.60293">
        <ele>66.8</ele>
        <time>2024-02-11T10:42:35Z</time>
      </trkpt>
      <trkpt lat="46.59209" lon="0.60294">
        <ele>67.4</ele>
        <time>2024-02-11T10:42:36Z</time>
      </trkpt>
      <trkpt lat="46.59215" lon="0.60296">
        <ele>68.6</ele>
        <time>2024-02-11T10:42:40Z</time>
      </trkpt>
      <trkpt lat="46.59219" lon="0.60297">
        <ele>69</ele>
        <time>2024-02-11T10:42:42Z</time>
      </trkpt>
      <trkpt lat="46.59224" lon="0.60298">
        <ele>69.8</ele>
        <time>2024-02-11T10:42:45Z</time>
      </trkpt>
      <trkpt lat="46.59237" lon="0.60302">
        <ele>71</ele>
        <time>2024-02-11T10:42:51Z</time>
      </trkpt>
      <trkpt lat="46.59249" lon="0.60305">
        <ele>71.8</ele>
        <time>2024-02-11T10:42:57Z</time>
      </trkpt>
      <trkpt lat="46.59253" lon="0.60306">
        <ele>72</ele>
        <time>2024-02-11T10:42:59Z</time>
      </trkpt>
      <trkpt lat="46.5926" lon="0.60308">
        <ele>73.2</ele>
        <time>2024-02-11T10:43:03Z</time>
      </trkpt>
      <trkpt lat="46.59262" lon="0.60307">
        <ele>73.4</ele>
        <time>2024-02-11T10:43:04Z</time>
      </trkpt>
      <trkpt lat="46.59272" lon="0.60305">
        <ele>74.2</ele>
        <time>2024-02-11T10:43:11Z</time>
      </trkpt>
      <trkpt lat="46.59278" lon="0.60303">
        <ele>75.4</ele>
        <time>2024-02-11T10:43:15Z</time>
      </trkpt>
      <trkpt lat="46.59285" lon="0.60301">
        <ele>76.8</ele>
        <time>2024-02-11T10:43:19Z</time>
      </trkpt>
      <trkpt lat="46.59292" lon="0.60298">
        <ele>77.8</ele>
        <time>2024-02-11T10:43:23Z</time>
      </trkpt>
      <trkpt lat="46.59297" lon="0.60295">
        <ele>78.4</ele>
        <time>2024-02-11T10:43:26Z</time>
      </trkpt>
      <trkpt lat="46.59302" lon="0.60291">
        <ele>79</ele>
        <time>2024-02-11T10:43:29Z</time>
      </trkpt>
      <trkpt lat="46.5931" lon="0.60282">
        <ele>80.2</ele>
        <time>2024-02-11T10:43:35Z</time>
      </trkpt>
      <trkpt lat="46.59311" lon="0.60281">
        <ele>80.4</ele>
        <time>2024-02-11T10:43:36Z</time>
      </trkpt>
      <trkpt lat="46.59318" lon="0.60273">
        <ele>81.2</ele>
        <time>2024-02-11T10:43:43Z</time>
      </trkpt>
      <trkpt lat="46.5932" lon="0.60272">
        <ele>81.2</ele>
        <time>2024-02-11T10:43:44Z</time>
      </trkpt>
      <trkpt lat="46.59327" lon="0.6026">
        <ele>82.2</ele>
        <time>2024-02-11T10:43:50Z</time>
      </trkpt>
      <trkpt lat="46.59341" lon="0.60244">
        <ele>82.4</ele>
        <time>2024-02-11T10:43:57Z</time>
      </trkpt>
      <trkpt lat="46.59356" lon="0.60224">
        <ele>82.2</ele>
        <time>2024-02-11T10:44:03Z</time>
      </trkpt>
      <trkpt lat="46.59377" lon="0.60191">
        <ele>81.6</ele>
        <time>2024-02-11T10:44:10Z</time>
      </trkpt>
      <trkpt lat="46.59385" lon="0.60168">
        <ele>81.4</ele>
        <time>2024-02-11T10:44:13Z</time>
      </trkpt>
      <trkpt lat="46.59388" lon="0.6016">
        <ele>81.2</ele>
        <time>2024-02-11T10:44:14Z</time>
      </trkpt>
      <trkpt lat="46.59391" lon="0.60153">
        <ele>80.4</ele>
        <time>2024-02-11T10:44:15Z</time>
      </trkpt>
      <trkpt lat="46.59395" lon="0.60148">
        <ele>79.8</ele>
        <time>2024-02-11T10:44:16Z</time>
      </trkpt>
      <trkpt lat="46.59399" lon="0.60143">
        <ele>79.6</ele>
        <time>2024-02-11T10:44:17Z</time>
      </trkpt>
      <trkpt lat="46.59412" lon="0.60136">
        <ele>79</ele>
        <time>2024-02-11T10:44:20Z</time>
      </trkpt>
      <trkpt lat="46.59422" lon="0.60133">
        <ele>79.2</ele>
        <time>2024-02-11T10:44:23Z</time>
      </trkpt>
      <trkpt lat="46.59443" lon="0.60124">
        <ele>80.4</ele>
        <time>2024-02-11T10:44:29Z</time>
      </trkpt>
      <trkpt lat="46.5945" lon="0.60116">
        <ele>81</ele>
        <time>2024-02-11T10:44:31Z</time>
      </trkpt>
      <trkpt lat="46.59459" lon="0.60103">
        <ele>81.4</ele>
        <time>2024-02-11T10:44:34Z</time>
      </trkpt>
      <trkpt lat="46.59465" lon="0.60088">
        <ele>82</ele>
        <time>2024-02-11T10:44:37Z</time>
      </trkpt>
      <trkpt lat="46.59475" lon="0.60069">
        <ele>82.4</ele>
        <time>2024-02-11T10:44:41Z</time>
      </trkpt>
      <trkpt lat="46.59482" lon="0.60052">
        <ele>83.2</ele>
        <time>2024-02-11T10:44:44Z</time>
      </trkpt>
      <trkpt lat="46.59491" lon="0.60038">
        <ele>83.8</ele>
        <time>2024-02-11T10:44:47Z</time>
      </trkpt>
      <trkpt lat="46.59497" lon="0.6003">
        <ele>84</ele>
        <time>2024-02-11T10:44:49Z</time>
      </trkpt>
      <trkpt lat="46.59501" lon="0.60026">
        <ele>84.2</ele>
        <time>2024-02-11T10:44:50Z</time>
      </trkpt>
      <trkpt lat="46.59509" lon="0.60019">
        <ele>84.4</ele>
        <time>2024-02-11T10:44:52Z</time>
      </trkpt>
      <trkpt lat="46.59516" lon="0.60011">
        <ele>84.4</ele>
        <time>2024-02-11T10:44:54Z</time>
      </trkpt>
      <trkpt lat="46.59528" lon="0.59996">
        <ele>84.4</ele>
        <time>2024-02-11T10:44:57Z</time>
      </trkpt>
      <trkpt lat="46.59535" lon="0.59988">
        <ele>84.4</ele>
        <time>2024-02-11T10:44:59Z</time>
      </trkpt>
      <trkpt lat="46.59554" lon="0.59973">
        <ele>84.4</ele>
        <time>2024-02-11T10:45:04Z</time>
      </trkpt>
      <trkpt lat="46.59584" lon="0.59953">
        <ele>83</ele>
        <time>2024-02-11T10:45:11Z</time>
      </trkpt>
      <trkpt lat="46.59597" lon="0.59944">
        <ele>82.4</ele>
        <time>2024-02-11T10:45:14Z</time>
      </trkpt>
      <trkpt lat="46.59605" lon="0.59933">
        <ele>82.4</ele>
        <time>2024-02-11T10:45:16Z</time>
      </trkpt>
      <trkpt lat="46.59612" lon="0.59918">
        <ele>82.2</ele>
        <time>2024-02-11T10:45:18Z</time>
      </trkpt>
      <trkpt lat="46.59614" lon="0.59909">
        <ele>82</ele>
        <time>2024-02-11T10:45:19Z</time>
      </trkpt>
      <trkpt lat="46.59615" lon="0.599">
        <ele>81.8</ele>
        <time>2024-02-11T10:45:20Z</time>
      </trkpt>
      <trkpt lat="46.59614" lon="0.59881">
        <ele>80.8</ele>
        <time>2024-02-11T10:45:22Z</time>
      </trkpt>
      <trkpt lat="46.59612" lon="0.5986">
        <ele>79.8</ele>
        <time>2024-02-11T10:45:24Z</time>
      </trkpt>
      <trkpt lat="46.59612" lon="0.59838">
        <ele>78.4</ele>
        <time>2024-02-11T10:45:26Z</time>
      </trkpt>
      <trkpt lat="46.59612" lon="0.59815">
        <ele>77</ele>
        <time>2024-02-11T10:45:28Z</time>
      </trkpt>
      <trkpt lat="46.59613" lon="0.59804">
        <ele>76.6</ele>
        <time>2024-02-11T10:45:29Z</time>
      </trkpt>
      <trkpt lat="46.59612" lon="0.59794">
        <ele>76</ele>
        <time>2024-02-11T10:45:30Z</time>
      </trkpt>
      <trkpt lat="46.59611" lon="0.59785">
        <ele>75.8</ele>
        <time>2024-02-11T10:45:31Z</time>
      </trkpt>
      <trkpt lat="46.59608" lon="0.59778">
        <ele>75.6</ele>
        <time>2024-02-11T10:45:32Z</time>
      </trkpt>
      <trkpt lat="46.59589" lon="0.59749">
        <ele>76.6</ele>
        <time>2024-02-11T10:45:37Z</time>
      </trkpt>
      <trkpt lat="46.59585" lon="0.59744">
        <ele>76.8</ele>
        <time>2024-02-11T10:45:38Z</time>
      </trkpt>
      <trkpt lat="46.59564" lon="0.5972">
        <ele>78</ele>
        <time>2024-02-11T10:45:44Z</time>
      </trkpt>
      <trkpt lat="46.59561" lon="0.59716">
        <ele>78.2</ele>
        <time>2024-02-11T10:45:45Z</time>
      </trkpt>
      <trkpt lat="46.59555" lon="0.5971">
        <ele>79</ele>
        <time>2024-02-11T10:45:47Z</time>
      </trkpt>
      <trkpt lat="46.59541" lon="0.59693">
        <ele>80.2</ele>
        <time>2024-02-11T10:45:52Z</time>
      </trkpt>
      <trkpt lat="46.59538" lon="0.59689">
        <ele>80.4</ele>
        <time>2024-02-11T10:45:53Z</time>
      </trkpt>
      <trkpt lat="46.5953" lon="0.59678">
        <ele>81.2</ele>
        <time>2024-02-11T10:45:56Z</time>
      </trkpt>
      <trkpt lat="46.59517" lon="0.5966">
        <ele>82.4</ele>
        <time>2024-02-11T10:46:01Z</time>
      </trkpt>
      <trkpt lat="46.59514" lon="0.59658">
        <ele>82.6</ele>
        <time>2024-02-11T10:46:02Z</time>
      </trkpt>
      <trkpt lat="46.59502" lon="0.59644">
        <ele>83.4</ele>
        <time>2024-02-11T10:46:07Z</time>
      </trkpt>
      <trkpt lat="46.59497" lon="0.59638">
        <ele>83.8</ele>
        <time>2024-02-11T10:46:09Z</time>
      </trkpt>
      <trkpt lat="46.59482" lon="0.5962">
        <ele>84.4</ele>
        <time>2024-02-11T10:46:15Z</time>
      </trkpt>
      <trkpt lat="46.59474" lon="0.5961">
        <ele>85.2</ele>
        <time>2024-02-11T10:46:18Z</time>
      </trkpt>
      <trkpt lat="46.59467" lon="0.59601">
        <ele>85.6</ele>
        <time>2024-02-11T10:46:21Z</time>
      </trkpt>
      <trkpt lat="46.59458" lon="0.59589">
        <ele>86.6</ele>
        <time>2024-02-11T10:46:25Z</time>
      </trkpt>
      <trkpt lat="46.59454" lon="0.59584">
        <ele>86.8</ele>
        <time>2024-02-11T10:46:27Z</time>
      </trkpt>
      <trkpt lat="46.5944" lon="0.59565">
        <ele>87.4</ele>
        <time>2024-02-11T10:46:33Z</time>
      </trkpt>
      <trkpt lat="46.59434" lon="0.59555">
        <ele>88</ele>
        <time>2024-02-11T10:46:36Z</time>
      </trkpt>
      <trkpt lat="46.59425" lon="0.59538">
        <ele>89.2</ele>
        <time>2024-02-11T10:46:41Z</time>
      </trkpt>
      <trkpt lat="46.59424" lon="0.59535">
        <ele>89.4</ele>
        <time>2024-02-11T10:46:42Z</time>
      </trkpt>
      <trkpt lat="46.59429" lon="0.59526">
        <ele>89.6</ele>
        <time>2024-02-11T10:46:45Z</time>
      </trkpt>
      <trkpt lat="46.59435" lon="0.59517">
        <ele>90.4</ele>
        <time>2024-02-11T10:46:49Z</time>
      </trkpt>
      <trkpt lat="46.59441" lon="0.59508">
        <ele>91.2</ele>
        <time>2024-02-11T10:46:53Z</time>
      </trkpt>
      <trkpt lat="46.59445" lon="0.59504">
        <ele>91.4</ele>
        <time>2024-02-11T10:46:55Z</time>
      </trkpt>
      <trkpt lat="46.59455" lon="0.59488">
        <ele>92.4</ele>
        <time>2024-02-11T10:47:01Z</time>
      </trkpt>
      <trkpt lat="46.59462" lon="0.59478">
        <ele>93.4</ele>
        <time>2024-02-11T10:47:06Z</time>
      </trkpt>
      <trkpt lat="46.59464" lon="0.59476">
        <ele>93.6</ele>
        <time>2024-02-11T10:47:07Z</time>
      </trkpt>
      <trkpt lat="46.59469" lon="0.59468">
        <ele>94</ele>
        <time>2024-02-11T10:47:11Z</time>
      </trkpt>
      <trkpt lat="46.5947" lon="0.59467">
        <ele>94.2</ele>
        <time>2024-02-11T10:47:12Z</time>
      </trkpt>
      <trkpt lat="46.59476" lon="0.59459">
        <ele>94.6</ele>
        <time>2024-02-11T10:47:16Z</time>
      </trkpt>
      <trkpt lat="46.59479" lon="0.59455">
        <ele>94.8</ele>
        <time>2024-02-11T10:47:18Z</time>
      </trkpt>
      <trkpt lat="46.59488" lon="0.59443">
        <ele>95.6</ele>
        <time>2024-02-11T10:47:24Z</time>
      </trkpt>
      <trkpt lat="46.59489" lon="0.5944">
        <ele>95.6</ele>
        <time>2024-02-11T10:47:25Z</time>
      </trkpt>
      <trkpt lat="46.59497" lon="0.59423">
        <ele>95.8</ele>
        <time>2024-02-11T10:47:30Z</time>
      </trkpt>
      <trkpt lat="46.5951" lon="0.59385">
        <ele>96.4</ele>
        <time>2024-02-11T10:47:38Z</time>
      </trkpt>
      <trkpt lat="46.59511" lon="0.5937">
        <ele>96.8</ele>
        <time>2024-02-11T10:47:42Z</time>
      </trkpt>
      <trkpt lat="46.59512" lon="0.59357">
        <ele>97.4</ele>
        <time>2024-02-11T10:47:45Z</time>
      </trkpt>
      <trkpt lat="46.5951" lon="0.59344">
        <ele>97.8</ele>
        <time>2024-02-11T10:47:48Z</time>
      </trkpt>
      <trkpt lat="46.5951" lon="0.59341">
        <ele>97.8</ele>
        <time>2024-02-11T10:47:49Z</time>
      </trkpt>
      <trkpt lat="46.59511" lon="0.59338">
        <ele>97.8</ele>
        <time>2024-02-11T10:47:50Z</time>
      </trkpt>
      <trkpt lat="46.59516" lon="0.59313">
        <ele>98.2</ele>
        <time>2024-02-11T10:47:56Z</time>
      </trkpt>
      <trkpt lat="46.59525" lon="0.59289">
        <ele>98.8</ele>
        <time>2024-02-11T10:48:02Z</time>
      </trkpt>
      <trkpt lat="46.59533" lon="0.59263">
        <ele>98.6</ele>
        <time>2024-02-11T10:48:07Z</time>
      </trkpt>
      <trkpt lat="46.59538" lon="0.59241">
        <ele>98.6</ele>
        <time>2024-02-11T10:48:12Z</time>
      </trkpt>
      <trkpt lat="46.59548" lon="0.59215">
        <ele>98.6</ele>
        <time>2024-02-11T10:48:17Z</time>
      </trkpt>
      <trkpt lat="46.5955" lon="0.5921">
        <ele>98.8</ele>
        <time>2024-02-11T10:48:18Z</time>
      </trkpt>
      <trkpt lat="46.59551" lon="0.59205">
        <ele>99</ele>
        <time>2024-02-11T10:48:19Z</time>
      </trkpt>
      <trkpt lat="46.59556" lon="0.59188">
        <ele>98.8</ele>
        <time>2024-02-11T10:48:22Z</time>
      </trkpt>
      <trkpt lat="46.59563" lon="0.59166">
        <ele>97.6</ele>
        <time>2024-02-11T10:48:26Z</time>
      </trkpt>
      <trkpt lat="46.59569" lon="0.5915">
        <ele>97.2</ele>
        <time>2024-02-11T10:48:29Z</time>
      </trkpt>
      <trkpt lat="46.59574" lon="0.59135">
        <ele>96.4</ele>
        <time>2024-02-11T10:48:33Z</time>
      </trkpt>
      <trkpt lat="46.59578" lon="0.5913">
        <ele>96</ele>
        <time>2024-02-11T10:48:35Z</time>
      </trkpt>
      <trkpt lat="46.59585" lon="0.59126">
        <ele>95.6</ele>
        <time>2024-02-11T10:48:39Z</time>
      </trkpt>
      <trkpt lat="46.59588" lon="0.59126">
        <ele>95.4</ele>
        <time>2024-02-11T10:48:41Z</time>
      </trkpt>
      <trkpt lat="46.5959" lon="0.59125">
        <ele>95.4</ele>
        <time>2024-02-11T10:48:42Z</time>
      </trkpt>
      <trkpt lat="46.59599" lon="0.59124">
        <ele>95.2</ele>
        <time>2024-02-11T10:48:46Z</time>
      </trkpt>
      <trkpt lat="46.59617" lon="0.59122">
        <ele>94.4</ele>
        <time>2024-02-11T10:48:52Z</time>
      </trkpt>
      <trkpt lat="46.59621" lon="0.59123">
        <ele>94</ele>
        <time>2024-02-11T10:48:53Z</time>
      </trkpt>
      <trkpt lat="46.59633" lon="0.59123">
        <ele>93</ele>
        <time>2024-02-11T10:48:56Z</time>
      </trkpt>
      <trkpt lat="46.59642" lon="0.59123">
        <ele>92.6</ele>
        <time>2024-02-11T10:48:58Z</time>
      </trkpt>
      <trkpt lat="46.59659" lon="0.59126">
        <ele>91.6</ele>
        <time>2024-02-11T10:49:02Z</time>
      </trkpt>
      <trkpt lat="46.59673" lon="0.59127">
        <ele>90.4</ele>
        <time>2024-02-11T10:49:05Z</time>
      </trkpt>
      <trkpt lat="46.59682" lon="0.59126">
        <ele>89.2</ele>
        <time>2024-02-11T10:49:07Z</time>
      </trkpt>
      <trkpt lat="46.59685" lon="0.59125">
        <ele>88.6</ele>
        <time>2024-02-11T10:49:08Z</time>
      </trkpt>
      <trkpt lat="46.59695" lon="0.59123">
        <ele>88</ele>
        <time>2024-02-11T10:49:10Z</time>
      </trkpt>
      <trkpt lat="46.59702" lon="0.59123">
        <ele>87.8</ele>
        <time>2024-02-11T10:49:12Z</time>
      </trkpt>
      <trkpt lat="46.59713" lon="0.59123">
        <ele>88.4</ele>
        <time>2024-02-11T10:49:15Z</time>
      </trkpt>
      <trkpt lat="46.59724" lon="0.59121">
        <ele>88.8</ele>
        <time>2024-02-11T10:49:18Z</time>
      </trkpt>
      <trkpt lat="46.59733" lon="0.59121">
        <ele>89</ele>
        <time>2024-02-11T10:49:20Z</time>
      </trkpt>
      <trkpt lat="46.59742" lon="0.5912">
        <ele>89.2</ele>
        <time>2024-02-11T10:49:22Z</time>
      </trkpt>
      <trkpt lat="46.59755" lon="0.59121">
        <ele>89.6</ele>
        <time>2024-02-11T10:49:25Z</time>
      </trkpt>
      <trkpt lat="46.59768" lon="0.59119">
        <ele>90</ele>
        <time>2024-02-11T10:49:28Z</time>
      </trkpt>
      <trkpt lat="46.59772" lon="0.59119">
        <ele>90.2</ele>
        <time>2024-02-11T10:49:29Z</time>
      </trkpt>
      <trkpt lat="46.59781" lon="0.59117">
        <ele>90.4</ele>
        <time>2024-02-11T10:49:31Z</time>
      </trkpt>
      <trkpt lat="46.59786" lon="0.59117">
        <ele>90.6</ele>
        <time>2024-02-11T10:49:32Z</time>
      </trkpt>
      <trkpt lat="46.59807" lon="0.59116">
        <ele>91</ele>
        <time>2024-02-11T10:49:36Z</time>
      </trkpt>
      <trkpt lat="46.59816" lon="0.59108">
        <ele>91</ele>
        <time>2024-02-11T10:49:39Z</time>
      </trkpt>
      <trkpt lat="46.59823" lon="0.59087">
        <ele>91.2</ele>
        <time>2024-02-11T10:49:43Z</time>
      </trkpt>
      <trkpt lat="46.59825" lon="0.59078">
        <ele>91.4</ele>
        <time>2024-02-11T10:49:45Z</time>
      </trkpt>
      <trkpt lat="46.59827" lon="0.59061">
        <ele>91.8</ele>
        <time>2024-02-11T10:49:49Z</time>
      </trkpt>
      <trkpt lat="46.59829" lon="0.59031">
        <ele>92.2</ele>
        <time>2024-02-11T10:49:55Z</time>
      </trkpt>
      <trkpt lat="46.5983" lon="0.5902">
        <ele>92.4</ele>
        <time>2024-02-11T10:49:57Z</time>
      </trkpt>
      <trkpt lat="46.59836" lon="0.58982">
        <ele>92.8</ele>
        <time>2024-02-11T10:50:04Z</time>
      </trkpt>
      <trkpt lat="46.59841" lon="0.58952">
        <ele>93.4</ele>
        <time>2024-02-11T10:50:10Z</time>
      </trkpt>
      <trkpt lat="46.59842" lon="0.58937">
        <ele>93.6</ele>
        <time>2024-02-11T10:50:13Z</time>
      </trkpt>
      <trkpt lat="46.59845" lon="0.589">
        <ele>93.8</ele>
        <time>2024-02-11T10:50:21Z</time>
      </trkpt>
      <trkpt lat="46.59847" lon="0.58878">
        <ele>94.6</ele>
        <time>2024-02-11T10:50:26Z</time>
      </trkpt>
      <trkpt lat="46.59848" lon="0.58869">
        <ele>94.6</ele>
        <time>2024-02-11T10:50:28Z</time>
      </trkpt>
      <trkpt lat="46.5985" lon="0.58838">
        <ele>94.6</ele>
        <time>2024-02-11T10:50:34Z</time>
      </trkpt>
      <trkpt lat="46.59851" lon="0.58798">
        <ele>94.6</ele>
        <time>2024-02-11T10:50:42Z</time>
      </trkpt>
      <trkpt lat="46.5985" lon="0.58769">
        <ele>94.8</ele>
        <time>2024-02-11T10:50:48Z</time>
      </trkpt>
      <trkpt lat="46.59849" lon="0.58758">
        <ele>95</ele>
        <time>2024-02-11T10:50:50Z</time>
      </trkpt>
      <trkpt lat="46.5985" lon="0.58738">
        <ele>94.6</ele>
        <time>2024-02-11T10:50:53Z</time>
      </trkpt>
      <trkpt lat="46.59852" lon="0.58692">
        <ele>93</ele>
        <time>2024-02-11T10:50:59Z</time>
      </trkpt>
      <trkpt lat="46.59853" lon="0.58674">
        <ele>91.8</ele>
        <time>2024-02-11T10:51:01Z</time>
      </trkpt>
      <trkpt lat="46.59855" lon="0.58655">
        <ele>90.2</ele>
        <time>2024-02-11T10:51:03Z</time>
      </trkpt>
      <trkpt lat="46.59856" lon="0.58646">
        <ele>89.6</ele>
        <time>2024-02-11T10:51:04Z</time>
      </trkpt>
      <trkpt lat="46.59856" lon="0.58637">
        <ele>89</ele>
        <time>2024-02-11T10:51:05Z</time>
      </trkpt>
      <trkpt lat="46.59857" lon="0.5862">
        <ele>87.8</ele>
        <time>2024-02-11T10:51:07Z</time>
      </trkpt>
      <trkpt lat="46.59861" lon="0.58584">
        <ele>86.4</ele>
        <time>2024-02-11T10:51:11Z</time>
      </trkpt>
      <trkpt lat="46.59861" lon="0.58575">
        <ele>86.2</ele>
        <time>2024-02-11T10:51:12Z</time>
      </trkpt>
      <trkpt lat="46.59862" lon="0.58567">
        <ele>85.4</ele>
        <time>2024-02-11T10:51:13Z</time>
      </trkpt>
      <trkpt lat="46.59863" lon="0.58542">
        <ele>84.2</ele>
        <time>2024-02-11T10:51:16Z</time>
      </trkpt>
      <trkpt lat="46.59863" lon="0.58535">
        <ele>83.4</ele>
        <time>2024-02-11T10:51:17Z</time>
      </trkpt>
      <trkpt lat="46.59863" lon="0.58527">
        <ele>82.8</ele>
        <time>2024-02-11T10:51:18Z</time>
      </trkpt>
      <trkpt lat="46.59865" lon="0.58508">
        <ele>81</ele>
        <time>2024-02-11T10:51:20Z</time>
      </trkpt>
      <trkpt lat="46.59866" lon="0.58492">
        <ele>79.6</ele>
        <time>2024-02-11T10:51:22Z</time>
      </trkpt>
      <trkpt lat="46.59866" lon="0.58483">
        <ele>78.4</ele>
        <time>2024-02-11T10:51:23Z</time>
      </trkpt>
      <trkpt lat="46.59867" lon="0.58465">
        <ele>76.8</ele>
        <time>2024-02-11T10:51:25Z</time>
      </trkpt>
      <trkpt lat="46.59869" lon="0.5845">
        <ele>76</ele>
        <time>2024-02-11T10:51:27Z</time>
      </trkpt>
      <trkpt lat="46.59869" lon="0.58444">
        <ele>75.6</ele>
        <time>2024-02-11T10:51:28Z</time>
      </trkpt>
      <trkpt lat="46.5987" lon="0.5844">
        <ele>75.8</ele>
        <time>2024-02-11T10:51:29Z</time>
      </trkpt>
      <trkpt lat="46.5987" lon="0.58434">
        <ele>75.8</ele>
        <time>2024-02-11T10:51:31Z</time>
      </trkpt>
      <trkpt lat="46.5987" lon="0.58428">
        <ele>77</ele>
        <time>2024-02-11T10:51:34Z</time>
      </trkpt>
      <trkpt lat="46.5987" lon="0.58426">
        <ele>77.2</ele>
        <time>2024-02-11T10:51:35Z</time>
      </trkpt>
      <trkpt lat="46.59871" lon="0.58425">
        <ele>78</ele>
        <time>2024-02-11T10:51:36Z</time>
      </trkpt>
      <trkpt lat="46.59871" lon="0.58423">
        <ele>78.6</ele>
        <time>2024-02-11T10:51:37Z</time>
      </trkpt>
      <trkpt lat="46.59871" lon="0.58419">
        <ele>79</ele>
        <time>2024-02-11T10:51:39Z</time>
      </trkpt>
      <trkpt lat="46.59872" lon="0.58413">
        <ele>80.2</ele>
        <time>2024-02-11T10:51:42Z</time>
      </trkpt>
      <trkpt lat="46.59875" lon="0.58407">
        <ele>81.6</ele>
        <time>2024-02-11T10:51:45Z</time>
      </trkpt>
      <trkpt lat="46.59876" lon="0.58402">
        <ele>82.2</ele>
        <time>2024-02-11T10:51:47Z</time>
      </trkpt>
      <trkpt lat="46.59876" lon="0.584">
        <ele>82.8</ele>
        <time>2024-02-11T10:51:48Z</time>
      </trkpt>
      <trkpt lat="46.59876" lon="0.58396">
        <ele>83.8</ele>
        <time>2024-02-11T10:51:50Z</time>
      </trkpt>
      <trkpt lat="46.59875" lon="0.5839">
        <ele>85</ele>
        <time>2024-02-11T10:51:53Z</time>
      </trkpt>
      <trkpt lat="46.59873" lon="0.58387">
        <ele>85.2</ele>
        <time>2024-02-11T10:51:55Z</time>
      </trkpt>
      <trkpt lat="46.59869" lon="0.58381">
        <ele>85.8</ele>
        <time>2024-02-11T10:52:01Z</time>
      </trkpt>
      <trkpt lat="46.59868" lon="0.5838">
        <ele>86</ele>
        <time>2024-02-11T10:52:03Z</time>
      </trkpt>
      <trkpt lat="46.59867" lon="0.58379">
        <ele>86</ele>
        <time>2024-02-11T10:52:05Z</time>
      </trkpt>
      <trkpt lat="46.59861" lon="0.58372">
        <ele>86</ele>
        <time>2024-02-11T10:52:14Z</time>
      </trkpt>
      <trkpt lat="46.59861" lon="0.58366">
        <ele>86.4</ele>
        <time>2024-02-11T10:52:18Z</time>
      </trkpt>
      <trkpt lat="46.59859" lon="0.58366">
        <ele>86.4</ele>
        <time>2024-02-11T10:52:21Z</time>
      </trkpt>
      <trkpt lat="46.59859" lon="0.58368">
        <ele>86.6</ele>
        <time>2024-02-11T10:52:23Z</time>
      </trkpt>
      <trkpt lat="46.59863" lon="0.58374">
        <ele>86.4</ele>
        <time>2024-02-11T10:52:27Z</time>
      </trkpt>
      <trkpt lat="46.59865" lon="0.58377">
        <ele>86.4</ele>
        <time>2024-02-11T10:52:29Z</time>
      </trkpt>
      <trkpt lat="46.59868" lon="0.58378">
        <ele>86</ele>
        <time>2024-02-11T10:52:31Z</time>
      </trkpt>
      <trkpt lat="46.59868" lon="0.58377">
        <ele>86</ele>
        <time>2024-02-11T10:52:32Z</time>
      </trkpt>
      <trkpt lat="46.5987" lon="0.58368">
        <ele>87.2</ele>
        <time>2024-02-11T10:52:36Z</time>
      </trkpt>
      <trkpt lat="46.59872" lon="0.58366">
        <ele>87.4</ele>
        <time>2024-02-11T10:52:37Z</time>
      </trkpt>
      <trkpt lat="46.59873" lon="0.58366">
        <ele>87.6</ele>
        <time>2024-02-11T10:52:38Z</time>
      </trkpt>
      <trkpt lat="46.59879" lon="0.58369">
        <ele>87.6</ele>
        <time>2024-02-11T10:52:41Z</time>
      </trkpt>
      <trkpt lat="46.59896" lon="0.58382">
        <ele>87.2</ele>
        <time>2024-02-11T10:52:48Z</time>
      </trkpt>
      <trkpt lat="46.59909" lon="0.584">
        <ele>87.2</ele>
        <time>2024-02-11T10:52:53Z</time>
      </trkpt>
      <trkpt lat="46.59912" lon="0.58404">
        <ele>87.2</ele>
        <time>2024-02-11T10:52:54Z</time>
      </trkpt>
      <trkpt lat="46.59923" lon="0.58419">
        <ele>87</ele>
        <time>2024-02-11T10:52:58Z</time>
      </trkpt>
      <trkpt lat="46.59929" lon="0.5843">
        <ele>87</ele>
        <time>2024-02-11T10:53:01Z</time>
      </trkpt>
      <trkpt lat="46.59935" lon="0.58443">
        <ele>87</ele>
        <time>2024-02-11T10:53:04Z</time>
      </trkpt>
      <trkpt lat="46.59938" lon="0.58449">
        <ele>86.8</ele>
        <time>2024-02-11T10:53:05Z</time>
      </trkpt>
      <trkpt lat="46.59947" lon="0.58467">
        <ele>86.2</ele>
        <time>2024-02-11T10:53:08Z</time>
      </trkpt>
      <trkpt lat="46.59952" lon="0.58479">
        <ele>85.6</ele>
        <time>2024-02-11T10:53:10Z</time>
      </trkpt>
      <trkpt lat="46.59958" lon="0.58499">
        <ele>85</ele>
        <time>2024-02-11T10:53:13Z</time>
      </trkpt>
      <trkpt lat="46.59963" lon="0.58509">
        <ele>84</ele>
        <time>2024-02-11T10:53:15Z</time>
      </trkpt>
      <trkpt lat="46.5997" lon="0.58528">
        <ele>83</ele>
        <time>2024-02-11T10:53:19Z</time>
      </trkpt>
      <trkpt lat="46.59972" lon="0.58532">
        <ele>83</ele>
        <time>2024-02-11T10:53:20Z</time>
      </trkpt>
      <trkpt lat="46.59976" lon="0.58545">
        <ele>82</ele>
        <time>2024-02-11T10:53:23Z</time>
      </trkpt>
      <trkpt lat="46.59978" lon="0.5855">
        <ele>81.8</ele>
        <time>2024-02-11T10:53:24Z</time>
      </trkpt>
      <trkpt lat="46.5998" lon="0.58554">
        <ele>81.6</ele>
        <time>2024-02-11T10:53:25Z</time>
      </trkpt>
      <trkpt lat="46.59982" lon="0.58562">
        <ele>81.2</ele>
        <time>2024-02-11T10:53:27Z</time>
      </trkpt>
      <trkpt lat="46.59986" lon="0.58568">
        <ele>80.6</ele>
        <time>2024-02-11T10:53:30Z</time>
      </trkpt>
      <trkpt lat="46.59988" lon="0.58573">
        <ele>80.2</ele>
        <time>2024-02-11T10:53:32Z</time>
      </trkpt>
      <trkpt lat="46.59992" lon="0.58586">
        <ele>79.8</ele>
        <time>2024-02-11T10:53:38Z</time>
      </trkpt>
      <trkpt lat="46.59997" lon="0.58591">
        <ele>79.6</ele>
        <time>2024-02-11T10:53:46Z</time>
      </trkpt>
      <trkpt lat="46.60001" lon="0.58598">
        <ele>79.4</ele>
        <time>2024-02-11T10:53:55Z</time>
      </trkpt>
      <trkpt lat="46.59999" lon="0.58604">
        <ele>79.6</ele>
        <time>2024-02-11T10:54:08Z</time>
      </trkpt>
      <trkpt lat="46.59998" lon="0.58604">
        <ele>79.4</ele>
        <time>2024-02-11T10:54:10Z</time>
      </trkpt>
      <trkpt lat="46.59995" lon="0.58604">
        <ele>79.2</ele>
        <time>2024-02-11T10:54:21Z</time>
      </trkpt>
      <trkpt lat="46.5999" lon="0.586">
        <ele>78.8</ele>
        <time>2024-02-11T10:54:26Z</time>
      </trkpt>
      <trkpt lat="46.59988" lon="0.58598">
        <ele>78</ele>
        <time>2024-02-11T10:54:27Z</time>
      </trkpt>
      <trkpt lat="46.5998" lon="0.58584">
        <ele>78</ele>
        <time>2024-02-11T10:54:33Z</time>
      </trkpt>
      <trkpt lat="46.59971" lon="0.58568">
        <ele>79</ele>
        <time>2024-02-11T10:54:37Z</time>
      </trkpt>
      <trkpt lat="46.59967" lon="0.58559">
        <ele>79.4</ele>
        <time>2024-02-11T10:54:39Z</time>
      </trkpt>
      <trkpt lat="46.59955" lon="0.5853">
        <ele>80.2</ele>
        <time>2024-02-11T10:54:45Z</time>
      </trkpt>
      <trkpt lat="46.59953" lon="0.58525">
        <ele>80.2</ele>
        <time>2024-02-11T10:54:46Z</time>
      </trkpt>
      <trkpt lat="46.59946" lon="0.58508">
        <ele>81.2</ele>
        <time>2024-02-11T10:54:49Z</time>
      </trkpt>
      <trkpt lat="46.59934" lon="0.58481">
        <ele>82</ele>
        <time>2024-02-11T10:54:55Z</time>
      </trkpt>
      <trkpt lat="46.59928" lon="0.5847">
        <ele>82.4</ele>
        <time>2024-02-11T10:54:58Z</time>
      </trkpt>
      <trkpt lat="46.59921" lon="0.58456">
        <ele>83</ele>
        <time>2024-02-11T10:55:02Z</time>
      </trkpt>
      <trkpt lat="46.59915" lon="0.58445">
        <ele>83.4</ele>
        <time>2024-02-11T10:55:05Z</time>
      </trkpt>
      <trkpt lat="46.59909" lon="0.58435">
        <ele>83.8</ele>
        <time>2024-02-11T10:55:08Z</time>
      </trkpt>
      <trkpt lat="46.59892" lon="0.58408">
        <ele>84.6</ele>
        <time>2024-02-11T10:55:16Z</time>
      </trkpt>
      <trkpt lat="46.59876" lon="0.58384">
        <ele>85.6</ele>
        <time>2024-02-11T10:55:22Z</time>
      </trkpt>
      <trkpt lat="46.59854" lon="0.58354">
        <ele>86.4</ele>
        <time>2024-02-11T10:55:29Z</time>
      </trkpt>
      <trkpt lat="46.59838" lon="0.58338">
        <ele>86.6</ele>
        <time>2024-02-11T10:55:34Z</time>
      </trkpt>
      <trkpt lat="46.59832" lon="0.58331">
        <ele>86.6</ele>
        <time>2024-02-11T10:55:36Z</time>
      </trkpt>
      <trkpt lat="46.5981" lon="0.5831">
        <ele>87</ele>
        <time>2024-02-11T10:55:44Z</time>
      </trkpt>
      <trkpt lat="46.59792" lon="0.58294">
        <ele>87.2</ele>
        <time>2024-02-11T10:55:51Z</time>
      </trkpt>
      <trkpt lat="46.59778" lon="0.58282">
        <ele>87.6</ele>
        <time>2024-02-11T10:55:56Z</time>
      </trkpt>
      <trkpt lat="46.5976" lon="0.58268">
        <ele>88.2</ele>
        <time>2024-02-11T10:56:02Z</time>
      </trkpt>
      <trkpt lat="46.59749" lon="0.58262">
        <ele>88.6</ele>
        <time>2024-02-11T10:56:05Z</time>
      </trkpt>
      <trkpt lat="46.59738" lon="0.58254">
        <ele>88.8</ele>
        <time>2024-02-11T10:56:09Z</time>
      </trkpt>
      <trkpt lat="46.59719" lon="0.58242">
        <ele>89.8</ele>
        <time>2024-02-11T10:56:15Z</time>
      </trkpt>
      <trkpt lat="46.59697" lon="0.58226">
        <ele>90.8</ele>
        <time>2024-02-11T10:56:22Z</time>
      </trkpt>
      <trkpt lat="46.59694" lon="0.58223">
        <ele>91</ele>
        <time>2024-02-11T10:56:23Z</time>
      </trkpt>
      <trkpt lat="46.59684" lon="0.58216">
        <ele>91.6</ele>
        <time>2024-02-11T10:56:26Z</time>
      </trkpt>
      <trkpt lat="46.59676" lon="0.58211">
        <ele>91.8</ele>
        <time>2024-02-11T10:56:28Z</time>
      </trkpt>
      <trkpt lat="46.59664" lon="0.58204">
        <ele>92</ele>
        <time>2024-02-11T10:56:31Z</time>
      </trkpt>
      <trkpt lat="46.59649" lon="0.58193">
        <ele>92.8</ele>
        <time>2024-02-11T10:56:35Z</time>
      </trkpt>
      <trkpt lat="46.59642" lon="0.58189">
        <ele>93.2</ele>
        <time>2024-02-11T10:56:37Z</time>
      </trkpt>
      <trkpt lat="46.59635" lon="0.58184">
        <ele>93.4</ele>
        <time>2024-02-11T10:56:39Z</time>
      </trkpt>
      <trkpt lat="46.59627" lon="0.58178">
        <ele>93.4</ele>
        <time>2024-02-11T10:56:41Z</time>
      </trkpt>
      <trkpt lat="46.59619" lon="0.58172">
        <ele>93.6</ele>
        <time>2024-02-11T10:56:43Z</time>
      </trkpt>
      <trkpt lat="46.59608" lon="0.58161">
        <ele>93.6</ele>
        <time>2024-02-11T10:56:46Z</time>
      </trkpt>
      <trkpt lat="46.59595" lon="0.5815">
        <ele>94.4</ele>
        <time>2024-02-11T10:56:49Z</time>
      </trkpt>
      <trkpt lat="46.59581" lon="0.58138">
        <ele>94.6</ele>
        <time>2024-02-11T10:56:52Z</time>
      </trkpt>
      <trkpt lat="46.59553" lon="0.58104">
        <ele>94.4</ele>
        <time>2024-02-11T10:56:58Z</time>
      </trkpt>
      <trkpt lat="46.59543" lon="0.58088">
        <ele>94.2</ele>
        <time>2024-02-11T10:57:01Z</time>
      </trkpt>
      <trkpt lat="46.59535" lon="0.58079">
        <ele>93.8</ele>
        <time>2024-02-11T10:57:03Z</time>
      </trkpt>
      <trkpt lat="46.59533" lon="0.58075">
        <ele>93.8</ele>
        <time>2024-02-11T10:57:04Z</time>
      </trkpt>
      <trkpt lat="46.59529" lon="0.58065">
        <ele>93.8</ele>
        <time>2024-02-11T10:57:06Z</time>
      </trkpt>
      <trkpt lat="46.59528" lon="0.5806">
        <ele>93.8</ele>
        <time>2024-02-11T10:57:07Z</time>
      </trkpt>
      <trkpt lat="46.5953" lon="0.58051">
        <ele>94</ele>
        <time>2024-02-11T10:57:11Z</time>
      </trkpt>
      <trkpt lat="46.59532" lon="0.5805">
        <ele>94</ele>
        <time>2024-02-11T10:57:13Z</time>
      </trkpt>
      <trkpt lat="46.5954" lon="0.58053">
        <ele>94.4</ele>
        <time>2024-02-11T10:57:18Z</time>
      </trkpt>
      <trkpt lat="46.59554" lon="0.58053">
        <ele>95</ele>
        <time>2024-02-11T10:57:25Z</time>
      </trkpt>
      <trkpt lat="46.59566" lon="0.58045">
        <ele>95.2</ele>
        <time>2024-02-11T10:57:31Z</time>
      </trkpt>
      <trkpt lat="46.59571" lon="0.5804">
        <ele>95.4</ele>
        <time>2024-02-11T10:57:34Z</time>
      </trkpt>
      <trkpt lat="46.59578" lon="0.58037">
        <ele>95.4</ele>
        <time>2024-02-11T10:57:37Z</time>
      </trkpt>
      <trkpt lat="46.59581" lon="0.58035">
        <ele>95.4</ele>
        <time>2024-02-11T10:57:38Z</time>
      </trkpt>
      <trkpt lat="46.59592" lon="0.5803">
        <ele>95.2</ele>
        <time>2024-02-11T10:57:42Z</time>
      </trkpt>
      <trkpt lat="46.59598" lon="0.58026">
        <ele>95</ele>
        <time>2024-02-11T10:57:44Z</time>
      </trkpt>
      <trkpt lat="46.59611" lon="0.58022">
        <ele>94.8</ele>
        <time>2024-02-11T10:57:48Z</time>
      </trkpt>
      <trkpt lat="46.59623" lon="0.58018">
        <ele>94.2</ele>
        <time>2024-02-11T10:57:50Z</time>
      </trkpt>
      <trkpt lat="46.59632" lon="0.58017">
        <ele>93.8</ele>
        <time>2024-02-11T10:57:52Z</time>
      </trkpt>
      <trkpt lat="46.59643" lon="0.58016">
        <ele>92.8</ele>
        <time>2024-02-11T10:57:54Z</time>
      </trkpt>
      <trkpt lat="46.5965" lon="0.58013">
        <ele>92.6</ele>
        <time>2024-02-11T10:57:55Z</time>
      </trkpt>
      <trkpt lat="46.59675" lon="0.58008">
        <ele>91.6</ele>
        <time>2024-02-11T10:57:58Z</time>
      </trkpt>
      <trkpt lat="46.59688" lon="0.58004">
        <ele>90.8</ele>
        <time>2024-02-11T10:58:00Z</time>
      </trkpt>
      <trkpt lat="46.59695" lon="0.58001">
        <ele>90.2</ele>
        <time>2024-02-11T10:58:01Z</time>
      </trkpt>
      <trkpt lat="46.59715" lon="0.57995">
        <ele>88.2</ele>
        <time>2024-02-11T10:58:04Z</time>
      </trkpt>
      <trkpt lat="46.59722" lon="0.57992">
        <ele>87.2</ele>
        <time>2024-02-11T10:58:05Z</time>
      </trkpt>
      <trkpt lat="46.59727" lon="0.57991">
        <ele>86.6</ele>
        <time>2024-02-11T10:58:06Z</time>
      </trkpt>
      <trkpt lat="46.59735" lon="0.5799">
        <ele>86</ele>
        <time>2024-02-11T10:58:07Z</time>
      </trkpt>
      <trkpt lat="46.5974" lon="0.57991">
        <ele>85.4</ele>
        <time>2024-02-11T10:58:08Z</time>
      </trkpt>
      <trkpt lat="46.59755" lon="0.57996">
        <ele>83.6</ele>
        <time>2024-02-11T10:58:10Z</time>
      </trkpt>
      <trkpt lat="46.59761" lon="0.57998">
        <ele>83</ele>
        <time>2024-02-11T10:58:11Z</time>
      </trkpt>
      <trkpt lat="46.59768" lon="0.58">
        <ele>82.4</ele>
        <time>2024-02-11T10:58:12Z</time>
      </trkpt>
      <trkpt lat="46.59798" lon="0.58014">
        <ele>82.2</ele>
        <time>2024-02-11T10:58:16Z</time>
      </trkpt>
      <trkpt lat="46.59809" lon="0.58021">
        <ele>82.8</ele>
        <time>2024-02-11T10:58:19Z</time>
      </trkpt>
      <trkpt lat="46.59814" lon="0.58025">
        <ele>83</ele>
        <time>2024-02-11T10:58:21Z</time>
      </trkpt>
      <trkpt lat="46.59816" lon="0.58028">
        <ele>83.8</ele>
        <time>2024-02-11T10:58:22Z</time>
      </trkpt>
      <trkpt lat="46.5982" lon="0.58031">
        <ele>85</ele>
        <time>2024-02-11T10:58:24Z</time>
      </trkpt>
      <trkpt lat="46.59822" lon="0.58032">
        <ele>85.4</ele>
        <time>2024-02-11T10:58:25Z</time>
      </trkpt>
      <trkpt lat="46.59824" lon="0.58034">
        <ele>86</ele>
        <time>2024-02-11T10:58:26Z</time>
      </trkpt>
      <trkpt lat="46.59827" lon="0.58036">
        <ele>86.4</ele>
        <time>2024-02-11T10:58:27Z</time>
      </trkpt>
      <trkpt lat="46.59833" lon="0.5804">
        <ele>87</ele>
        <time>2024-02-11T10:58:29Z</time>
      </trkpt>
      <trkpt lat="46.59847" lon="0.58051">
        <ele>87.8</ele>
        <time>2024-02-11T10:58:33Z</time>
      </trkpt>
      <trkpt lat="46.59857" lon="0.58059">
        <ele>88.2</ele>
        <time>2024-02-11T10:58:36Z</time>
      </trkpt>
      <trkpt lat="46.5987" lon="0.5807">
        <ele>89</ele>
        <time>2024-02-11T10:58:40Z</time>
      </trkpt>
      <trkpt lat="46.59879" lon="0.58078">
        <ele>89.4</ele>
        <time>2024-02-11T10:58:43Z</time>
      </trkpt>
      <trkpt lat="46.5989" lon="0.58089">
        <ele>90.4</ele>
        <time>2024-02-11T10:58:47Z</time>
      </trkpt>
      <trkpt lat="46.59901" lon="0.58099">
        <ele>90.6</ele>
        <time>2024-02-11T10:58:51Z</time>
      </trkpt>
      <trkpt lat="46.59903" lon="0.58101">
        <ele>90.8</ele>
        <time>2024-02-11T10:58:52Z</time>
      </trkpt>
      <trkpt lat="46.5992" lon="0.58119">
        <ele>91.6</ele>
        <time>2024-02-11T10:58:59Z</time>
      </trkpt>
      <trkpt lat="46.59936" lon="0.58138">
        <ele>92.2</ele>
        <time>2024-02-11T10:59:06Z</time>
      </trkpt>
      <trkpt lat="46.59947" lon="0.58157">
        <ele>92.2</ele>
        <time>2024-02-11T10:59:11Z</time>
      </trkpt>
      <trkpt lat="46.59949" lon="0.58161">
        <ele>92</ele>
        <time>2024-02-11T10:59:12Z</time>
      </trkpt>
      <trkpt lat="46.59955" lon="0.58177">
        <ele>91.8</ele>
        <time>2024-02-11T10:59:15Z</time>
      </trkpt>
      <trkpt lat="46.59961" lon="0.58188">
        <ele>91.2</ele>
        <time>2024-02-11T10:59:17Z</time>
      </trkpt>
      <trkpt lat="46.59964" lon="0.58192">
        <ele>91.2</ele>
        <time>2024-02-11T10:59:18Z</time>
      </trkpt>
      <trkpt lat="46.59975" lon="0.58206">
        <ele>91.2</ele>
        <time>2024-02-11T10:59:22Z</time>
      </trkpt>
      <trkpt lat="46.59977" lon="0.58209">
        <ele>91.2</ele>
        <time>2024-02-11T10:59:23Z</time>
      </trkpt>
      <trkpt lat="46.59987" lon="0.58219">
        <ele>92</ele>
        <time>2024-02-11T10:59:27Z</time>
      </trkpt>
      <trkpt lat="46.59994" lon="0.58226">
        <ele>92.8</ele>
        <time>2024-02-11T10:59:30Z</time>
      </trkpt>
      <trkpt lat="46.60007" lon="0.58235">
        <ele>93.6</ele>
        <time>2024-02-11T10:59:35Z</time>
      </trkpt>
      <trkpt lat="46.60016" lon="0.58239">
        <ele>94</ele>
        <time>2024-02-11T10:59:38Z</time>
      </trkpt>
      <trkpt lat="46.6003" lon="0.58245">
        <ele>94.6</ele>
        <time>2024-02-11T10:59:42Z</time>
      </trkpt>
      <trkpt lat="46.60046" lon="0.58251">
        <ele>95</ele>
        <time>2024-02-11T10:59:46Z</time>
      </trkpt>
      <trkpt lat="46.60052" lon="0.58253">
        <ele>95.2</ele>
        <time>2024-02-11T10:59:48Z</time>
      </trkpt>
      <trkpt lat="46.60079" lon="0.58261">
        <ele>95.8</ele>
        <time>2024-02-11T10:59:55Z</time>
      </trkpt>
      <trkpt lat="46.60083" lon="0.58262">
        <ele>96</ele>
        <time>2024-02-11T10:59:56Z</time>
      </trkpt>
      <trkpt lat="46.60112" lon="0.58267">
        <ele>96.2</ele>
        <time>2024-02-11T11:00:03Z</time>
      </trkpt>
      <trkpt lat="46.60147" lon="0.58272">
        <ele>96.4</ele>
        <time>2024-02-11T11:00:11Z</time>
      </trkpt>
      <trkpt lat="46.60188" lon="0.58279">
        <ele>96.2</ele>
        <time>2024-02-11T11:00:19Z</time>
      </trkpt>
      <trkpt lat="46.60219" lon="0.58286">
        <ele>95.8</ele>
        <time>2024-02-11T11:00:25Z</time>
      </trkpt>
      <trkpt lat="46.60229" lon="0.58293">
        <ele>95.6</ele>
        <time>2024-02-11T11:00:27Z</time>
      </trkpt>
      <trkpt lat="46.60237" lon="0.58304">
        <ele>95.6</ele>
        <time>2024-02-11T11:00:29Z</time>
      </trkpt>
      <trkpt lat="46.60248" lon="0.58322">
        <ele>95.4</ele>
        <time>2024-02-11T11:00:32Z</time>
      </trkpt>
      <trkpt lat="46.60254" lon="0.58333">
        <ele>94.8</ele>
        <time>2024-02-11T11:00:34Z</time>
      </trkpt>
      <trkpt lat="46.60268" lon="0.58356">
        <ele>94</ele>
        <time>2024-02-11T11:00:38Z</time>
      </trkpt>
      <trkpt lat="46.60271" lon="0.58362">
        <ele>93.8</ele>
        <time>2024-02-11T11:00:39Z</time>
      </trkpt>
      <trkpt lat="46.60275" lon="0.58369">
        <ele>93.6</ele>
        <time>2024-02-11T11:00:40Z</time>
      </trkpt>
      <trkpt lat="46.60297" lon="0.58411">
        <ele>92.6</ele>
        <time>2024-02-11T11:00:46Z</time>
      </trkpt>
      <trkpt lat="46.60304" lon="0.58426">
        <ele>91.6</ele>
        <time>2024-02-11T11:00:48Z</time>
      </trkpt>
      <trkpt lat="46.60308" lon="0.58434">
        <ele>91.4</ele>
        <time>2024-02-11T11:00:49Z</time>
      </trkpt>
      <trkpt lat="46.60317" lon="0.58451">
        <ele>90.2</ele>
        <time>2024-02-11T11:00:51Z</time>
      </trkpt>
      <trkpt lat="46.60327" lon="0.58471">
        <ele>88.2</ele>
        <time>2024-02-11T11:00:53Z</time>
      </trkpt>
      <trkpt lat="46.60331" lon="0.58482">
        <ele>87.6</ele>
        <time>2024-02-11T11:00:54Z</time>
      </trkpt>
      <trkpt lat="46.60336" lon="0.58491">
        <ele>86.8</ele>
        <time>2024-02-11T11:00:55Z</time>
      </trkpt>
      <trkpt lat="46.6034" lon="0.58499">
        <ele>86.4</ele>
        <time>2024-02-11T11:00:56Z</time>
      </trkpt>
      <trkpt lat="46.60344" lon="0.58506">
        <ele>86</ele>
        <time>2024-02-11T11:00:57Z</time>
      </trkpt>
      <trkpt lat="46.60348" lon="0.5851">
        <ele>86</ele>
        <time>2024-02-11T11:00:58Z</time>
      </trkpt>
      <trkpt lat="46.60353" lon="0.58518">
        <ele>86</ele>
        <time>2024-02-11T11:01:00Z</time>
      </trkpt>
      <trkpt lat="46.60353" lon="0.58525">
        <ele>86.2</ele>
        <time>2024-02-11T11:01:03Z</time>
      </trkpt>
      <trkpt lat="46.60351" lon="0.58531">
        <ele>86.4</ele>
        <time>2024-02-11T11:01:05Z</time>
      </trkpt>
      <trkpt lat="46.60349" lon="0.58539">
        <ele>85.6</ele>
        <time>2024-02-11T11:01:08Z</time>
      </trkpt>
      <trkpt lat="46.60348" lon="0.58542">
        <ele>85.4</ele>
        <time>2024-02-11T11:01:09Z</time>
      </trkpt>
      <trkpt lat="46.60347" lon="0.58549">
        <ele>85.2</ele>
        <time>2024-02-11T11:01:11Z</time>
      </trkpt>
      <trkpt lat="46.60345" lon="0.58563">
        <ele>85</ele>
        <time>2024-02-11T11:01:14Z</time>
      </trkpt>
      <trkpt lat="46.60344" lon="0.58568">
        <ele>85.2</ele>
        <time>2024-02-11T11:01:15Z</time>
      </trkpt>
      <trkpt lat="46.60342" lon="0.58585">
        <ele>84.6</ele>
        <time>2024-02-11T11:01:18Z</time>
      </trkpt>
      <trkpt lat="46.6034" lon="0.58595">
        <ele>84.2</ele>
        <time>2024-02-11T11:01:20Z</time>
      </trkpt>
      <trkpt lat="46.60339" lon="0.586">
        <ele>83.4</ele>
        <time>2024-02-11T11:01:21Z</time>
      </trkpt>
      <trkpt lat="46.60335" lon="0.58619">
        <ele>82.4</ele>
        <time>2024-02-11T11:01:24Z</time>
      </trkpt>
      <trkpt lat="46.60332" lon="0.58642">
        <ele>81.6</ele>
        <time>2024-02-11T11:01:27Z</time>
      </trkpt>
      <trkpt lat="46.60328" lon="0.58659">
        <ele>81.4</ele>
        <time>2024-02-11T11:01:29Z</time>
      </trkpt>
      <trkpt lat="46.60329" lon="0.5867">
        <ele>81.2</ele>
        <time>2024-02-11T11:01:30Z</time>
      </trkpt>
      <trkpt lat="46.60326" lon="0.58683">
        <ele>81</ele>
        <time>2024-02-11T11:01:32Z</time>
      </trkpt>
      <trkpt lat="46.60324" lon="0.58695">
        <ele>81</ele>
        <time>2024-02-11T11:01:34Z</time>
      </trkpt>
      <trkpt lat="46.6033" lon="0.58715">
        <ele>81</ele>
        <time>2024-02-11T11:01:38Z</time>
      </trkpt>
      <trkpt lat="46.6033" lon="0.58741">
        <ele>81.2</ele>
        <time>2024-02-11T11:01:44Z</time>
      </trkpt>
      <trkpt lat="46.60328" lon="0.58758">
        <ele>80</ele>
        <time>2024-02-11T11:01:48Z</time>
      </trkpt>
      <trkpt lat="46.60326" lon="0.58763">
        <ele>79.4</ele>
        <time>2024-02-11T11:01:49Z</time>
      </trkpt>
      <trkpt lat="46.60325" lon="0.58775">
        <ele>78.8</ele>
        <time>2024-02-11T11:01:51Z</time>
      </trkpt>
      <trkpt lat="46.60325" lon="0.58784">
        <ele>79</ele>
        <time>2024-02-11T11:01:52Z</time>
      </trkpt>
      <trkpt lat="46.60326" lon="0.58799">
        <ele>78.6</ele>
        <time>2024-02-11T11:01:54Z</time>
      </trkpt>
      <trkpt lat="46.60327" lon="0.58812">
        <ele>78.4</ele>
        <time>2024-02-11T11:01:56Z</time>
      </trkpt>
      <trkpt lat="46.60328" lon="0.58817">
        <ele>78.2</ele>
        <time>2024-02-11T11:01:57Z</time>
      </trkpt>
      <trkpt lat="46.60322" lon="0.5884">
        <ele>78</ele>
        <time>2024-02-11T11:02:01Z</time>
      </trkpt>
      <trkpt lat="46.60311" lon="0.58848">
        <ele>77.8</ele>
        <time>2024-02-11T11:02:04Z</time>
      </trkpt>
      <trkpt lat="46.60308" lon="0.58849">
        <ele>77.6</ele>
        <time>2024-02-11T11:02:05Z</time>
      </trkpt>
      <trkpt lat="46.603" lon="0.58852">
        <ele>77.2</ele>
        <time>2024-02-11T11:02:07Z</time>
      </trkpt>
      <trkpt lat="46.60297" lon="0.58853">
        <ele>76.6</ele>
        <time>2024-02-11T11:02:08Z</time>
      </trkpt>
      <trkpt lat="46.60293" lon="0.58853">
        <ele>76.4</ele>
        <time>2024-02-11T11:02:09Z</time>
      </trkpt>
      <trkpt lat="46.60286" lon="0.5885">
        <ele>76</ele>
        <time>2024-02-11T11:02:11Z</time>
      </trkpt>
      <trkpt lat="46.60279" lon="0.58844">
        <ele>75.8</ele>
        <time>2024-02-11T11:02:13Z</time>
      </trkpt>
      <trkpt lat="46.60271" lon="0.58841">
        <ele>75.6</ele>
        <time>2024-02-11T11:02:15Z</time>
      </trkpt>
      <trkpt lat="46.60267" lon="0.58839">
        <ele>75.6</ele>
        <time>2024-02-11T11:02:16Z</time>
      </trkpt>
      <trkpt lat="46.60263" lon="0.58837">
        <ele>75.2</ele>
        <time>2024-02-11T11:02:17Z</time>
      </trkpt>
      <trkpt lat="46.60256" lon="0.5883">
        <ele>74</ele>
        <time>2024-02-11T11:02:19Z</time>
      </trkpt>
      <trkpt lat="46.6025" lon="0.58824">
        <ele>73.6</ele>
        <time>2024-02-11T11:02:21Z</time>
      </trkpt>
      <trkpt lat="46.60241" lon="0.5881">
        <ele>73.4</ele>
        <time>2024-02-11T11:02:24Z</time>
      </trkpt>
      <trkpt lat="46.60237" lon="0.58805">
        <ele>73.2</ele>
        <time>2024-02-11T11:02:25Z</time>
      </trkpt>
      <trkpt lat="46.60232" lon="0.58802">
        <ele>72.8</ele>
        <time>2024-02-11T11:02:26Z</time>
      </trkpt>
      <trkpt lat="46.60223" lon="0.58796">
        <ele>71.6</ele>
        <time>2024-02-11T11:02:28Z</time>
      </trkpt>
      <trkpt lat="46.60218" lon="0.58794">
        <ele>71.4</ele>
        <time>2024-02-11T11:02:29Z</time>
      </trkpt>
      <trkpt lat="46.60194" lon="0.58792">
        <ele>70.6</ele>
        <time>2024-02-11T11:02:33Z</time>
      </trkpt>
      <trkpt lat="46.60189" lon="0.58793">
        <ele>70</ele>
        <time>2024-02-11T11:02:34Z</time>
      </trkpt>
      <trkpt lat="46.60183" lon="0.58794">
        <ele>69.4</ele>
        <time>2024-02-11T11:02:35Z</time>
      </trkpt>
      <trkpt lat="46.60177" lon="0.58796">
        <ele>68.4</ele>
        <time>2024-02-11T11:02:36Z</time>
      </trkpt>
      <trkpt lat="46.60172" lon="0.588">
        <ele>67.8</ele>
        <time>2024-02-11T11:02:37Z</time>
      </trkpt>
      <trkpt lat="46.60165" lon="0.58803">
        <ele>67.4</ele>
        <time>2024-02-11T11:02:38Z</time>
      </trkpt>
      <trkpt lat="46.60158" lon="0.58806">
        <ele>67.2</ele>
        <time>2024-02-11T11:02:39Z</time>
      </trkpt>
      <trkpt lat="46.60134" lon="0.58817">
        <ele>67</ele>
        <time>2024-02-11T11:02:43Z</time>
      </trkpt>
      <trkpt lat="46.60125" lon="0.58823">
        <ele>67</ele>
        <time>2024-02-11T11:02:45Z</time>
      </trkpt>
      <trkpt lat="46.60107" lon="0.58832">
        <ele>66.8</ele>
        <time>2024-02-11T11:02:49Z</time>
      </trkpt>
      <trkpt lat="46.60104" lon="0.58836">
        <ele>65.8</ele>
        <time>2024-02-11T11:02:50Z</time>
      </trkpt>
      <trkpt lat="46.60102" lon="0.58838">
        <ele>65.4</ele>
        <time>2024-02-11T11:02:51Z</time>
      </trkpt>
      <trkpt lat="46.60093" lon="0.58845">
        <ele>64.8</ele>
        <time>2024-02-11T11:02:54Z</time>
      </trkpt>
      <trkpt lat="46.6008" lon="0.58854">
        <ele>64.6</ele>
        <time>2024-02-11T11:02:57Z</time>
      </trkpt>
      <trkpt lat="46.60071" lon="0.58865">
        <ele>64.2</ele>
        <time>2024-02-11T11:02:59Z</time>
      </trkpt>
      <trkpt lat="46.60051" lon="0.58885">
        <ele>63.8</ele>
        <time>2024-02-11T11:03:03Z</time>
      </trkpt>
      <trkpt lat="46.60047" lon="0.5889">
        <ele>63.8</ele>
        <time>2024-02-11T11:03:04Z</time>
      </trkpt>
      <trkpt lat="46.60039" lon="0.58897">
        <ele>63.8</ele>
        <time>2024-02-11T11:03:06Z</time>
      </trkpt>
      <trkpt lat="46.60034" lon="0.58904">
        <ele>64</ele>
        <time>2024-02-11T11:03:08Z</time>
      </trkpt>
      <trkpt lat="46.60018" lon="0.58929">
        <ele>64.6</ele>
        <time>2024-02-11T11:03:14Z</time>
      </trkpt>
      <trkpt lat="46.60007" lon="0.58958">
        <ele>64.6</ele>
        <time>2024-02-11T11:03:19Z</time>
      </trkpt>
      <trkpt lat="46.60005" lon="0.58964">
        <ele>64.4</ele>
        <time>2024-02-11T11:03:20Z</time>
      </trkpt>
      <trkpt lat="46.60007" lon="0.58976">
        <ele>64</ele>
        <time>2024-02-11T11:03:22Z</time>
      </trkpt>
      <trkpt lat="46.60007" lon="0.5898">
        <ele>64</ele>
        <time>2024-02-11T11:03:23Z</time>
      </trkpt>
      <trkpt lat="46.60011" lon="0.59003">
        <ele>63.4</ele>
        <time>2024-02-11T11:03:28Z</time>
      </trkpt>
      <trkpt lat="46.60015" lon="0.59014">
        <ele>63.2</ele>
        <time>2024-02-11T11:03:30Z</time>
      </trkpt>
      <trkpt lat="46.60018" lon="0.59019">
        <ele>63</ele>
        <time>2024-02-11T11:03:31Z</time>
      </trkpt>
      <trkpt lat="46.6002" lon="0.59023">
        <ele>62.8</ele>
        <time>2024-02-11T11:03:32Z</time>
      </trkpt>
      <trkpt lat="46.60022" lon="0.59027">
        <ele>62.6</ele>
        <time>2024-02-11T11:03:33Z</time>
      </trkpt>
      <trkpt lat="46.60028" lon="0.59044">
        <ele>62</ele>
        <time>2024-02-11T11:03:36Z</time>
      </trkpt>
      <trkpt lat="46.60031" lon="0.59051">
        <ele>61.8</ele>
        <time>2024-02-11T11:03:37Z</time>
      </trkpt>
      <trkpt lat="46.60035" lon="0.59058">
        <ele>61.4</ele>
        <time>2024-02-11T11:03:38Z</time>
      </trkpt>
      <trkpt lat="46.60047" lon="0.59079">
        <ele>60.6</ele>
        <time>2024-02-11T11:03:41Z</time>
      </trkpt>
      <trkpt lat="46.60053" lon="0.59088">
        <ele>60</ele>
        <time>2024-02-11T11:03:43Z</time>
      </trkpt>
      <trkpt lat="46.60069" lon="0.59117">
        <ele>59.6</ele>
        <time>2024-02-11T11:03:47Z</time>
      </trkpt>
      <trkpt lat="46.60074" lon="0.59124">
        <ele>59.4</ele>
        <time>2024-02-11T11:03:48Z</time>
      </trkpt>
      <trkpt lat="46.60101" lon="0.59161">
        <ele>59.6</ele>
        <time>2024-02-11T11:03:54Z</time>
      </trkpt>
      <trkpt lat="46.6011" lon="0.59174">
        <ele>59.6</ele>
        <time>2024-02-11T11:03:56Z</time>
      </trkpt>
      <trkpt lat="46.60119" lon="0.59187">
        <ele>59.6</ele>
        <time>2024-02-11T11:03:58Z</time>
      </trkpt>
      <trkpt lat="46.60127" lon="0.59196">
        <ele>59.6</ele>
        <time>2024-02-11T11:04:00Z</time>
      </trkpt>
      <trkpt lat="46.60137" lon="0.59213">
        <ele>59.2</ele>
        <time>2024-02-11T11:04:03Z</time>
      </trkpt>
      <trkpt lat="46.60155" lon="0.59239">
        <ele>58.4</ele>
        <time>2024-02-11T11:04:07Z</time>
      </trkpt>
      <trkpt lat="46.6016" lon="0.59246">
        <ele>58.2</ele>
        <time>2024-02-11T11:04:08Z</time>
      </trkpt>
      <trkpt lat="46.60168" lon="0.59259">
        <ele>58</ele>
        <time>2024-02-11T11:04:10Z</time>
      </trkpt>
      <trkpt lat="46.60175" lon="0.59275">
        <ele>57.8</ele>
        <time>2024-02-11T11:04:13Z</time>
      </trkpt>
      <trkpt lat="46.60185" lon="0.59305">
        <ele>57.8</ele>
        <time>2024-02-11T11:04:18Z</time>
      </trkpt>
      <trkpt lat="46.60188" lon="0.59314">
        <ele>57.8</ele>
        <time>2024-02-11T11:04:20Z</time>
      </trkpt>
      <trkpt lat="46.60192" lon="0.59322">
        <ele>58</ele>
        <time>2024-02-11T11:04:22Z</time>
      </trkpt>
      <trkpt lat="46.60193" lon="0.59326">
        <ele>58</ele>
        <time>2024-02-11T11:04:23Z</time>
      </trkpt>
      <trkpt lat="46.60194" lon="0.59337">
        <ele>57.4</ele>
        <time>2024-02-11T11:04:25Z</time>
      </trkpt>
      <trkpt lat="46.60196" lon="0.59351">
        <ele>57</ele>
        <time>2024-02-11T11:04:27Z</time>
      </trkpt>
      <trkpt lat="46.60207" lon="0.59392">
        <ele>57</ele>
        <time>2024-02-11T11:04:33Z</time>
      </trkpt>
      <trkpt lat="46.6021" lon="0.59401">
        <ele>57</ele>
        <time>2024-02-11T11:04:34Z</time>
      </trkpt>
      <trkpt lat="46.60225" lon="0.59437">
        <ele>57.2</ele>
        <time>2024-02-11T11:04:38Z</time>
      </trkpt>
      <trkpt lat="46.60245" lon="0.5949">
        <ele>56.6</ele>
        <time>2024-02-11T11:04:44Z</time>
      </trkpt>
      <trkpt lat="46.60247" lon="0.59499">
        <ele>56.2</ele>
        <time>2024-02-11T11:04:45Z</time>
      </trkpt>
      <trkpt lat="46.6026" lon="0.59537">
        <ele>55.2</ele>
        <time>2024-02-11T11:04:49Z</time>
      </trkpt>
      <trkpt lat="46.60281" lon="0.59581">
        <ele>54.2</ele>
        <time>2024-02-11T11:04:53Z</time>
      </trkpt>
      <trkpt lat="46.60295" lon="0.59612">
        <ele>54</ele>
        <time>2024-02-11T11:04:56Z</time>
      </trkpt>
      <trkpt lat="46.60307" lon="0.59638">
        <ele>53</ele>
        <time>2024-02-11T11:04:59Z</time>
      </trkpt>
      <trkpt lat="46.60313" lon="0.59654">
        <ele>52.6</ele>
        <time>2024-02-11T11:05:01Z</time>
      </trkpt>
      <trkpt lat="46.60327" lon="0.59676">
        <ele>52.2</ele>
        <time>2024-02-11T11:05:05Z</time>
      </trkpt>
      <trkpt lat="46.60334" lon="0.59676">
        <ele>52.2</ele>
        <time>2024-02-11T11:05:07Z</time>
      </trkpt>
      <trkpt lat="46.60338" lon="0.59676">
        <ele>52.2</ele>
        <time>2024-02-11T11:05:08Z</time>
      </trkpt>
      <trkpt lat="46.60353" lon="0.59671">
        <ele>52</ele>
        <time>2024-02-11T11:05:13Z</time>
      </trkpt>
      <trkpt lat="46.60365" lon="0.59669">
        <ele>52.2</ele>
        <time>2024-02-11T11:05:17Z</time>
      </trkpt>
      <trkpt lat="46.60367" lon="0.5967">
        <ele>52.2</ele>
        <time>2024-02-11T11:05:18Z</time>
      </trkpt>
      <trkpt lat="46.60379" lon="0.59685">
        <ele>52</ele>
        <time>2024-02-11T11:05:23Z</time>
      </trkpt>
      <trkpt lat="46.60385" lon="0.59692">
        <ele>51.8</ele>
        <time>2024-02-11T11:05:25Z</time>
      </trkpt>
      <trkpt lat="46.60397" lon="0.59711">
        <ele>51.4</ele>
        <time>2024-02-11T11:05:30Z</time>
      </trkpt>
      <trkpt lat="46.60409" lon="0.59738">
        <ele>51.2</ele>
        <time>2024-02-11T11:05:36Z</time>
      </trkpt>
      <trkpt lat="46.60412" lon="0.59748">
        <ele>51</ele>
        <time>2024-02-11T11:05:38Z</time>
      </trkpt>
      <trkpt lat="46.60419" lon="0.59762">
        <ele>50.4</ele>
        <time>2024-02-11T11:05:41Z</time>
      </trkpt>
      <trkpt lat="46.60433" lon="0.5977">
        <ele>50</ele>
        <time>2024-02-11T11:05:45Z</time>
      </trkpt>
      <trkpt lat="46.60437" lon="0.59771">
        <ele>50</ele>
        <time>2024-02-11T11:05:46Z</time>
      </trkpt>
      <trkpt lat="46.60445" lon="0.59772">
        <ele>49.8</ele>
        <time>2024-02-11T11:05:48Z</time>
      </trkpt>
      <trkpt lat="46.60449" lon="0.59772">
        <ele>49.8</ele>
        <time>2024-02-11T11:05:49Z</time>
      </trkpt>
      <trkpt lat="46.60455" lon="0.59771">
        <ele>50</ele>
        <time>2024-02-11T11:05:51Z</time>
      </trkpt>
      <trkpt lat="46.60459" lon="0.59769">
        <ele>50</ele>
        <time>2024-02-11T11:05:52Z</time>
      </trkpt>
      <trkpt lat="46.60475" lon="0.59761">
        <ele>49.6</ele>
        <time>2024-02-11T11:05:58Z</time>
      </trkpt>
      <trkpt lat="46.60488" lon="0.59755">
        <ele>49.4</ele>
        <time>2024-02-11T11:06:04Z</time>
      </trkpt>
      <trkpt lat="46.60489" lon="0.59755">
        <ele>49.4</ele>
        <time>2024-02-11T11:06:05Z</time>
      </trkpt>
    </trkseg>
  </trk>
</gpx>